# Wetter Temperatur Luftdruck Luftfeuchtigkeit Sichtweite Windgeschwindigkeit Windrichtung Zeit
1 Clouds 30 1006 51 10000 3.6 40 07:19 11.07.2020
2 Clouds 29 1006 51 10000 3.6 40 06:46 11.07.2020
3 Clouds 29 1007 51 10000 2.6 60 06:18 11.07.2020
4 Clouds 28 1007 51 10000 2.6 60 05:20 11.07.2020
5 Clouds 28 1007 51 10000 1.5 70 04:53 11.07.2020
6 Haze 28 1006 51 1000 3.1 40 04:31 11.07.2020
7 Haze 26 1006 61 8000 4.07 68 02:57 11.07.2020
8 Haze 26 1006 61 8000 4.07 66 02:35 11.07.2020
9 Clouds 25 1006 61 10000 1.5 50 01:27 11.07.2020
10 Haze 24 1005 64 8000 2.1 40 00:58 11.07.2020
11 Haze 24 1005 64 8000 2.1 40 00:38 11.07.2020
12 Haze 23 1005 69 6000 2.6 30 00:19 11.07.2020
13 Haze 23 1005 69 6000 2.6 30 23:46 10.07.2020
14 Haze 23 1005 69 6000 2.6 30 23:27 10.07.2020
15 Haze 23 1004 69 9000 1.5 40 22:59 10.07.2020
16 Haze 23 1004 69 9000 1.5 40 22:41 10.07.2020
17 Haze 23 1004 69 9000 1.5 40 22:19 10.07.2020
18 Haze 23 1004 69 6000 2.99 35 21:40 10.07.2020
19 Haze 23 1004 69 6000 1.32 7 21:20 10.07.2020
20 Haze 23 1003 69 8000 2.1 30 20:57 10.07.2020
21 Haze 23 1003 69 8000 2.1 30 20:38 10.07.2020
22 Haze 23 1003 69 8000 2.1 30 20:38 10.07.2020
23 Haze 23 1003 69 8000 2.1 30 20:19 10.07.2020
24 Haze 23 1003 78 6000 1.01 21 19:56 10.07.2020
25 Haze 23 1003 78 6000 1.01 21 19:56 10.07.2020
26 Haze 23 1003 78 3200 1.01 21 19:38 10.07.2020
27 Haze 22 1003 73 4800 0.74 355 19:18 10.07.2020
28 Haze 22 1003 73 4800 0.74 355 18:41 10.07.2020
29 Haze 23 1002 73 9000 0.99 39 18:19 10.07.2020
30 Haze 23 1002 73 9000 0.99 39 17:55 10.07.2020
31 Haze 23 1002 73 9000 0.99 39 17:37 10.07.2020
32 Haze 23 1002 73 9000 0.99 39 17:37 10.07.2020
33 Clouds 23 1002 69 10000 1.5 10 17:18 10.07.2020
34 Clouds 23 1002 69 10000 1.5 10 16:41 10.07.2020
35 Clouds 23 1002 69 10000 1.5 10 16:20 10.07.2020
36 Clear 23 1002 69 10000 1.1 52 15:44 10.07.2020
37 Clear 23 1002 69 10000 1.93 62 15:22 10.07.2020
38 Clear 24 1001 69 10000 2.1 30 14:55 10.07.2020
39 Clear 24 1001 69 10000 2.1 30 14:55 10.07.2020
40 Clear 24 1001 69 10000 2.1 30 14:37 10.07.2020
41 Clear 24 1001 69 10000 2.1 30 14:18 10.07.2020
42 Clear 25 1001 65 10000 2.35 63 13:56 10.07.2020
43 Clear 25 1001 65 10000 2.35 63 13:37 10.07.2020
44 Clouds 26 1001 61 10000 2.6 30 13:19 10.07.2020
45 Clouds 25 1001 61 10000 2.6 30 12:43 10.07.2020
46 Clouds 26 1001 61 10000 2.1 30 12:24 10.07.2020
47 Clouds 27 1001 61 10000 2.1 30 11:59 10.07.2020
48 Clouds 27 1001 61 10000 2.1 30 11:38 10.07.2020
49 Clouds 27 1000 61 10000 2.1 60 11:19 10.07.2020
50 Clouds 28 1000 61 10000 2.1 60 10:54 10.07.2020
51 Clouds 27 1001 65 10000 3.6 30 10:36 10.07.2020
52 Clouds 27 1001 65 10000 3.6 30 10:18 10.07.2020
53 Clouds 26 1001 65 10000 3.6 30 09:37 10.07.2020
54 Clouds 26 1001 65 10000 3.6 30 09:19 10.07.2020
55 Clouds 26 1001 69 10000 3.1 30 08:56 10.07.2020
56 Clouds 26 1001 69 10000 3.1 30 08:37 10.07.2020
57 Clouds 26 1001 78 10000 5.7 20 08:19 10.07.2020
58 Clouds 25 1002 88 10000 5.7 10 07:41 10.07.2020
59 Clouds 25 1002 73 10000 2.6 50 07:22 10.07.2020
60 Clouds 25 1002 73 10000 2.6 50 06:49 10.07.2020
61 Clouds 24 1002 78 10000 1.5 20 05:55 10.07.2020
62 Rain 24 1002 73 10000 2.1 30 04:33 10.07.2020
63 Rain 24 1001 69 10000 2.6 50 03:31 10.07.2020
64 Clouds 24 1001 73 10000 2.1 60 02:51 10.07.2020
65 Rain 24 1001 73 10000 4.27 79 01:48 10.07.2020
66 Clouds 25 1002 69 10000 2.1 60 00:47 10.07.2020
67 Clouds 25 1001 69 10000 3.1 50 00:19 10.07.2020
68 Clouds 25 1002 78 10000 3.38 80 23:46 09.07.2020
69 Clouds 25 1002 78 10000 3.62 60 23:21 09.07.2020
70 Clouds 25 1002 78 10000 3.62 60 22:58 09.07.2020
71 Rain 25 1002 69 10000 3.62 60 22:40 09.07.2020
72 Rain 25 1002 69 10000 2.87 72 22:21 09.07.2020
73 Clouds 25 1002 69 10000 2.1 90 21:56 09.07.2020
74 Clouds 25 1002 69 10000 2.1 90 21:38 09.07.2020
75 Clear 25 1002 65 10000 2.8 69 21:18 09.07.2020
76 Clear 26 1002 65 10000 2.8 69 20:43 09.07.2020
77 Clear 26 1002 65 10000 2.81 81 20:25 09.07.2020
78 Clouds 25 1003 61 10000 2.81 81 19:58 09.07.2020
79 Clouds 26 1003 61 10000 2.81 81 19:40 09.07.2020
80 Clouds 26 1003 58 10000 2.82 100 19:20 09.07.2020
81 Clouds 26 1003 58 10000 2.82 100 18:42 09.07.2020
82 Clear 26 1003 58 10000 2.47 120 18:21 09.07.2020
83 Clear 26 1003 58 10000 2.47 120 17:55 09.07.2020
84 Clear 26 1003 58 10000 2.47 120 17:37 09.07.2020
85 Clear 26 1003 58 10000 2.04 132 17:18 09.07.2020
86 Clouds 26 1003 65 10000 2.04 132 16:55 09.07.2020
87 Clouds 26 1003 65 10000 2.04 132 16:36 09.07.2020
88 Clouds 27 1003 58 10000 1.66 108 16:18 09.07.2020
89 Clouds 27 1003 58 10000 1.66 108 15:45 09.07.2020
90 Clouds 27 1003 58 10000 1.1 9 15:27 09.07.2020
91 Clouds 27 1003 65 10000 1.1 9 14:59 09.07.2020
92 Clouds 27 1003 65 10000 1.1 9 14:41 09.07.2020
93 Clouds 27 1003 65 10000 1.1 9 14:41 09.07.2020
94 Clouds 28 1003 65 10000 1.61 317 14:22 09.07.2020
95 Clear 29 1002 58 10000 1.61 317 13:58 09.07.2020
96 Clear 28 1002 58 10000 1.61 317 13:40 09.07.2020
97 Clear 30 1002 55 10000 2.74 297 13:20 09.07.2020
98 Clear 30 1002 55 10000 2.74 297 12:56 09.07.2020
99 Clear 31 1002 55 10000 2.74 297 12:38 09.07.2020
100 Clouds 31 1002 38 10000 2.61 273 12:19 09.07.2020
101 Clouds 31 1002 38 10000 2.61 273 11:43 09.07.2020
102 Clouds 31 1002 38 10000 2.25 270 11:24 09.07.2020
103 Clear 32 1001 38 10000 3.1 220 10:58 09.07.2020
104 Clear 32 1001 38 10000 3.1 220 10:58 09.07.2020
105 Clear 32 1001 38 10000 3.1 220 10:40 09.07.2020
106 Clear 32 1001 38 10000 3.1 220 10:40 09.07.2020
107 Clear 32 1001 38 10000 3.1 220 10:22 09.07.2020
108 Clouds 32 1001 36 10000 2.1 160 09:44 09.07.2020
109 Clouds 32 1001 36 10000 2.1 160 09:24 09.07.2020
110 Clear 33 1002 36 10000 1.5 100 08:56 09.07.2020
111 Clear 33 1002 36 10000 1.5 100 08:37 09.07.2020
112 Clouds 32 1002 38 10000 2.57 216 08:18 09.07.2020
113 Clouds 32 1002 38 10000 2.57 216 07:45 09.07.2020
114 Clouds 32 1003 43 10000 2.29 192 07:21 09.07.2020
115 Clouds 31 1003 43 10000 2.27 171 06:21 09.07.2020
116 Clear 30 1003 51 10000 2.27 171 05:57 09.07.2020
117 Clear 29 1004 62 10000 2.1 50 04:29 09.07.2020
118 Haze 27 1004 69 8000 1.3 156 03:24 09.07.2020
119 Haze 24 1004 78 6000 1.66 106 01:58 09.07.2020
120 Haze 24 1004 78 6000 1.61 101 01:21 09.07.2020
121 Haze 22 1004 83 4400 1.61 101 00:41 09.07.2020
122 Mist 21 1004 94 4800 0.6 114 00:23 09.07.2020
123 Mist 21 1004 94 4800 0.6 114 23:44 08.07.2020
124 Mist 21 1004 94 4800 0.41 82 23:25 08.07.2020
125 Mist 21 1004 94 4800 0.41 82 22:56 08.07.2020
126 Mist 21 1004 94 6000 0.41 82 22:38 08.07.2020
127 Mist 21 1004 94 6000 0.41 82 22:38 08.07.2020
128 Mist 21 1004 94 6000 0.17 310 22:20 08.07.2020
129 Mist 21 1004 94 6000 0.17 310 22:20 08.07.2020
130 Mist 21 1004 88 8000 0.17 310 21:56 08.07.2020
131 Mist 21 1004 88 8000 0.17 310 21:37 08.07.2020
132 Haze 22 1004 83 8000 0.42 265 21:19 08.07.2020
133 Haze 22 1004 83 8000 0.55 204 20:41 08.07.2020
134 Haze 22 1004 83 8000 0.76 167 20:23 08.07.2020
135 Mist 21 1004 88 6000 0.76 167 19:56 08.07.2020
136 Mist 21 1004 88 6000 0.76 167 19:37 08.07.2020
137 Mist 21 1004 88 8000 0.68 196 19:19 08.07.2020
138 Mist 22 1004 88 8000 0.68 196 18:42 08.07.2020
139 Mist 22 1004 88 8000 0.37 231 18:21 08.07.2020
140 Haze 22 1004 83 9000 1.5 220 17:57 08.07.2020
141 Haze 22 1004 83 9000 1.5 220 17:39 08.07.2020
142 Haze 22 1004 83 9000 1.5 220 17:20 08.07.2020
143 Clear 23 1004 78 10000 0.29 249 16:58 08.07.2020
144 Clear 23 1004 78 10000 0.29 249 16:38 08.07.2020
145 Clear 23 1004 73 10000 0.57 294 16:19 08.07.2020
146 Clear 23 1004 73 10000 0.57 294 15:58 08.07.2020
147 Clear 23 1004 73 10000 0.57 294 15:38 08.07.2020
148 Clear 23 1004 73 10000 1.14 279 15:19 08.07.2020
149 Clear 23 1004 73 10000 1.14 279 15:19 08.07.2020
150 Clear 24 1004 69 10000 1.14 279 14:42 08.07.2020
151 Clear 24 1004 69 10000 1.14 279 14:42 08.07.2020
152 Clear 24 1004 69 10000 2 262 14:21 08.07.2020
153 Clear 25 1003 65 10000 2 262 13:56 08.07.2020
154 Clear 26 1003 65 10000 2 262 13:37 08.07.2020
155 Clear 27 1003 58 10000 2.62 268 13:18 08.07.2020
156 Clear 28 1003 58 10000 2.62 268 12:40 08.07.2020
157 Clear 28 1003 54 10000 3.63 268 12:20 08.07.2020
158 Clear 29 1003 54 10000 3.63 268 11:39 08.07.2020
159 Clear 29 1002 51 10000 2.6 250 11:21 08.07.2020
160 Clear 30 1002 51 10000 2.6 250 10:59 08.07.2020
161 Clear 30 1002 51 10000 2.6 250 10:41 08.07.2020
162 Clear 30 1002 51 10000 2.6 250 10:23 08.07.2020
163 Clear 30 1003 51 10000 3.27 277 09:45 08.07.2020
164 Clear 30 1003 51 10000 3.79 260 09:25 08.07.2020
165 Haze 30 1003 51 6000 3.79 260 08:44 08.07.2020
166 Haze 30 1003 51 6000 4.23 260 08:25 08.07.2020
167 Haze 29 1003 55 8000 1.5 250 07:50 08.07.2020
168 Haze 29 1003 55 8000 1.5 250 07:25 08.07.2020
169 Haze 29 1004 58 8000 4.21 260 06:58 08.07.2020
170 Haze 29 1004 58 8000 4.21 260 06:39 08.07.2020
171 Haze 29 1004 54 9000 2.1 200 06:20 08.07.2020
172 Haze 29 1004 54 9000 2.1 200 05:44 08.07.2020
173 Clouds 27 1004 61 10000 3.32 265 04:39 08.07.2020
174 Clouds 26 1004 65 10000 2.17 248 03:25 08.07.2020
175 Clouds 24 1005 73 10000 1.36 222 01:57 08.07.2020
176 Clouds 23 1005 73 10000 1.36 222 01:37 08.07.2020
177 Haze 22 1005 83 8000 1.07 208 00:39 08.07.2020
178 Clouds 22 1005 83 10000 0.53 235 00:19 08.07.2020
179 Mist 21 1005 88 9000 0.53 235 23:41 07.07.2020
180 Mist 21 1005 88 9000 0.67 285 23:21 07.07.2020
181 Mist 21 1005 88 9000 0.67 285 22:54 07.07.2020
182 Clouds 21 1004 88 10000 0.67 285 22:36 07.07.2020
183 Clouds 21 1004 88 10000 1.15 282 22:18 07.07.2020
184 Clear 21 1005 88 10000 1.15 282 21:41 07.07.2020
185 Clear 21 1005 88 10000 0.97 265 21:22 07.07.2020
186 Clouds 21 1004 88 10000 0.97 265 20:58 07.07.2020
187 Clouds 21 1004 88 10000 0.97 265 20:40 07.07.2020
188 Clouds 22 1004 78 10000 1.13 258 20:22 07.07.2020
189 Clouds 22 1004 78 10000 1.13 258 19:43 07.07.2020
190 Clouds 22 1005 78 10000 1.27 263 19:22 07.07.2020
191 Clouds 22 1005 78 10000 1.27 263 18:59 07.07.2020
192 Clouds 22 1005 78 10000 1.27 263 18:41 07.07.2020
193 Clouds 22 1005 78 10000 1.38 266 18:23 07.07.2020
194 Clouds 22 1005 78 10000 1.38 266 17:59 07.07.2020
195 Clouds 22 1005 78 10000 1.38 266 17:39 07.07.2020
196 Clouds 22 1005 78 10000 1.75 266 17:21 07.07.2020
197 Clouds 23 1005 73 10000 1.75 266 16:58 07.07.2020
198 Clear 23 1005 78 10000 1.75 266 16:38 07.07.2020
199 Clear 23 1005 78 10000 1.91 271 16:20 07.07.2020
200 Clear 23 1004 73 10000 1.91 271 15:42 07.07.2020
201 Clear 24 1004 73 10000 2.17 287 15:21 07.07.2020
202 Clear 24 1004 73 10000 2.17 287 14:47 07.07.2020
203 Clear 24 1004 73 10000 2.7 270 14:27 07.07.2020
204 Clear 25 1003 73 10000 2.7 270 13:59 07.07.2020
205 Clear 25 1003 73 10000 2.7 270 13:40 07.07.2020
206 Clouds 26 1003 65 10000 1.5 220 13:18 07.07.2020
207 Clouds 26 1003 65 10000 1.5 220 12:41 07.07.2020
208 Clouds 26 1003 58 10000 3.66 276 12:22 07.07.2020
209 Clouds 28 1003 58 10000 3.66 276 11:56 07.07.2020
210 Clouds 28 1003 58 10000 3.66 276 11:38 07.07.2020
211 Clouds 28 1003 58 10000 4.1 281 11:20 07.07.2020
212 Clouds 28 1003 54 10000 2.1 220 10:55 07.07.2020
213 Clouds 28 1003 54 10000 2.1 220 10:37 07.07.2020
214 Clouds 28 1003 58 10000 4.73 278 10:18 07.07.2020
215 Clouds 28 1003 58 10000 4.73 278 09:38 07.07.2020
216 Clouds 28 1003 58 10000 4.45 266 09:20 07.07.2020
217 Clear 27 1003 61 10000 2.1 230 08:42 07.07.2020
218 Clear 27 1003 61 10000 2.1 230 08:23 07.07.2020
219 Clouds 26 1004 65 10000 2.1 310 07:45 07.07.2020
220 Clouds 26 1004 69 10000 2.1 230 07:23 07.07.2020
221 Clouds 26 1004 69 10000 2.1 230 06:49 07.07.2020
222 Clouds 25 1004 69 10000 2.1 230 06:30 07.07.2020
223 Clouds 24 1004 73 10000 3.98 255 05:53 07.07.2020
224 Clouds 24 1004 73 10000 3.56 249 05:22 07.07.2020
225 Clouds 25 1004 69 10000 3.56 249 04:38 07.07.2020
226 Clouds 24 1004 69 10000 2.6 170 03:35 07.07.2020
227 Clouds 24 1004 73 10000 2.71 241 02:21 07.07.2020
228 Clouds 23 1004 78 10000 2.4 234 01:22 07.07.2020
229 Clouds 22 1004 83 10000 2.4 234 00:43 07.07.2020
230 Clouds 22 1004 83 10000 1.91 233 00:24 07.07.2020
231 Clouds 23 1003 73 10000 1.91 233 23:55 06.07.2020
232 Clouds 23 1003 73 10000 1.91 233 23:36 06.07.2020
233 Clouds 23 1002 73 10000 1.82 236 23:18 06.07.2020
234 Clouds 23 1002 73 10000 1.82 236 22:41 06.07.2020
235 Clouds 23 1002 73 10000 1.82 256 22:20 06.07.2020
236 Clouds 23 1002 73 10000 1.82 256 21:57 06.07.2020
237 Clouds 23 1002 73 10000 1.82 256 21:38 06.07.2020
238 Clouds 23 1002 73 10000 1.94 239 21:19 06.07.2020
239 Clouds 23 1002 73 10000 1.94 239 20:57 06.07.2020
240 Clouds 23 1001 73 10000 1.94 239 20:37 06.07.2020
241 Clouds 23 1001 73 10000 1.79 241 20:19 06.07.2020
242 Clouds 23 1002 78 10000 1.79 241 19:56 06.07.2020
243 Clouds 24 1002 78 10000 1.79 241 19:37 06.07.2020
244 Clouds 24 1002 73 10000 2.55 237 19:18 06.07.2020
245 Clouds 24 1002 73 10000 2.86 233 18:41 06.07.2020
246 Clouds 24 1001 65 10000 2.86 233 18:23 06.07.2020
247 Clouds 24 1001 65 10000 2.86 233 17:59 06.07.2020
248 Clouds 24 1001 65 10000 2.86 233 17:40 06.07.2020
249 Clouds 24 1001 65 10000 2.05 230 17:20 06.07.2020
250 Clouds 25 1002 65 10000 2.05 230 16:43 06.07.2020
251 Clouds 25 1002 65 10000 1.91 237 16:24 06.07.2020
252 Clouds 25 1001 61 10000 1.91 237 15:57 06.07.2020
253 Clouds 25 1001 61 10000 1.91 237 15:39 06.07.2020
254 Clouds 25 1001 61 10000 1.73 247 15:21 06.07.2020
255 Clouds 25 1000 61 10000 1.73 247 14:55 06.07.2020
256 Clouds 26 1000 61 10000 2.26 246 14:36 06.07.2020
257 Clouds 26 1000 61 10000 2.43 263 14:18 06.07.2020
258 Clear 26 1000 61 10000 2.1 269 13:43 06.07.2020
259 Clear 26 1000 61 10000 3.13 276 13:24 06.07.2020
260 Clear 27 1000 58 10000 3.13 276 12:45 06.07.2020
261 Clouds 28 999 61 10000 4.43 264 12:20 06.07.2020
262 Clouds 28 999 61 10000 4.43 264 11:59 06.07.2020
263 Clouds 29 999 61 10000 4.43 264 11:41 06.07.2020
264 Clouds 29 999 61 10000 4.79 263 11:23 06.07.2020
265 Clouds 30 999 48 10000 4.79 263 10:59 06.07.2020
266 Clouds 30 999 48 10000 4.79 263 10:40 06.07.2020
267 Clouds 30 999 43 10000 1.5 290 10:19 06.07.2020
268 Clouds 30 999 43 10000 1.5 290 09:46 06.07.2020
269 Clouds 30 999 43 10000 1.5 290 09:22 06.07.2020
270 Clouds 30 999 45 10000 2.1 270 08:59 06.07.2020
271 Clouds 30 999 45 10000 2.1 270 08:40 06.07.2020
272 Clouds 30 999 45 10000 2.1 270 08:21 06.07.2020
273 Clouds 30 999 45 10000 3.52 262 07:48 06.07.2020
274 Clouds 30 999 45 10000 2.38 231 07:29 06.07.2020
275 Clouds 29 1000 48 10000 2.1 160 06:49 06.07.2020
276 Clouds 29 1000 48 10000 2.1 160 06:31 06.07.2020
277 Clouds 28 1001 54 10000 3.1 150 05:44 06.07.2020
278 Clouds 28 1001 54 10000 3.1 150 05:25 06.07.2020
279 Clouds 26 1000 61 10000 1.63 165 03:52 06.07.2020
280 Clear 25 1000 65 10000 2.1 90 02:25 06.07.2020
281 Clouds 24 1001 64 10000 0.87 76 01:44 06.07.2020
282 Clouds 22 1001 69 10000 0.1 288 00:39 06.07.2020
283 Clouds 22 1001 69 10000 0.43 288 00:21 06.07.2020
284 Clouds 22 1001 78 10000 0.43 288 23:44 05.07.2020
285 Clouds 22 1001 78 10000 0.66 282 23:26 05.07.2020
286 Clouds 22 1001 78 10000 0.66 282 22:59 05.07.2020
287 Clouds 22 1001 78 10000 0.66 282 22:40 05.07.2020
288 Clouds 22 1001 78 10000 0.69 296 22:20 05.07.2020
289 Clouds 22 1001 78 10000 0.69 296 22:20 05.07.2020
290 Clouds 22 1001 73 10000 0.69 296 21:58 05.07.2020
291 Clouds 22 1001 73 10000 0.69 296 21:40 05.07.2020
292 Clouds 22 1001 73 10000 1.1 252 21:18 05.07.2020
293 Clouds 22 1001 69 10000 1.1 252 20:58 05.07.2020
294 Clouds 22 1001 69 10000 1.1 252 20:39 05.07.2020
295 Clouds 22 1002 69 10000 1.16 249 20:20 05.07.2020
296 Clouds 22 1002 69 10000 1.16 249 19:43 05.07.2020
297 Clouds 22 1002 69 10000 0.98 239 19:21 05.07.2020
298 Clouds 22 1002 69 10000 0.98 239 18:58 05.07.2020
299 Clouds 22 1002 69 10000 0.98 239 18:58 05.07.2020
300 Clouds 22 1002 69 10000 0.98 239 18:39 05.07.2020
301 Clouds 23 1002 64 10000 1.07 256 18:20 05.07.2020
302 Clouds 22 1002 64 10000 1.07 256 17:54 05.07.2020
303 Clouds 23 1002 64 10000 1.07 256 17:36 05.07.2020
304 Clouds 23 1002 64 10000 1.16 266 17:18 05.07.2020
305 Clouds 23 1002 64 10000 1.16 266 16:41 05.07.2020
306 Clouds 23 1002 64 10000 1.52 268 16:23 05.07.2020
307 Clear 23 1002 64 10000 1.5 300 15:41 05.07.2020
308 Clear 23 1002 64 10000 1.5 300 15:20 05.07.2020
309 Clear 23 1002 60 10000 2.07 267 14:59 05.07.2020
310 Clear 24 1002 60 10000 2.07 267 14:40 05.07.2020
311 Clear 24 1002 60 10000 2.43 265 14:20 05.07.2020
312 Clear 24 1002 60 10000 2.54 267 14:20 05.07.2020
313 Clear 24 1002 60 10000 2.43 265 14:20 05.07.2020
314 Clear 25 1001 57 10000 2.43 265 13:41 05.07.2020
315 Clear 25 1001 57 10000 3.19 260 13:23 05.07.2020
316 Clear 25 1001 57 10000 3.19 260 12:46 05.07.2020
317 Clear 26 1001 57 10000 3.49 259 12:26 05.07.2020
318 Clouds 27 1001 54 10000 1.5 250 11:58 05.07.2020
319 Clouds 27 1001 54 10000 1.5 250 11:39 05.07.2020
320 Clouds 27 1001 54 10000 1.5 250 11:21 05.07.2020
321 Clouds 27 1002 51 10000 1.5 250 10:57 05.07.2020
322 Clouds 28 1002 51 10000 1.5 250 10:38 05.07.2020
323 Clouds 28 1002 51 10000 1.5 250 10:19 05.07.2020
324 Clouds 28 1002 51 10000 3.8 243 09:42 05.07.2020
325 Clouds 28 1002 51 10000 3.8 243 09:42 05.07.2020
326 Clouds 28 1002 51 10000 3.68 249 09:21 05.07.2020
327 Clouds 28 1003 54 10000 2.1 170 08:58 05.07.2020
328 Clouds 28 1003 54 10000 2.1 170 08:38 05.07.2020
329 Clouds 28 1003 54 10000 2.1 170 08:20 05.07.2020
330 Clouds 27 1003 51 10000 3.72 250 07:44 05.07.2020
331 Clouds 27 1004 57 10000 3.32 255 07:26 05.07.2020
332 Clouds 26 1004 57 10000 3.32 255 06:49 05.07.2020
333 Clouds 25 1005 65 10000 2.6 280 04:42 05.07.2020
334 Clear 24 1005 64 10000 2.6 230 03:19 05.07.2020
335 Clouds 22 1006 69 10000 2.27 215 02:41 05.07.2020
336 Clouds 21 1006 77 10000 1.14 207 01:59 05.07.2020
337 Clouds 21 1006 77 10000 1.14 207 01:31 05.07.2020
338 Clouds 20 1006 77 10000 1.57 227 00:53 05.07.2020
339 Clear 20 1006 77 10000 1.39 219 00:31 05.07.2020
340 Clouds 20 1006 77 10000 1.39 219 23:58 04.07.2020
341 Clear 20 1006 82 10000 1.39 219 23:40 04.07.2020
342 Clear 19 1006 88 10000 1.68 212 23:22 04.07.2020
343 Clear 19 1006 88 10000 1.68 212 22:43 04.07.2020
344 Clear 18 1006 88 10000 1.55 213 22:25 04.07.2020
345 Clear 19 1006 82 10000 1.55 213 21:58 04.07.2020
346 Clear 20 1006 82 10000 1.55 213 21:40 04.07.2020
347 Clear 20 1006 82 10000 2.11 219 21:22 04.07.2020
348 Clear 20 1006 77 10000 2.23 219 20:43 04.07.2020
349 Clear 21 1006 77 10000 2.24 218 20:22 04.07.2020
350 Clear 21 1006 73 10000 2.24 218 20:00 04.07.2020
351 Clear 21 1006 73 10000 2.24 218 19:41 04.07.2020
352 Clear 21 1006 73 10000 1.65 225 19:21 04.07.2020
353 Clear 21 1006 73 10000 1.65 225 18:46 04.07.2020
354 Clouds 22 1006 64 10000 1.41 230 18:24 04.07.2020
355 Clouds 22 1006 64 10000 1.41 230 17:56 04.07.2020
356 Clouds 22 1006 64 10000 1.41 230 17:38 04.07.2020
357 Clouds 22 1006 64 10000 1.41 235 17:19 04.07.2020
358 Clear 22 1006 60 10000 1.41 235 16:56 04.07.2020
359 Clear 22 1006 60 10000 1.41 235 16:36 04.07.2020
360 Clear 22 1006 60 10000 1.41 235 16:36 04.07.2020
361 Clouds 22 1006 60 10000 1.31 252 16:18 04.07.2020
362 Clouds 22 1006 60 10000 1.31 252 15:41 04.07.2020
363 Clouds 22 1006 60 10000 2.35 257 15:21 04.07.2020
364 Clouds 23 1006 60 10000 2.35 257 14:57 04.07.2020
365 Clouds 23 1006 60 10000 2.35 257 14:37 04.07.2020
366 Clouds 23 1006 60 10000 2.67 265 14:18 04.07.2020
367 Clouds 24 1005 60 10000 1.5 240 13:41 04.07.2020
368 Clouds 25 1005 57 10000 3.13 261 13:19 04.07.2020
369 Clouds 25 1005 57 10000 3.13 261 12:56 04.07.2020
370 Clouds 25 1005 57 10000 3.13 261 12:38 04.07.2020
371 Clear 26 1005 57 10000 4.19 256 12:18 04.07.2020
372 Clear 26 1005 57 10000 4.19 256 11:43 04.07.2020
373 Clear 26 1005 57 10000 4.08 260 11:23 04.07.2020
374 Clouds 27 1005 54 10000 4.08 260 10:55 04.07.2020
375 Clouds 28 1005 54 10000 4.08 260 10:36 04.07.2020
376 Clouds 28 1005 54 10000 4.39 265 10:18 04.07.2020
377 Clouds 28 1005 54 10000 4.39 265 10:18 04.07.2020
378 Clear 28 1005 45 10000 5.04 265 09:40 04.07.2020
379 Clear 28 1005 45 10000 5.09 271 09:21 04.07.2020
380 Clouds 28 1005 42 10000 1.5 220 08:57 04.07.2020
381 Clouds 28 1005 42 10000 1.5 220 08:39 04.07.2020
382 Clouds 28 1005 42 10000 1.5 220 08:19 04.07.2020
383 Clouds 28 1005 42 10000 2.6 130 07:39 04.07.2020
384 Clouds 28 1006 39 10000 2.74 261 06:59 04.07.2020
385 Clouds 28 1006 39 10000 2.74 261 06:37 04.07.2020
386 Clear 27 1006 42 10000 1.5 270 06:18 04.07.2020
387 Clear 27 1006 42 10000 1.5 270 05:24 04.07.2020
388 Clouds 25 1007 50 10000 0.68 178 03:49 04.07.2020
389 Clear 23 1008 57 10000 2.1 130 02:40 04.07.2020
390 Clouds 22 1008 68 10000 0.53 15 01:40 04.07.2020
391 Mist 21 1007 88 8000 1.01 350 00:48 04.07.2020
392 Mist 21 1007 88 8000 1.28 342 00:30 04.07.2020
393 Mist 21 1007 94 6000 1.28 342 23:57 03.07.2020
394 Rain 21 1008 94 4800 1.28 342 23:38 03.07.2020
395 Mist 21 1007 94 6000 1.4 343 23:18 03.07.2020
396 Mist 21 1007 94 6000 1.4 343 22:41 03.07.2020
397 Mist 20 1007 94 6000 1.7 340 22:23 03.07.2020
398 Mist 20 1007 94 6000 1.7 340 21:56 03.07.2020
399 Mist 20 1007 94 6000 1.7 340 21:37 03.07.2020
400 Mist 20 1007 94 6000 1.64 330 21:37 03.07.2020
401 Mist 20 1007 94 6000 1.51 333 21:19 03.07.2020
402 Rain 20 1008 94 6000 1.64 330 20:42 03.07.2020
403 Rain 20 1008 94 6000 1.51 313 20:24 03.07.2020
404 Rain 21 1008 88 6000 1.51 313 19:42 03.07.2020
405 Rain 21 1008 88 6000 0.72 299 19:22 03.07.2020
406 Rain 21 1008 88 6000 0.72 299 18:59 03.07.2020
407 Rain 20 1008 94 4800 0.72 299 18:41 03.07.2020
408 Rain 22 1009 78 8000 0.63 202 18:22 03.07.2020
409 Rain 22 1009 78 8000 0.63 202 17:46 03.07.2020
410 Rain 22 1009 78 8000 1.05 195 17:23 03.07.2020
411 Rain 22 1009 78 10000 1.05 195 16:59 03.07.2020
412 Rain 22 1009 73 10000 1.05 195 16:39 03.07.2020
413 Rain 22 1009 73 10000 1.05 195 16:39 03.07.2020
414 Rain 22 1009 73 10000 1.81 207 16:20 03.07.2020
415 Rain 23 1009 53 10000 2.1 280 15:42 03.07.2020
416 Clouds 24 1009 50 10000 2.39 223 15:22 03.07.2020
417 Rain 23 1009 53 10000 2.1 280 15:22 03.07.2020
418 Clouds 24 1009 50 10000 2.39 223 14:55 03.07.2020
419 Clouds 25 1009 50 10000 2.39 223 14:36 03.07.2020
420 Clouds 25 1009 50 10000 2.69 227 14:18 03.07.2020
421 Clouds 25 1009 44 10000 2.24 238 13:41 03.07.2020
422 Clouds 25 1009 44 10000 3.68 240 13:22 03.07.2020
423 Clouds 26 1008 42 10000 2.6 180 12:44 03.07.2020
424 Clouds 27 1008 39 10000 1.5 150 12:23 03.07.2020
425 Clouds 28 1008 39 10000 1.5 150 11:56 03.07.2020
426 Clouds 28 1008 39 10000 1.5 150 11:38 03.07.2020
427 Clouds 28 1008 39 10000 1.5 150 11:19 03.07.2020
428 Clouds 28 1008 37 10000 3.1 160 10:42 03.07.2020
429 Clouds 28 1008 37 10000 3.1 160 10:21 03.07.2020
430 Clouds 29 1008 37 10000 3.1 180 09:59 03.07.2020
431 Clouds 30 1008 37 10000 3.1 180 09:39 03.07.2020
432 Clouds 30 1008 37 10000 3.1 180 09:21 03.07.2020
433 Clouds 30 1008 35 10000 3.6 160 08:57 03.07.2020
434 Clouds 30 1008 35 10000 3.6 160 08:38 03.07.2020
435 Clouds 30 1008 35 10000 3.6 160 08:18 03.07.2020
436 Clouds 30 1009 37 10000 5.1 160 07:43 03.07.2020
437 Clouds 30 1009 40 10000 3.6 170 07:21 03.07.2020
438 Clouds 30 1009 40 10000 3.6 170 06:30 03.07.2020
439 Clouds 30 1009 51 10000 2.1 80 05:43 03.07.2020
440 Clear 28 1011 61 10000 2.3 83 03:59 03.07.2020
441 Clouds 27 1011 65 10000 1.5 40 02:55 03.07.2020
442 Clouds 26 1011 65 10000 1.5 40 02:31 03.07.2020
443 Clear 25 1012 69 10000 1.5 30 01:41 03.07.2020
444 Clear 25 1012 69 10000 1.5 30 01:41 03.07.2020
445 Clear 24 1012 78 10000 1.5 80 01:20 03.07.2020
446 Clear 24 1012 78 10000 1.5 80 01:20 03.07.2020
447 Clear 22 1012 78 10000 1.5 80 00:41 03.07.2020
448 Clouds 21 1012 83 10000 1.27 81 23:56 02.07.2020
449 Clouds 21 1012 83 10000 1.27 81 23:37 02.07.2020
450 Clouds 21 1012 83 10000 1.19 71 23:18 02.07.2020
451 Clouds 21 1012 83 10000 1.19 71 22:54 02.07.2020
452 Clouds 21 1012 83 10000 1.19 71 22:36 02.07.2020
453 Mist 21 1012 94 8000 1.08 83 22:18 02.07.2020
454 Mist 21 1012 94 8000 1.08 83 21:42 02.07.2020
455 Mist 21 1012 94 8000 0.35 103 21:19 02.07.2020
456 Mist 21 1012 88 8000 0.35 103 20:58 02.07.2020
457 Mist 21 1012 88 8000 0.35 103 20:39 02.07.2020
458 Mist 21 1012 88 8000 0.41 78 20:19 02.07.2020
459 Clouds 22 1012 88 10000 0.41 78 19:43 02.07.2020
460 Clouds 22 1012 78 10000 0.55 334 19:24 02.07.2020
461 Clouds 22 1012 78 10000 0.55 334 18:59 02.07.2020
462 Clouds 22 1012 78 10000 0.55 334 18:40 02.07.2020
463 Clouds 22 1012 78 10000 0.9 295 18:21 02.07.2020
464 Haze 22 1012 83 9000 0.9 295 17:57 02.07.2020
465 Haze 23 1012 83 9000 0.9 295 17:38 02.07.2020
466 Clouds 23 1013 78 10000 0.98 262 17:18 02.07.2020
467 Clouds 23 1013 78 10000 0.98 262 16:42 02.07.2020
468 Clouds 23 1013 78 10000 1.21 272 16:21 02.07.2020
469 Clear 23 1012 73 10000 1.21 272 15:58 02.07.2020
470 Clear 24 1012 73 10000 1.22 281 15:38 02.07.2020
471 Clear 24 1012 73 10000 1.22 281 15:20 02.07.2020
472 Clouds 24 1012 65 10000 1.22 281 14:45 02.07.2020
473 Clear 25 1011 65 10000 1.36 300 14:23 02.07.2020
474 Clear 25 1011 65 10000 1.36 300 13:57 02.07.2020
475 Clear 26 1011 65 10000 1.36 300 13:38 02.07.2020
476 Clouds 26 1009 61 10000 2.5 276 13:19 02.07.2020
477 Clouds 28 1009 61 10000 2.5 276 12:42 02.07.2020
478 Clouds 28 1009 61 10000 3.13 270 12:22 02.07.2020
479 Clear 28 1009 58 10000 3.13 270 11:59 02.07.2020
480 Clear 28 1009 58 10000 3.13 270 11:40 02.07.2020
481 Clear 28 1009 58 10000 4.04 261 11:22 02.07.2020
482 Clouds 29 1009 48 10000 4.04 261 10:44 02.07.2020
483 Clear 29 1009 51 10000 4.31 253 10:26 02.07.2020
484 Clear 29 1009 51 10000 4.31 253 09:56 02.07.2020
485 Clear 29 1009 51 10000 4.63 252 09:37 02.07.2020
486 Clear 29 1009 51 10000 4.28 249 09:18 02.07.2020
487 Clear 29 1009 51 10000 4.28 249 08:42 02.07.2020
488 Clear 29 1009 51 10000 3.73 243 08:22 02.07.2020
489 Clouds 28 1010 58 10000 3.73 243 07:43 02.07.2020
490 Clouds 28 1010 58 10000 2.88 229 07:25 02.07.2020
491 Clouds 27 1010 65 10000 2.88 229 06:53 02.07.2020
492 Clouds 27 1010 65 10000 2.88 229 06:35 02.07.2020
493 Clouds 26 1011 65 10000 1.5 110 05:50 02.07.2020
494 Clouds 25 1011 65 10000 1.5 110 05:29 02.07.2020
495 Clouds 23 1011 73 10000 1.2 172 03:35 02.07.2020
496 Clouds 22 1011 78 10000 1.65 129 01:53 02.07.2020
497 Clouds 21 1010 83 10000 1.5 110 00:46 02.07.2020
498 Clouds 21 1009 83 10000 1.1 109 00:22 02.07.2020
499 Clouds 21 1009 83 10000 1.1 109 23:45 01.07.2020
500 Clouds 21 1009 83 10000 0.83 107 23:26 01.07.2020
501 Clouds 20 1009 83 10000 0.83 107 22:55 01.07.2020
502 Clouds 20 1009 83 10000 0.83 107 22:37 01.07.2020
503 Clouds 20 1009 83 10000 0.84 125 22:19 01.07.2020
504 Clouds 20 1009 83 10000 0.84 125 21:58 01.07.2020
505 Clouds 20 1009 83 10000 0.84 125 21:39 01.07.2020
506 Clouds 20 1009 83 10000 1.04 138 21:20 01.07.2020
507 Haze 20 1009 83 9000 1.04 138 20:46 01.07.2020
508 Mist 19 1008 93 6000 1.07 165 20:28 01.07.2020
509 Mist 19 1008 93 6000 1.07 165 19:58 01.07.2020
510 Mist 19 1008 93 8000 1.07 165 19:39 01.07.2020
511 Mist 19 1008 93 9000 1.26 183 19:20 01.07.2020
512 Mist 19 1008 93 9000 1.26 183 18:56 01.07.2020
513 Mist 19 1008 93 9000 1.26 183 18:38 01.07.2020
514 Clear 19 1008 93 10000 1.4 198 18:20 01.07.2020
515 Clear 19 1008 93 10000 1.4 198 17:41 01.07.2020
516 Clear 19 1008 93 10000 0.91 185 17:20 01.07.2020
517 Clear 21 1008 83 10000 0.91 185 16:56 01.07.2020
518 Clear 21 1008 83 10000 0.91 185 16:38 01.07.2020
519 Clear 21 1008 83 10000 1.16 160 16:20 01.07.2020
520 Clear 21 1007 78 10000 1.16 160 15:41 01.07.2020
521 Clear 21 1007 78 10000 1.58 201 15:22 01.07.2020
522 Haze 22 1007 83 9000 1.58 201 14:56 01.07.2020
523 Haze 22 1007 83 9000 1.58 201 14:37 01.07.2020
524 Haze 22 1007 83 9000 2.22 207 14:19 01.07.2020
525 Haze 23 1006 73 9000 2.1 180 13:40 01.07.2020
526 Haze 23 1006 73 8000 1.5 170 13:22 01.07.2020
527 Haze 23 1006 73 8000 1.5 170 12:59 01.07.2020
528 Clouds 24 1005 69 10000 2.1 190 12:40 01.07.2020
529 Clouds 24 1005 69 10000 2.91 221 12:22 01.07.2020
530 Clouds 24 1005 69 10000 2.91 221 11:57 01.07.2020
531 Clouds 24 1005 64 10000 2.6 180 11:38 01.07.2020
532 Clouds 24 1005 64 10000 2.6 180 11:19 01.07.2020
533 Clouds 24 1005 64 10000 3.26 225 10:43 01.07.2020
534 Clouds 24 1005 64 10000 2.88 218 10:23 01.07.2020
535 Clouds 24 1004 64 10000 2.88 218 09:59 01.07.2020
536 Clouds 24 1004 64 10000 2.88 218 09:59 01.07.2020
537 Clouds 24 1004 64 10000 2.88 218 09:38 01.07.2020
538 Clouds 24 1004 64 10000 3.17 228 09:19 01.07.2020
539 Clouds 24 1004 64 10000 3.17 228 08:55 01.07.2020
540 Clouds 24 1004 64 10000 3.17 228 08:37 01.07.2020
541 Clouds 23 1004 64 10000 3.36 234 08:18 01.07.2020
542 Clouds 23 1004 64 10000 3.36 234 07:39 01.07.2020
543 Clouds 23 1004 64 10000 3.67 239 07:20 01.07.2020
544 Clouds 23 1004 64 10000 3.67 239 06:50 01.07.2020
545 Clouds 23 1004 64 10000 3.66 244 06:28 01.07.2020
546 Clouds 22 1004 78 10000 2.6 280 05:23 01.07.2020
547 Clouds 22 1003 78 10000 1.5 220 03:48 01.07.2020
548 Clouds 21 1003 78 10000 1.5 220 03:27 01.07.2020
549 Clouds 20 1004 83 10000 0.5 190 02:41 01.07.2020
550 Clouds 19 1003 88 10000 0.5 140 01:48 01.07.2020
551 Clouds 18 1003 93 10000 0.5 260 00:43 01.07.2020
552 Clouds 18 1003 93 10000 0.5 260 00:25 01.07.2020
553 Rain 17 1002 100 10000 0.5 290 23:42 30.06.2020
554 Rain 18 1002 100 10000 0.5 290 23:22 30.06.2020
555 Rain 18 1002 100 10000 1.5 310 22:58 30.06.2020
556 Rain 18 1002 100 10000 1.5 310 22:39 30.06.2020
557 Rain 18 1002 100 10000 1.5 310 22:18 30.06.2020
558 Rain 18 1001 100 10000 1 300 21:41 30.06.2020
559 Rain 18 1001 100 10000 1 300 21:19 30.06.2020
560 Clouds 18 1001 100 10000 2.1 350 20:44 30.06.2020
561 Clouds 18 1001 100 10000 2.1 350 20:22 30.06.2020
562 Rain 19 1001 93 10000 2.1 340 20:00 30.06.2020
563 Rain 18 1001 93 10000 2.1 340 19:41 30.06.2020
564 Rain 18 1001 93 10000 0.5 20 19:19 30.06.2020
565 Rain 18 1001 93 10000 0.5 20 18:43 30.06.2020
566 Rain 19 1001 93 10000 0.5 20 18:21 30.06.2020
567 Clouds 18 1001 100 10000 1 320 17:58 30.06.2020
568 Clouds 18 1001 100 10000 1 320 17:37 30.06.2020
569 Clouds 18 1001 100 10000 1 320 17:18 30.06.2020
570 Clouds 18 1000 100 10000 1 350 16:41 30.06.2020
571 Clouds 18 1000 100 10000 1 350 16:23 30.06.2020
572 Rain 18 1000 100 10000 1.5 320 15:57 30.06.2020
573 Rain 19 1000 100 10000 1.5 320 15:39 30.06.2020
574 Rain 19 1000 100 10000 1.5 320 15:20 30.06.2020
575 Rain 19 999 100 10000 2.1 20 14:47 30.06.2020
576 Rain 19 999 100 10000 2.1 20 14:47 30.06.2020
577 Rain 19 999 100 10000 2.1 20 14:22 30.06.2020
578 Rain 20 999 93 10000 7.2 20 13:59 30.06.2020
579 Rain 20 999 93 10000 7.2 20 13:39 30.06.2020
580 Rain 20 998 88 10000 6.2 350 13:19 30.06.2020
581 Rain 21 998 88 10000 6.2 350 12:57 30.06.2020
582 Rain 21 998 88 10000 6.2 350 12:39 30.06.2020
583 Rain 21 997 83 10000 7.2 350 12:20 30.06.2020
584 Rain 21 997 83 10000 7.2 350 11:57 30.06.2020
585 Rain 22 997 83 10000 7.2 350 11:38 30.06.2020
586 Rain 22 997 83 10000 7.2 350 11:18 30.06.2020
587 Clouds 23 995 68 10000 9.3 360 10:54 30.06.2020
588 Clouds 23 1006 94 10000 1 340 16:38 28.06.2020
589 Clouds 23 1006 94 10000 1 340 16:18 28.06.2020
590 Clouds 23 1006 83 10000 0.5 230 15:54 28.06.2020
591 Clouds 23 1006 83 10000 0.5 230 15:36 28.06.2020
592 Clear 24 1006 83 10000 0.5 230 15:18 28.06.2020
593 Clear 24 1005 73 10000 1 300 14:41 28.06.2020
594 Clear 25 1005 73 10000 1 300 14:23 28.06.2020
595 Clear 25 1004 78 10000 2.1 300 13:40 28.06.2020
596 Clear 25 1004 78 10000 2.1 300 13:21 28.06.2020
597 Clear 27 1004 74 10000 3.6 290 12:58 28.06.2020
598 Clear 28 1004 74 10000 3.6 290 12:38 28.06.2020
599 Clear 28 1004 74 10000 3.6 290 12:38 28.06.2020
600 Clear 28 1004 74 10000 3.6 290 12:19 28.06.2020
601 Clear 28 1003 69 10000 4.1 280 11:59 28.06.2020
602 Clear 29 1003 69 10000 4.1 280 11:40 28.06.2020
603 Clear 29 1003 69 10000 4.1 280 11:20 28.06.2020
604 Clear 29 1004 65 10000 4.6 260 10:57 28.06.2020
605 Clear 29 1004 65 10000 4.6 260 10:39 28.06.2020
606 Clear 30 1004 65 10000 4.6 260 10:21 28.06.2020
607 Clouds 30 1004 62 10000 5.1 280 09:40 28.06.2020
608 Clouds 30 1004 62 10000 5.1 280 09:21 28.06.2020
609 Clouds 30 1004 58 10000 4.1 300 08:51 28.06.2020
610 Clouds 30 1004 58 10000 4.1 300 08:32 28.06.2020
611 Clouds 30 1004 58 10000 3.6 300 07:53 28.06.2020
612 Clouds 30 1004 58 10000 3.6 300 07:30 28.06.2020
613 Clouds 29 1004 58 10000 4.1 300 06:45 28.06.2020
614 Clouds 29 1004 58 10000 4.1 300 06:26 28.06.2020
615 Clouds 28 1004 61 10000 1.5 330 05:27 28.06.2020
616 Clouds 26 1005 69 10000 2.6 330 03:45 28.06.2020
617 Clouds 25 1005 73 7000 3.1 330 02:47 28.06.2020
618 Clouds 23 1005 88 7000 2.6 320 01:56 28.06.2020
619 Clouds 22 1005 88 7000 2.6 320 01:27 28.06.2020
620 Clouds 22 1005 94 7000 3.1 310 00:48 28.06.2020
621 Clouds 22 1005 94 7000 3.1 310 00:26 28.06.2020
622 Clouds 21 1004 100 6000 1.5 290 23:42 27.06.2020
623 Clouds 21 1004 100 6000 1.5 290 23:24 27.06.2020
624 Mist 21 1004 100 4800 1.5 310 22:58 27.06.2020
625 Mist 21 1004 100 4800 1.5 310 22:40 27.06.2020
626 Mist 21 1004 100 4800 1.5 310 22:20 27.06.2020
627 Mist 21 1004 100 4500 2.1 280 21:55 27.06.2020
628 Mist 21 1004 100 4500 2.1 280 21:55 27.06.2020
629 Mist 21 1004 100 4500 2.1 280 21:37 27.06.2020
630 Mist 21 1004 100 4500 2.1 280 21:18 27.06.2020
631 Clouds 21 1004 100 6000 1.5 270 20:42 27.06.2020
632 Clouds 21 1004 100 6000 1.5 270 20:19 27.06.2020
633 Clouds 21 1004 94 8000 2.1 300 19:55 27.06.2020
634 Clouds 20 1004 94 8000 2.1 300 19:36 27.06.2020
635 Clouds 20 1004 94 8000 2.1 270 19:18 27.06.2020
636 Clouds 20 1004 94 8000 2.1 270 18:43 27.06.2020
637 Clouds 22 1004 94 8000 2.1 270 18:22 27.06.2020
638 Clouds 22 1005 88 10000 1.5 270 17:55 27.06.2020
639 Clouds 22 1005 88 10000 1.5 270 17:37 27.06.2020
640 Clouds 22 1005 88 10000 1.5 270 17:19 27.06.2020
641 Clouds 23 1005 94 10000 1.5 320 16:43 27.06.2020
642 Clouds 23 1005 94 10000 1.5 320 16:24 27.06.2020
643 Clouds 23 1005 88 10000 2.1 280 15:54 27.06.2020
644 Clouds 23 1005 88 10000 2.1 280 15:36 27.06.2020
645 Clouds 23 1005 88 10000 2.1 280 15:18 27.06.2020
646 Clouds 23 1004 94 10000 1 320 14:41 27.06.2020
647 Clouds 24 1004 94 10000 1 320 14:22 27.06.2020
648 Clear 25 1004 88 10000 3.1 280 13:57 27.06.2020
649 Clear 25 1004 88 10000 3.1 280 13:37 27.06.2020
650 Clear 25 1004 88 10000 3.1 280 13:19 27.06.2020
651 Clear 26 1004 78 10000 3.6 270 12:56 27.06.2020
652 Clear 27 1004 78 10000 3.6 270 12:37 27.06.2020
653 Clear 27 1004 78 10000 3.6 270 12:19 27.06.2020
654 Clear 27 1003 69 10000 4.6 280 11:41 27.06.2020
655 Clouds 27 1003 69 10000 4.6 280 11:23 27.06.2020
656 Clouds 28 1003 61 10000 5.7 290 10:55 27.06.2020
657 Clouds 29 1003 61 10000 5.7 290 10:37 27.06.2020
658 Clear 29 1003 61 10000 5.7 290 10:18 27.06.2020
659 Clear 29 1004 58 10000 5.1 270 09:40 27.06.2020
660 Clouds 29 1004 58 10000 5.1 270 09:21 27.06.2020
661 Clouds 30 1004 54 10000 3.6 280 08:44 27.06.2020
662 Clouds 29 1004 54 10000 3.6 280 08:23 27.06.2020
663 Clouds 29 1004 51 10000 1.5 250 07:48 27.06.2020
664 Clouds 29 1004 51 10000 1.5 250 07:27 27.06.2020
665 Clouds 28 1005 61 10000 5.1 290 06:53 27.06.2020
666 Clouds 27 1005 61 10000 5.1 290 06:33 27.06.2020
667 Clouds 26 1006 65 10000 2.1 180 04:55 27.06.2020
668 Clouds 25 1006 65 10000 2.1 180 04:18 27.06.2020
669 Clouds 24 1006 65 10000 2.1 210 03:51 27.06.2020
670 Clouds 22 1006 69 10000 1.5 90 02:43 27.06.2020
671 Clouds 22 1006 69 10000 1.5 90 02:24 27.06.2020
672 Clouds 21 1006 83 10000 0.5 60 01:34 27.06.2020
673 Clouds 21 1006 88 10000 0.5 310 00:47 27.06.2020
674 Clouds 20 1006 94 10000 1.5 320 23:48 26.06.2020
675 Clouds 20 1006 94 10000 1.5 320 23:29 26.06.2020
676 Clouds 20 1006 94 10000 0.5 60 22:59 26.06.2020
677 Clouds 20 1006 94 10000 0.5 60 22:41 26.06.2020
678 Clouds 20 1006 94 10000 0.5 60 22:23 26.06.2020
679 Clouds 20 1006 94 10000 0.5 310 21:58 26.06.2020
680 Clouds 20 1006 94 10000 0.5 310 21:58 26.06.2020
681 Clouds 20 1006 94 10000 0.5 310 21:39 26.06.2020
682 Clouds 20 1006 94 10000 0.5 310 21:21 26.06.2020
683 Clouds 20 1007 94 10000 1 350 20:58 26.06.2020
684 Clouds 20 1007 94 10000 1 350 20:37 26.06.2020
685 Clouds 20 1007 94 10000 1 350 20:18 26.06.2020
686 Clouds 20 1007 94 10000 0.5 290 19:40 26.06.2020
687 Clouds 21 1007 94 10000 0.5 290 19:19 26.06.2020
688 Clouds 21 1008 88 10000 1 200 18:41 26.06.2020
689 Clouds 21 1008 88 10000 1 200 18:23 26.06.2020
690 Clouds 21 1008 94 10000 1 170 17:45 26.06.2020
691 Clouds 21 1008 94 10000 1 170 17:45 26.06.2020
692 Clouds 21 1008 94 10000 1 170 17:27 26.06.2020
693 Clouds 21 1008 88 10000 3.1 160 16:59 26.06.2020
694 Clouds 22 1008 88 10000 3.1 160 16:41 26.06.2020
695 Clouds 22 1008 88 10000 3.1 160 16:21 26.06.2020
696 Clouds 22 1007 88 10000 1 200 15:41 26.06.2020
697 Clouds 22 1007 88 10000 1 200 15:21 26.06.2020
698 Clouds 22 1007 88 10000 3.1 240 14:58 26.06.2020
699 Clouds 22 1007 88 10000 3.1 240 14:38 26.06.2020
700 Clouds 22 1007 88 10000 3.1 240 14:20 26.06.2020
701 Clouds 23 1007 83 10000 3.1 240 13:44 26.06.2020
702 Clouds 23 1007 83 10000 3.1 240 13:23 26.06.2020
703 Clouds 23 1007 83 10000 3.1 240 13:23 26.06.2020
704 Clouds 24 1007 83 10000 4.1 250 12:56 26.06.2020
705 Clouds 24 1007 83 10000 4.1 250 12:38 26.06.2020
706 Clouds 24 1007 83 10000 4.1 250 12:19 26.06.2020
707 Clouds 24 1006 83 10000 4.6 250 11:56 26.06.2020
708 Clouds 24 1006 83 10000 4.6 250 11:56 26.06.2020
709 Clouds 25 1006 83 10000 4.6 250 11:37 26.06.2020
710 Clouds 25 1006 83 10000 4.6 250 11:18 26.06.2020
711 Clouds 26 1006 78 10000 5.1 230 10:55 26.06.2020
712 Clouds 25 1006 78 10000 5.1 230 10:37 26.06.2020
713 Clouds 25 1006 78 10000 5.1 230 10:18 26.06.2020
714 Clouds 26 1006 73 10000 5.1 220 09:41 26.06.2020
715 Clouds 26 1006 73 10000 5.1 220 09:19 26.06.2020
716 Clouds 26 1006 69 10000 5.7 250 08:45 26.06.2020
717 Clouds 26 1006 69 10000 5.7 250 08:27 26.06.2020
718 Clouds 26 1006 61 10000 6.2 270 07:48 26.06.2020
719 Clouds 26 1006 61 10000 6.2 270 07:23 26.06.2020
720 Clouds 25 1007 73 10000 4.6 260 06:49 26.06.2020
721 Clouds 25 1007 73 10000 4.6 260 06:30 26.06.2020
722 Clouds 24 1007 73 10000 4.6 230 05:52 26.06.2020
723 Clouds 24 1007 73 10000 4.6 230 05:18 26.06.2020
724 Mist 20 1006 94 5000 4.1 230 02:32 26.06.2020
725 Mist 20 1006 94 3800 4.6 230 01:34 26.06.2020
726 Clouds 20 1005 94 10000 4.6 240 00:46 26.06.2020
727 Clouds 20 1005 94 10000 4.6 240 00:27 26.06.2020
728 Clouds 21 1005 94 10000 2.6 240 23:47 25.06.2020
729 Clouds 20 1005 94 10000 2.6 240 23:22 25.06.2020
730 Clouds 20 1004 94 10000 4.1 250 22:58 25.06.2020
731 Clouds 20 1004 94 10000 4.1 250 22:39 25.06.2020
732 Clouds 20 1004 94 10000 4.1 250 22:20 25.06.2020
733 Drizzle 20 1004 100 6000 4.1 240 21:57 25.06.2020
734 Drizzle 20 1004 100 6000 4.1 240 21:39 25.06.2020
735 Drizzle 20 1004 100 6000 4.1 240 21:20 25.06.2020
736 Drizzle 20 1004 100 6000 3.6 240 20:56 25.06.2020
737 Drizzle 20 1004 100 6000 3.6 240 20:37 25.06.2020
738 Drizzle 20 1004 100 6000 3.6 240 20:19 25.06.2020
739 Mist 20 1003 100 4800 4.1 230 19:41 25.06.2020
740 Drizzle 20 1003 100 4800 4.1 220 19:20 25.06.2020
741 Mist 20 1003 100 4800 4.1 220 18:59 25.06.2020
742 Drizzle 20 1003 100 4800 4.1 220 18:39 25.06.2020
743 Drizzle 20 1003 100 4800 4.1 220 18:19 25.06.2020
744 Drizzle 20 1003 100 4800 4.6 210 17:44 25.06.2020
745 Drizzle 20 1003 100 4800 4.6 210 17:20 25.06.2020
746 Drizzle 20 1003 100 4500 3.1 200 16:58 25.06.2020
747 Drizzle 21 1003 100 4500 3.1 200 16:37 25.06.2020
748 Drizzle 21 1003 100 4500 3.1 200 16:19 25.06.2020
749 Drizzle 21 1003 100 4500 3.1 200 16:19 25.06.2020
750 Drizzle 21 1002 100 4000 3.6 190 15:41 25.06.2020
751 Drizzle 21 1002 100 4000 3.6 190 15:22 25.06.2020
752 Rain 21 1002 100 3200 3.6 200 14:45 25.06.2020
753 Rain 21 1002 100 3200 3.6 200 14:25 25.06.2020
754 Clouds 22 1001 94 8000 3.6 190 13:59 25.06.2020
755 Clouds 22 1001 94 8000 3.6 190 13:41 25.06.2020
756 Clouds 22 1001 94 8000 3.6 190 13:19 25.06.2020
757 Drizzle 22 1001 94 6000 3.1 190 12:46 25.06.2020
758 Drizzle 22 1001 94 6000 3.1 190 12:21 25.06.2020
759 Clouds 23 1001 88 10000 3.1 190 11:59 25.06.2020
760 Clouds 23 1001 88 10000 3.1 190 11:40 25.06.2020
761 Clouds 23 1001 88 10000 3.1 190 11:21 25.06.2020
762 Clouds 24 1001 83 10000 3.1 180 10:43 25.06.2020
763 Clouds 23 1001 83 10000 3.1 180 10:25 25.06.2020
764 Clouds 23 1001 83 10000 3.1 200 09:42 25.06.2020
765 Clouds 23 1001 83 10000 3.1 200 09:23 25.06.2020
766 Clouds 24 1001 83 10000 3.6 210 08:59 25.06.2020
767 Clouds 23 1001 83 10000 3.6 210 08:40 25.06.2020
768 Clouds 23 1001 83 10000 3.6 210 08:18 25.06.2020
769 Clouds 23 1001 83 10000 4.6 200 07:42 25.06.2020
770 Clouds 23 1001 83 10000 3.6 190 07:24 25.06.2020
771 Clouds 23 1001 83 10000 3.6 190 06:37 25.06.2020
772 Clouds 22 1001 88 10000 3.6 190 06:18 25.06.2020
773 Clouds 22 1001 88 10000 3.6 190 05:31 25.06.2020
774 Drizzle 22 1001 94 8000 3.1 200 03:39 25.06.2020
775 Mist 22 1002 94 3200 2.1 180 02:46 25.06.2020
776 Drizzle 22 1001 100 4500 3.6 150 02:25 25.06.2020
777 Drizzle 21 1001 100 2500 3.6 170 01:41 25.06.2020
778 Mist 21 1001 100 4500 2.6 140 00:50 25.06.2020
779 Mist 21 1001 100 4500 2.6 140 00:22 25.06.2020
780 Rain 21 1001 100 3500 3.1 140 23:58 24.06.2020
781 Rain 21 1001 100 3500 3.1 140 23:38 24.06.2020
782 Rain 21 1001 100 3500 3.1 140 23:19 24.06.2020
783 Rain 21 1000 100 3500 1.5 130 22:42 24.06.2020
784 Rain 21 1000 100 3500 1.5 130 22:21 24.06.2020
785 Rain 21 1000 100 2800 2.6 220 21:57 24.06.2020
786 Mist 20 1000 100 2800 2.6 220 21:37 24.06.2020
787 Rain 20 1000 100 2800 2.6 220 21:19 24.06.2020
788 Rain 20 1000 100 2600 2.1 220 20:58 24.06.2020
789 Rain 20 1000 100 2600 2.1 220 20:39 24.06.2020
790 Rain 20 1000 100 2600 2.1 220 20:21 24.06.2020
791 Rain 20 1000 100 2600 1.5 160 19:57 24.06.2020
792 Rain 20 1000 100 2600 1.5 160 19:38 24.06.2020
793 Rain 20 1000 100 2600 1.5 160 19:20 24.06.2020
794 Rain 20 1000 100 2600 2.6 140 18:58 24.06.2020
795 Rain 20 1000 100 2600 2.6 140 18:39 24.06.2020
796 Rain 20 1000 100 2600 2.6 140 18:20 24.06.2020
797 Rain 20 1000 100 1800 0.5 90 17:55 24.06.2020
798 Rain 20 1000 100 1800 0.5 90 17:36 24.06.2020
799 Rain 20 1000 100 1800 0.5 90 17:18 24.06.2020
800 Mist 20 1000 100 2800 1.5 130 16:55 24.06.2020
801 Rain 20 1000 100 4000 2.1 180 16:36 24.06.2020
802 Rain 20 1000 100 4000 2.1 180 16:18 24.06.2020
803 Rain 21 1000 100 4000 3.1 150 15:39 24.06.2020
804 Rain 21 1000 100 4000 3.1 150 15:20 24.06.2020
805 Rain 20 1000 100 3500 3.1 140 14:59 24.06.2020
806 Rain 20 1000 100 3500 3.1 140 14:40 24.06.2020
807 Rain 20 1000 100 3500 3.1 140 14:21 24.06.2020
808 Rain 21 1001 94 4000 3.1 200 13:42 24.06.2020
809 Rain 21 1000 100 2800 4.6 130 13:21 24.06.2020
810 Rain 20 1000 100 2800 4.6 130 12:44 24.06.2020
811 Rain 21 1000 100 2800 4.6 130 12:21 24.06.2020
812 Rain 21 1000 100 2800 4.6 130 11:58 24.06.2020
813 Mist 21 1000 100 2800 4.6 130 11:39 24.06.2020
814 Rain 21 1000 100 2800 4.6 130 11:21 24.06.2020
815 Rain 21 1000 94 3200 4.6 120 10:45 24.06.2020
816 Rain 21 1000 94 3200 4.6 120 10:19 24.06.2020
817 Rain 21 1002 94 4000 3.1 170 09:46 24.06.2020
818 Rain 21 1001 94 6000 5.7 130 09:26 24.06.2020
819 Rain 21 1001 94 10000 6.2 110 08:59 24.06.2020
820 Rain 21 1001 94 10000 6.2 110 08:40 24.06.2020
821 Rain 21 1001 94 10000 6.2 110 08:18 24.06.2020
822 Rain 21 1002 94 7000 6.2 110 07:46 24.06.2020
823 Rain 21 1002 94 7000 6.2 110 07:25 24.06.2020
824 Rain 20 1002 94 10000 7.2 110 06:45 24.06.2020
825 Rain 20 1002 94 10000 7.2 110 06:24 24.06.2020
826 Rain 21 1003 100 3200 7.7 110 05:39 24.06.2020
827 Rain 22 1004 94 4200 5.7 120 04:38 24.06.2020
828 Rain 23 1005 88 7000 5.1 140 03:38 24.06.2020
829 Rain 24 1004 73 10000 5.1 140 02:55 24.06.2020
830 Rain 24 1004 73 10000 5.1 140 02:23 24.06.2020
831 Clouds 25 1004 57 10000 6.2 120 00:52 24.06.2020
832 Clouds 25 1004 57 10000 6.2 120 00:33 24.06.2020
833 Clouds 25 1004 69 10000 4.1 130 23:49 23.06.2020
834 Clouds 25 1004 69 10000 4.1 130 23:22 23.06.2020
835 Rain 25 1004 83 8000 1 200 22:59 23.06.2020
836 Rain 23 1004 83 8000 1 200 22:41 23.06.2020
837 Rain 25 1004 83 8000 1 200 22:18 23.06.2020
838 Clouds 25 1005 83 10000 0.5 70 21:54 23.06.2020
839 Clouds 24 1005 83 10000 0.5 70 21:36 23.06.2020
840 Clouds 24 1005 83 10000 0.5 70 21:18 23.06.2020
841 Clouds 25 1005 78 10000 1 260 20:54 23.06.2020
842 Clouds 25 1005 78 10000 1 260 20:36 23.06.2020
843 Clouds 25 1005 78 10000 1.5 360 20:18 23.06.2020
844 Clouds 25 1005 78 10000 1.5 360 19:41 23.06.2020
845 Clouds 25 1005 73 10000 0.5 10 19:23 23.06.2020
846 Clouds 25 1005 73 10000 0.5 10 18:38 23.06.2020
847 Clouds 25 1006 78 10000 1.5 320 18:19 23.06.2020
848 Clouds 25 1006 78 10000 1.5 320 17:42 23.06.2020
849 Clouds 25 1006 78 10000 1.5 320 17:24 23.06.2020
850 Clouds 25 1007 73 10000 2.1 340 16:57 23.06.2020
851 Clouds 25 1007 73 10000 2.1 340 16:38 23.06.2020
852 Clouds 25 1007 73 10000 2.1 340 16:38 23.06.2020
853 Clouds 25 1007 73 10000 2.1 340 16:20 23.06.2020
854 Clouds 25 1007 69 10000 2.6 320 15:57 23.06.2020
855 Clouds 26 1007 69 10000 2.6 320 15:39 23.06.2020
856 Clouds 26 1007 69 10000 2.6 320 15:18 23.06.2020
857 Clouds 26 1007 60 10000 1.5 320 14:43 23.06.2020
858 Clouds 26 1007 57 10000 2.1 300 14:19 23.06.2020
859 Clouds 26 1007 57 10000 2.1 300 13:56 23.06.2020
860 Clouds 26 1007 57 10000 2.1 300 13:38 23.06.2020
861 Clouds 27 1008 61 10000 2.6 300 13:20 23.06.2020
862 Clouds 28 1008 61 10000 2.6 300 12:42 23.06.2020
863 Clouds 28 1008 61 10000 2.6 300 12:22 23.06.2020
864 Clouds 28 1008 54 10000 3.6 280 11:58 23.06.2020
865 Clouds 29 1008 54 10000 3.6 280 11:40 23.06.2020
866 Clouds 29 1008 54 10000 3.6 280 11:19 23.06.2020
867 Clouds 29 1008 54 10000 3.6 300 10:55 23.06.2020
868 Clouds 30 1008 54 10000 3.6 300 10:37 23.06.2020
869 Clouds 30 1008 54 10000 3.6 300 10:19 23.06.2020
870 Clouds 29 1008 51 10000 3.1 280 09:41 23.06.2020
871 Clouds 30 1008 51 10000 3.1 280 09:20 23.06.2020
872 Clouds 31 1008 51 10000 5.1 300 08:57 23.06.2020
873 Clouds 31 1008 51 10000 5.1 300 08:38 23.06.2020
874 Clouds 31 1008 51 10000 5.1 300 08:19 23.06.2020
875 Clouds 31 1008 45 10000 3.1 300 07:39 23.06.2020
876 Clouds 31 1008 48 10000 3.1 270 07:21 23.06.2020
877 Clouds 31 1008 48 10000 3.1 270 06:48 23.06.2020
878 Clouds 31 1008 48 10000 3.1 270 06:30 23.06.2020
879 Clouds 31 1008 51 10000 3.6 290 05:39 23.06.2020
880 Clouds 28 1008 54 10000 2.6 360 03:29 23.06.2020
881 Clouds 27 1008 51 10000 1 200 02:55 23.06.2020
882 Clouds 27 1008 51 10000 1 200 02:36 23.06.2020
883 Clouds 26 1009 61 10000 1.5 190 01:47 23.06.2020
884 Clouds 26 1009 61 10000 1.5 190 01:29 23.06.2020
885 Clouds 24 1009 78 10000 1 340 00:56 23.06.2020
886 Clouds 23 1009 78 10000 1 340 00:24 23.06.2020
887 Clouds 22 1009 83 10000 1 360 23:55 22.06.2020
888 Clouds 22 1009 83 10000 1 360 23:55 22.06.2020
889 Clouds 22 1009 83 10000 1 360 23:37 22.06.2020
890 Clouds 22 1009 83 10000 1 360 23:19 22.06.2020
891 Clouds 22 1009 78 10000 1.5 310 22:55 22.06.2020
892 Clouds 22 1009 78 10000 1.5 310 22:37 22.06.2020
893 Clouds 22 1009 78 10000 1.5 310 22:19 22.06.2020
894 Clouds 22 1009 78 10000 0.5 150 21:54 22.06.2020
895 Clouds 23 1009 78 10000 0.5 150 21:36 22.06.2020
896 Clouds 23 1009 78 10000 0.5 150 21:18 22.06.2020
897 Clouds 22 1009 73 10000 2.6 200 20:41 22.06.2020
898 Clouds 23 1009 73 10000 2.6 200 20:22 22.06.2020
899 Clouds 22 1009 78 10000 3.1 160 19:45 22.06.2020
900 Clouds 24 1009 78 10000 3.1 160 19:20 22.06.2020
901 Clouds 23 1009 88 10000 0.5 240 18:59 22.06.2020
902 Clouds 23 1009 88 10000 0.5 240 18:59 22.06.2020
903 -273 0 0 0 0 0 18:59 22.06.2020
904 Clouds 23 1009 88 10000 0.5 240 18:39 22.06.2020
905 Clouds 24 1008 69 10000 1 340 18:21 22.06.2020
906 Clouds 24 1008 69 10000 1 340 17:56 22.06.2020
907 Clouds 24 1008 69 10000 1 340 17:38 22.06.2020
908 Clouds 24 1008 69 10000 1 340 17:38 22.06.2020
909 Clouds 25 1009 69 10000 0.5 10 17:19 22.06.2020
910 Clouds 24 1008 69 10000 1 340 17:19 22.06.2020
911 Clouds 25 1009 69 10000 0.5 10 16:55 22.06.2020
912 Clouds 25 1009 69 10000 0.5 10 16:37 22.06.2020
913 Clouds 26 1009 64 10000 0.5 170 16:18 22.06.2020
914 Clouds 26 1009 64 10000 0.5 170 15:42 22.06.2020
915 Clouds 27 1008 65 10000 1.5 260 15:23 22.06.2020
916 Clouds 27 1008 65 10000 1.5 260 14:54 22.06.2020
917 Clouds 27 1008 65 10000 1.5 260 14:36 22.06.2020
918 Clouds 28 1008 57 10000 2.6 300 14:18 22.06.2020
919 Clouds 29 1008 57 10000 2.6 300 13:39 22.06.2020
920 Clouds 29 1008 57 10000 2.6 300 13:21 22.06.2020
921 Clouds 31 1007 45 10000 3.6 280 12:55 22.06.2020
922 Clouds 31 1007 45 10000 3.6 280 12:37 22.06.2020
923 Clouds 32 1006 40 10000 4.6 280 12:19 22.06.2020
924 Clouds 33 1006 40 10000 4.6 280 11:37 22.06.2020
925 Clear 34 1006 43 10000 5.1 280 11:19 22.06.2020
926 Clear 34 1006 43 10000 5.1 280 10:56 22.06.2020
927 Clear 34 1006 43 10000 5.1 280 10:37 22.06.2020
928 Clear 34 1006 43 10000 5.1 280 10:18 22.06.2020
929 Clear 35 1006 41 10000 5.7 290 09:56 22.06.2020
930 Clear 35 1006 41 10000 5.7 290 09:37 22.06.2020
931 Clear 35 1006 41 10000 4.6 280 09:18 22.06.2020
932 Clear 35 1006 41 10000 4.6 280 08:40 22.06.2020
933 Clear 35 1006 41 10000 4.6 280 08:21 22.06.2020
934 Clear 35 1007 24 10000 2.6 310 07:54 22.06.2020
935 Clear 35 1007 24 10000 2.6 310 07:34 22.06.2020
936 Clouds 34 1007 30 10000 2.6 300 06:56 22.06.2020
937 Clouds 34 1007 30 10000 2.6 300 06:37 22.06.2020
938 Clear 34 1008 38 10000 2.6 320 06:19 22.06.2020
939 Clear 33 1008 38 10000 2.6 320 05:41 22.06.2020
940 Clear 28 1008 61 10000 1.5 360 02:59 22.06.2020
941 Clear 28 1008 61 10000 1.5 360 02:59 22.06.2020
942 Clear 25 1008 69 10000 1 40 01:38 22.06.2020
943 Clear 22 1008 88 10000 2.1 320 00:41 22.06.2020
944 Clear 22 1008 88 10000 2.1 320 00:22 22.06.2020
945 Clear 21 1008 100 8000 1 310 23:55 21.06.2020
946 Clear 20 1008 100 8000 1 310 23:36 21.06.2020
947 Clear 20 1008 100 8000 1 310 23:18 21.06.2020
948 Clear 20 1008 100 8000 1 240 22:54 21.06.2020
949 Clear 20 1008 100 8000 1 240 22:36 21.06.2020
950 Clear 20 1008 100 8000 1 240 22:36 21.06.2020
951 Clear 20 1008 100 8000 1 240 22:36 21.06.2020
952 Clear 20 1008 100 10000 0.5 300 22:18 21.06.2020
953 Clear 20 1008 100 10000 0.5 300 21:42 21.06.2020
954 Clear 20 1008 100 10000 0.5 300 21:22 21.06.2020
955 Clear 21 1008 94 10000 3.1 330 20:59 21.06.2020
956 Clear 21 1008 94 10000 3.1 330 20:38 21.06.2020
957 Clear 21 1007 94 10000 1.5 320 20:19 21.06.2020
958 Clear 21 1007 94 10000 1.5 320 19:57 21.06.2020
959 Clear 21 1007 94 10000 1.5 320 19:38 21.06.2020
960 Clear 21 1007 94 10000 1.5 320 19:20 21.06.2020
961 Clear 21 1007 94 10000 0.5 310 18:55 21.06.2020
962 Clear 21 1007 94 10000 0.5 310 18:37 21.06.2020
963 Clear 22 1007 88 10000 1 340 18:18 21.06.2020
964 Clear 22 1007 88 10000 1 340 17:40 21.06.2020
965 Clear 22 1007 88 10000 1 310 17:21 21.06.2020
966 Clear 23 1007 88 10000 1 310 16:56 21.06.2020
967 Clear 23 1007 88 10000 1 310 16:56 21.06.2020
968 Clear 23 1007 88 10000 1 310 16:38 21.06.2020
969 Clear 24 1008 83 10000 2.1 330 16:19 21.06.2020
970 Clear 24 1008 83 10000 2.1 330 15:39 21.06.2020
971 Clear 24 1008 83 10000 2.1 330 15:21 21.06.2020
972 Clear 25 1007 78 10000 1.5 330 14:55 21.06.2020
973 Clear 25 1007 78 10000 1.5 330 14:36 21.06.2020
974 Clear 27 1007 64 10000 2.1 290 14:18 21.06.2020
975 Clear 27 1007 64 10000 2.1 290 13:41 21.06.2020
976 Clear 27 1007 64 10000 2.1 290 13:22 21.06.2020
977 Clear 29 1006 61 10000 3.6 280 12:56 21.06.2020
978 Clear 29 1006 61 10000 3.6 280 12:37 21.06.2020
979 Clear 29 1006 61 10000 3.6 280 12:19 21.06.2020
980 Clear 30 1005 58 10000 5.1 290 11:42 21.06.2020
981 Clear 30 1005 58 10000 5.1 290 11:42 21.06.2020
982 Clear 30 1005 58 10000 5.1 290 11:23 21.06.2020
983 Clear 31 1005 58 10000 4.1 280 10:58 21.06.2020
984 Clear 31 1005 58 10000 4.1 280 10:39 21.06.2020
985 Clear 31 1005 58 10000 4.1 280 10:21 21.06.2020
986 Clear 32 1006 55 10000 5.1 270 09:44 21.06.2020
987 Clear 32 1006 55 10000 5.1 270 09:23 21.06.2020
988 Clear 32 1006 52 10000 5.1 280 08:57 21.06.2020
989 Clear 32 1006 52 10000 5.1 280 08:39 21.06.2020
990 Clear 33 1007 46 10000 3.1 320 08:20 21.06.2020
991 Clear 32 1007 46 10000 3.1 320 07:42 21.06.2020
992 Clear 32 1007 46 10000 3.1 320 07:23 21.06.2020
993 Clear 32 1007 43 10000 3.1 320 06:50 21.06.2020
994 Clear 32 1007 43 10000 3.1 320 06:28 21.06.2020
995 Clear 30 1007 48 10000 2.1 240 05:57 21.06.2020
996 Clear 29 1008 54 10000 2.1 270 04:34 21.06.2020
997 Clear 25 1009 69 10000 1 40 03:19 21.06.2020
998 Clear 25 1009 69 10000 1 40 02:33 21.06.2020
999 Clear 23 1009 78 10000 0.5 10 01:37 21.06.2020
1000 Clear 21 1009 94 7000 1 220 01:18 21.06.2020
1001 Clear 20 1009 94 7000 1 220 00:42 21.06.2020
1002 Clear 20 1009 94 7000 1 220 00:23 21.06.2020
1003 Mist 18 1009 100 4500 0.69 159 23:45 20.06.2020
1004 Mist 18 1009 100 4500 0.28 204 23:22 20.06.2020
1005 Mist 19 1010 100 3200 2.1 290 22:57 20.06.2020
1006 Mist 19 1010 100 3200 2.1 290 22:39 20.06.2020
1007 Mist 19 1010 100 3200 2.1 290 22:20 20.06.2020
1008 Mist 19 1009 100 2800 3.1 310 21:58 20.06.2020
1009 Mist 19 1009 100 2800 3.1 310 21:39 20.06.2020
1010 Mist 19 1009 100 2800 3.1 310 21:20 20.06.2020
1011 Mist 19 1009 100 2800 3.1 310 21:20 20.06.2020
1012 Mist 19 1010 100 3800 2.6 310 20:58 20.06.2020
1013 Mist 19 1010 100 3800 2.6 310 20:39 20.06.2020
1014 Mist 19 1010 100 3800 2.6 310 20:20 20.06.2020
1015 Mist 20 1010 100 4500 2.6 300 19:44 20.06.2020
1016 Mist 20 1010 100 4500 2.6 300 19:25 20.06.2020
1017 Clouds 20 1009 93 7000 1.5 320 18:59 20.06.2020
1018 Clouds 20 1009 93 7000 1.5 320 18:40 20.06.2020
1019 Clouds 21 1010 82 10000 1.5 360 18:19 20.06.2020
1020 Clouds 21 1010 82 10000 1.5 360 17:56 20.06.2020
1021 Clouds 21 1010 82 10000 1.5 360 17:38 20.06.2020
1022 Clouds 21 1009 88 10000 1.5 330 17:19 20.06.2020
1023 Clouds 22 1009 88 10000 1.5 330 16:41 20.06.2020
1024 Clouds 22 1010 83 10000 2.1 290 16:19 20.06.2020
1025 Clouds 22 1010 83 10000 2.1 290 15:57 20.06.2020
1026 Clouds 23 1010 83 10000 2.1 290 15:38 20.06.2020
1027 Clouds 23 1009 78 10000 2.1 260 15:18 20.06.2020
1028 Clouds 24 1009 78 10000 2.1 260 14:42 20.06.2020
1029 Clouds 24 1009 73 10000 2.1 270 14:20 20.06.2020
1030 Clouds 25 1009 73 10000 2.1 270 13:42 20.06.2020
1031 Clear 26 1009 69 10000 5.1 290 13:20 20.06.2020
1032 Clear 26 1009 69 10000 5.1 290 12:56 20.06.2020
1033 Clear 27 1009 69 10000 5.1 290 12:38 20.06.2020
1034 Clear 27 1009 69 10000 5.1 290 12:19 20.06.2020
1035 Clear 28 1008 57 10000 5.1 290 11:39 20.06.2020
1036 Clear 29 1009 51 10000 3.6 290 11:20 20.06.2020
1037 Clear 29 1009 51 10000 3.6 290 10:58 20.06.2020
1038 Clear 29 1009 51 10000 3.6 290 10:39 20.06.2020
1039 Clear 29 1009 51 10000 3.6 290 10:18 20.06.2020
1040 Clear 30 1009 54 10000 6.2 280 09:42 20.06.2020
1041 Clear 30 1009 54 10000 6.2 280 09:24 20.06.2020
1042 Clear 30 1010 51 10000 4.6 270 08:58 20.06.2020
1043 Clear 30 1010 51 10000 4.6 270 08:39 20.06.2020
1044 Clouds 30 1010 51 10000 4.6 270 08:21 20.06.2020
1045 Clouds 30 1010 51 10000 5.1 250 07:50 20.06.2020
1046 Clouds 30 1010 51 10000 5.1 250 07:25 20.06.2020
1047 Clouds 29 1010 58 10000 4.6 240 06:43 20.06.2020
1048 Clouds 29 1010 51 10000 3.1 250 06:20 20.06.2020
1049 Clouds 29 1010 51 10000 3.1 250 05:47 20.06.2020
1050 Clear 27 1011 57 10000 1.5 210 03:25 20.06.2020
1051 Clear 24 1011 73 9000 1.5 220 01:53 20.06.2020
1052 Clear 23 1011 73 9000 1.5 220 01:35 20.06.2020
1053 Clear 22 1011 88 8000 1.5 170 00:42 20.06.2020
1054 Clear 19 1011 100 7000 2.6 140 00:19 20.06.2020
1055 Clear 19 1011 100 7000 2.6 140 23:40 19.06.2020
1056 Clear 19 1010 93 7000 0.5 160 23:19 19.06.2020
1057 Clear 19 1010 93 7000 0.5 160 22:55 19.06.2020
1058 Clear 19 1010 93 7000 0.5 160 22:37 19.06.2020
1059 Clear 19 1010 93 10000 0.5 280 22:18 19.06.2020
1060 Clear 19 1010 93 10000 0.5 280 21:41 19.06.2020
1061 Clear 19 1010 93 10000 0.5 280 21:19 19.06.2020
1062 Clear 19 1010 93 10000 0.5 260 20:59 19.06.2020
1063 Clear 19 1010 93 10000 0.5 260 20:59 19.06.2020
1064 Clear 19 1010 93 10000 0.5 260 20:40 19.06.2020
1065 Clear 19 1010 93 10000 0.5 260 20:22 19.06.2020
1066 Clear 20 1009 100 10000 1 340 19:59 19.06.2020
1067 Clear 20 1009 100 10000 1 340 19:41 19.06.2020
1068 Clear 20 1009 100 10000 1 340 19:41 19.06.2020
1069 Clear 20 1009 100 10000 1 340 19:23 19.06.2020
1070 Clear 21 1009 94 10000 0.5 330 18:58 19.06.2020
1071 Clear 21 1009 94 10000 0.5 330 18:38 19.06.2020
1072 Clear 21 1009 88 10000 0.5 70 18:20 19.06.2020
1073 Clear 21 1009 88 10000 0.5 70 17:42 19.06.2020
1074 Clear 21 1009 88 10000 0.5 70 17:23 19.06.2020
1075 Clear 22 1009 83 10000 1.5 280 16:57 19.06.2020
1076 Clear 22 1009 83 10000 1.5 280 16:38 19.06.2020
1077 Clear 22 1009 83 10000 1.5 280 16:20 19.06.2020
1078 Clear 23 1009 78 10000 1 260 15:44 19.06.2020
1079 Clear 23 1009 78 10000 1 260 15:25 19.06.2020
1080 Clear 24 1009 78 10000 3.6 280 14:57 19.06.2020
1081 Clear 24 1009 78 10000 3.6 280 14:39 19.06.2020
1082 Clouds 24 1009 78 10000 3.6 280 14:20 19.06.2020
1083 Clouds 24 1008 78 10000 1 300 13:55 19.06.2020
1084 Clouds 25 1008 78 10000 1 300 13:37 19.06.2020
1085 Clouds 27 1007 65 10000 3.6 280 13:18 19.06.2020
1086 Clouds 27 1007 65 10000 3.6 280 12:40 19.06.2020
1087 Clouds 28 1006 65 10000 6.2 280 12:18 19.06.2020
1088 Clouds 28 1006 65 10000 6.2 280 11:40 19.06.2020
1089 Clouds 29 1005 61 10000 5.7 290 11:19 19.06.2020
1090 Clouds 29 1005 61 10000 5.7 290 10:59 19.06.2020
1091 Clouds 29 1005 61 10000 5.7 290 10:40 19.06.2020
1092 Clouds 29 1005 61 10000 5.7 290 10:19 19.06.2020
1093 Clouds 29 1005 51 10000 2.1 310 09:42 19.06.2020
1094 Clouds 29 1005 51 10000 2.1 310 09:21 19.06.2020
1095 Clouds 29 1005 51 10000 2.6 350 08:55 19.06.2020
1096 Clouds 29 1005 51 10000 2.6 350 08:37 19.06.2020
1097 Clouds 29 1006 51 10000 3.1 300 08:19 19.06.2020
1098 Clouds 29 1006 51 10000 3.1 300 07:40 19.06.2020
1099 Clouds 29 1006 51 10000 3.1 300 07:21 19.06.2020
1100 Clouds 27 1006 54 10000 3.1 300 06:36 19.06.2020
1101 Clouds 27 1006 57 10000 2.1 350 05:50 19.06.2020
1102 Clouds 26 1006 57 10000 2.1 30 04:27 19.06.2020
1103 Clouds 22 1006 69 10000 3.1 10 02:52 19.06.2020
1104 Rain 21 1006 69 10000 2.6 10 00:59 19.06.2020
1105 Rain 21 1005 88 10000 2.6 330 00:40 19.06.2020
1106 Rain 21 1005 88 10000 2.6 330 00:21 19.06.2020
1107 Clouds 21 1005 77 10000 3.1 350 23:41 18.06.2020
1108 Clouds 21 1005 77 10000 3.1 350 23:41 18.06.2020
1109 Clouds 21 1005 77 10000 3.1 350 23:23 18.06.2020
1110 Clouds 21 1004 77 10000 2.6 30 22:59 18.06.2020
1111 Clouds 21 1004 77 10000 2.6 30 22:39 18.06.2020
1112 Clouds 21 1004 77 10000 3.6 350 22:19 18.06.2020
1113 Clouds 21 1004 77 10000 2.6 30 22:19 18.06.2020
1114 Clouds 21 1004 77 10000 3.6 350 21:39 18.06.2020
1115 Clouds 21 1003 83 10000 3.1 360 21:20 18.06.2020
1116 Clouds 22 1003 83 10000 3.1 360 20:58 18.06.2020
1117 Clouds 22 1003 83 10000 3.1 360 20:38 18.06.2020
1118 Clouds 22 1003 83 10000 3.1 360 20:19 18.06.2020
1119 Clouds 22 1003 83 10000 2.6 330 19:42 18.06.2020
1120 Clouds 22 1002 78 10000 3.1 10 19:22 18.06.2020
1121 Rain 22 1003 69 10000 2.6 360 18:58 18.06.2020
1122 Clouds 22 1002 78 10000 3.1 10 18:37 18.06.2020
1123 Clouds 22 1003 83 10000 3.1 340 18:19 18.06.2020
1124 Clouds 22 1003 83 10000 3.1 340 17:45 18.06.2020
1125 Clouds 22 1003 83 10000 3.1 340 17:25 18.06.2020
1126 Clouds 22 1003 78 10000 3.1 310 16:56 18.06.2020
1127 Clouds 22 1003 78 10000 3.1 310 16:37 18.06.2020
1128 Clouds 22 1003 78 10000 2.1 330 16:18 18.06.2020
1129 Clouds 22 1003 78 10000 2.1 330 15:55 18.06.2020
1130 Clouds 22 1003 78 10000 2.1 330 15:37 18.06.2020
1131 Clouds 23 1002 78 10000 2.6 320 15:18 18.06.2020
1132 Clouds 23 1002 78 10000 2.6 320 14:41 18.06.2020
1133 Clouds 23 1002 78 10000 2.6 320 14:23 18.06.2020
1134 Clouds 24 1002 69 10000 3.1 300 13:59 18.06.2020
1135 Clouds 24 1002 69 10000 3.1 300 13:40 18.06.2020
1136 Clouds 24 1002 69 10000 3.1 300 13:20 18.06.2020
1137 Clouds 25 1002 64 10000 3.6 340 12:55 18.06.2020
1138 Clouds 25 1002 64 10000 3.6 340 12:37 18.06.2020
1139 Clouds 25 1001 69 8000 4.6 280 12:19 18.06.2020
1140 Clouds 25 1001 69 8000 4.6 280 11:46 18.06.2020
1141 Clouds 25 1001 69 8000 4.6 280 11:21 18.06.2020
1142 Clouds 26 1001 65 10000 3.1 280 10:41 18.06.2020
1143 Clouds 27 1001 48 10000 1.5 120 10:20 18.06.2020
1144 Clouds 27 1001 48 10000 1.5 120 09:58 18.06.2020
1145 Clouds 27 1001 48 10000 1.5 120 09:40 18.06.2020
1146 Clouds 27 1001 48 10000 1.5 120 09:40 18.06.2020
1147 Clouds 26 1002 54 10000 1.5 10 09:21 18.06.2020
1148 Clouds 26 1002 54 10000 1.5 10 08:41 18.06.2020
1149 Clouds 26 1002 54 10000 1.5 10 08:22 18.06.2020
1150 Clouds 26 1002 54 10000 1 210 07:57 18.06.2020
1151 Clouds 25 1002 54 10000 1 210 07:37 18.06.2020
1152 Clouds 25 1002 54 10000 1 210 07:37 18.06.2020
1153 Clouds 25 1002 61 10000 2.1 40 07:19 18.06.2020
1154 Clouds 25 1003 69 9000 1.5 350 06:22 18.06.2020
1155 Clouds 24 1003 73 9000 1 320 04:26 18.06.2020
1156 Clouds 22 1003 83 7000 1.5 340 02:51 18.06.2020
1157 Clouds 21 1003 88 6000 1.5 330 01:30 18.06.2020
1158 Mist 20 1003 94 5000 1 340 00:58 18.06.2020
1159 Mist 20 1003 94 5000 1 340 00:39 18.06.2020
1160 Clouds 19 1004 100 6000 2.1 320 00:20 18.06.2020
1161 Clouds 19 1004 100 6000 2.1 320 23:44 17.06.2020
1162 Clouds 19 1003 88 10000 1.5 300 23:21 17.06.2020
1163 Clouds 19 1003 88 10000 1.5 300 22:57 17.06.2020
1164 Clouds 19 1003 88 10000 1.5 300 22:57 17.06.2020
1165 Clouds 19 1003 88 10000 1.5 300 22:38 17.06.2020
1166 Clouds 19 1003 88 10000 1.5 300 22:20 17.06.2020
1167 Clouds 19 1003 93 10000 1.5 340 21:55 17.06.2020
1168 Clouds 19 1003 93 10000 1.5 340 21:37 17.06.2020
1169 Clouds 19 1004 93 10000 0.5 160 21:18 17.06.2020
1170 Clouds 19 1004 93 10000 0.5 160 21:18 17.06.2020
1171 Clouds 19 1004 93 10000 0.5 160 20:38 17.06.2020
1172 Clouds 19 1004 93 10000 0.5 160 20:38 17.06.2020
1173 Clouds 19 1004 93 10000 0.5 160 20:38 17.06.2020
1174 Clouds 20 1005 88 10000 0.5 220 20:20 17.06.2020
1175 Clouds 20 1005 88 10000 0.5 220 19:55 17.06.2020
1176 Clouds 20 1005 88 10000 0.5 220 19:55 17.06.2020
1177 Clouds 20 1005 88 10000 0.5 220 19:36 17.06.2020
1178 Clouds 20 1005 88 10000 1.5 50 19:18 17.06.2020
1179 Clouds 20 1005 88 10000 1.5 50 18:41 17.06.2020
1180 Clouds 20 1005 88 10000 1.5 50 18:23 17.06.2020
1181 Clouds 21 1005 82 10000 2.6 300 17:44 17.06.2020
1182 Clouds 21 1005 82 10000 2.6 300 17:44 17.06.2020
1183 Clouds 21 1006 82 10000 2.6 330 17:22 17.06.2020
1184 Clouds 21 1006 82 10000 2.6 330 16:57 17.06.2020
1185 Clouds 21 1006 82 10000 2.6 330 16:57 17.06.2020
1186 Clouds 21 1006 82 10000 2.6 330 16:57 17.06.2020
1187 Clouds 21 1006 82 10000 2.6 330 16:39 17.06.2020
1188 Clouds 21 1006 82 10000 2.6 330 16:20 17.06.2020
1189 Clouds 22 1005 73 10000 0.5 340 15:56 17.06.2020
1190 Clouds 22 1005 73 10000 0.5 340 15:38 17.06.2020
1191 Clouds 23 1005 68 10000 2.6 280 15:18 17.06.2020
1192 Clouds 23 1005 68 10000 2.6 280 14:56 17.06.2020
1193 Clouds 23 1005 68 10000 2.6 280 14:38 17.06.2020
1194 Clouds 23 1005 68 10000 2.6 280 14:19 17.06.2020
1195 Clouds 24 1005 68 10000 3.6 290 13:41 17.06.2020
1196 Clouds 25 1004 60 10000 4.1 280 13:21 17.06.2020
1197 Clouds 25 1004 60 10000 4.1 280 12:56 17.06.2020
1198 Clouds 25 1004 60 10000 4.1 280 12:38 17.06.2020
1199 Clouds 25 1004 60 10000 4.1 280 12:19 17.06.2020
1200 Clouds 25 1004 60 10000 4.1 280 12:19 17.06.2020
1201 Clouds 26 1004 61 10000 4.1 240 11:44 17.06.2020
1202 Clouds 26 1004 61 10000 4.1 240 11:24 17.06.2020
1203 Clouds 28 1004 44 10000 4.6 250 10:55 17.06.2020
1204 Clouds 29 1004 44 10000 4.6 250 10:36 17.06.2020
1205 Clouds 29 1004 47 10000 6.2 270 10:18 17.06.2020
1206 Clouds 29 1004 47 10000 6.2 270 09:54 17.06.2020
1207 Clouds 29 1004 47 10000 6.2 270 09:54 17.06.2020
1208 Clouds 29 1004 47 10000 6.2 270 09:36 17.06.2020
1209 Clouds 29 1004 47 10000 6.2 270 09:36 17.06.2020
1210 Clouds 30 1004 51 10000 4.6 250 09:18 17.06.2020
1211 Clouds 29 1004 51 10000 4.6 250 08:41 17.06.2020
1212 Clouds 29 1004 51 10000 4.6 250 08:19 17.06.2020
1213 Clouds 30 1004 54 8000 3.6 230 08:19 17.06.2020
1214 Clouds 30 1004 54 8000 3.6 230 07:43 17.06.2020
1215 Clouds 30 1004 54 8000 3.6 230 07:22 17.06.2020
1216 Clouds 29 1004 58 8000 1.5 300 06:56 17.06.2020
1217 Clouds 29 1004 58 8000 1.5 300 06:38 17.06.2020
1218 Clouds 28 1005 58 8000 2.1 280 06:20 17.06.2020
1219 Clouds 28 1005 58 8000 2.1 280 05:29 17.06.2020
1220 Clouds 25 1005 65 8000 2.1 180 03:28 17.06.2020
1221 Clouds 23 1006 60 8000 2.1 190 01:52 17.06.2020
1222 Mist 21 1005 78 4000 1.5 170 00:46 17.06.2020
1223 Mist 21 1005 78 4000 1.5 170 00:23 17.06.2020
1224 Mist 19 1005 93 2500 0.5 60 23:56 16.06.2020
1225 Mist 19 1005 93 2500 0.5 60 23:56 16.06.2020
1226 Mist 19 1005 93 2500 0.5 60 23:37 16.06.2020
1227 Mist 19 1005 93 2500 0.5 60 23:19 16.06.2020
1228 Mist 18 1006 100 2500 1 300 22:55 16.06.2020
1229 Mist 18 1006 100 2500 1 300 22:36 16.06.2020
1230 Mist 18 1006 100 2500 1 300 22:36 16.06.2020
1231 Mist 18 1005 100 3200 1 320 22:18 16.06.2020
1232 Mist 18 1005 100 3200 1 320 21:47 16.06.2020
1233 Mist 18 1005 100 3200 1 320 21:23 16.06.2020
1234 Mist 19 1005 100 3500 0.5 150 20:57 16.06.2020
1235 Mist 19 1005 100 3500 0.5 150 20:39 16.06.2020
1236 Mist 19 1005 93 4200 0.5 320 20:19 16.06.2020
1237 Mist 19 1005 93 4200 0.5 320 19:57 16.06.2020
1238 Mist 19 1005 93 4200 0.5 320 19:38 16.06.2020
1239 Mist 19 1005 93 4200 2.1 310 19:20 16.06.2020
1240 Mist 20 1005 93 4200 2.1 310 18:45 16.06.2020
1241 Mist 20 1005 93 4200 2.1 310 18:22 16.06.2020
1242 Mist 20 1005 88 4500 1.5 340 18:00 16.06.2020
1243 Mist 20 1005 88 4500 1.5 340 17:39 16.06.2020
1244 Mist 21 1006 88 5000 1.5 330 17:21 16.06.2020
1245 Mist 21 1006 88 5000 1.5 330 17:00 16.06.2020
1246 Mist 22 1006 88 5000 1.5 330 16:41 16.06.2020
1247 Mist 22 1006 88 5000 1.5 330 16:20 16.06.2020
1248 Clouds 23 1006 83 6000 2.1 300 15:57 16.06.2020
1249 Clouds 23 1006 83 6000 2.1 300 15:57 16.06.2020
1250 Clouds 23 1006 83 6000 2.1 300 15:39 16.06.2020
1251 Clouds 23 1006 83 6000 2.1 300 15:21 16.06.2020
1252 Clouds 24 1006 78 6000 2.6 300 14:56 16.06.2020
1253 Clouds 24 1006 78 6000 2.6 300 14:38 16.06.2020
1254 Clouds 24 1005 78 8000 3.1 300 14:20 16.06.2020
1255 Clouds 25 1005 78 8000 3.1 300 13:46 16.06.2020
1256 Clouds 25 1005 78 8000 3.1 300 13:25 16.06.2020
1257 Clouds 26 1004 65 8000 3.1 290 12:55 16.06.2020
1258 Clouds 26 1004 65 8000 3.1 290 12:37 16.06.2020
1259 Clouds 27 1004 65 7000 4.6 270 12:18 16.06.2020
1260 Clouds 28 1004 65 7000 4.6 270 11:41 16.06.2020
1261 Clouds 28 1004 65 7000 4.6 270 11:23 16.06.2020
1262 Clouds 29 1004 58 7000 4.6 280 10:59 16.06.2020
1263 Clouds 29 1004 58 7000 4.6 280 10:39 16.06.2020
1264 Clouds 29 1004 58 7000 4.6 280 10:20 16.06.2020
1265 Clouds 30 1004 45 7000 3.6 310 09:45 16.06.2020
1266 Clouds 30 1004 45 7000 3.6 310 09:23 16.06.2020
1267 Clouds 31 1004 42 9000 1 290 08:53 16.06.2020
1268 Clouds 31 1004 42 9000 1 290 08:33 16.06.2020
1269 Clouds 30 1005 51 8000 2.1 280 07:52 16.06.2020
1270 Clouds 30 1005 51 8000 2.1 280 07:30 16.06.2020
1271 Clouds 28 1005 48 8000 2.1 300 06:57 16.06.2020
1272 Clouds 28 1005 48 8000 2.1 300 06:34 16.06.2020
1273 Clouds 27 1006 51 8000 2.1 340 05:50 16.06.2020
1274 Clouds 26 1006 54 8000 1 190 04:54 16.06.2020
1275 Clouds 25 1006 61 8000 2.1 230 03:55 16.06.2020
1276 Clouds 23 1006 64 8000 2.6 130 02:33 16.06.2020
1277 Clouds 22 1006 73 6000 1.5 150 01:33 16.06.2020
1278 Clouds 22 1006 73 6000 1.5 150 01:33 16.06.2020
1279 Mist 21 1007 73 8000 0.5 280 00:52 16.06.2020
1280 Mist 20 1006 88 4500 2.1 130 00:22 16.06.2020
1281 Mist 20 1006 88 4500 2.1 130 23:43 15.06.2020
1282 Mist 20 1006 88 4500 2.1 130 23:24 15.06.2020
1283 Mist 20 1006 82 4500 2.6 160 22:59 15.06.2020
1284 Mist 20 1006 82 4500 2.6 160 22:41 15.06.2020
1285 Mist 20 1006 82 4500 2.6 160 22:41 15.06.2020
1286 Mist 20 1005 88 4500 1.5 180 22:22 15.06.2020
1287 Mist 20 1005 88 4500 1.5 180 21:57 15.06.2020
1288 Mist 20 1005 88 4500 1.5 180 21:38 15.06.2020
1289 Mist 20 1005 88 4500 1.5 180 21:19 15.06.2020
1290 Mist 19 1006 88 4500 3.1 210 20:57 15.06.2020
1291 Mist 20 1006 88 4500 3.1 210 20:38 15.06.2020
1292 Mist 20 1006 88 4500 3.1 210 20:19 15.06.2020
1293 Mist 20 1006 88 5000 3.6 220 19:56 15.06.2020
1294 Mist 19 1006 88 5000 3.6 220 19:38 15.06.2020
1295 Clouds 19 1006 88 6000 3.1 220 19:20 15.06.2020
1296 Clouds 19 1006 88 6000 3.1 220 18:56 15.06.2020
1297 Clouds 19 1006 88 6000 3.1 220 18:56 15.06.2020
1298 Clouds 19 1006 88 6000 3.1 220 18:37 15.06.2020
1299 Clouds 20 1006 88 8000 3.1 200 18:19 15.06.2020
1300 Clouds 20 1006 88 8000 3.1 200 17:42 15.06.2020
1301 Clouds 20 1006 94 8000 4.1 230 17:22 15.06.2020
1302 Clouds 20 1006 94 8000 4.1 230 16:59 15.06.2020
1303 Clouds 20 1006 94 8000 4.1 230 16:59 15.06.2020
1304 Clouds 21 1006 94 8000 4.1 230 16:41 15.06.2020
1305 Clouds 21 1006 83 10000 2.6 210 16:19 15.06.2020
1306 Clouds 21 1006 83 10000 2.6 210 15:56 15.06.2020
1307 Clouds 21 1006 83 10000 2.6 210 15:56 15.06.2020
1308 Clouds 22 1006 83 10000 2.6 210 15:36 15.06.2020
1309 Clouds 22 1005 64 10000 4.6 230 15:18 15.06.2020
1310 Clouds 23 1005 64 10000 4.6 230 14:42 15.06.2020
1311 Clouds 23 1005 60 10000 4.1 230 14:20 15.06.2020
1312 Clouds 23 1005 60 10000 4.1 230 13:59 15.06.2020
1313 Clouds 23 1005 60 10000 4.1 230 13:39 15.06.2020
1314 Clouds 23 1005 60 10000 4.1 230 13:20 15.06.2020
1315 Clouds 24 1005 53 10000 3.1 220 12:55 15.06.2020
1316 Clouds 25 1005 53 10000 3.1 220 12:36 15.06.2020
1317 Clouds 26 1005 50 10000 3.6 260 12:18 15.06.2020
1318 Clouds 26 1005 50 10000 3.6 260 11:42 15.06.2020
1319 Clouds 27 1004 41 10000 4.6 250 11:23 15.06.2020
1320 Clouds 27 1004 41 10000 4.6 250 10:44 15.06.2020
1321 Clouds 28 1004 39 10000 6.2 240 10:22 15.06.2020
1322 Clouds 28 1004 39 10000 6.2 240 09:45 15.06.2020
1323 Clear 28 1004 39 10000 6.2 240 09:25 15.06.2020
1324 Clear 28 1005 44 10000 6.7 240 08:56 15.06.2020
1325 Clear 28 1005 44 10000 6.7 240 08:37 15.06.2020
1326 Clouds 28 1005 47 10000 5.1 220 08:18 15.06.2020
1327 Clouds 28 1005 47 10000 5.1 220 07:41 15.06.2020
1328 Clouds 28 1005 47 10000 5.1 220 07:20 15.06.2020
1329 Clouds 28 1006 47 10000 4.6 220 06:30 15.06.2020
1330 Clouds 27 1006 57 10000 5.7 250 05:51 15.06.2020
1331 Clouds 27 1006 57 10000 5.7 250 05:31 15.06.2020
1332 Clouds 26 1006 61 10000 3.6 210 04:23 15.06.2020
1333 Clouds 24 1007 65 10000 3.6 210 03:49 15.06.2020
1334 Clouds 24 1007 65 10000 3.6 210 03:27 15.06.2020
1335 Clouds 22 1007 78 10000 2.6 170 02:33 15.06.2020
1336 Clouds 21 1008 83 9000 2.1 160 01:49 15.06.2020
1337 Clouds 21 1008 83 9000 2.1 160 01:29 15.06.2020
1338 Clouds 19 1007 88 8000 3.6 150 00:45 15.06.2020
1339 Clouds 19 1007 88 8000 3.6 150 00:25 15.06.2020
1340 Clouds 18 1007 93 8000 3.1 130 23:59 14.06.2020
1341 Clouds 18 1007 93 8000 3.1 130 23:41 14.06.2020
1342 Clouds 18 1007 93 8000 3.1 130 23:23 14.06.2020
1343 Clouds 18 1007 93 7000 2.6 180 22:57 14.06.2020
1344 Clouds 18 1007 93 7000 2.6 180 22:38 14.06.2020
1345 Clouds 19 1007 93 7000 3.1 180 22:18 14.06.2020
1346 Clouds 19 1007 93 7000 3.1 180 21:56 14.06.2020
1347 Clouds 18 1007 93 7000 3.1 180 21:38 14.06.2020
1348 Clouds 18 1007 93 7000 2.1 160 21:18 14.06.2020
1349 Clouds 18 1007 93 7000 2.1 160 20:57 14.06.2020
1350 Clouds 18 1007 93 7000 2.1 160 20:38 14.06.2020
1351 Clear 18 1006 100 9000 3.1 150 20:18 14.06.2020
1352 Clear 18 1006 100 9000 3.1 150 19:56 14.06.2020
1353 Clear 18 1006 100 9000 3.1 150 19:37 14.06.2020
1354 Clear 19 1007 88 9000 2.1 190 19:18 14.06.2020
1355 Clear 19 1007 88 9000 2.1 190 18:55 14.06.2020
1356 Clear 20 1007 88 9000 2.1 190 18:37 14.06.2020
1357 Clear 20 1007 88 10000 2.1 190 18:18 14.06.2020
1358 Clear 20 1007 88 10000 2.1 190 18:18 14.06.2020
1359 Clear 20 1007 88 10000 2.1 190 17:55 14.06.2020
1360 Clear 20 1007 88 10000 2.1 190 17:36 14.06.2020
1361 Clear 21 1006 83 10000 2.6 220 17:18 14.06.2020
1362 Clear 21 1006 83 10000 2.6 220 16:40 14.06.2020
1363 Clear 21 1006 83 10000 2.6 220 16:20 14.06.2020
1364 Clear 22 1006 83 10000 3.1 220 16:20 14.06.2020
1365 Clear 22 1006 83 10000 3.1 220 15:57 14.06.2020
1366 Clear 22 1006 83 10000 3.1 220 15:39 14.06.2020
1367 Clear 22 1005 83 10000 3.1 210 15:18 14.06.2020
1368 Clear 22 1005 83 10000 3.1 210 14:55 14.06.2020
1369 Clear 22 1005 83 10000 3.1 210 14:36 14.06.2020
1370 Clear 23 1004 78 10000 3.6 240 14:18 14.06.2020
1371 Clear 23 1004 78 10000 3.6 240 13:41 14.06.2020
1372 Clear 23 1004 78 10000 3.6 240 13:22 14.06.2020
1373 Clouds 25 1004 78 10000 5.7 230 12:59 14.06.2020
1374 Clouds 25 1004 78 10000 5.7 230 12:40 14.06.2020
1375 Clouds 25 1004 78 10000 5.7 230 12:21 14.06.2020
1376 Clear 26 1003 73 10000 6.7 230 11:58 14.06.2020
1377 Clear 26 1003 73 10000 6.7 230 11:39 14.06.2020
1378 Clear 28 1003 65 10000 7.2 260 11:20 14.06.2020
1379 Clear 28 1003 65 10000 7.2 260 10:42 14.06.2020
1380 Clear 28 1003 65 10000 7.2 260 10:20 14.06.2020
1381 Clear 29 1003 54 10000 6.2 240 09:57 14.06.2020
1382 Clear 29 1003 54 10000 6.2 240 09:39 14.06.2020
1383 Clear 29 1003 48 10000 6.7 270 09:20 14.06.2020
1384 Clear 29 1003 48 10000 6.7 270 08:42 14.06.2020
1385 Clouds 29 1003 45 10000 5.7 290 08:19 14.06.2020
1386 Clouds 29 1003 45 10000 5.7 290 07:52 14.06.2020
1387 Clouds 29 1003 45 10000 5.7 290 07:34 14.06.2020
1388 Clouds 29 1003 45 10000 5.7 290 06:39 14.06.2020
1389 Clouds 27 1003 42 10000 3.1 290 05:47 14.06.2020
1390 Clouds 26 1003 53 10000 2.6 260 05:18 14.06.2020
1391 Clouds 25 1003 53 10000 2.6 260 04:35 14.06.2020
1392 Clouds 25 1003 64 10000 1.5 260 03:36 14.06.2020
1393 Clouds 24 1003 69 10000 3.1 310 02:31 14.06.2020
1394 Clouds 24 1003 73 8000 1.5 270 01:47 14.06.2020
1395 Clouds 24 1003 73 8000 1.5 270 01:24 14.06.2020
1396 Clouds 23 1002 73 6000 1 310 00:40 14.06.2020
1397 Clouds 22 1003 83 6000 2.6 310 00:19 14.06.2020
1398 Clouds 22 1003 83 6000 2.6 310 23:44 13.06.2020
1399 Clouds 22 1003 83 6000 2.6 310 23:24 13.06.2020
1400 Mist 22 1003 94 4000 1.5 310 22:57 13.06.2020
1401 Mist 22 1003 94 4000 1.5 310 22:37 13.06.2020
1402 Mist 22 1003 100 3500 2.1 310 22:18 13.06.2020
1403 Mist 22 1003 100 3500 2.1 310 22:18 13.06.2020
1404 Mist 22 1003 100 3500 2.1 310 21:55 13.06.2020
1405 Mist 22 1003 100 3500 2.1 310 21:37 13.06.2020
1406 Drizzle 22 1003 100 2000 2.6 290 21:18 13.06.2020
1407 Drizzle 22 1003 100 2000 2.6 290 20:42 13.06.2020
1408 Mist 23 1004 94 4800 0.5 300 20:19 13.06.2020
1409 Mist 23 1004 94 4800 0.5 300 19:54 13.06.2020
1410 Mist 23 1004 94 4800 0.5 300 19:36 13.06.2020
1411 Rain 23 1003 83 10000 3.1 190 19:18 13.06.2020
1412 Rain 23 1003 83 10000 3.1 190 19:18 13.06.2020
1413 Rain 23 1003 83 10000 3.1 190 18:41 13.06.2020
1414 Clouds 24 1003 57 10000 2.1 240 18:21 13.06.2020
1415 Clouds 24 1003 57 10000 2.1 240 18:00 13.06.2020
1416 Clouds 24 1003 57 10000 2.1 240 17:41 13.06.2020
1417 Clouds 24 1003 57 10000 2.1 240 17:23 13.06.2020
1418 Clouds 25 1004 61 10000 1 240 16:56 13.06.2020
1419 Clouds 25 1004 61 10000 1 240 16:38 13.06.2020
1420 Clouds 25 1004 53 10000 1 260 16:19 13.06.2020
1421 Clouds 25 1004 53 10000 1 260 15:44 13.06.2020
1422 Clouds 25 1004 53 10000 1 260 15:26 13.06.2020
1423 Clouds 26 1004 61 10000 3.1 160 14:58 13.06.2020
1424 Clouds 27 1004 44 10000 2.1 290 14:38 13.06.2020
1425 Clouds 27 1004 44 10000 2.1 290 14:20 13.06.2020
1426 Clouds 28 1004 51 10000 3.1 240 13:42 13.06.2020
1427 Clouds 28 1004 51 10000 3.1 240 13:24 13.06.2020
1428 Clouds 29 1003 54 10000 4.6 290 12:44 13.06.2020
1429 Clouds 29 1003 54 10000 4.6 290 12:26 13.06.2020
1430 Clouds 31 1002 55 10000 4.1 290 11:59 13.06.2020
1431 Clouds 31 1002 55 10000 4.1 290 11:40 13.06.2020
1432 Clouds 32 1002 52 10000 3.1 250 11:19 13.06.2020
1433 Clouds 32 1002 52 10000 3.1 250 11:19 13.06.2020
1434 Clouds 32 1002 52 10000 3.1 250 10:57 13.06.2020
1435 Clouds 32 1002 52 10000 3.1 250 10:38 13.06.2020
1436 Clouds 32 1002 43 10000 4.6 270 10:19 13.06.2020
1437 Clouds 33 1002 43 10000 4.6 270 09:45 13.06.2020
1438 Clouds 33 1002 43 10000 4.6 270 09:27 13.06.2020
1439 Clouds 33 1002 40 10000 2.6 260 08:50 13.06.2020
1440 Clouds 32 1002 40 10000 2.6 260 08:32 13.06.2020
1441 Clear 32 1003 38 10000 5.1 290 07:56 13.06.2020
1442 Clear 32 1003 38 10000 5.1 290 07:30 13.06.2020
1443 Clear 32 1003 38 10000 5.1 290 07:30 13.06.2020
1444 Clear 32 1004 31 10000 1 30 06:56 13.06.2020
1445 Clear 32 1004 31 10000 1 30 06:36 13.06.2020
1446 Clear 31 1004 33 10000 2.1 50 05:53 13.06.2020
1447 Clear 30 1004 33 10000 2.1 50 05:25 13.06.2020
1448 Clear 28 1005 45 10000 1 40 03:55 13.06.2020
1449 Clouds 26 1006 61 10000 1.5 310 02:55 13.06.2020
1450 Clouds 26 1006 61 10000 1.5 310 02:35 13.06.2020
1451 Clouds 24 1005 73 10000 1 350 01:46 13.06.2020
1452 Clouds 21 1005 94 10000 0.5 340 01:21 13.06.2020
1453 Clouds 21 1005 94 10000 0.5 340 00:42 13.06.2020
1454 Clouds 21 1005 94 10000 0.5 340 00:42 13.06.2020
1455 Clouds 21 1005 94 10000 0.5 340 00:23 13.06.2020
1456 Clouds 20 1005 100 10000 1 330 23:42 12.06.2020
1457 Clouds 20 1005 100 10000 1 330 23:19 12.06.2020
1458 Clouds 19 1005 100 9000 2.1 320 22:59 12.06.2020
1459 Clouds 19 1005 100 9000 2.1 320 22:40 12.06.2020
1460 Clouds 19 1004 100 10000 1.5 330 22:19 12.06.2020
1461 Clouds 20 1004 100 10000 1.5 330 21:47 12.06.2020
1462 Clouds 20 1004 100 10000 1.5 330 21:24 12.06.2020
1463 Clouds 20 1004 100 10000 1.5 320 20:58 12.06.2020
1464 Clouds 20 1004 100 10000 1.5 320 20:40 12.06.2020
1465 Clouds 20 1004 100 10000 1.5 320 20:40 12.06.2020
1466 Clouds 21 1004 88 10000 1 260 20:22 12.06.2020
1467 Clouds 21 1004 88 10000 1 260 19:56 12.06.2020
1468 Clouds 21 1004 88 10000 1 260 19:38 12.06.2020
1469 Clouds 21 1004 88 10000 1 320 19:18 12.06.2020
1470 Clouds 21 1004 88 10000 1 320 18:39 12.06.2020
1471 Clouds 21 1005 88 10000 1.5 310 18:18 12.06.2020
1472 Clouds 22 1005 88 10000 1.5 310 17:47 12.06.2020
1473 Clouds 22 1005 88 10000 1.5 310 17:27 12.06.2020
1474 Clouds 22 1005 83 10000 2.1 310 16:59 12.06.2020
1475 Clouds 22 1005 83 10000 2.1 310 16:40 12.06.2020
1476 Clouds 22 1005 83 10000 1.5 330 16:19 12.06.2020
1477 Clouds 23 1005 83 10000 1.5 330 15:45 12.06.2020
1478 Clouds 23 1005 83 10000 1.5 330 15:20 12.06.2020
1479 Clouds 23 1005 88 10000 2.6 320 14:44 12.06.2020
1480 Clouds 23 1005 88 10000 2.6 320 14:23 12.06.2020
1481 Clouds 24 1005 83 10000 2.1 310 13:59 12.06.2020
1482 Clouds 24 1005 83 10000 2.1 310 13:59 12.06.2020
1483 Clouds 24 1005 83 10000 2.1 310 13:40 12.06.2020
1484 Clouds 25 1005 73 10000 3.1 280 13:19 12.06.2020
1485 Clouds 26 1005 73 10000 3.1 280 12:40 12.06.2020
1486 Clouds 26 1004 65 10000 2.1 290 12:20 12.06.2020
1487 Clouds 26 1004 65 10000 2.1 290 11:56 12.06.2020
1488 Clouds 27 1004 65 10000 2.1 290 11:37 12.06.2020
1489 Clouds 27 1004 65 10000 2.6 270 11:19 12.06.2020
1490 Clouds 27 1004 65 10000 2.6 270 10:43 12.06.2020
1491 Clouds 27 1004 65 10000 2.6 270 10:23 12.06.2020
1492 Clouds 27 1004 65 10000 2.1 290 09:44 12.06.2020
1493 Clouds 27 1004 65 10000 2.1 290 09:21 12.06.2020
1494 Clouds 27 1004 69 10000 3.1 300 08:43 12.06.2020
1495 Clouds 27 1004 69 10000 3.1 300 08:24 12.06.2020
1496 Clouds 28 1004 65 10000 3.1 290 07:44 12.06.2020
1497 Clouds 28 1005 65 10000 2.1 250 07:25 12.06.2020
1498 Clouds 27 1005 65 10000 2.1 250 06:55 12.06.2020
1499 Clouds 27 1005 65 10000 2.1 250 06:25 12.06.2020
1500 Clouds 27 1006 74 9000 3.1 300 05:50 12.06.2020
1501 Clouds 26 1006 74 9000 3.1 300 05:28 12.06.2020
1502 Clouds 26 1005 65 10000 2.1 210 04:41 12.06.2020
1503 Clouds 24 1005 73 10000 0.5 180 02:46 12.06.2020
1504 Clouds 24 1005 83 10000 1 260 01:52 12.06.2020
1505 Clouds 23 1005 83 10000 1 260 01:25 12.06.2020
1506 Clouds 22 1005 88 10000 1 170 00:42 12.06.2020
1507 Clouds 22 1005 88 10000 1 170 00:24 12.06.2020
1508 Clouds 20 1005 100 10000 1.5 190 23:58 11.06.2020
1509 Clouds 20 1005 100 10000 1.5 190 23:40 11.06.2020
1510 Clouds 20 1005 100 10000 1.5 190 23:40 11.06.2020
1511 Clouds 20 1004 100 9000 1 360 23:20 11.06.2020
1512 Clouds 20 1004 100 9000 1 360 22:57 11.06.2020
1513 Clouds 19 1004 100 9000 1 360 22:38 11.06.2020
1514 Clouds 21 1004 100 10000 3.1 300 22:19 11.06.2020
1515 Clouds 21 1004 100 10000 3.1 300 21:44 11.06.2020
1516 Clouds 21 1004 100 10000 1.5 330 21:21 11.06.2020
1517 Clouds 21 1004 100 10000 1.5 330 20:59 11.06.2020
1518 Clouds 21 1004 100 10000 1.5 330 20:41 11.06.2020
1519 Clouds 21 1004 100 10000 0.5 180 20:21 11.06.2020
1520 Clouds 21 1004 83 10000 0.5 130 19:44 11.06.2020
1521 Clouds 22 1004 94 10000 1 310 19:23 11.06.2020
1522 Clouds 22 1004 94 10000 1 310 19:23 11.06.2020
1523 Clouds 22 1004 94 10000 1 310 18:57 11.06.2020
1524 Clouds 22 1004 94 10000 1 310 18:39 11.06.2020
1525 Clouds 22 1004 94 10000 1 310 18:39 11.06.2020
1526 Clouds 22 1004 94 10000 1 310 18:20 11.06.2020
1527 Clouds 23 1004 88 10000 1 300 17:55 11.06.2020
1528 Clouds 23 1004 88 10000 1 300 17:37 11.06.2020
1529 Clouds 23 1004 88 10000 1 300 17:18 11.06.2020
1530 Clouds 23 1005 88 10000 1 330 16:43 11.06.2020
1531 Clouds 23 1005 88 10000 1 330 16:25 11.06.2020
1532 Clouds 24 1005 83 10000 2.1 340 15:58 11.06.2020
1533 Clouds 24 1005 83 10000 2.1 340 15:39 11.06.2020
1534 Clouds 24 1005 83 10000 2.1 340 15:21 11.06.2020
1535 Clouds 24 1004 83 10000 3.1 230 14:46 11.06.2020
1536 Clouds 24 1004 83 10000 3.1 230 14:46 11.06.2020
1537 Clouds 26 1004 83 10000 3.1 230 14:21 11.06.2020
1538 Clouds 26 1003 73 10000 3.6 260 13:57 11.06.2020
1539 Clouds 27 1003 73 10000 3.6 260 13:39 11.06.2020
1540 Clouds 28 1002 69 10000 5.1 270 13:21 11.06.2020
1541 Clouds 28 1002 69 10000 5.1 270 12:58 11.06.2020
1542 Clouds 29 1002 69 10000 5.1 270 12:39 11.06.2020
1543 Clouds 30 1001 58 10000 3.1 320 12:19 11.06.2020
1544 Clouds 31 1001 58 10000 3.1 320 11:57 11.06.2020
1545 Clouds 31 1001 58 10000 3.1 320 11:38 11.06.2020
1546 Clouds 31 1001 58 10000 3.1 320 11:20 11.06.2020
1547 Clouds 32 1001 58 10000 4.1 280 10:57 11.06.2020
1548 Clouds 32 1001 58 10000 4.1 280 10:38 11.06.2020
1549 Clouds 32 1001 58 10000 4.1 280 10:18 11.06.2020
1550 Clouds 32 1001 48 10000 5.1 280 09:41 11.06.2020
1551 Clear 32 1001 48 10000 5.1 280 09:23 11.06.2020
1552 Clear 31 1001 55 10000 3.6 320 08:44 11.06.2020
1553 Clouds 32 1001 55 10000 3.6 320 08:20 11.06.2020
1554 Clouds 32 1002 52 10000 2.1 330 07:42 11.06.2020
1555 Clouds 32 1002 52 10000 2.1 330 07:24 11.06.2020
1556 Clouds 30 1002 62 10000 2.1 280 06:40 11.06.2020
1557 Clouds 29 1003 62 10000 3.6 310 06:22 11.06.2020
1558 Clouds 29 1003 62 10000 3.6 310 05:28 11.06.2020
1559 Clouds 26 1004 74 10000 4.6 360 03:30 11.06.2020
1560 Clouds 25 1004 78 10000 4.1 10 02:50 11.06.2020
1561 Clouds 25 1004 78 10000 4.1 10 02:32 11.06.2020
1562 Clouds 25 1004 78 10000 3.6 20 01:43 11.06.2020
1563 Clouds 25 1004 78 10000 3.6 20 01:22 11.06.2020
1564 Clouds 23 1004 88 10000 3.1 20 00:45 11.06.2020
1565 Clouds 23 1004 88 10000 3.1 20 00:26 11.06.2020
1566 Clouds 22 1004 94 7000 2.1 330 23:43 10.06.2020
1567 Clouds 22 1004 94 7000 2.1 330 23:24 10.06.2020
1568 Clouds 22 1004 100 8000 2.1 340 22:56 10.06.2020
1569 Clouds 22 1004 100 8000 2.1 340 22:37 10.06.2020
1570 Clouds 22 1004 100 8000 2.1 340 22:18 10.06.2020
1571 Clouds 22 1004 94 8000 2.1 360 21:55 10.06.2020
1572 Clouds 22 1004 94 8000 2.1 360 21:37 10.06.2020
1573 Clouds 22 1005 100 8000 1.5 360 21:18 10.06.2020
1574 Clouds 22 1005 100 8000 1.5 360 20:55 10.06.2020
1575 Clouds 22 1005 100 8000 1.5 360 20:37 10.06.2020
1576 Clouds 22 1005 100 7000 4.1 340 20:19 10.06.2020
1577 Clouds 22 1005 100 7000 4.1 340 19:39 10.06.2020
1578 Clouds 22 1005 100 6000 2.6 340 19:18 10.06.2020
1579 Clouds 22 1005 100 6000 2.6 340 18:57 10.06.2020
1580 Clouds 22 1005 100 6000 2.6 340 18:38 10.06.2020
1581 Clouds 22 1005 94 7000 0.5 40 18:19 10.06.2020
1582 Clouds 22 1005 94 7000 0.5 40 17:55 10.06.2020
1583 Clouds 22 1005 94 7000 0.5 40 17:36 10.06.2020
1584 Clouds 22 1005 94 7000 0.5 40 17:18 10.06.2020
1585 Rain 22 1006 100 7000 1 290 16:55 10.06.2020
1586 Rain 22 1006 100 7000 1 290 16:37 10.06.2020
1587 Rain 22 1007 100 8000 1.5 280 16:18 10.06.2020
1588 Rain 22 1007 100 8000 1.5 280 15:39 10.06.2020
1589 Rain 22 1007 100 8000 1.5 280 15:21 10.06.2020
1590 Rain 22 1007 94 7000 1 250 14:55 10.06.2020
1591 Rain 23 1007 94 7000 1 250 14:37 10.06.2020
1592 Rain 23 1007 94 7000 1 250 14:19 10.06.2020
1593 Rain 24 1007 94 7000 3.1 260 13:39 10.06.2020
1594 Rain 24 1006 88 10000 2.1 320 13:21 10.06.2020
1595 Rain 25 1006 88 10000 2.1 320 12:43 10.06.2020
1596 Rain 26 1006 88 10000 3.6 350 12:20 10.06.2020
1597 Rain 26 1006 88 10000 3.6 350 11:56 10.06.2020
1598 Rain 27 1006 88 10000 3.6 350 11:38 10.06.2020
1599 Rain 27 1006 88 10000 3.6 350 11:19 10.06.2020
1600 Rain 27 1006 88 10000 3.6 350 11:19 10.06.2020
1601 Rain 28 1005 54 10000 3.1 310 10:55 10.06.2020
1602 Clouds 30 1006 61 10000 3.6 310 10:36 10.06.2020
1603 Clouds 31 1006 54 10000 5.7 290 10:18 10.06.2020
1604 Clouds 31 1006 54 10000 5.7 290 09:39 10.06.2020
1605 Clouds 31 1006 54 10000 5.7 290 09:21 10.06.2020
1606 Clouds 31 1006 54 10000 5.7 290 09:21 10.06.2020
1607 Clouds 32 1007 55 10000 5.1 300 08:43 10.06.2020
1608 Clouds 32 1007 55 10000 5.1 300 08:23 10.06.2020
1609 Clouds 32 1007 52 10000 4.1 300 07:43 10.06.2020
1610 Clouds 32 1007 52 10000 4.1 300 07:24 10.06.2020
1611 Clouds 32 1008 52 10000 3.6 310 06:59 10.06.2020
1612 Clouds 32 1008 52 10000 3.6 310 06:39 10.06.2020
1613 Clouds 31 1009 45 10000 1 170 06:18 10.06.2020
1614 Clouds 32 1009 45 10000 1 170 05:51 10.06.2020
1615 Clouds 31 1009 45 10000 1 170 05:19 10.06.2020
1616 Clouds 30 1010 45 10000 3.1 200 04:29 10.06.2020
1617 Clouds 27 1011 51 10000 2.1 220 02:46 10.06.2020
1618 Clouds 25 1011 65 10000 2.1 220 01:48 10.06.2020
1619 Clouds 24 1011 64 10000 0.5 170 01:21 10.06.2020
1620 Clouds 23 1011 64 10000 0.5 170 00:38 10.06.2020
1621 Clouds 21 1012 83 10000 0.5 240 00:20 10.06.2020
1622 Clouds 20 1012 83 10000 0.5 240 23:42 09.06.2020
1623 Clouds 21 1012 83 10000 0.5 240 23:23 09.06.2020
1624 Clouds 20 1012 82 10000 0.4 80 22:57 09.06.2020
1625 Clouds 20 1012 82 10000 0.4 80 22:57 09.06.2020
1626 Clouds 20 1012 82 10000 0.4 80 22:39 09.06.2020
1627 Clouds 20 1012 82 10000 0.6 232 22:20 09.06.2020
1628 Clouds 21 1012 77 10000 0.5 360 21:57 09.06.2020
1629 Clouds 21 1012 77 10000 0.5 360 21:39 09.06.2020
1630 Clouds 21 1012 77 10000 0.5 360 21:21 09.06.2020
1631 Clouds 21 1012 77 10000 1.5 300 20:58 09.06.2020
1632 Clouds 21 1012 77 10000 1.5 300 20:39 09.06.2020
1633 Clouds 21 1012 77 10000 1.5 300 20:21 09.06.2020
1634 Clouds 21 1013 83 10000 0.5 40 19:59 09.06.2020
1635 Clouds 22 1013 83 10000 0.5 40 19:39 09.06.2020
1636 Clouds 22 1013 73 10000 0.5 300 19:20 09.06.2020
1637 Clouds 22 1013 73 10000 0.5 300 18:58 09.06.2020
1638 Clouds 22 1013 73 10000 0.5 300 18:39 09.06.2020
1639 Clouds 22 1013 73 10000 0.5 300 18:21 09.06.2020
1640 Clouds 23 1013 68 10000 0.5 300 17:56 09.06.2020
1641 Clouds 23 1013 68 10000 0.5 300 17:37 09.06.2020
1642 Clouds 23 1013 68 10000 0.5 300 17:19 09.06.2020
1643 Clouds 22 1014 73 10000 1.5 300 16:43 09.06.2020
1644 Clouds 23 1014 73 10000 1.5 300 16:23 09.06.2020
1645 Clouds 24 1013 60 10000 1 290 15:57 09.06.2020
1646 Clouds 25 1013 60 10000 1 290 15:38 09.06.2020
1647 Clouds 25 1013 60 10000 1 290 15:20 09.06.2020
1648 Clouds 26 1013 53 10000 2.1 290 14:55 09.06.2020
1649 Clouds 27 1013 53 10000 2.1 290 14:36 09.06.2020
1650 Clouds 27 1013 53 10000 2.1 290 14:18 09.06.2020
1651 Clouds 27 1013 50 10000 3.1 290 13:42 09.06.2020
1652 Clouds 29 1013 48 10000 4.1 280 13:21 09.06.2020
1653 Clouds 29 1013 48 10000 4.1 280 12:58 09.06.2020
1654 Clouds 29 1013 48 10000 4.1 280 12:40 09.06.2020
1655 Clouds 30 1013 45 10000 3.6 280 12:18 09.06.2020
1656 Clouds 30 1013 45 10000 3.6 280 11:55 09.06.2020
1657 Clouds 32 1013 45 10000 3.6 280 11:37 09.06.2020
1658 Clouds 32 1013 45 10000 3.6 280 11:18 09.06.2020
1659 Clouds 33 1013 45 10000 5.1 260 10:43 09.06.2020
1660 Clouds 33 1013 45 10000 5.1 260 10:25 09.06.2020
1661 Clouds 31 1013 45 10000 6.7 270 09:44 09.06.2020
1662 Clouds 33 1013 45 10000 6.7 270 09:25 09.06.2020
1663 Clouds 33 1013 40 10000 4.1 280 08:57 09.06.2020
1664 Clouds 33 1013 40 10000 4.1 280 08:38 09.06.2020
1665 Clouds 33 1013 40 10000 4.1 280 08:20 09.06.2020
1666 Clouds 33 1013 43 10000 5.1 290 07:38 09.06.2020
1667 Clouds 33 1013 43 10000 5.1 290 07:20 09.06.2020
1668 Clouds 33 1014 35 10000 3.6 330 06:54 09.06.2020
1669 Clouds 33 1014 35 10000 3.6 330 06:35 09.06.2020
1670 Clouds 31 1014 38 10000 1.5 310 05:35 09.06.2020
1671 Clouds 27 1015 51 10000 1 100 03:34 09.06.2020
1672 Clouds 24 1015 65 10000 1 230 01:43 09.06.2020
1673 Clouds 22 1015 83 8000 0.5 250 01:19 09.06.2020
1674 Clouds 22 1015 83 8000 0.5 250 01:19 09.06.2020
1675 Clouds 22 1015 83 8000 0.5 250 00:50 09.06.2020
1676 Clear 22 1015 83 8000 0.5 250 00:26 09.06.2020
1677 Clear 19 1015 100 8000 0.65 166 23:59 08.06.2020
1678 Clear 19 1015 100 8000 0.65 166 23:39 08.06.2020
1679 Clear 19 1015 100 8000 0.19 233 23:19 08.06.2020
1680 Clear 18 1015 93 10000 0.5 320 22:42 08.06.2020
1681 Clear 19 1015 93 10000 0.5 320 22:23 08.06.2020
1682 Clear 19 1015 93 10000 1.5 330 21:59 08.06.2020
1683 Clear 19 1015 93 10000 1.5 330 21:41 08.06.2020
1684 Clear 19 1015 88 10000 0.5 350 21:22 08.06.2020
1685 Clear 19 1015 88 10000 0.5 350 20:57 08.06.2020
1686 Clear 19 1015 88 10000 0.5 350 20:39 08.06.2020
1687 Clear 19 1015 88 10000 0.5 350 20:39 08.06.2020
1688 Clear 19 1015 88 10000 0.5 350 20:20 08.06.2020
1689 Clear 21 1015 82 10000 1.5 350 19:55 08.06.2020
1690 Clear 21 1015 82 10000 1.5 350 19:37 08.06.2020
1691 Clear 21 1015 88 10000 2.1 310 19:19 08.06.2020
1692 Clear 21 1015 88 10000 2.1 310 18:41 08.06.2020
1693 Clear 21 1015 88 10000 2.1 310 18:18 08.06.2020
1694 Clear 22 1015 88 10000 1 230 17:56 08.06.2020
1695 Clear 23 1015 88 10000 1 230 17:38 08.06.2020
1696 Clear 23 1015 88 10000 1 230 17:19 08.06.2020
1697 Clear 23 1016 73 10000 1 330 16:45 08.06.2020
1698 Clear 23 1016 73 10000 1 330 16:25 08.06.2020
1699 Clear 23 1016 73 10000 2.1 340 15:58 08.06.2020
1700 Clear 24 1016 73 10000 2.1 340 15:40 08.06.2020
1701 Clear 24 1016 73 10000 2.1 340 15:20 08.06.2020
1702 Clear 24 1016 73 10000 2.1 340 15:20 08.06.2020
1703 Clear 25 1015 69 10000 2.1 330 14:46 08.06.2020
1704 Clear 25 1015 69 10000 2.1 330 14:23 08.06.2020
1705 Clear 26 1015 60 10000 2.1 280 13:57 08.06.2020
1706 Clear 26 1015 60 10000 2.1 280 13:38 08.06.2020
1707 Clear 27 1014 65 10000 3.1 280 13:19 08.06.2020
1708 Clear 28 1014 65 10000 3.1 280 12:40 08.06.2020
1709 Clear 29 1014 57 10000 6.2 270 12:19 08.06.2020
1710 Clear 29 1014 57 10000 6.2 270 11:54 08.06.2020
1711 Clear 30 1014 57 10000 6.2 270 11:36 08.06.2020
1712 Clear 30 1014 57 10000 6.2 270 11:18 08.06.2020
1713 Clear 31 1013 58 10000 5.7 270 10:55 08.06.2020
1714 Clear 31 1013 58 10000 5.7 270 10:37 08.06.2020
1715 Clear 31 1013 58 10000 5.7 270 10:37 08.06.2020
1716 Clear 31 1013 51 10000 5.1 290 10:18 08.06.2020
1717 Clear 30 1013 51 10000 5.1 290 09:43 08.06.2020
1718 Clear 31 1013 51 10000 5.1 290 09:23 08.06.2020
1719 Clear 32 1013 43 10000 4.1 300 08:49 08.06.2020
1720 Clear 32 1013 43 10000 4.1 300 08:49 08.06.2020
1721 Clear 32 1013 43 10000 4.1 300 08:23 08.06.2020
1722 Clear 31 1013 51 10000 1.5 200 07:48 08.06.2020
1723 Clear 30 1013 51 10000 1.5 200 07:24 08.06.2020
1724 Clear 30 1014 48 10000 1.5 360 06:55 08.06.2020
1725 Clear 30 1014 48 10000 1.5 360 06:36 08.06.2020
1726 Clear 29 1014 51 10000 1.5 230 05:54 08.06.2020
1727 Clear 26 1014 57 10000 1.5 80 04:35 08.06.2020
1728 Clouds 24 1015 73 10000 1.5 240 02:54 08.06.2020
1729 Clouds 23 1015 73 10000 1.5 240 02:25 08.06.2020
1730 Clouds 22 1015 83 7000 0.5 290 01:38 08.06.2020
1731 Mist 21 1015 88 5000 1 120 00:41 08.06.2020
1732 Mist 20 1015 94 4500 0.5 140 00:18 08.06.2020
1733 Mist 20 1015 94 4500 0.5 140 23:37 07.06.2020
1734 Clouds 20 1014 94 6000 1.5 200 23:18 07.06.2020
1735 Clouds 20 1014 94 6000 1.5 200 22:55 07.06.2020
1736 Clouds 19 1014 94 6000 1.5 200 22:36 07.06.2020
1737 Clouds 19 1014 94 6000 1.5 200 22:18 07.06.2020
1738 Mist 19 1014 94 5000 2.1 140 21:41 07.06.2020
1739 Mist 19 1014 94 5000 2.1 140 21:41 07.06.2020
1740 Mist 19 1014 94 5000 2.1 140 21:23 07.06.2020
1741 Mist 19 1014 100 4000 1 170 20:57 07.06.2020
1742 Mist 19 1014 100 4000 1 170 20:38 07.06.2020
1743 Mist 19 1014 100 4000 1 170 20:20 07.06.2020
1744 Mist 19 1014 93 4000 1 190 19:56 07.06.2020
1745 Mist 19 1014 93 4000 1 190 19:38 07.06.2020
1746 Mist 19 1013 93 4500 3.6 230 19:19 07.06.2020
1747 Mist 19 1013 93 4500 3.6 230 18:55 07.06.2020
1748 Mist 19 1013 93 4500 3.6 230 18:36 07.06.2020
1749 Mist 19 1013 100 4500 1.5 280 18:18 07.06.2020
1750 Mist 19 1013 100 4500 1.5 280 17:41 07.06.2020
1751 Mist 20 1013 100 4500 1.5 280 17:23 07.06.2020
1752 Mist 20 1013 100 4500 1.5 320 16:59 07.06.2020
1753 Mist 20 1013 100 4500 1.5 320 16:41 07.06.2020
1754 Mist 20 1013 100 4500 1.5 320 16:20 07.06.2020
1755 Clear 21 1012 100 6000 2.1 320 15:36 07.06.2020
1756 Clear 21 1012 100 6000 2.1 320 15:18 07.06.2020
1757 Clear 22 1012 93 7000 3.1 310 14:38 07.06.2020
1758 Clear 22 1012 93 7000 3.1 310 14:19 07.06.2020
1759 Clear 23 1011 88 10000 3.1 310 13:47 07.06.2020
1760 Clear 23 1011 88 10000 3.1 310 13:47 07.06.2020
1761 Clear 23 1011 88 10000 3.1 310 13:47 07.06.2020
1762 Clear 23 1011 88 10000 3.1 310 13:21 07.06.2020
1763 Clear 24 1011 88 10000 3.6 310 12:45 07.06.2020
1764 Clear 24 1011 88 10000 3.6 310 12:27 07.06.2020
1765 Clear 27 1010 73 10000 3.6 270 11:56 07.06.2020
1766 Clear 27 1010 73 10000 3.6 270 11:38 07.06.2020
1767 Clear 27 1010 73 10000 3.6 270 11:20 07.06.2020
1768 Clear 28 1010 65 10000 5.7 260 10:59 07.06.2020
1769 Clear 29 1010 65 10000 5.7 260 10:40 07.06.2020
1770 Clear 29 1010 65 10000 5.7 260 10:19 07.06.2020
1771 Clear 29 1010 57 10000 4.6 250 09:56 07.06.2020
1772 Clear 28 1010 57 10000 4.6 250 09:38 07.06.2020
1773 Clear 28 1010 57 10000 4.6 250 09:19 07.06.2020
1774 Clear 29 1010 54 10000 3.6 240 08:45 07.06.2020
1775 Clouds 28 1010 54 10000 3.6 240 08:23 07.06.2020
1776 Clouds 28 1011 48 10000 1.5 170 07:47 07.06.2020
1777 Clouds 28 1011 48 10000 1.5 170 07:28 07.06.2020
1778 Clouds 28 1011 48 10000 1.5 170 07:28 07.06.2020
1779 Clouds 27 1011 54 10000 1.5 190 06:43 07.06.2020
1780 Clouds 25 1012 57 10000 2.1 220 05:40 07.06.2020
1781 Clouds 24 1012 64 9000 2.6 210 04:20 07.06.2020
1782 Mist 22 1013 77 4500 1.5 190 02:32 07.06.2020
1783 Mist 21 1012 88 3500 3.1 190 01:50 07.06.2020
1784 Mist 21 1012 88 3500 3.1 190 01:25 07.06.2020
1785 Mist 20 1012 93 5000 1 240 00:42 07.06.2020
1786 Mist 20 1012 93 5000 1 240 00:18 07.06.2020
1787 Clouds 20 1012 88 7000 1 270 23:57 06.06.2020
1788 Clouds 19 1012 88 7000 1 270 23:36 06.06.2020
1789 Clouds 19 1012 88 7000 1 270 23:18 06.06.2020
1790 Clouds 19 1011 88 10000 2.1 170 22:56 06.06.2020
1791 Clouds 19 1011 88 10000 2.1 170 22:37 06.06.2020
1792 Clouds 19 1011 88 10000 2.1 170 22:18 06.06.2020
1793 Clouds 19 1011 88 10000 2.1 170 22:18 06.06.2020
1794 Clouds 18 1011 93 10000 0.5 50 21:43 06.06.2020
1795 Clouds 20 1011 93 10000 0.5 50 21:22 06.06.2020
1796 Clouds 21 1011 77 10000 2.1 240 20:55 06.06.2020
1797 Clouds 21 1011 77 10000 2.1 240 20:36 06.06.2020
1798 Clouds 21 1011 77 10000 2.1 240 20:18 06.06.2020
1799 Clouds 21 1011 82 10000 1.5 220 19:56 06.06.2020
1800 Clouds 21 1011 82 10000 1.5 220 19:36 06.06.2020
1801 Clouds 21 1010 82 10000 2.6 170 19:18 06.06.2020
1802 Clouds 21 1010 82 10000 2.6 170 18:42 06.06.2020
1803 Clouds 21 1010 82 10000 2.6 170 18:23 06.06.2020
1804 Clouds 21 1010 82 10000 2.6 170 18:23 06.06.2020
1805 Clouds 22 1010 82 6000 2.6 170 17:44 06.06.2020
1806 Clouds 22 1010 82 6000 2.6 170 17:21 06.06.2020
1807 Mist 22 1010 77 3800 4.1 220 16:58 06.06.2020
1808 Mist 23 1010 77 3800 4.1 220 16:39 06.06.2020
1809 Mist 23 1010 77 3800 4.1 220 16:21 06.06.2020
1810 Mist 23 1009 88 3800 2.6 290 15:54 06.06.2020
1811 Mist 23 1009 88 3800 2.6 290 15:36 06.06.2020
1812 Mist 23 1009 88 3800 2.6 290 15:18 06.06.2020
1813 Mist 24 1008 78 4500 3.1 310 14:39 06.06.2020
1814 Mist 24 1008 78 4500 3.1 310 14:20 06.06.2020
1815 Clouds 25 1007 73 7000 2.1 330 13:49 06.06.2020
1816 Clouds 27 1007 61 7000 2.1 260 13:20 06.06.2020
1817 Clouds 27 1007 61 7000 2.1 260 12:59 06.06.2020
1818 Clouds 27 1007 61 7000 2.1 260 12:40 06.06.2020
1819 Clouds 27 1007 61 7000 2.1 260 12:21 06.06.2020
1820 Clouds 27 1007 61 7000 2.1 260 12:21 06.06.2020
1821 Clouds 28 1006 65 6000 3.6 270 11:57 06.06.2020
1822 Clouds 29 1006 65 6000 3.6 270 11:38 06.06.2020
1823 Clouds 29 1006 65 6000 3.6 270 11:19 06.06.2020
1824 Clouds 30 1006 58 6000 5.1 280 10:57 06.06.2020
1825 Clouds 30 1006 58 6000 5.1 280 10:38 06.06.2020
1826 Clouds 30 1006 58 6000 5.1 280 10:20 06.06.2020
1827 Clouds 30 1006 54 6000 6.2 290 09:45 06.06.2020
1828 Clear 30 1006 54 6000 6.2 290 09:27 06.06.2020
1829 Clouds 31 1006 43 10000 1 10 08:49 06.06.2020
1830 Clouds 31 1006 43 10000 1 10 08:25 06.06.2020
1831 Clouds 30 1007 43 10000 1.5 360 07:57 06.06.2020
1832 Clouds 31 1007 43 10000 1.5 360 07:39 06.06.2020
1833 Clouds 30 1007 45 10000 2.1 130 07:20 06.06.2020
1834 Clouds 29 1007 45 10000 2.1 130 06:45 06.06.2020
1835 Clouds 29 1007 45 10000 2.1 130 06:26 06.06.2020
1836 Clouds 28 1008 54 8000 2.6 70 05:44 06.06.2020
1837 Clouds 27 1008 54 8000 2.6 70 05:23 06.06.2020
1838 Clouds 26 1008 57 8000 1.5 160 03:46 06.06.2020
1839 Clouds 24 1008 69 7000 1 170 02:36 06.06.2020
1840 Mist 22 1008 83 4200 1.5 340 01:23 06.06.2020
1841 Mist 20 1008 88 3500 0.5 330 00:58 06.06.2020
1842 Mist 20 1008 88 3500 0.5 330 00:40 06.06.2020
1843 Mist 20 1008 88 3500 0.5 330 00:21 06.06.2020
1844 Mist 18 1008 93 4200 1.5 330 23:40 05.06.2020
1845 Mist 18 1008 93 4200 1.5 330 23:20 05.06.2020
1846 Mist 18 1008 93 4200 1.5 330 23:20 05.06.2020
1847 Mist 18 1008 100 4200 1 290 22:56 05.06.2020
1848 Mist 18 1008 100 4200 1 290 22:38 05.06.2020
1849 Mist 18 1008 100 4200 1 290 22:20 05.06.2020
1850 Mist 18 1008 100 3500 1 320 21:43 05.06.2020
1851 Mist 18 1008 100 3500 1 320 21:23 05.06.2020
1852 Mist 19 1008 93 4200 1 280 20:59 05.06.2020
1853 Mist 19 1008 93 4200 1 280 20:41 05.06.2020
1854 Mist 19 1008 93 4200 1 280 20:21 05.06.2020
1855 Mist 19 1008 100 4800 1 10 19:44 05.06.2020
1856 Mist 19 1008 100 4800 1 10 19:24 05.06.2020
1857 Mist 19 1008 100 4200 0.5 250 18:58 05.06.2020
1858 Mist 19 1008 100 4200 0.5 250 18:58 05.06.2020
1859 Mist 19 1008 100 4200 0.5 250 18:39 05.06.2020
1860 Mist 19 1008 100 4200 0.5 250 18:20 05.06.2020
1861 Mist 20 1008 88 4500 0.43 321 17:58 05.06.2020
1862 Mist 19 1008 88 4500 0.43 321 17:40 05.06.2020
1863 Mist 20 1008 88 4500 0.84 332 17:19 05.06.2020
1864 Mist 20 1008 88 5000 0.5 360 16:39 05.06.2020
1865 Mist 20 1008 88 5000 0.5 360 16:21 05.06.2020
1866 Clouds 21 1008 88 6000 2.1 290 15:57 05.06.2020
1867 Clouds 22 1008 88 6000 2.1 290 15:37 05.06.2020
1868 Clouds 22 1008 88 6000 2.1 290 15:19 05.06.2020
1869 Clouds 22 1008 88 6000 2.1 290 15:19 05.06.2020
1870 Clouds 22 1007 77 10000 4.1 320 14:41 05.06.2020
1871 Clouds 22 1007 77 10000 4.1 320 14:22 05.06.2020
1872 Clouds 23 1007 73 10000 3.1 300 13:59 05.06.2020
1873 Clouds 23 1007 73 10000 3.1 300 13:41 05.06.2020
1874 Clouds 23 1007 73 10000 3.1 300 13:22 05.06.2020
1875 Clouds 26 1006 78 10000 3.1 300 12:43 05.06.2020
1876 Clouds 26 1006 78 10000 3.1 300 12:20 05.06.2020
1877 Clouds 27 1006 69 10000 4.1 290 11:57 05.06.2020
1878 Clouds 28 1006 69 10000 4.1 290 11:39 05.06.2020
1879 Clouds 28 1006 69 10000 4.1 290 11:20 05.06.2020
1880 Clouds 29 1005 57 10000 4.1 300 10:54 05.06.2020
1881 Clouds 28 1005 57 10000 4.1 300 10:36 05.06.2020
1882 Clouds 28 1005 57 10000 4.1 300 10:18 05.06.2020
1883 Clouds 29 1005 48 10000 2.1 280 09:54 05.06.2020
1884 Clouds 29 1005 48 10000 2.1 280 09:36 05.06.2020
1885 Clouds 29 1005 48 10000 2.1 280 09:18 05.06.2020
1886 Clouds 29 1006 51 10000 3.1 320 08:41 05.06.2020
1887 Clouds 28 1006 51 10000 3.1 320 08:19 05.06.2020
1888 Clouds 28 1006 51 10000 2.1 330 07:53 05.06.2020
1889 Clouds 28 1006 51 10000 2.1 330 07:35 05.06.2020
1890 Clouds 27 1006 54 10000 2.6 270 06:51 05.06.2020
1891 Clouds 25 1007 57 8000 1.5 300 05:24 05.06.2020
1892 Clouds 24 1007 64 8000 1.5 300 04:31 05.06.2020
1893 Clouds 24 1008 69 7000 1.5 280 03:49 05.06.2020
1894 Clouds 21 1008 77 6000 1 160 02:37 05.06.2020
1895 Clouds 21 1008 77 6000 1 160 02:18 05.06.2020
1896 Mist 20 1008 88 4200 1.5 310 01:34 05.06.2020
1897 Mist 20 1007 93 3300 1.5 300 00:55 05.06.2020
1898 Mist 20 1007 93 3300 1.5 300 00:36 05.06.2020
1899 Mist 19 1007 100 2500 1.5 330 00:18 05.06.2020
1900 Mist 19 1007 100 2500 1.5 330 23:42 04.06.2020
1901 Mist 19 1007 100 2500 1.5 330 23:24 04.06.2020
1902 Mist 19 1006 100 2800 2.1 290 22:42 04.06.2020
1903 Mist 18 1006 100 2800 2.1 290 22:22 04.06.2020
1904 Mist 18 1006 100 2500 2.1 320 21:58 04.06.2020
1905 Mist 19 1006 100 2500 2.1 320 21:39 04.06.2020
1906 Mist 19 1006 100 2500 2.1 320 21:20 04.06.2020
1907 Mist 19 1006 100 2300 2.6 330 20:57 04.06.2020
1908 Mist 19 1006 100 2300 2.6 330 20:39 04.06.2020
1909 Mist 20 1006 100 2300 2.6 330 20:19 04.06.2020
1910 Mist 20 1006 100 2500 2.1 310 19:55 04.06.2020
1911 Mist 20 1006 100 2500 2.1 310 19:37 04.06.2020
1912 Mist 20 1006 93 3500 1 280 19:18 04.06.2020
1913 Mist 20 1006 93 3500 1 280 18:38 04.06.2020
1914 Mist 20 1006 100 3200 1.5 310 18:20 04.06.2020
1915 Mist 20 1006 100 3200 1.5 310 17:44 04.06.2020
1916 Mist 21 1006 100 3200 1.5 310 17:24 04.06.2020
1917 Mist 21 1006 100 3200 1 290 16:59 04.06.2020
1918 Drizzle 21 1006 100 2500 1.5 290 16:40 04.06.2020
1919 Drizzle 21 1006 100 2500 1.5 290 16:20 04.06.2020
1920 Mist 20 1006 100 1600 1.5 290 15:44 04.06.2020
1921 Drizzle 22 1006 100 1600 1.5 290 15:26 04.06.2020
1922 Mist 22 1005 100 4200 2.1 310 14:42 04.06.2020
1923 Mist 22 1005 100 4200 2.1 310 14:23 04.06.2020
1924 Mist 22 1004 94 5000 2.6 230 13:58 04.06.2020
1925 Mist 22 1004 94 5000 2.6 230 13:40 04.06.2020
1926 Clouds 23 1004 94 7000 2.6 250 13:20 04.06.2020
1927 Clouds 23 1004 94 7000 2.6 250 12:59 04.06.2020
1928 Clouds 23 1004 94 7000 2.6 250 12:40 04.06.2020
1929 Clouds 23 1004 94 7000 2.6 250 12:22 04.06.2020
1930 Clouds 24 1004 88 8000 4.6 230 11:54 04.06.2020
1931 Clouds 24 1004 88 8000 4.6 230 11:36 04.06.2020
1932 Clouds 24 1004 88 9000 3.6 280 11:18 04.06.2020
1933 Clouds 24 1004 88 9000 3.6 280 10:40 04.06.2020
1934 Clouds 24 1004 88 9000 3.6 280 10:22 04.06.2020
1935 Clouds 24 1004 88 9000 5.1 300 09:56 04.06.2020
1936 Clouds 25 1004 88 9000 5.1 300 09:38 04.06.2020
1937 Clouds 25 1004 88 9000 5.1 300 09:19 04.06.2020
1938 Clouds 25 1004 88 9000 5.1 300 09:19 04.06.2020
1939 Clouds 27 1003 78 8000 4.6 280 08:41 04.06.2020
1940 Clouds 27 1003 78 8000 4.6 280 08:22 04.06.2020
1941 Clouds 27 1003 69 8000 4.6 250 07:33 04.06.2020
1942 Clouds 27 1003 73 7000 4.1 230 06:58 04.06.2020
1943 Clouds 27 1003 73 7000 4.1 230 06:58 04.06.2020
1944 Clouds 27 1003 73 7000 4.1 230 06:39 04.06.2020
1945 Clouds 26 1003 73 7000 3.6 240 06:20 04.06.2020
1946 Clouds 26 1003 73 7000 3.6 240 05:33 04.06.2020
1947 Clouds 26 1003 73 7000 3.6 240 05:33 04.06.2020
1948 Clouds 24 1004 83 9000 3.1 220 03:37 04.06.2020
1949 Mist 22 1004 94 4500 3.1 220 02:21 04.06.2020
1950 Mist 21 1003 94 3800 5.1 200 01:22 04.06.2020
1951 Mist 21 1003 94 3800 5.1 200 00:59 04.06.2020
1952 Mist 20 1003 100 3500 4.1 230 00:18 04.06.2020
1953 Mist 20 1003 100 3500 4.1 230 00:18 04.06.2020
1954 Mist 20 1003 100 3500 4.1 230 23:37 03.06.2020
1955 Mist 20 1003 100 3500 4.1 230 23:19 03.06.2020
1956 Mist 20 1003 100 3500 4.1 230 23:19 03.06.2020
1957 Drizzle 20 1003 94 3500 3.1 220 22:40 03.06.2020
1958 Drizzle 20 1003 94 3500 3.1 220 22:19 03.06.2020
1959 Mist 20 1003 100 3000 2.6 210 21:59 03.06.2020
1960 Mist 20 1003 100 3000 2.6 210 21:41 03.06.2020
1961 Mist 20 1003 100 3000 2.6 210 21:22 03.06.2020
1962 Mist 20 1003 100 3000 2.6 190 20:58 03.06.2020
1963 Mist 20 1003 100 3000 2.6 190 20:58 03.06.2020
1964 Mist 20 1003 100 3000 2.6 190 20:40 03.06.2020
1965 Mist 20 1003 94 4500 2.1 190 20:20 03.06.2020
1966 Mist 20 1003 94 4500 2.1 190 19:57 03.06.2020
1967 Clouds 20 1003 94 6000 0.5 300 19:37 03.06.2020
1968 Clouds 20 1003 94 6000 0.5 300 19:37 03.06.2020
1969 Clouds 20 1003 94 6000 0.5 300 19:37 03.06.2020
1970 Clouds 20 1003 94 6000 2.6 130 19:19 03.06.2020
1971 Clouds 20 1003 94 6000 2.6 130 18:55 03.06.2020
1972 Clouds 20 1003 94 6000 2.6 130 18:37 03.06.2020
1973 Clouds 20 1003 88 6000 1.5 180 18:18 03.06.2020
1974 Clouds 20 1003 88 6000 1.5 180 17:42 03.06.2020
1975 Clouds 20 1003 88 6000 1.5 180 17:21 03.06.2020
1976 Clouds 20 1004 82 8000 1.5 260 16:55 03.06.2020
1977 Clouds 20 1004 82 8000 1.5 260 16:37 03.06.2020
1978 Clouds 20 1003 88 9000 4.1 230 16:18 03.06.2020
1979 Clouds 20 1003 88 9000 4.1 230 16:18 03.06.2020
1980 Clouds 20 1003 88 9000 4.1 230 15:41 03.06.2020
1981 Clouds 21 1003 88 9000 4.1 230 15:21 03.06.2020
1982 Clouds 21 1003 88 8000 4.6 220 14:57 03.06.2020
1983 Clouds 22 1003 88 8000 4.6 220 14:37 03.06.2020
1984 Clouds 22 1003 88 8000 4.6 220 14:19 03.06.2020
1985 Clouds 22 1003 88 10000 3.6 260 13:38 03.06.2020
1986 Clouds 22 1003 88 10000 3.6 260 13:19 03.06.2020
1987 Clouds 24 1002 88 10000 3.6 270 12:43 03.06.2020
1988 Clear 26 1001 78 10000 6.2 250 12:22 03.06.2020
1989 Clear 24 1001 78 10000 6.2 250 11:47 03.06.2020
1990 Clear 26 1001 78 10000 6.2 250 11:27 03.06.2020
1991 Clear 27 1001 69 10000 6.2 240 10:58 03.06.2020
1992 Clear 27 1001 69 10000 6.2 240 10:39 03.06.2020
1993 Clear 27 1001 69 10000 6.2 240 10:21 03.06.2020
1994 Clear 28 1001 51 10000 4.1 230 09:44 03.06.2020
1995 Clear 29 1001 51 10000 4.1 230 09:20 03.06.2020
1996 Clear 28 1001 51 10000 4.1 210 08:56 03.06.2020
1997 Clear 28 1001 51 10000 4.1 210 08:36 03.06.2020
1998 Clouds 27 1002 54 10000 2.6 180 08:18 03.06.2020
1999 Clouds 27 1002 54 10000 2.6 180 07:42 03.06.2020
2000 Clouds 26 1003 57 10000 2.1 210 07:20 03.06.2020
2001 Clouds 26 1003 57 10000 2.1 210 06:50 03.06.2020
2002 Clouds 26 1003 57 10000 2.1 210 06:30 03.06.2020
2003 Clouds 25 1004 57 10000 1.5 190 05:46 03.06.2020
2004 Clouds 24 1004 64 10000 1.5 210 04:46 03.06.2020
2005 Haze 23 1005 69 8000 1 160 03:50 03.06.2020
2006 Clouds 22 1005 69 8000 1 240 02:47 03.06.2020
2007 Clouds 20 1005 77 6000 0.5 30 01:51 03.06.2020
2008 Mist 19 1004 93 4500 0.5 310 00:43 03.06.2020
2009 Mist 19 1004 93 4500 0.5 310 00:24 03.06.2020
2010 Mist 18 1004 100 2500 0.5 90 23:51 02.06.2020
2011 Mist 18 1004 100 2500 0.5 90 23:28 02.06.2020
2012 Mist 18 1004 100 2500 0.5 90 23:28 02.06.2020
2013 Mist 18 1004 100 2500 0.5 90 23:28 02.06.2020
2014 Mist 18 1005 93 3200 1 200 22:56 02.06.2020
2015 Mist 18 1005 93 3200 1 200 22:38 02.06.2020
2016 Mist 18 1005 93 3200 1 200 22:18 02.06.2020
2017 Mist 18 1005 93 2800 1.5 230 21:56 02.06.2020
2018 Mist 18 1005 93 2800 1.5 230 21:37 02.06.2020
2019 Mist 18 1005 93 2800 1.5 230 21:19 02.06.2020
2020 Mist 18 1005 93 2800 2.6 190 20:55 02.06.2020
2021 Mist 18 1005 93 2800 2.6 190 20:36 02.06.2020
2022 Mist 18 1005 93 2800 2.6 190 20:18 02.06.2020
2023 Mist 18 1005 93 3500 2.1 220 19:41 02.06.2020
2024 Mist 18 1005 93 3500 2.1 220 19:41 02.06.2020
2025 Mist 18 1005 93 3500 2.1 220 19:23 02.06.2020
2026 Mist 18 1005 93 3200 2.1 220 18:56 02.06.2020
2027 Mist 18 1005 93 3200 2.1 220 18:38 02.06.2020
2028 Clouds 18 1005 88 6000 1.5 230 18:19 02.06.2020
2029 Clouds 18 1005 88 6000 1.5 230 17:42 02.06.2020
2030 Clouds 18 1005 88 6000 1.5 230 17:23 02.06.2020
2031 Clouds 18 1005 88 6000 1.5 230 17:23 02.06.2020
2032 Clouds 18 1006 88 8000 2.6 240 16:57 02.06.2020
2033 Clouds 18 1006 88 8000 2.6 240 16:38 02.06.2020
2034 Clouds 18 1006 88 8000 2.6 240 16:20 02.06.2020
2035 Clouds 19 1006 82 10000 4.1 250 15:46 02.06.2020
2036 Clouds 19 1006 82 10000 4.1 250 15:24 02.06.2020
2037 Clouds 19 1006 77 10000 4.1 240 14:56 02.06.2020
2038 Clouds 19 1006 77 10000 4.1 240 14:37 02.06.2020
2039 Clouds 19 1006 77 10000 4.1 240 14:19 02.06.2020
2040 Clouds 19 1005 64 10000 4.6 230 13:39 02.06.2020
2041 Clouds 19 1005 64 10000 4.6 230 13:19 02.06.2020
2042 Clouds 20 1005 64 10000 2.6 240 12:58 02.06.2020
2043 Clouds 20 1005 64 10000 2.6 240 12:40 02.06.2020
2044 Clouds 20 1005 64 10000 2.6 240 12:21 02.06.2020
2045 Clouds 20 1005 60 10000 3.1 250 11:56 02.06.2020
2046 Clouds 21 1005 60 10000 3.1 250 11:38 02.06.2020
2047 Clouds 21 1005 60 10000 3.1 250 11:38 02.06.2020
2048 Clouds 21 1005 60 10000 3.1 250 11:20 02.06.2020
2049 Clouds 21 1005 60 10000 3.1 250 11:20 02.06.2020
2050 Clouds 21 1005 60 10000 4.1 230 10:47 02.06.2020
2051 Clouds 21 1005 60 10000 4.1 230 10:28 02.06.2020
2052 Clouds 22 1005 53 10000 6.2 200 09:56 02.06.2020
2053 Clouds 22 1005 53 10000 6.2 200 09:37 02.06.2020
2054 Clouds 22 1005 53 10000 6.2 200 09:37 02.06.2020
2055 Clouds 22 1005 53 10000 6.2 200 09:19 02.06.2020
2056 Clouds 22 1005 46 10000 4.1 170 08:46 02.06.2020
2057 Clouds 22 1005 46 10000 4.1 170 08:20 02.06.2020
2058 Clouds 22 1005 46 10000 4.6 180 07:44 02.06.2020
2059 Clouds 22 1005 46 10000 4.6 180 07:25 02.06.2020
2060 Clouds 19 1005 59 10000 3.1 170 06:43 02.06.2020
2061 Clouds 17 1006 77 10000 10.3 140 05:54 02.06.2020
2062 Rain 18 1010 93 4000 2.1 280 04:57 02.06.2020
2063 Clouds 17 1010 77 10000 2.6 280 03:20 02.06.2020
2064 Clouds 16 1010 72 10000 2.1 280 02:20 02.06.2020
2065 Clouds 15 1010 82 10000 2.1 170 00:57 02.06.2020
2066 Clouds 15 1010 82 10000 2.1 170 00:23 02.06.2020
2067 Clouds 14 1009 87 10000 2.1 200 23:39 01.06.2020
2068 Clouds 14 1009 87 10000 2.1 200 23:21 01.06.2020
2069 Clouds 13 1009 93 7000 0.5 200 22:59 01.06.2020
2070 Clouds 13 1009 93 7000 0.5 200 22:39 01.06.2020
2071 Clouds 13 1009 93 7000 0.5 200 22:20 01.06.2020
2072 Clouds 13 1009 93 7000 0.5 200 22:20 01.06.2020
2073 Mist 14 1009 87 4800 2.6 140 21:55 01.06.2020
2074 Mist 14 1009 87 4800 2.6 140 21:36 01.06.2020
2075 Mist 14 1009 87 4800 2.6 140 21:18 01.06.2020
2076 Clouds 14 1010 82 10000 1 180 20:43 01.06.2020
2077 Mist 15 1010 93 4200 4.1 160 20:21 01.06.2020
2078 Mist 15 1010 93 4200 4.1 160 20:21 01.06.2020
2079 Mist 15 1010 93 4200 4.1 160 19:59 01.06.2020
2080 Mist 15 1010 93 4200 4.1 160 19:41 01.06.2020
2081 Clouds 14 1009 93 6000 3.6 140 19:20 01.06.2020
2082 Clouds 15 1009 93 6000 3.6 140 18:58 01.06.2020
2083 Clouds 15 1009 93 6000 3.6 140 18:39 01.06.2020
2084 Clouds 15 1010 87 9000 1.5 170 18:19 01.06.2020
2085 Clouds 15 1010 87 9000 1.5 170 17:42 01.06.2020
2086 Clouds 15 1010 87 9000 1.5 170 17:22 01.06.2020
2087 Clouds 16 1010 87 10000 2.1 210 16:58 01.06.2020
2088 Clouds 16 1010 87 10000 2.1 210 16:39 01.06.2020
2089 Clouds 16 1010 77 10000 2.6 220 16:19 01.06.2020
2090 Clouds 16 1010 77 10000 2.6 220 15:54 01.06.2020
2091 Clouds 18 1010 77 10000 2.6 220 15:36 01.06.2020
2092 Clear 18 1010 77 10000 2.6 220 15:18 01.06.2020
2093 Clear 18 1010 77 10000 2.6 220 15:18 01.06.2020
2094 Clear 18 1009 63 10000 1 220 14:41 01.06.2020
2095 Clear 18 1009 63 10000 1 220 14:23 01.06.2020
2096 Clear 20 1009 55 10000 5.7 270 13:58 01.06.2020
2097 Clear 20 1009 55 10000 5.7 270 13:58 01.06.2020
2098 Clear 20 1009 55 10000 5.7 270 13:39 01.06.2020
2099 Clouds 20 1009 55 10000 5.7 270 13:20 01.06.2020
2100 Clouds 21 1009 56 10000 5.1 250 12:58 01.06.2020
2101 Clouds 21 1009 56 10000 5.1 250 12:39 01.06.2020
2102 Clouds 21 1009 56 10000 5.1 250 12:39 01.06.2020
2103 Clouds 21 1009 56 10000 5.1 250 12:20 01.06.2020
2104 Clouds 22 1008 49 10000 5.7 260 11:41 01.06.2020
2105 Clouds 22 1008 49 10000 5.7 260 11:23 01.06.2020
2106 Clouds 23 1009 46 10000 7.2 260 10:59 01.06.2020
2107 Clouds 23 1009 46 10000 7.2 260 10:39 01.06.2020
2108 Clouds 23 1009 46 10000 7.2 260 10:20 01.06.2020
2109 Clouds 24 1009 40 10000 8.7 270 09:56 01.06.2020
2110 Clear 24 1009 40 10000 8.7 270 09:38 01.06.2020
2111 Clear 24 1009 40 10000 8.7 270 09:19 01.06.2020
2112 Clear 25 1009 36 10000 9.3 270 08:46 01.06.2020
2113 Clear 25 1009 36 10000 9.3 270 08:25 01.06.2020
2114 Clear 25 1009 44 10000 6.7 240 07:45 01.06.2020
2115 Clear 25 1009 44 10000 6.7 240 07:27 01.06.2020
2116 Clouds 25 1009 41 10000 7.2 270 06:57 01.06.2020
2117 Clouds 24 1009 41 10000 7.2 270 06:20 01.06.2020
2118 Clouds 24 1010 49 10000 5.1 270 05:50 01.06.2020
2119 Clouds 24 1010 56 10000 4.1 270 04:23 01.06.2020
2120 Clouds 22 1010 60 10000 3.6 270 03:46 01.06.2020
2121 Clouds 21 1010 72 10000 3.1 270 03:18 01.06.2020
2122 Clouds 19 1010 77 10000 4.1 260 01:47 01.06.2020
2123 Clouds 19 1010 77 10000 4.1 260 01:29 01.06.2020
2124 Clouds 18 1010 82 10000 3.1 260 00:57 01.06.2020
2125 Clouds 18 1010 82 10000 3.1 260 00:39 01.06.2020
2126 Clouds 18 1010 82 10000 3.1 260 00:20 01.06.2020
2127 Clouds 18 1011 77 10000 1.5 240 23:55 31.05.2020
2128 Clouds 18 1011 77 10000 1.5 240 23:55 31.05.2020
2129 Clouds 18 1010 88 10000 3.6 250 23:36 31.05.2020
2130 Rain 18 1010 93 10000 3.1 270 23:18 31.05.2020
2131 Rain 17 1010 93 10000 3.1 270 22:42 31.05.2020
2132 Rain 17 1010 93 10000 3.1 270 22:42 31.05.2020
2133 Rain 17 1010 93 10000 3.1 270 22:24 31.05.2020
2134 Clouds 18 1010 93 10000 5.7 260 21:58 31.05.2020
2135 Clouds 18 1010 93 10000 5.7 260 21:39 31.05.2020
2136 Clouds 18 1010 93 10000 5.7 260 21:21 31.05.2020
2137 Clouds 18 1010 93 10000 5.7 260 21:21 31.05.2020
2138 Clouds 18 1010 93 10000 3.1 260 20:48 31.05.2020
2139 Clouds 18 1010 93 10000 3.1 260 20:25 31.05.2020
2140 Clouds 18 1010 93 8000 4.6 250 19:57 31.05.2020
2141 Clouds 18 1010 93 8000 4.6 250 19:38 31.05.2020
2142 Clouds 18 1010 93 8000 4.6 250 19:20 31.05.2020
2143 Clouds 18 1010 93 8000 4.1 270 18:56 31.05.2020
2144 Clouds 18 1010 93 8000 4.1 270 18:37 31.05.2020
2145 Clouds 18 1010 93 6000 2.1 280 18:19 31.05.2020
2146 Clouds 18 1010 93 6000 2.1 280 17:42 31.05.2020
2147 Clouds 18 1010 93 6000 2.1 280 17:24 31.05.2020
2148 Rain 19 1010 100 3500 2.1 250 16:42 31.05.2020
2149 Rain 19 1010 100 3500 2.1 250 16:22 31.05.2020
2150 Clouds 20 1010 88 7000 3.1 250 15:56 31.05.2020
2151 Clouds 20 1010 88 7000 3.1 250 15:37 31.05.2020
2152 Clouds 20 1010 72 10000 3.6 280 15:18 31.05.2020
2153 Clouds 20 1010 72 10000 3.6 280 14:41 31.05.2020
2154 Clouds 20 1010 72 10000 3.6 280 14:19 31.05.2020
2155 Clouds 21 1010 72 10000 2.1 300 13:55 31.05.2020
2156 Clouds 21 1010 72 10000 2.1 300 13:37 31.05.2020
2157 Clouds 21 1010 72 10000 2.1 300 13:37 31.05.2020
2158 Clouds 21 1010 68 10000 3.1 280 13:19 31.05.2020
2159 Clouds 22 1010 68 10000 3.1 280 12:43 31.05.2020
2160 Clouds 22 1010 68 10000 3.1 280 12:24 31.05.2020
2161 Clouds 22 1009 64 10000 4.1 300 11:55 31.05.2020
2162 Clouds 23 1009 64 10000 4.1 300 11:36 31.05.2020
2163 Clouds 23 1009 64 10000 3.6 280 11:18 31.05.2020
2164 Clouds 23 1009 64 10000 3.6 280 10:43 31.05.2020
2165 Clouds 24 1009 56 10000 4.1 280 10:25 31.05.2020
2166 Clouds 23 1009 64 10000 3.6 280 10:25 31.05.2020
2167 Clouds 24 1009 56 10000 4.1 280 09:58 31.05.2020
2168 Clouds 25 1009 56 10000 4.1 280 09:40 31.05.2020
2169 Clouds 25 1009 53 10000 5.1 270 09:20 31.05.2020
2170 Clouds 26 1009 53 10000 5.1 270 08:42 31.05.2020
2171 Clouds 26 1009 53 10000 5.1 270 08:24 31.05.2020
2172 Clouds 27 1010 53 10000 4.1 270 07:49 31.05.2020
2173 Clouds 27 1010 53 10000 4.1 270 07:22 31.05.2020
2174 Clouds 27 1010 54 6000 3.1 300 06:57 31.05.2020
2175 Clouds 27 1010 54 6000 3.1 300 06:34 31.05.2020
2176 Clouds 26 1011 61 7000 3.1 290 05:49 31.05.2020
2177 Clouds 26 1011 61 7000 3.1 290 05:31 31.05.2020
2178 Clear 24 1012 57 8000 1 300 03:57 31.05.2020
2179 Clear 24 1012 57 8000 1 300 03:22 31.05.2020
2180 Clear 22 1013 64 8000 1 310 02:44 31.05.2020
2181 Clouds 20 1013 68 7000 2.1 290 01:45 31.05.2020
2182 Clouds 18 1013 82 7000 0.5 360 00:37 31.05.2020
2183 Clouds 18 1013 82 7000 0.5 360 00:19 31.05.2020
2184 Clouds 16 1013 88 7000 0.5 310 23:41 30.05.2020
2185 Clouds 16 1013 88 7000 0.5 310 23:23 30.05.2020
2186 Clouds 16 1014 93 7000 0.5 20 22:42 30.05.2020
2187 Clouds 16 1014 93 7000 0.5 20 22:23 30.05.2020
2188 Clouds 16 1014 88 7000 0.5 350 21:58 30.05.2020
2189 Clouds 16 1014 88 7000 0.5 350 21:40 30.05.2020
2190 Clouds 16 1014 88 7000 0.5 350 21:22 30.05.2020
2191 Clouds 17 1014 82 7000 0.5 310 20:57 30.05.2020
2192 Clouds 17 1014 82 7000 0.5 310 20:39 30.05.2020
2193 Clouds 17 1014 82 7000 0.5 310 20:21 30.05.2020
2194 Clouds 17 1015 88 7000 0.5 350 19:44 30.05.2020
2195 Clouds 17 1015 88 7000 0.5 350 19:22 30.05.2020
2196 Clouds 17 1015 82 8000 0.5 340 18:59 30.05.2020
2197 Clouds 17 1015 82 8000 0.5 340 18:40 30.05.2020
2198 Clouds 18 1015 82 10000 1 350 18:18 30.05.2020
2199 Clouds 18 1015 82 10000 1 350 17:40 30.05.2020
2200 Clouds 18 1015 82 10000 1 350 17:22 30.05.2020
2201 Clouds 18 1015 77 10000 1.5 330 16:45 30.05.2020
2202 Clouds 18 1015 77 10000 1.5 330 16:24 30.05.2020
2203 Clouds 18 1015 77 10000 1.5 330 16:24 30.05.2020
2204 Clouds 19 1015 72 10000 1 310 15:59 30.05.2020
2205 Clouds 20 1015 72 10000 1 310 15:41 30.05.2020
2206 Clouds 20 1015 72 10000 1 310 15:41 30.05.2020
2207 Clear 20 1015 72 10000 1 310 15:22 30.05.2020
2208 Clear 21 1014 64 10000 2.6 280 14:43 30.05.2020
2209 Clouds 21 1014 64 10000 2.6 280 14:23 30.05.2020
2210 Clouds 22 1014 64 10000 3.1 290 13:43 30.05.2020
2211 Clouds 22 1014 64 10000 3.1 290 13:22 30.05.2020
2212 Clouds 25 1014 60 10000 2.1 250 12:42 30.05.2020
2213 Clouds 25 1014 60 10000 2.1 250 12:20 30.05.2020
2214 Clouds 27 1014 57 10000 5.7 290 11:57 30.05.2020
2215 Clouds 27 1014 57 10000 5.7 290 11:39 30.05.2020
2216 Clouds 27 1014 57 10000 5.7 290 11:21 30.05.2020
2217 Clouds 28 1014 50 10000 6.2 290 10:40 30.05.2020
2218 Clouds 28 1014 50 10000 6.2 290 10:21 30.05.2020
2219 Clouds 29 1014 48 9000 4.1 260 09:49 30.05.2020
2220 Clouds 29 1014 48 9000 4.1 260 09:31 30.05.2020
2221 Clouds 30 1015 45 7000 2.1 310 08:51 30.05.2020
2222 Clouds 30 1015 45 7000 2.1 310 08:51 30.05.2020
2223 Clouds 29 1015 45 7000 2.1 310 08:32 30.05.2020
2224 Clouds 28 1015 51 7000 3.1 300 07:45 30.05.2020
2225 Clouds 28 1015 51 7000 3.1 300 07:24 30.05.2020
2226 Clouds 28 1016 47 10000 2.1 270 06:51 30.05.2020
2227 Clouds 28 1016 47 10000 2.1 270 06:23 30.05.2020
2228 Clouds 28 1016 39 10000 1.5 250 05:49 30.05.2020
2229 Clouds 25 1017 50 9000 1.5 110 03:39 30.05.2020
2230 Clouds 23 1018 60 10000 2.1 150 02:30 30.05.2020
2231 Clouds 20 1018 73 10000 0.5 210 01:48 30.05.2020
2232 Clouds 17 1018 88 10000 1 340 00:38 30.05.2020
2233 Clouds 17 1018 88 10000 1 340 00:19 30.05.2020
2234 Clouds 15 1017 100 10000 0.5 50 23:57 29.05.2020
2235 Clouds 15 1017 100 10000 0.5 50 23:37 29.05.2020
2236 Clouds 15 1017 100 6000 1 240 23:18 29.05.2020
2237 Clouds 15 1017 100 6000 1 240 22:40 29.05.2020
2238 Clouds 15 1017 100 6000 1 240 22:19 29.05.2020
2239 Clouds 15 1017 100 6000 1.5 340 21:58 29.05.2020
2240 Clouds 15 1017 100 6000 1.5 340 21:37 29.05.2020
2241 Clouds 15 1017 100 6000 1.5 340 21:18 29.05.2020
2242 Clouds 16 1017 93 10000 1.5 360 20:44 29.05.2020
2243 Clouds 16 1017 93 10000 1.5 360 20:20 29.05.2020
2244 Clouds 16 1017 87 10000 1.5 330 19:58 29.05.2020
2245 Clouds 16 1017 87 10000 1.5 330 19:38 29.05.2020
2246 Clouds 16 1017 87 10000 1.5 330 19:19 29.05.2020
2247 Clouds 17 1017 87 10000 1 340 18:46 29.05.2020
2248 Clouds 17 1017 87 10000 1 340 18:19 29.05.2020
2249 Clouds 17 1016 88 10000 1 10 18:19 29.05.2020
2250 Clouds 17 1016 88 10000 1 10 17:56 29.05.2020
2251 Clouds 17 1016 88 10000 1 10 17:56 29.05.2020
2252 Clouds 18 1016 88 10000 1 10 17:37 29.05.2020
2253 Clouds 18 1017 88 10000 1.5 320 17:19 29.05.2020
2254 Clouds 18 1017 88 10000 1.5 320 16:42 29.05.2020
2255 Clouds 19 1016 82 10000 1.5 310 16:23 29.05.2020
2256 Clouds 19 1016 82 10000 1.5 310 15:55 29.05.2020
2257 Clouds 19 1016 82 10000 1.5 310 15:37 29.05.2020
2258 Clouds 20 1016 77 10000 1.5 300 15:18 29.05.2020
2259 Clouds 20 1016 77 10000 1.5 300 14:39 29.05.2020
2260 Clear 20 1016 77 10000 1.5 300 14:21 29.05.2020
2261 Clear 22 1015 72 10000 1.5 300 13:43 29.05.2020
2262 Clear 22 1015 72 10000 1.5 300 13:24 29.05.2020
2263 Clear 23 1015 64 10000 3.1 280 12:58 29.05.2020
2264 Clear 23 1015 64 10000 3.1 280 12:40 29.05.2020
2265 Clear 23 1015 64 10000 3.1 280 12:21 29.05.2020
2266 Clear 26 1014 60 10000 4.1 290 11:44 29.05.2020
2267 Clear 26 1014 60 10000 4.1 290 11:26 29.05.2020
2268 Clouds 27 1014 57 10000 5.1 280 10:56 29.05.2020
2269 Clouds 27 1014 57 10000 5.1 280 10:36 29.05.2020
2270 Clouds 27 1014 54 10000 6.2 290 10:18 29.05.2020
2271 Clouds 27 1014 54 10000 6.2 290 09:42 29.05.2020
2272 Clouds 27 1014 54 10000 6.2 290 09:19 29.05.2020
2273 Clouds 27 1014 42 10000 2.6 270 08:48 29.05.2020
2274 Clouds 27 1014 42 10000 2.6 270 08:26 29.05.2020
2275 Clouds 27 1014 41 10000 2.6 310 07:58 29.05.2020
2276 Clouds 27 1014 41 10000 2.6 310 07:37 29.05.2020
2277 Clouds 27 1014 41 10000 2.6 310 07:18 29.05.2020
2278 Clear 26 1015 47 10000 2.1 300 06:46 29.05.2020
2279 Clear 26 1015 47 10000 2.1 300 06:26 29.05.2020
2280 Clouds 25 1015 50 10000 3.1 310 05:45 29.05.2020
2281 Clouds 19 1016 77 6000 2.1 180 02:35 29.05.2020
2282 Clouds 17 1015 82 6000 2.6 190 01:28 29.05.2020
2283 Mist 15 1015 93 4200 1.5 170 00:54 29.05.2020
2284 Mist 15 1015 93 4200 1.5 170 00:33 29.05.2020
2285 Mist 13 1014 100 4200 1.5 160 23:58 28.05.2020
2286 Mist 13 1014 100 4200 1.5 160 23:39 28.05.2020
2287 Mist 13 1013 100 4200 0.5 260 23:18 28.05.2020
2288 Mist 13 1013 100 4200 0.5 260 22:42 28.05.2020
2289 Mist 13 1013 100 4200 0.5 260 22:24 28.05.2020
2290 Clear 13 1013 100 7000 1.5 40 21:56 28.05.2020
2291 Clear 13 1013 100 7000 1.5 40 21:38 28.05.2020
2292 Clear 13 1013 100 7000 1.5 40 21:19 28.05.2020
2293 Clear 13 1013 100 7000 0.5 230 20:56 28.05.2020
2294 Clear 13 1013 100 7000 0.5 230 20:37 28.05.2020
2295 Clear 13 1013 100 7000 0.5 230 20:18 28.05.2020
2296 Clear 14 1013 100 8000 1.5 320 19:43 28.05.2020
2297 Clear 14 1013 100 8000 1.5 320 19:21 28.05.2020
2298 Clear 14 1012 93 9000 1 360 18:57 28.05.2020
2299 Clear 15 1012 93 9000 1 360 18:39 28.05.2020
2300 Clear 15 1012 93 9000 1 360 18:21 28.05.2020
2301 Clear 15 1012 93 10000 1 340 17:41 28.05.2020
2302 Clear 15 1012 93 10000 1 340 17:41 28.05.2020
2303 Clear 15 1012 93 10000 1 340 17:22 28.05.2020
2304 Clear 16 1012 93 10000 1.5 300 16:56 28.05.2020
2305 Clear 16 1012 93 10000 1.5 300 16:37 28.05.2020
2306 Clear 16 1011 87 10000 2.1 310 16:18 28.05.2020
2307 Clear 17 1011 87 10000 2.1 310 15:42 28.05.2020
2308 Clear 17 1011 87 10000 2.1 310 15:23 28.05.2020
2309 Clear 18 1011 77 10000 3.1 290 14:44 28.05.2020
2310 Clouds 18 1011 77 10000 3.1 290 14:26 28.05.2020
2311 Clouds 20 1010 68 10000 2.6 290 13:58 28.05.2020
2312 Clouds 20 1010 68 10000 2.6 290 13:39 28.05.2020
2313 Clouds 21 1009 60 10000 3.1 290 13:20 28.05.2020
2314 Clouds 21 1009 60 10000 3.1 290 12:42 28.05.2020
2315 Clouds 21 1009 53 10000 4.1 280 12:19 28.05.2020
2316 Clouds 22 1009 53 10000 4.1 280 11:43 28.05.2020
2317 Clouds 22 1009 53 10000 4.1 280 11:43 28.05.2020
2318 Clouds 22 1009 53 10000 4.1 280 11:24 28.05.2020
2319 Clouds 22 1008 46 10000 2.1 310 10:57 28.05.2020
2320 Clouds 24 1008 46 10000 2.1 310 10:39 28.05.2020
2321 Clouds 24 1009 46 10000 3.1 320 10:19 28.05.2020
2322 Clouds 24 1009 46 10000 3.1 320 09:39 28.05.2020
2323 Clouds 24 1009 46 10000 3.1 320 09:20 28.05.2020
2324 Clouds 23 1009 53 10000 4.1 290 08:49 28.05.2020
2325 Clouds 23 1009 46 10000 5.1 290 08:26 28.05.2020
2326 Clouds 23 1009 46 10000 5.1 290 07:45 28.05.2020
2327 Clouds 23 1009 46 10000 5.1 290 07:26 28.05.2020
2328 Clouds 23 1009 46 10000 5.1 270 06:57 28.05.2020
2329 Clouds 23 1009 46 10000 5.1 270 06:37 28.05.2020
2330 Clouds 23 1009 49 10000 2.1 230 05:56 28.05.2020
2331 Clouds 23 1009 49 10000 2.1 230 05:35 28.05.2020
2332 Clouds 21 1009 43 10000 1.5 140 04:28 28.05.2020
2333 Clouds 19 1009 49 10000 2.1 170 03:45 28.05.2020
2334 Clouds 18 1009 63 10000 3.1 160 02:45 28.05.2020
2335 Clouds 17 1009 77 10000 2.6 150 01:51 28.05.2020
2336 Clouds 16 1009 87 7000 2.6 160 00:54 28.05.2020
2337 Mist 15 1009 82 8000 2.6 170 00:26 28.05.2020
2338 Mist 14 1009 93 5000 2.6 150 23:58 27.05.2020
2339 Mist 13 1009 93 5000 2.6 150 23:39 27.05.2020
2340 Mist 13 1008 93 5000 3.1 140 23:20 27.05.2020
2341 Mist 13 1008 93 5000 3.1 140 22:56 27.05.2020
2342 Mist 13 1008 93 5000 3.1 140 22:38 27.05.2020
2343 Mist 14 1008 93 5000 2.6 130 22:19 27.05.2020
2344 Mist 13 1008 93 5000 2.6 130 21:41 27.05.2020
2345 Mist 13 1008 93 5000 2.6 130 21:22 27.05.2020
2346 Clouds 13 1008 93 7000 1 180 20:59 27.05.2020
2347 Clouds 13 1008 93 7000 1 180 20:59 27.05.2020
2348 Clouds 13 1008 93 7000 1 180 20:40 27.05.2020
2349 Clouds 13 1008 93 7000 1 180 20:21 27.05.2020
2350 Clouds 14 1009 93 8000 0.5 120 19:55 27.05.2020
2351 Clouds 14 1009 93 8000 0.5 120 19:37 27.05.2020
2352 Clouds 14 1009 93 7000 1 300 19:18 27.05.2020
2353 Clouds 14 1009 93 7000 1 300 18:39 27.05.2020
2354 Clouds 14 1009 93 7000 1 20 18:19 27.05.2020
2355 Clouds 14 1009 93 7000 1 20 17:45 27.05.2020
2356 Clouds 14 1009 93 7000 1 20 17:26 27.05.2020
2357 Clouds 15 1010 93 10000 0.5 340 16:57 27.05.2020
2358 Clouds 15 1010 93 10000 0.5 340 16:38 27.05.2020
2359 Clouds 15 1010 93 10000 0.5 340 16:38 27.05.2020
2360 Clear 15 1010 93 10000 0.5 340 16:20 27.05.2020
2361 Clear 15 1010 87 10000 3.1 290 15:59 27.05.2020
2362 Clear 16 1010 87 10000 3.1 290 15:37 27.05.2020
2363 Clouds 16 1010 87 10000 3.1 290 15:18 27.05.2020
2364 Clouds 17 1009 87 10000 2.6 300 14:42 27.05.2020
2365 Clouds 17 1009 87 10000 2.6 300 14:20 27.05.2020
2366 Clouds 18 1009 82 10000 3.1 300 13:44 27.05.2020
2367 Clouds 18 1009 82 10000 3.1 300 13:25 27.05.2020
2368 Clouds 21 1008 68 10000 4.1 270 12:56 27.05.2020
2369 Clouds 21 1008 68 10000 4.1 270 12:37 27.05.2020
2370 Clouds 22 1008 64 10000 5.1 280 12:18 27.05.2020
2371 Clouds 22 1008 64 10000 5.1 280 11:39 27.05.2020
2372 Clouds 24 1008 56 10000 4.6 280 11:21 27.05.2020
2373 Clouds 24 1008 56 10000 4.6 280 10:55 27.05.2020
2374 Clouds 24 1008 56 10000 4.6 280 10:37 27.05.2020
2375 Clouds 24 1008 60 10000 6.2 290 10:18 27.05.2020
2376 Clouds 24 1008 60 10000 6.2 290 09:40 27.05.2020
2377 Clouds 24 1008 60 10000 5.7 290 09:21 27.05.2020
2378 Clouds 24 1008 60 10000 5.7 290 08:43 27.05.2020
2379 Clouds 24 1008 60 10000 5.7 290 08:25 27.05.2020
2380 Clouds 24 1009 50 10000 5.1 280 07:57 27.05.2020
2381 Clouds 24 1009 50 10000 5.1 280 07:38 27.05.2020
2382 Clouds 24 1009 50 10000 5.1 280 07:20 27.05.2020
2383 Clouds 24 1009 41 10000 3.6 330 06:41 27.05.2020
2384 Clouds 23 1009 53 10000 1.5 280 06:19 27.05.2020
2385 Clouds 22 1009 53 10000 1.5 280 05:47 27.05.2020
2386 Clouds 21 1010 64 10000 1.5 200 04:19 27.05.2020
2387 Clouds 17 1010 72 10000 1.5 310 02:30 27.05.2020
2388 Clouds 15 1010 87 10000 1 260 01:53 27.05.2020
2389 Clouds 15 1010 87 10000 1 260 01:23 27.05.2020
2390 Clear 13 1010 93 10000 1 310 00:44 27.05.2020
2391 Clear 12 1010 100 8000 1 280 00:19 27.05.2020
2392 Clear 12 1010 100 8000 1 280 23:43 26.05.2020
2393 Clear 12 1010 100 8000 1 280 23:25 26.05.2020
2394 Clouds 11 1009 100 7000 0.5 10 22:59 26.05.2020
2395 Clouds 11 1009 100 7000 0.5 10 22:58 26.05.2020
2396 Clouds 11 1009 100 7000 0.5 10 22:38 26.05.2020
2397 Clear 11 1010 100 9000 0.5 130 22:20 26.05.2020
2398 Clear 11 1010 100 9000 0.5 130 21:56 26.05.2020
2399 Clear 11 1010 100 9000 0.5 130 21:56 26.05.2020
2400 Clear 11 1010 100 9000 0.5 130 21:38 26.05.2020
2401 Clear 12 1009 100 9000 1 340 21:19 26.05.2020
2402 Clear 12 1009 100 9000 1 340 20:42 26.05.2020
2403 Clouds 12 1009 100 9000 1 230 20:21 26.05.2020
2404 Clouds 12 1009 100 9000 1 230 19:56 26.05.2020
2405 Clouds 12 1009 100 9000 1 230 19:37 26.05.2020
2406 Clouds 13 1009 100 8000 2.1 260 19:18 26.05.2020
2407 Clouds 13 1009 100 8000 2.1 260 18:41 26.05.2020
2408 Clouds 13 1009 100 6000 1.5 250 18:21 26.05.2020
2409 Clouds 13 1009 100 6000 1.5 250 17:43 26.05.2020
2410 Clouds 13 1009 100 6000 1.5 250 17:24 26.05.2020
2411 Clouds 14 1009 100 6000 2.1 300 16:59 26.05.2020
2412 Clouds 14 1009 100 6000 2.1 300 16:41 26.05.2020
2413 Clouds 15 1009 93 7000 2.1 320 16:19 26.05.2020
2414 Clouds 15 1009 93 7000 2.1 320 15:43 26.05.2020
2415 Clouds 15 1009 93 7000 2.1 320 15:21 26.05.2020
2416 Clouds 16 1009 93 10000 1.5 240 14:56 26.05.2020
2417 Clouds 16 1009 93 10000 1.5 240 14:37 26.05.2020
2418 Rain 16 1008 93 10000 2.1 300 14:19 26.05.2020
2419 Rain 16 1008 93 10000 2.1 300 13:41 26.05.2020
2420 Rain 16 1008 93 10000 2.1 300 13:23 26.05.2020
2421 Clouds 16 1008 87 10000 2.6 300 12:56 26.05.2020
2422 Clouds 17 1008 87 10000 2.6 300 12:37 26.05.2020
2423 Clouds 17 1008 87 10000 3.6 280 12:19 26.05.2020
2424 Clouds 17 1008 87 10000 3.6 280 11:41 26.05.2020
2425 Clouds 17 1008 87 10000 3.6 280 11:20 26.05.2020
2426 Rain 17 1008 87 10000 3.6 290 10:47 26.05.2020
2427 Rain 17 1008 87 10000 3.6 290 10:20 26.05.2020
2428 Rain 19 1008 87 8000 3.1 270 09:59 26.05.2020
2429 Rain 20 1008 87 8000 3.1 270 09:37 26.05.2020
2430 Rain 20 1008 87 8000 3.1 270 09:18 26.05.2020
2431 Rain 20 1008 87 8000 3.1 270 09:18 26.05.2020
2432 Clouds 22 1008 82 8000 6.2 290 08:40 26.05.2020
2433 Clouds 22 1008 82 8000 6.2 290 08:22 26.05.2020
2434 Clouds 23 1008 68 8000 4.6 280 07:43 26.05.2020
2435 Clouds 23 1008 68 8000 4.6 280 07:23 26.05.2020
2436 Clouds 23 1008 60 8000 1.5 340 06:52 26.05.2020
2437 Clouds 23 1008 60 8000 1.5 340 06:28 26.05.2020
2438 Clouds 23 1008 60 8000 1.5 340 06:28 26.05.2020
2439 Clouds 23 1009 64 8000 1.5 320 05:42 26.05.2020
2440 Clouds 23 1009 64 8000 1.5 320 05:18 26.05.2020
2441 Clouds 21 1010 68 6000 2.6 320 04:47 26.05.2020
2442 Clouds 21 1010 68 6000 2.6 320 04:28 26.05.2020
2443 Mist 18 1010 72 4500 2.1 330 03:45 26.05.2020
2444 Mist 18 1010 72 4500 2.1 330 03:45 26.05.2020
2445 Mist 17 1010 77 3500 1 220 02:34 26.05.2020
2446 Mist 15 1011 93 2800 0.5 220 01:43 26.05.2020
2447 Mist 14 1011 93 2500 1 310 00:40 26.05.2020
2448 Mist 13 1011 100 2500 1 270 00:21 26.05.2020
2449 Mist 13 1011 100 2500 1 270 23:59 25.05.2020
2450 Mist 13 1011 100 2500 1 270 23:38 25.05.2020
2451 Mist 13 1011 100 2500 1 270 23:19 25.05.2020
2452 Mist 13 1011 100 2500 1.5 310 22:56 25.05.2020
2453 Mist 13 1011 100 2500 1.5 310 22:37 25.05.2020
2454 Mist 13 1011 100 2500 0.5 290 22:19 25.05.2020
2455 Mist 13 1011 100 2500 0.5 290 22:19 25.05.2020
2456 Mist 13 1011 100 2500 0.5 290 21:58 25.05.2020
2457 Mist 13 1011 100 2500 0.5 290 21:37 25.05.2020
2458 Mist 14 1011 93 3200 0.5 340 21:18 25.05.2020
2459 Mist 14 1011 93 3200 0.5 340 21:18 25.05.2020
2460 Mist 14 1011 93 3200 0.5 340 20:57 25.05.2020
2461 Mist 14 1011 93 3200 0.5 340 20:38 25.05.2020
2462 Mist 13 1011 100 2900 1 310 20:19 25.05.2020
2463 Mist 13 1011 100 2900 1 310 19:41 25.05.2020
2464 Mist 13 1012 100 2900 1 330 19:19 25.05.2020
2465 Mist 13 1012 100 2900 1 330 18:58 25.05.2020
2466 Mist 14 1012 100 2900 1 330 18:40 25.05.2020
2467 Mist 14 1012 100 2900 1 330 18:20 25.05.2020
2468 Mist 14 1012 100 3200 2.1 320 17:44 25.05.2020
2469 Mist 14 1012 100 3200 2.1 320 17:25 25.05.2020
2470 Mist 14 1012 93 3500 2.6 280 16:58 25.05.2020
2471 Mist 14 1012 93 3500 2.6 280 16:40 25.05.2020
2472 Mist 14 1012 93 3500 2.6 280 16:21 25.05.2020
2473 Mist 14 1012 100 3500 2.6 290 15:45 25.05.2020
2474 Clear 15 1012 87 10000 1 170 15:21 25.05.2020
2475 Clear 15 1012 87 10000 0.5 200 14:59 25.05.2020
2476 Clear 15 1012 87 10000 0.5 200 14:59 25.05.2020
2477 Clouds 15 1012 93 7000 4.6 300 14:40 25.05.2020
2478 Clouds 15 1012 93 7000 4.6 300 14:22 25.05.2020
2479 Clouds 15 1012 93 7000 4.6 300 13:55 25.05.2020
2480 Clouds 16 1012 93 7000 4.6 300 13:37 25.05.2020
2481 Clouds 16 1012 93 7000 4.6 300 13:18 25.05.2020
2482 Clouds 19 1011 87 9000 4.1 290 12:39 25.05.2020
2483 Clouds 20 1011 77 8000 3.6 250 12:21 25.05.2020
2484 Clouds 20 1011 77 8000 3.6 250 11:56 25.05.2020
2485 Clouds 20 1011 77 8000 3.6 250 11:37 25.05.2020
2486 Clouds 21 1011 68 7000 3.6 230 11:18 25.05.2020
2487 Clouds 21 1011 68 7000 3.6 230 10:41 25.05.2020
2488 Clouds 21 1011 68 7000 3.6 230 10:41 25.05.2020
2489 Clouds 21 1011 68 7000 3.6 230 10:20 25.05.2020
2490 Clouds 21 1011 72 6000 3.6 250 09:55 25.05.2020
2491 Clouds 21 1011 72 6000 3.6 250 09:36 25.05.2020
2492 Clouds 20 1012 77 6000 3.6 240 09:18 25.05.2020
2493 Clouds 21 1011 72 6000 3.6 250 09:18 25.05.2020
2494 Clouds 21 1012 77 6000 3.6 240 08:40 25.05.2020
2495 Clouds 21 1012 77 6000 3.6 240 08:21 25.05.2020
2496 Clouds 20 1012 77 6000 4.6 240 07:58 25.05.2020
2497 Clouds 20 1012 77 6000 4.6 240 07:38 25.05.2020
2498 Clouds 20 1012 77 6000 4.6 240 07:38 25.05.2020
2499 Clouds 20 1012 72 6000 2.6 240 07:18 25.05.2020
2500 Clouds 20 1012 72 6000 2.6 240 06:38 25.05.2020
2501 Clouds 20 1012 68 8000 1 180 05:27 25.05.2020
2502 Clouds 18 1013 82 7000 1.5 360 03:30 25.05.2020
2503 Clouds 17 1013 82 6000 1 360 02:51 25.05.2020
2504 Clouds 16 1013 82 6000 1 360 02:32 25.05.2020
2505 Mist 15 1013 87 5000 0.5 270 01:42 25.05.2020
2506 Mist 15 1013 93 4000 0.5 100 00:47 25.05.2020
2507 Mist 15 1013 93 4000 0.5 100 00:26 25.05.2020
2508 Mist 15 1013 93 2500 1.5 320 23:58 24.05.2020
2509 Mist 15 1013 93 2500 1.5 320 23:39 24.05.2020
2510 Mist 15 1013 93 2500 1.5 320 23:39 24.05.2020
2511 Mist 14 1013 100 2500 1 310 23:20 24.05.2020
2512 Mist 14 1013 100 2500 1 310 23:20 24.05.2020
2513 Mist 14 1013 100 2500 1 310 22:55 24.05.2020
2514 Mist 14 1013 100 2500 1 310 22:55 24.05.2020
2515 Mist 14 1013 100 2500 1 310 22:37 24.05.2020
2516 Mist 14 1013 100 2800 2.1 320 22:18 24.05.2020
2517 Mist 14 1013 100 2800 2.1 320 22:18 24.05.2020
2518 Mist 14 1013 100 2800 2.1 320 21:54 24.05.2020
2519 Mist 14 1013 100 2800 2.1 320 21:36 24.05.2020
2520 Mist 14 1013 100 2800 2.1 320 21:18 24.05.2020
2521 Mist 14 1012 93 2800 2.1 310 20:42 24.05.2020
2522 Mist 14 1012 93 2800 2.1 310 20:21 24.05.2020
2523 Mist 14 1012 93 3500 2.1 290 19:56 24.05.2020
2524 Mist 14 1012 93 3500 2.1 290 19:37 24.05.2020
2525 Mist 14 1012 93 4200 1 230 19:18 24.05.2020
2526 Mist 14 1012 93 4200 1 230 18:42 24.05.2020
2527 Mist 14 1012 93 4200 1 230 18:23 24.05.2020
2528 Mist 14 1012 93 4800 2.6 220 17:57 24.05.2020
2529 Mist 14 1012 93 4800 2.6 220 17:38 24.05.2020
2530 Mist 15 1012 87 4500 1.5 210 17:19 24.05.2020
2531 Mist 15 1012 87 4500 1.5 210 16:54 24.05.2020
2532 Mist 15 1012 87 4500 1.5 210 16:36 24.05.2020
2533 Mist 15 1012 87 9000 2.6 330 16:18 24.05.2020
2534 Mist 15 1012 87 9000 2.6 330 15:40 24.05.2020
2535 Mist 16 1011 87 5000 2.1 240 15:20 24.05.2020
2536 Mist 16 1011 87 5000 2.1 240 14:59 24.05.2020
2537 Mist 16 1011 87 5000 2.1 240 14:40 24.05.2020
2538 Clouds 17 1011 93 6000 2.6 290 14:21 24.05.2020
2539 Clouds 17 1011 93 6000 2.6 290 14:21 24.05.2020
2540 Clouds 17 1011 93 6000 2.6 290 13:55 24.05.2020
2541 Clouds 17 1011 93 6000 2.6 290 13:37 24.05.2020
2542 Clouds 17 1011 93 6000 2.6 290 13:18 24.05.2020
2543 Clouds 19 1010 82 9000 3.6 300 12:55 24.05.2020
2544 Clouds 19 1010 82 9000 3.6 300 12:37 24.05.2020
2545 Clouds 20 1010 77 10000 3.1 230 12:18 24.05.2020
2546 Clouds 20 1010 77 10000 3.1 230 11:45 24.05.2020
2547 Clouds 20 1010 77 10000 3.1 230 11:26 24.05.2020
2548 Clouds 21 1009 77 10000 5.1 220 10:59 24.05.2020
2549 Clouds 21 1009 77 10000 5.1 220 10:59 24.05.2020
2550 Clouds 21 1009 77 10000 5.1 220 10:41 24.05.2020
2551 Clouds 21 1009 77 10000 5.1 220 10:23 24.05.2020
2552 Clouds 20 1009 77 10000 5.1 240 09:56 24.05.2020
2553 Clouds 21 1009 77 10000 5.1 240 09:37 24.05.2020
2554 Clouds 21 1009 77 10000 6.2 230 09:18 24.05.2020
2555 Clouds 21 1009 77 10000 6.2 230 08:41 24.05.2020
2556 Clouds 21 1009 77 10000 6.2 230 08:41 24.05.2020
2557 Clouds 20 1009 77 10000 5.1 230 08:22 24.05.2020
2558 Clouds 20 1009 77 10000 5.1 230 07:57 24.05.2020
2559 Clouds 20 1009 77 10000 5.1 230 07:39 24.05.2020
2560 Clouds 20 1009 77 10000 5.1 230 07:19 24.05.2020
2561 Clouds 20 1009 77 10000 2.6 170 06:38 24.05.2020
2562 Clouds 19 1009 82 9000 1.5 240 05:49 24.05.2020
2563 Clouds 17 1009 93 6000 4.1 240 03:49 24.05.2020
2564 Clouds 17 1009 93 6000 4.1 240 03:26 24.05.2020
2565 Mist 17 1008 100 4500 3.6 200 02:23 24.05.2020
2566 Rain 17 1007 100 6000 7.2 240 00:49 24.05.2020
2567 Rain 17 1007 100 6000 7.2 240 00:28 24.05.2020
2568 Mist 18 1007 100 3000 7.2 220 23:59 23.05.2020
2569 Rain 18 1007 100 3000 7.2 220 23:37 23.05.2020
2570 Rain 18 1006 93 5000 3.6 190 23:19 23.05.2020
2571 Rain 18 1006 93 5000 3.6 190 22:55 23.05.2020
2572 Rain 18 1006 93 5000 3.6 190 22:37 23.05.2020
2573 Rain 18 1007 93 5000 3.6 200 22:18 23.05.2020
2574 Rain 18 1007 93 5000 3.6 200 21:54 23.05.2020
2575 Rain 18 1007 93 5000 3.6 200 21:36 23.05.2020
2576 Rain 18 1008 93 3500 3.1 150 21:18 23.05.2020
2577 Rain 18 1008 93 3500 3.1 150 20:39 23.05.2020
2578 Rain 18 1009 93 4500 1.5 190 20:20 23.05.2020
2579 Rain 18 1009 93 4500 1.5 190 19:58 23.05.2020
2580 Rain 19 1009 93 4500 1.5 190 19:40 23.05.2020
2581 Rain 19 1010 93 6000 1.5 50 19:18 23.05.2020
2582 Rain 19 1010 93 6000 1.5 50 18:41 23.05.2020
2583 Rain 19 1010 93 6000 1.5 50 18:22 23.05.2020
2584 Rain 19 1011 88 7000 1 290 17:58 23.05.2020
2585 Rain 19 1011 88 7000 1 290 17:58 23.05.2020
2586 Rain 19 1011 88 7000 1 290 17:40 23.05.2020
2587 Clouds 19 1011 82 7000 2.1 290 17:20 23.05.2020
2588 -273 0 0 0 0 0 16:58 23.05.2020
2589 Clouds 19 1011 82 7000 2.1 290 16:40 23.05.2020
2590 Clouds 18 1011 82 7000 3.1 290 16:20 23.05.2020
2591 Clouds 18 1011 82 7000 3.1 290 15:43 23.05.2020
2592 Clouds 18 1011 82 7000 3.1 290 15:24 23.05.2020
2593 Clouds 18 1010 82 8000 2.6 290 14:58 23.05.2020
2594 Clouds 19 1010 82 8000 2.6 290 14:40 23.05.2020
2595 Clouds 19 1010 82 8000 2.6 290 14:22 23.05.2020
2596 Clouds 20 1009 82 10000 2.6 320 13:41 23.05.2020
2597 Clouds 21 1009 77 10000 2.1 340 13:19 23.05.2020
2598 Clouds 21 1009 77 10000 2.1 340 13:19 23.05.2020
2599 Clouds 21 1009 77 10000 2.1 340 13:19 23.05.2020
2600 Clouds 21 1009 77 10000 2.1 340 12:56 23.05.2020
2601 Clouds 21 1009 77 10000 2.1 340 12:38 23.05.2020
2602 Clouds 22 1009 72 10000 3.1 300 12:19 23.05.2020
2603 Clouds 22 1009 72 10000 3.1 300 11:43 23.05.2020
2604 Clouds 22 1009 72 10000 3.1 300 11:22 23.05.2020
2605 Clouds 23 1010 64 10000 5.1 260 10:57 23.05.2020
2606 Clouds 24 1010 64 10000 5.1 260 10:39 23.05.2020
2607 Clear 24 1010 64 10000 5.1 260 10:20 23.05.2020
2608 Clear 25 1009 50 10000 4.6 230 09:58 23.05.2020
2609 Clear 25 1009 50 10000 4.6 230 09:40 23.05.2020
2610 Clouds 25 1009 50 10000 4.6 230 09:21 23.05.2020
2611 Clouds 25 1009 53 10000 5.7 250 08:44 23.05.2020
2612 Clouds 25 1010 50 10000 3.6 240 08:20 23.05.2020
2613 Clouds 25 1010 50 10000 3.6 240 07:54 23.05.2020
2614 Clouds 25 1010 50 10000 3.6 240 07:31 23.05.2020
2615 Clouds 25 1011 50 10000 2.6 190 06:56 23.05.2020
2616 Clouds 25 1011 50 10000 2.6 190 06:37 23.05.2020
2617 Clouds 23 1011 53 10000 3.1 210 04:56 23.05.2020
2618 Clouds 22 1011 56 10000 3.6 230 03:30 23.05.2020
2619 Clouds 21 1012 60 10000 3.6 210 02:57 23.05.2020
2620 Mist 20 1012 64 5000 2.1 180 01:57 23.05.2020
2621 Mist 18 1012 82 4000 0.5 350 01:21 23.05.2020
2622 Mist 17 1012 82 4000 0.5 350 00:46 23.05.2020
2623 Mist 17 1012 82 4000 0.5 350 00:25 23.05.2020
2624 Mist 16 1011 93 3500 1.32 125 23:56 22.05.2020
2625 Mist 16 1011 93 3500 1.32 125 23:38 22.05.2020
2626 Mist 16 1011 93 4000 0.5 170 23:18 22.05.2020
2627 Mist 16 1011 93 4000 0.5 170 22:42 22.05.2020
2628 Mist 16 1011 93 4000 0.5 170 22:21 22.05.2020
2629 Mist 17 1012 88 4000 1 280 21:56 22.05.2020
2630 Mist 17 1012 88 4000 1 280 21:56 22.05.2020
2631 Mist 17 1012 88 4000 1 280 21:38 22.05.2020
2632 Mist 17 1012 88 4500 1 240 21:20 22.05.2020
2633 Mist 17 1012 88 4500 1 240 20:45 22.05.2020
2634 Mist 17 1012 88 4500 1 240 20:21 22.05.2020
2635 Mist 17 1012 82 4500 0.5 70 19:54 22.05.2020
2636 Mist 17 1012 82 4500 0.5 70 19:36 22.05.2020
2637 Mist 17 1012 87 5000 1.5 20 19:18 22.05.2020
2638 Mist 17 1012 87 5000 1.5 20 18:39 22.05.2020
2639 Mist 17 1012 87 5000 2.1 300 18:19 22.05.2020
2640 Mist 16 1012 87 5000 2.1 300 17:41 22.05.2020
2641 Mist 16 1012 87 5000 2.1 300 17:20 22.05.2020
2642 Mist 17 1011 82 4000 4.1 300 16:58 22.05.2020
2643 Mist 17 1011 82 4000 4.1 300 16:39 22.05.2020
2644 Mist 17 1011 82 4000 4.1 300 16:20 22.05.2020
2645 Mist 17 1010 82 5000 1.5 330 15:56 22.05.2020
2646 Mist 17 1010 82 5000 1.5 330 15:38 22.05.2020
2647 Mist 17 1010 82 5000 1.5 330 15:18 22.05.2020
2648 Clouds 19 1010 77 7000 1.5 320 14:40 22.05.2020
2649 Clouds 19 1010 77 7000 1.5 320 14:21 22.05.2020
2650 Rain 19 1010 77 7000 2.1 330 13:44 22.05.2020
2651 Rain 19 1010 77 7000 2.1 330 13:19 22.05.2020
2652 Rain 20 1010 68 8000 2.1 160 12:43 22.05.2020
2653 Rain 20 1010 68 8000 2.1 160 12:24 22.05.2020
2654 Rain 20 1010 68 8000 2.1 160 12:24 22.05.2020
2655 Clouds 21 1011 72 8000 1.5 190 11:48 22.05.2020
2656 Clouds 21 1011 72 8000 1.5 190 11:22 22.05.2020
2657 Clouds 21 1012 72 7000 5.1 270 10:59 22.05.2020
2658 Clouds 21 1012 72 7000 5.1 270 10:39 22.05.2020
2659 Clouds 21 1012 72 7000 5.1 270 10:20 22.05.2020
2660 Clouds 22 1012 64 7000 4.1 290 09:55 22.05.2020
2661 Clouds 22 1012 64 7000 4.1 290 09:36 22.05.2020
2662 Clouds 23 1012 60 7000 2.6 290 09:18 22.05.2020
2663 Clouds 22 1012 60 7000 2.6 290 08:42 22.05.2020
2664 Clouds 23 1013 56 8000 2.6 320 08:19 22.05.2020
2665 Clouds 23 1013 56 8000 2.6 320 07:52 22.05.2020
2666 Clouds 23 1013 56 8000 2.6 320 07:23 22.05.2020
2667 Clouds 22 1012 56 10000 2.1 210 06:53 22.05.2020
2668 Clouds 22 1012 56 10000 2.1 210 06:31 22.05.2020
2669 Clouds 21 1013 60 10000 2.6 160 05:38 22.05.2020
2670 Clouds 20 1013 64 10000 1.5 100 04:50 22.05.2020
2671 Clouds 20 1013 64 10000 1.5 150 03:57 22.05.2020
2672 Clouds 20 1013 64 10000 1.5 150 03:39 22.05.2020
2673 Clouds 18 1013 63 10000 4.6 120 02:55 22.05.2020
2674 Clouds 17 1013 68 10000 4.6 110 01:48 22.05.2020
2675 Clouds 17 1013 68 10000 4.6 110 01:22 22.05.2020
2676 Clouds 15 1013 82 10000 0.5 60 00:34 22.05.2020
2677 Clouds 14 1014 87 10000 0.5 250 23:58 21.05.2020
2678 Clouds 14 1014 87 10000 0.5 250 23:40 21.05.2020
2679 Clouds 14 1014 87 10000 0.5 250 23:22 21.05.2020
2680 Clouds 14 1014 82 10000 0.5 170 22:57 21.05.2020
2681 Clouds 14 1014 82 10000 0.5 170 22:37 21.05.2020
2682 Clouds 14 1014 87 10000 1.5 50 22:19 21.05.2020
2683 Clouds 14 1014 87 10000 1.5 50 21:48 21.05.2020
2684 Clouds 14 1014 87 10000 1.5 50 21:27 21.05.2020
2685 Clouds 15 1014 82 10000 1 40 20:57 21.05.2020
2686 Clouds 15 1014 82 10000 1 40 20:39 21.05.2020
2687 Clouds 15 1014 82 10000 1 40 20:21 21.05.2020
2688 Clouds 16 1015 82 10000 2.6 320 19:40 21.05.2020
2689 Clouds 17 1015 72 10000 2.1 280 19:20 21.05.2020
2690 Clouds 17 1015 72 10000 2.1 280 18:57 21.05.2020
2691 Clouds 17 1015 72 10000 2.1 280 18:36 21.05.2020
2692 Clouds 17 1015 67 10000 3.1 280 18:18 21.05.2020
2693 Clouds 17 1015 67 10000 3.1 280 17:45 21.05.2020
2694 Clouds 17 1015 67 10000 3.1 280 17:26 21.05.2020
2695 Clouds 17 1014 67 10000 2.6 290 16:48 21.05.2020
2696 Clouds 17 1014 67 10000 2.6 290 16:28 21.05.2020
2697 Clouds 18 1014 72 10000 2.1 320 15:59 21.05.2020
2698 Clouds 18 1014 72 10000 2.1 320 15:40 21.05.2020
2699 Clouds 18 1014 72 10000 2.1 320 15:21 21.05.2020
2700 Clouds 18 1014 72 10000 2.1 330 14:41 21.05.2020
2701 Clouds 18 1014 72 10000 2.1 330 14:22 21.05.2020
2702 Clouds 19 1013 72 10000 2.1 320 13:55 21.05.2020
2703 Clouds 19 1013 72 10000 2.1 320 13:37 21.05.2020
2704 Clouds 20 1013 59 10000 2.6 300 13:18 21.05.2020
2705 Clouds 20 1013 59 10000 2.6 300 12:39 21.05.2020
2706 Clouds 20 1013 59 10000 2.6 300 12:20 21.05.2020
2707 Clouds 21 1013 56 10000 3.6 280 11:56 21.05.2020
2708 Clouds 21 1013 56 10000 3.6 280 11:37 21.05.2020
2709 Clouds 21 1013 52 10000 3.6 280 11:19 21.05.2020
2710 Clouds 22 1013 52 10000 3.6 280 10:43 21.05.2020
2711 Clear 22 1013 52 10000 3.6 280 10:23 21.05.2020
2712 Clear 22 1012 43 10000 1 350 09:57 21.05.2020
2713 Clear 22 1012 43 10000 1 350 09:39 21.05.2020
2714 Clear 22 1013 46 10000 1.5 200 09:21 21.05.2020
2715 Clear 22 1013 46 10000 1.5 200 08:48 21.05.2020
2716 Clouds 22 1013 46 10000 1.5 200 08:29 21.05.2020
2717 Clouds 22 1014 43 10000 1.5 290 07:49 21.05.2020
2718 Clouds 22 1014 43 10000 1.5 290 07:27 21.05.2020
2719 Clouds 21 1015 46 10000 3.1 220 06:54 21.05.2020
2720 Clouds 21 1015 46 10000 3.1 220 06:23 21.05.2020
2721 Clouds 20 1015 49 10000 1.5 230 05:37 21.05.2020
2722 Clouds 19 1016 45 10000 2.6 140 03:22 21.05.2020
2723 Clouds 19 1016 45 10000 2.6 140 03:22 21.05.2020
2724 Clouds 17 1016 45 10000 4.1 110 02:49 21.05.2020
2725 Clear 17 1016 45 10000 4.1 110 02:30 21.05.2020
2726 Clouds 15 1016 51 10000 3.1 100 01:47 21.05.2020
2727 Clear 15 1016 51 10000 3.1 100 01:21 21.05.2020
2728 Clear 13 1015 54 10000 3.6 100 00:52 21.05.2020
2729 Clear 13 1015 54 10000 3.6 100 00:23 21.05.2020
2730 Clear 11 1014 66 10000 2.6 100 23:44 20.05.2020
2731 Clear 11 1014 66 10000 2.6 100 23:21 20.05.2020
2732 Clear 10 1014 81 10000 1 10 22:58 20.05.2020
2733 Clear 10 1014 81 10000 1 10 22:39 20.05.2020
2734 Clear 10 1014 81 10000 1 10 22:21 20.05.2020
2735 Clear 10 1014 81 10000 1 10 22:21 20.05.2020
2736 Clear 10 1013 87 10000 0.5 130 21:40 20.05.2020
2737 Clear 10 1013 93 10000 0.5 90 21:22 20.05.2020
2738 Clear 10 1013 93 10000 0.5 90 20:45 20.05.2020
2739 Clear 10 1013 93 10000 0.5 90 20:26 20.05.2020
2740 Clear 11 1014 93 10000 1 290 19:57 20.05.2020
2741 Clear 11 1014 93 10000 1 290 19:38 20.05.2020
2742 Clear 11 1014 93 10000 1 290 19:19 20.05.2020
2743 Clear 11 1014 100 10000 0.5 20 18:44 20.05.2020
2744 Clear 11 1014 100 10000 0.5 20 18:26 20.05.2020
2745 Clear 12 1014 93 10000 0.5 30 17:44 20.05.2020
2746 Clear 12 1014 93 10000 0.5 260 17:24 20.05.2020
2747 Clear 12 1014 93 10000 0.5 260 16:58 20.05.2020
2748 Clear 12 1014 93 10000 0.5 260 16:39 20.05.2020
2749 Clear 12 1014 93 10000 0.5 260 16:39 20.05.2020
2750 Clear 12 1014 93 10000 0.5 260 16:21 20.05.2020
2751 Clouds 13 1014 87 10000 2.6 320 15:55 20.05.2020
2752 Clouds 14 1014 87 10000 2.6 320 15:36 20.05.2020
2753 Clouds 14 1014 87 10000 2.6 320 15:18 20.05.2020
2754 Clouds 14 1013 77 10000 2.1 290 14:38 20.05.2020
2755 Clouds 14 1013 77 10000 2.1 290 14:19 20.05.2020
2756 Clouds 15 1013 72 10000 2.6 280 13:40 20.05.2020
2757 Clouds 16 1012 67 10000 2.6 250 13:18 20.05.2020
2758 Clouds 17 1012 67 10000 2.6 250 12:42 20.05.2020
2759 Clouds 17 1012 67 10000 2.6 250 12:21 20.05.2020
2760 Clouds 18 1011 59 10000 3.6 280 11:39 20.05.2020
2761 Clouds 18 1011 59 10000 3.6 280 11:20 20.05.2020
2762 Clouds 18 1011 59 10000 5.7 270 10:55 20.05.2020
2763 Clouds 18 1011 59 10000 5.7 270 10:37 20.05.2020
2764 Clouds 19 1011 52 10000 1.5 20 10:19 20.05.2020
2765 Clouds 19 1011 52 10000 1.5 20 09:41 20.05.2020
2766 Clouds 19 1011 52 10000 1.5 20 09:20 20.05.2020
2767 Clouds 19 1011 45 10000 2.1 350 08:42 20.05.2020
2768 Clouds 19 1011 45 10000 2.1 350 08:19 20.05.2020
2769 Clouds 18 1011 48 10000 3.1 290 07:50 20.05.2020
2770 Clouds 19 1011 48 10000 3.1 290 07:25 20.05.2020
2771 Clouds 18 1011 52 10000 2.1 360 06:53 20.05.2020
2772 Clouds 18 1011 52 10000 2.1 360 06:18 20.05.2020
2773 Clouds 16 1012 51 10000 2.6 210 04:40 20.05.2020
2774 Clouds 15 1012 58 10000 1.5 110 04:18 20.05.2020
2775 Clouds 15 1012 58 10000 1.5 110 03:29 20.05.2020
2776 Clouds 12 1011 66 10000 2.6 10 01:41 20.05.2020
2777 Clouds 12 1011 66 10000 2.6 10 01:23 20.05.2020
2778 Clouds 10 1010 71 10000 3.1 30 00:40 20.05.2020
2779 Clouds 10 1010 71 10000 3.6 20 00:20 20.05.2020
2780 Clouds 10 1010 71 10000 3.6 20 23:36 19.05.2020
2781 Clouds 10 1010 71 10000 3.6 20 23:18 19.05.2020
2782 Clouds 10 1009 71 10000 2.6 10 22:55 19.05.2020
2783 Clouds 10 1009 71 10000 2.6 10 22:36 19.05.2020
2784 Clouds 10 1009 71 10000 4.1 20 22:18 19.05.2020
2785 Clouds 10 1009 71 10000 4.1 20 21:55 19.05.2020
2786 Clouds 10 1009 71 10000 4.1 20 21:36 19.05.2020
2787 Clouds 10 1009 71 10000 4.1 20 21:18 19.05.2020
2788 Clouds 9 1008 66 10000 4.1 30 20:54 19.05.2020
2789 Clouds 9 1008 66 10000 4.1 30 20:36 19.05.2020
2790 Clouds 9 1008 66 10000 4.1 30 20:18 19.05.2020
2791 Clouds 10 1008 66 10000 4.6 20 19:38 19.05.2020
2792 Clouds 10 1008 66 10000 4.6 20 19:19 19.05.2020
2793 Clouds 10 1008 71 10000 3.6 10 18:44 19.05.2020
2794 Clear 10 1008 71 10000 3.6 10 18:23 19.05.2020
2795 Clear 10 1008 66 10000 4.6 10 17:57 19.05.2020
2796 Clear 10 1008 66 10000 4.6 10 17:39 19.05.2020
2797 Clear 10 1007 62 10000 3.6 30 17:20 19.05.2020
2798 Clear 10 1007 62 10000 3.6 30 16:41 19.05.2020
2799 Clear 10 1007 62 10000 3.6 30 16:23 19.05.2020
2800 Clear 11 1006 66 10000 4.6 40 15:56 19.05.2020
2801 Clear 11 1006 66 10000 4.6 40 15:38 19.05.2020
2802 Clear 11 1006 66 10000 4.6 40 15:38 19.05.2020
2803 Clouds 12 1005 62 10000 4.6 40 15:19 19.05.2020
2804 Clouds 12 1005 62 10000 4.6 40 14:43 19.05.2020
2805 Clouds 12 1005 62 10000 4.6 40 14:22 19.05.2020
2806 Clouds 14 998 82 10000 5.1 360 13:59 19.05.2020
2807 Clouds 14 1004 58 10000 5.7 20 13:40 19.05.2020
2808 Clouds 14 1004 58 10000 5.7 20 13:22 19.05.2020
2809 Clouds 14 1003 62 10000 5.1 20 12:59 19.05.2020
2810 Clouds 14 1003 62 10000 5.1 20 12:59 19.05.2020
2811 Clouds 14 1003 62 10000 5.1 20 12:40 19.05.2020
2812 Clouds 14 1003 62 10000 5.1 20 12:22 19.05.2020
2813 Clouds 15 1002 58 10000 5.1 30 11:58 19.05.2020
2814 Clouds 15 1002 58 10000 5.1 30 11:39 19.05.2020
2815 Clouds 16 1001 59 10000 6.2 20 11:21 19.05.2020
2816 Clouds 16 1001 59 10000 6.2 20 10:46 19.05.2020
2817 Clouds 16 1001 59 10000 6.2 20 10:28 19.05.2020
2818 Clouds 17 1000 55 10000 6.2 20 09:58 19.05.2020
2819 Clouds 17 1000 55 10000 6.2 20 09:40 19.05.2020
2820 Clouds 16 999 59 10000 9.8 40 09:20 19.05.2020
2821 Clouds 16 999 59 10000 9.8 40 08:43 19.05.2020
2822 Clouds 16 999 59 10000 9.8 40 08:23 19.05.2020
2823 Clouds 16 999 67 10000 7.2 20 07:44 19.05.2020
2824 Clouds 16 999 67 10000 7.2 20 07:26 19.05.2020
2825 Clouds 16 998 72 10000 7.7 40 06:50 19.05.2020
2826 Clouds 16 998 72 10000 7.7 40 06:25 19.05.2020
2827 Clouds 14 997 87 10000 4.6 50 05:41 19.05.2020
2828 Rain 13 998 93 8000 5.1 40 04:56 19.05.2020
2829 Rain 13 997 100 4200 4.1 50 04:18 19.05.2020
2830 Rain 13 997 87 6000 2.1 140 01:30 19.05.2020
2831 Rain 13 996 93 6000 4.6 110 00:43 19.05.2020
2832 Rain 13 996 93 6000 4.6 110 00:22 19.05.2020
2833 Clouds 13 996 87 9000 4.1 130 23:40 18.05.2020
2834 Clouds 13 996 87 9000 4.1 130 23:21 18.05.2020
2835 Clouds 12 996 87 10000 3.6 160 23:00 18.05.2020
2836 Clouds 12 996 87 10000 3.6 160 22:40 18.05.2020
2837 Clouds 12 996 87 10000 3.6 160 22:21 18.05.2020
2838 Rain 13 997 82 8000 4.6 200 22:21 18.05.2020
2839 Rain 13 997 82 8000 4.6 200 21:43 18.05.2020
2840 Rain 13 997 82 8000 4.6 200 21:22 18.05.2020
2841 Rain 13 997 93 4800 3.6 200 20:59 18.05.2020
2842 Clouds 13 997 93 10000 3.6 140 20:41 18.05.2020
2843 Clouds 13 997 82 10000 4.1 190 20:21 18.05.2020
2844 Mist 13 998 87 9000 2.1 190 19:57 18.05.2020
2845 Clouds 14 997 82 10000 4.1 190 19:38 18.05.2020
2846 Clouds 14 997 87 9000 3.6 180 19:18 18.05.2020
2847 Clouds 14 997 87 9000 3.6 180 18:45 18.05.2020
2848 Clouds 14 997 87 9000 3.6 180 18:24 18.05.2020
2849 Clouds 14 998 87 10000 3.6 190 17:41 18.05.2020
2850 Clouds 14 998 87 10000 3.1 180 17:18 18.05.2020
2851 Clouds 14 998 87 10000 3.1 180 16:57 18.05.2020
2852 Clouds 14 998 87 10000 3.1 180 16:38 18.05.2020
2853 Clouds 14 997 93 9000 3.1 210 16:18 18.05.2020
2854 Clouds 14 997 93 9000 3.1 210 15:57 18.05.2020
2855 Clouds 14 997 93 9000 3.1 210 15:57 18.05.2020
2856 Clouds 15 997 93 9000 3.1 210 15:37 18.05.2020
2857 Clouds 15 997 93 8000 7.2 230 15:19 18.05.2020
2858 Clouds 16 997 93 8000 7.2 230 14:43 18.05.2020
2859 Clouds 16 997 93 8000 7.2 230 14:25 18.05.2020
2860 Rain 16 996 100 6000 5.7 200 13:58 18.05.2020
2861 Rain 17 996 100 6000 5.7 200 13:39 18.05.2020
2862 Rain 17 995 100 6000 1.5 200 13:19 18.05.2020
2863 Rain 17 995 100 6000 1.5 200 12:56 18.05.2020
2864 Rain 17 995 100 6000 1.5 200 12:37 18.05.2020
2865 Rain 17 995 100 4200 2.6 210 12:18 18.05.2020
2866 Rain 17 995 100 4200 2.1 290 11:46 18.05.2020
2867 Rain 17 995 100 10000 1.5 60 11:27 18.05.2020
2868 Rain 17 995 100 10000 1.5 60 10:57 18.05.2020
2869 Rain 17 995 100 10000 1.5 60 10:57 18.05.2020
2870 Rain 17 995 100 10000 1.5 60 10:38 18.05.2020
2871 Thunderstorm 20 995 54 8000 5.7 170 10:20 18.05.2020
2872 Thunderstorm 23 1028 54 8000 3.6 170 09:42 18.05.2020
2873 Haze 23 1028 54 8000 3.6 170 09:24 18.05.2020
2874 Clouds 26 993 47 10000 7.2 160 08:44 18.05.2020
2875 Clouds 27 993 47 10000 7.2 160 08:25 18.05.2020
2876 Clouds 27 993 51 10000 10.3 120 07:52 18.05.2020
2877 Clouds 27 993 51 10000 10.3 120 07:26 18.05.2020
2878 Clouds 26 995 54 10000 9.3 130 06:50 18.05.2020
2879 Clouds 26 995 54 10000 9.3 130 06:32 18.05.2020
2880 Mist 25 997 73 3800 4.1 70 05:49 18.05.2020
2881 Mist 23 1001 78 3500 2.1 220 04:42 18.05.2020
2882 Mist 23 1000 83 2300 1.5 30 03:30 18.05.2020
2883 Mist 21 1001 88 2300 3.1 70 02:19 18.05.2020
2884 Mist 19 1002 93 2500 1 260 00:55 18.05.2020
2885 Mist 19 1002 93 2500 1 260 00:23 18.05.2020
2886 Mist 18 1002 100 2500 1.5 340 23:56 17.05.2020
2887 Mist 18 1002 100 2500 1.5 340 23:38 17.05.2020
2888 Mist 18 1002 100 2500 1.5 340 23:19 17.05.2020
2889 Mist 17 1001 100 2500 1 320 22:55 17.05.2020
2890 Mist 17 1001 100 2500 1 320 22:36 17.05.2020
2891 Mist 18 1001 93 2800 1 90 22:18 17.05.2020
2892 Mist 18 1001 93 2800 1 90 21:41 17.05.2020
2893 Mist 18 1001 93 2800 1 90 21:20 17.05.2020
2894 Mist 18 1002 100 3500 1 60 20:58 17.05.2020
2895 Mist 18 1002 100 3500 1 60 20:40 17.05.2020
2896 Mist 18 1002 100 3500 1 280 20:19 17.05.2020
2897 Mist 18 1002 100 3500 1 280 19:47 17.05.2020
2898 Mist 18 1002 100 3500 1 280 19:29 17.05.2020
2899 Mist 18 1003 100 4500 0.5 280 18:59 17.05.2020
2900 Mist 18 1003 100 4500 0.5 280 18:59 17.05.2020
2901 Mist 18 1003 100 4500 0.5 280 18:39 17.05.2020
2902 Mist 19 1003 93 4500 1.5 10 18:21 17.05.2020
2903 Mist 19 1003 93 4500 1.5 10 17:41 17.05.2020
2904 Mist 19 1003 93 4500 1.5 10 17:23 17.05.2020
2905 Mist 19 1004 88 4500 1 330 16:59 17.05.2020
2906 Mist 19 1004 88 4500 1 330 16:39 17.05.2020
2907 Mist 19 1004 88 4500 1 330 16:20 17.05.2020
2908 Mist 19 1005 88 5000 2.6 350 15:47 17.05.2020
2909 Mist 19 1005 88 5000 2.6 350 15:25 17.05.2020
2910 Mist 20 1005 88 5000 2.6 330 14:58 17.05.2020
2911 Mist 20 1005 88 5000 2.6 330 14:58 17.05.2020
2912 Mist 20 1005 88 5000 2.6 330 14:40 17.05.2020
2913 Mist 20 1005 88 5000 2.6 330 14:22 17.05.2020
2914 Clouds 21 1004 88 6000 3.6 330 13:43 17.05.2020
2915 Clouds 22 1004 82 7000 3.6 330 13:21 17.05.2020
2916 Clouds 25 1003 69 8000 4.6 330 10:50 17.05.2020
2917 Clouds 19 1007 82 8000 1.5 190 03:55 17.05.2020
2918 Clouds 18 1007 88 8000 3.1 250 02:28 17.05.2020
2919 Clouds 18 1006 88 7000 3.1 170 01:55 17.05.2020
2920 Mist 16 1006 93 4500 3.1 160 00:56 17.05.2020
2921 Mist 16 1006 93 4500 3.1 160 00:37 17.05.2020
2922 Mist 16 1007 100 4000 0.5 10 23:57 16.05.2020
2923 Mist 16 1007 100 4000 0.5 10 23:57 16.05.2020
2924 Mist 16 1007 100 4000 0.5 10 23:39 16.05.2020
2925 Mist 16 1007 100 4000 0.5 10 23:19 16.05.2020
2926 Mist 16 1007 100 3200 3.1 270 22:55 16.05.2020
2927 Mist 16 1007 100 3200 3.1 270 22:36 16.05.2020
2928 Mist 16 1007 100 3200 3.1 270 22:18 16.05.2020
2929 Mist 16 1006 93 3200 1.5 260 21:42 16.05.2020
2930 Mist 16 1006 93 3200 1.5 260 21:23 16.05.2020
2931 Mist 16 1006 93 3800 2.1 270 20:57 16.05.2020
2932 Mist 16 1006 93 3800 2.1 270 20:38 16.05.2020
2933 Mist 16 1006 93 3800 2.1 270 20:20 16.05.2020
2934 Clouds 17 1006 93 6000 2.6 230 19:43 16.05.2020
2935 Clouds 17 1006 93 6000 2.6 230 19:23 16.05.2020
2936 Mist 16 1006 93 4800 1.5 220 18:59 16.05.2020
2937 Mist 16 1006 93 4800 1.5 220 18:41 16.05.2020
2938 Mist 16 1006 93 3200 1 260 18:22 16.05.2020
2939 Mist 16 1006 93 3200 1 260 17:42 16.05.2020
2940 Mist 16 1006 93 3200 1.5 300 17:22 16.05.2020
2941 Mist 16 1006 93 3200 1.5 300 16:59 16.05.2020
2942 Mist 16 1006 93 3200 1.5 300 16:39 16.05.2020
2943 Mist 16 1006 93 3200 1.5 300 16:19 16.05.2020
2944 Mist 16 1007 93 3500 1 210 15:54 16.05.2020
2945 Mist 16 1007 93 3500 1 210 15:36 16.05.2020
2946 Clouds 16 1007 100 6000 2.6 280 15:18 16.05.2020
2947 Clouds 16 1007 100 6000 2.6 280 14:42 16.05.2020
2948 Clouds 16 1007 100 6000 2.6 280 14:20 16.05.2020
2949 Clouds 17 1006 93 6000 2.6 300 13:56 16.05.2020
2950 Clouds 17 1006 93 6000 2.6 300 13:36 16.05.2020
2951 Clouds 19 1005 82 8000 2.6 230 13:18 16.05.2020
2952 Clouds 19 1005 82 8000 2.6 230 12:43 16.05.2020
2953 Clouds 19 1005 88 8000 3.1 270 12:20 16.05.2020
2954 Clouds 19 1005 88 8000 3.1 270 12:20 16.05.2020
2955 Clouds 19 1005 88 8000 3.1 270 11:43 16.05.2020
2956 Clouds 19 1005 88 8000 3.1 270 11:23 16.05.2020
2957 Clouds 21 1005 77 8000 2.1 250 10:59 16.05.2020
2958 Clouds 21 1005 77 8000 2.1 250 10:40 16.05.2020
2959 Clouds 21 1005 77 8000 2.1 250 10:21 16.05.2020
2960 Clouds 21 1005 77 8000 2.1 240 09:56 16.05.2020
2961 Clouds 21 1005 77 8000 2.1 240 09:38 16.05.2020
2962 Clouds 20 1006 82 7000 3.1 300 09:18 16.05.2020
2963 Clouds 20 1006 82 7000 3.1 300 08:42 16.05.2020
2964 Clouds 20 1006 88 7000 3.6 300 08:19 16.05.2020
2965 Clouds 19 1006 88 7000 3.6 300 07:43 16.05.2020
2966 Clouds 19 1006 88 7000 3.6 300 07:23 16.05.2020
2967 Clouds 19 1006 82 8000 3.1 170 06:48 16.05.2020
2968 Clouds 18 1007 93 8000 1 200 06:24 16.05.2020
2969 Clouds 18 1007 93 8000 1 200 05:49 16.05.2020
2970 Clouds 18 1007 93 8000 1 200 05:27 16.05.2020
2971 Clouds 17 1007 93 7000 0.5 150 03:33 16.05.2020
2972 Mist 16 1007 93 5000 1 240 02:49 16.05.2020
2973 Mist 16 1007 93 5000 1 240 02:20 16.05.2020
2974 Drizzle 15 1007 100 3300 1.5 180 01:40 16.05.2020
2975 Mist 15 1007 100 2700 1.5 300 00:58 16.05.2020
2976 Mist 15 1007 100 2700 1.5 300 00:40 16.05.2020
2977 Mist 15 1006 100 3000 2.6 210 00:20 16.05.2020
2978 Rain 15 1006 100 3000 2.6 210 23:40 15.05.2020
2979 Rain 15 1006 100 3000 2.6 210 23:19 15.05.2020
2980 Rain 16 1006 100 2500 2.1 190 22:42 15.05.2020
2981 Rain 16 1006 100 2500 2.1 190 22:22 15.05.2020
2982 Rain 16 1006 100 1400 3.1 150 21:57 15.05.2020
2983 Rain 16 1006 100 1400 3.1 150 21:39 15.05.2020
2984 Rain 16 1007 100 1400 2.1 130 21:21 15.05.2020
2985 Rain 16 1007 100 1400 2.1 130 20:56 15.05.2020
2986 Rain 16 1007 100 1400 2.1 130 20:37 15.05.2020
2987 Rain 16 1007 100 1400 2.1 130 20:37 15.05.2020
2988 Rain 16 1007 100 1400 2.1 130 20:19 15.05.2020
2989 Rain 16 1007 100 1300 1 160 19:43 15.05.2020
2990 Rain 16 1007 100 1300 1 160 19:24 15.05.2020
2991 Rain 16 1006 100 2600 3.1 140 18:54 15.05.2020
2992 Rain 16 1006 100 2600 3.1 140 18:36 15.05.2020
2993 Rain 16 1006 93 4500 3.6 120 18:18 15.05.2020
2994 Rain 16 1006 93 4500 3.6 120 18:18 15.05.2020
2995 Rain 16 1006 93 4500 3.6 120 17:37 15.05.2020
2996 Rain 16 1006 93 6000 4.1 120 17:19 15.05.2020
2997 Rain 16 1006 93 6000 4.1 120 16:56 15.05.2020
2998 Rain 16 1006 93 6000 4.1 120 16:37 15.05.2020
2999 Rain 16 1007 93 4000 4.1 120 16:18 15.05.2020
3000 Rain 16 1007 93 4000 4.1 120 15:41 15.05.2020
3001 Rain 16 1006 93 5000 4.6 110 15:21 15.05.2020
3002 Rain 16 1006 93 5000 4.6 110 14:58 15.05.2020
3003 Rain 16 1006 93 5000 4.6 110 14:40 15.05.2020
3004 Rain 16 1006 93 5000 4.6 110 14:21 15.05.2020
3005 Rain 16 1006 93 5000 4.6 110 14:21 15.05.2020
3006 Mist 16 1006 93 5000 5.1 120 13:42 15.05.2020
3007 Rain 16 1006 93 5000 5.1 120 13:22 15.05.2020
3008 Rain 16 1005 93 4500 5.7 120 12:56 15.05.2020
3009 Rain 16 1005 93 4500 5.7 120 12:37 15.05.2020
3010 Rain 16 1005 93 4500 6.2 110 12:18 15.05.2020
3011 Rain 16 1005 93 4500 6.2 110 12:18 15.05.2020
3012 Rain 16 1005 93 4500 6.2 110 11:56 15.05.2020
3013 Rain 16 1005 93 4500 6.2 110 11:56 15.05.2020
3014 Rain 16 1005 93 4500 6.2 110 11:37 15.05.2020
3015 Clouds 16 1005 93 10000 5.1 100 11:18 15.05.2020
3016 Clouds 16 1005 93 10000 5.1 100 10:54 15.05.2020
3017 Clouds 16 1005 93 10000 5.1 100 10:36 15.05.2020
3018 Rain 16 1006 93 6000 4.6 100 10:18 15.05.2020
3019 Rain 16 1006 93 6000 4.6 100 09:39 15.05.2020
3020 Rain 16 1006 93 4500 5.7 110 09:19 15.05.2020
3021 Rain 16 1006 93 4500 5.7 110 08:58 15.05.2020
3022 Rain 16 1006 93 4500 5.7 110 08:37 15.05.2020
3023 Rain 16 1006 93 4500 5.7 110 08:19 15.05.2020
3024 Rain 16 1006 93 6000 5.7 110 07:44 15.05.2020
3025 Rain 16 1006 93 6000 5.7 110 07:44 15.05.2020
3026 Rain 16 1006 93 6000 5.7 110 07:24 15.05.2020
3027 Rain 16 1007 82 10000 5.1 110 06:54 15.05.2020
3028 Rain 16 1008 87 10000 5.7 90 05:49 15.05.2020
3029 Rain 15 1009 87 10000 5.7 90 04:28 15.05.2020
3030 Rain 15 1010 87 10000 5.7 90 03:48 15.05.2020
3031 Rain 15 1010 82 6000 4.1 100 02:35 15.05.2020
3032 Rain 15 1011 87 7000 1.5 60 01:24 15.05.2020
3033 Rain 16 1011 77 10000 3.1 100 00:50 15.05.2020
3034 Rain 16 1011 77 10000 3.1 100 00:30 15.05.2020
3035 Rain 16 1011 77 10000 3.1 150 23:45 14.05.2020
3036 Rain 16 1011 77 10000 3.1 150 23:25 14.05.2020
3037 Rain 17 1011 48 10000 2.6 170 23:00 14.05.2020
3038 Rain 17 1011 48 10000 2.6 170 22:40 14.05.2020
3039 Rain 17 1011 48 10000 2.6 170 22:19 14.05.2020
3040 Rain 18 1011 48 10000 2.1 150 21:57 14.05.2020
3041 Rain 18 1011 48 10000 2.1 150 21:39 14.05.2020
3042 Clouds 18 1012 59 10000 1 190 21:19 14.05.2020
3043 Clouds 18 1012 59 10000 1 190 20:55 14.05.2020
3044 Clouds 18 1012 59 10000 1 190 20:36 14.05.2020
3045 Clouds 19 1012 42 10000 2.6 160 20:18 14.05.2020
3046 Clouds 19 1012 42 10000 2.6 160 19:40 14.05.2020
3047 Clouds 19 1012 42 10000 2.6 160 19:21 14.05.2020
3048 Clouds 18 1012 55 10000 2.1 80 18:58 14.05.2020
3049 Clouds 18 1012 55 10000 2.1 80 18:38 14.05.2020
3050 Clouds 18 1013 59 10000 3.1 280 18:20 14.05.2020
3051 Clouds 18 1013 59 10000 3.1 280 17:59 14.05.2020
3052 Clouds 18 1013 59 10000 3.1 280 17:37 14.05.2020
3053 Clouds 18 1013 59 10000 3.1 280 17:19 14.05.2020
3054 Clouds 18 1013 55 10000 2.1 360 16:57 14.05.2020
3055 Clouds 18 1013 55 10000 2.1 360 16:38 14.05.2020
3056 Clouds 19 1014 55 10000 1.5 230 16:19 14.05.2020
3057 Clouds 19 1014 55 10000 1.5 230 15:56 14.05.2020
3058 Clouds 19 1014 55 10000 1.5 230 15:37 14.05.2020
3059 Clouds 19 1014 55 10000 1.5 340 15:18 14.05.2020
3060 Clouds 19 1014 55 10000 1.5 340 14:40 14.05.2020
3061 Clouds 19 1014 55 10000 1.5 340 14:20 14.05.2020
3062 Clouds 20 1013 45 10000 1 360 13:57 14.05.2020
3063 Clouds 20 1013 45 10000 1 360 13:39 14.05.2020
3064 Clouds 20 1013 45 10000 1 360 13:20 14.05.2020
3065 Clouds 21 1014 35 10000 0.5 340 12:58 14.05.2020
3066 Clouds 22 1014 35 10000 0.5 340 12:39 14.05.2020
3067 Clouds 22 1014 35 10000 0.5 340 12:20 14.05.2020
3068 Clouds 23 1014 33 10000 1 360 11:57 14.05.2020
3069 Clouds 23 1014 33 10000 1 360 11:38 14.05.2020
3070 Clouds 23 1014 33 10000 1 360 11:38 14.05.2020
3071 Clouds 23 1014 30 10000 1.5 330 11:20 14.05.2020
3072 Clouds 23 1014 30 10000 1.5 330 11:20 14.05.2020
3073 Clouds 23 1014 30 10000 1.5 330 10:45 14.05.2020
3074 Clouds 23 1014 30 10000 1.5 330 10:26 14.05.2020
3075 Clouds 25 1015 27 10000 4.6 300 09:57 14.05.2020
3076 Clouds 25 1015 27 10000 4.6 300 09:39 14.05.2020
3077 Clouds 25 1015 27 10000 4.6 300 09:19 14.05.2020
3078 Clouds 26 1015 25 10000 5.1 300 09:19 14.05.2020
3079 Clouds 25 1015 25 10000 5.1 300 08:40 14.05.2020
3080 Clouds 26 1016 21 10000 3.1 270 08:20 14.05.2020
3081 Clouds 26 1016 21 10000 3.1 270 07:45 14.05.2020
3082 Clouds 26 1016 21 10000 3.1 270 07:24 14.05.2020
3083 Clouds 25 1016 17 10000 3.6 240 06:54 14.05.2020
3084 Clouds 25 1016 17 10000 3.6 240 06:28 14.05.2020
3085 Clouds 23 1017 19 10000 4.1 220 05:44 14.05.2020
3086 Clouds 23 1017 19 10000 4.1 220 05:23 14.05.2020
3087 Clouds 20 1018 26 10000 2.6 190 04:24 14.05.2020
3088 Clouds 18 1018 34 10000 3.1 160 03:21 14.05.2020
3089 Clouds 17 1018 34 10000 3.1 160 02:40 14.05.2020
3090 Clouds 15 1018 45 10000 2.1 160 01:53 14.05.2020
3091 Clouds 13 1018 58 10000 0.5 190 00:58 14.05.2020
3092 Clouds 13 1018 58 10000 0.5 190 00:30 14.05.2020
3093 Clouds 12 1018 62 10000 0.5 210 23:57 13.05.2020
3094 Clouds 12 1018 62 10000 0.5 210 23:38 13.05.2020
3095 Clouds 11 1017 62 10000 0.5 190 23:18 13.05.2020
3096 Clouds 11 1017 62 10000 0.5 190 22:42 13.05.2020
3097 Clouds 11 1017 62 10000 0.5 190 22:22 13.05.2020
3098 Clouds 11 1017 58 10000 1.5 170 21:59 13.05.2020
3099 Clouds 11 1017 58 10000 1.5 170 21:40 13.05.2020
3100 Clouds 11 1017 58 10000 2.6 150 21:19 13.05.2020
3101 Clouds 11 1017 58 10000 2.6 150 21:19 13.05.2020
3102 Clouds 11 1017 58 10000 2.6 150 20:56 13.05.2020
3103 Clouds 11 1017 58 10000 2.6 150 20:38 13.05.2020
3104 Clouds 11 1017 58 10000 2.6 150 20:19 13.05.2020
3105 Clouds 11 1017 54 10000 3.6 150 19:42 13.05.2020
3106 Clouds 11 1017 54 10000 3.6 150 19:24 13.05.2020
3107 Clouds 11 1017 58 10000 3.1 130 18:45 13.05.2020
3108 Clouds 11 1017 58 10000 3.1 130 18:22 13.05.2020
3109 Clouds 12 1017 54 10000 2.1 160 17:58 13.05.2020
3110 Clouds 12 1017 54 10000 2.1 160 17:38 13.05.2020
3111 Clouds 12 1017 62 10000 3.1 160 17:18 13.05.2020
3112 Clouds 12 1017 62 10000 3.1 160 16:41 13.05.2020
3113 Clouds 12 1017 62 10000 3.1 160 16:19 13.05.2020
3114 Clouds 13 1017 50 10000 2.6 140 15:55 13.05.2020
3115 Clouds 13 1017 50 10000 2.6 140 15:37 13.05.2020
3116 Clouds 14 1017 44 10000 1 170 15:18 13.05.2020
3117 Clouds 15 1017 44 10000 1 170 14:42 13.05.2020
3118 Clouds 15 1017 44 10000 1 170 14:24 13.05.2020
3119 Clouds 16 1016 44 10000 1.5 160 13:59 13.05.2020
3120 Clouds 16 1016 44 10000 1.5 160 13:59 13.05.2020
3121 Clouds 16 1016 44 10000 1.5 160 13:41 13.05.2020
3122 Clear 16 1016 44 10000 1.5 160 13:22 13.05.2020
3123 Clear 18 1016 42 10000 4.1 230 12:58 13.05.2020
3124 Clear 18 1016 42 10000 4.1 230 12:58 13.05.2020
3125 Clear 18 1016 42 10000 4.1 230 12:39 13.05.2020
3126 Clear 19 1015 34 10000 4.6 240 12:20 13.05.2020
3127 Clear 20 1015 34 10000 4.6 240 11:56 13.05.2020
3128 Clear 20 1015 34 10000 4.6 240 11:56 13.05.2020
3129 Clear 20 1015 34 10000 4.6 240 11:37 13.05.2020
3130 Clear 21 1015 34 10000 6.2 240 11:19 13.05.2020
3131 Clear 21 1015 34 10000 6.2 240 10:57 13.05.2020
3132 Clear 21 1015 34 10000 6.2 240 10:38 13.05.2020
3133 Clear 21 1015 34 10000 6.2 240 10:19 13.05.2020
3134 Clear 22 1015 32 10000 5.7 260 09:46 13.05.2020
3135 Clear 22 1015 32 10000 5.7 260 09:23 13.05.2020
3136 Clear 22 1015 30 10000 7.2 250 08:57 13.05.2020
3137 Clear 23 1015 30 10000 7.2 250 08:37 13.05.2020
3138 Clear 22 1015 30 10000 6.2 260 08:19 13.05.2020
3139 Clear 22 1015 30 10000 6.2 260 07:44 13.05.2020
3140 Clear 22 1015 30 10000 6.2 260 07:26 13.05.2020
3141 Clear 22 1015 33 10000 7.2 270 06:49 13.05.2020
3142 Clear 22 1015 33 10000 7.2 270 06:28 13.05.2020
3143 Clear 20 1015 37 10000 7.7 260 04:57 13.05.2020
3144 Clear 19 1015 42 10000 5.1 250 03:27 13.05.2020
3145 Clear 16 1015 51 10000 5.1 260 02:32 13.05.2020
3146 Clear 14 1014 72 10000 3.1 200 01:37 13.05.2020
3147 Clear 12 1014 82 10000 2.6 190 00:50 13.05.2020
3148 Clear 12 1014 82 10000 2.6 190 00:20 13.05.2020
3149 Clear 8 1013 100 10000 3.6 150 23:40 12.05.2020
3150 Clear 8 1013 100 10000 3.6 150 23:40 12.05.2020
3151 Clear 8 1013 100 10000 3.6 150 23:21 12.05.2020
3152 Clear 8 1013 93 10000 2.6 150 22:58 12.05.2020
3153 Clear 8 1013 93 10000 2.6 150 22:39 12.05.2020
3154 Clear 8 1013 93 10000 2.6 150 22:20 12.05.2020
3155 Clear 8 1012 93 10000 0.5 40 21:55 12.05.2020
3156 Clear 8 1012 93 10000 0.5 40 21:37 12.05.2020
3157 Clear 9 1012 87 10000 0.5 320 21:18 12.05.2020
3158 Clear 9 1012 87 10000 0.5 320 20:56 12.05.2020
3159 Clear 9 1012 87 10000 0.5 320 20:38 12.05.2020
3160 Clear 9 1012 87 10000 0.5 320 20:20 12.05.2020
3161 Clear 10 1011 76 10000 0.5 170 19:56 12.05.2020
3162 Clear 10 1011 76 10000 0.5 170 19:37 12.05.2020
3163 Clear 10 1011 81 10000 1 270 19:18 12.05.2020
3164 Clear 10 1011 81 10000 1 270 18:42 12.05.2020
3165 Clear 10 1011 81 10000 1 270 18:23 12.05.2020
3166 Clear 12 1011 76 10000 1.93 281 17:54 12.05.2020
3167 Clear 12 1011 76 10000 1.93 281 17:36 12.05.2020
3168 Clear 13 1010 71 10000 2.6 290 17:18 12.05.2020
3169 Clear 13 1010 71 10000 2.6 290 16:42 12.05.2020
3170 Clear 14 1009 62 10000 2.6 270 16:21 12.05.2020
3171 Clear 14 1009 62 10000 2.6 270 15:55 12.05.2020
3172 Clear 14 1009 62 10000 2.6 270 15:55 12.05.2020
3173 Clear 15 1009 62 10000 2.6 270 15:36 12.05.2020
3174 Clear 15 1009 62 10000 2.6 270 15:36 12.05.2020
3175 Clear 15 1008 62 10000 3.6 300 15:18 12.05.2020
3176 Clear 15 1008 62 10000 3.6 300 14:55 12.05.2020
3177 Clear 15 1008 62 10000 3.6 300 14:36 12.05.2020
3178 Clear 16 1007 55 10000 4.6 310 14:18 12.05.2020
3179 Clear 16 1007 55 10000 4.6 310 13:54 12.05.2020
3180 Clear 16 1007 55 10000 4.6 310 13:54 12.05.2020
3181 Clear 17 1007 55 10000 4.6 310 13:36 12.05.2020
3182 Clear 17 1007 55 10000 4.6 310 13:18 12.05.2020
3183 Clear 17 1005 48 10000 6.7 310 12:54 12.05.2020
3184 Clear 17 1005 48 10000 6.7 310 12:36 12.05.2020
3185 Clear 17 1005 48 10000 6.7 310 12:36 12.05.2020
3186 Clear 17 1005 48 10000 6.7 310 12:36 12.05.2020
3187 Clouds 18 1004 52 10000 7.7 280 12:18 12.05.2020
3188 Clouds 18 1004 52 10000 7.7 280 11:55 12.05.2020
3189 Clouds 18 1004 52 10000 7.7 280 11:36 12.05.2020
3190 Clouds 18 1004 59 10000 6.2 260 11:18 12.05.2020
3191 Clouds 18 1004 59 10000 6.2 260 10:54 12.05.2020
3192 Clouds 18 1004 59 10000 6.2 260 10:36 12.05.2020
3193 Clouds 18 1003 59 10000 8.2 270 10:18 12.05.2020
3194 Clouds 19 1003 59 10000 8.2 270 09:40 12.05.2020
3195 Clouds 19 1003 59 10000 8.2 270 09:21 12.05.2020
3196 Clouds 19 1003 59 10000 4.6 270 08:59 12.05.2020
3197 Clouds 19 1003 59 10000 4.6 270 08:38 12.05.2020
3198 Clouds 19 1003 59 10000 4.6 270 08:19 12.05.2020
3199 Clouds 19 1003 59 10000 4.6 270 08:19 12.05.2020
3200 Clouds 18 1003 63 10000 3.6 230 07:42 12.05.2020
3201 Clouds 18 1003 63 10000 3.6 230 07:24 12.05.2020
3202 Clouds 17 1003 77 10000 3.6 250 06:50 12.05.2020
3203 Clouds 17 1003 77 10000 3.6 250 06:29 12.05.2020
3204 Clouds 17 1003 77 10000 4.6 240 05:54 12.05.2020
3205 Clouds 17 1003 77 10000 4.6 240 05:35 12.05.2020
3206 Clouds 17 1003 67 10000 5.7 230 03:27 12.05.2020
3207 Clouds 16 1003 72 10000 4.1 200 02:52 12.05.2020
3208 Clouds 16 1003 72 10000 4.1 200 02:25 12.05.2020
3209 Clouds 14 1004 82 9000 3.6 200 01:27 12.05.2020
3210 Clouds 12 1004 93 7000 3.6 180 00:28 12.05.2020
3211 Clouds 11 1004 93 10000 3.1 200 23:59 11.05.2020
3212 Clouds 11 1004 93 10000 3.1 200 23:40 11.05.2020
3213 Clouds 10 1004 93 10000 2.1 160 23:21 11.05.2020
3214 Clouds 9 1004 93 10000 2.1 160 22:59 11.05.2020
3215 Clouds 9 1004 93 10000 2.1 160 22:40 11.05.2020
3216 Clouds 9 1004 93 10000 2.1 160 22:20 11.05.2020
3217 Clouds 10 1004 100 10000 1 170 21:58 11.05.2020
3218 Clouds 10 1004 100 10000 1 170 21:40 11.05.2020
3219 Clear 10 1004 100 10000 1 280 21:19 11.05.2020
3220 Clear 10 1004 100 10000 1 280 20:57 11.05.2020
3221 Clear 10 1004 100 10000 1 280 20:57 11.05.2020
3222 Clear 10 1004 100 10000 1 280 20:57 11.05.2020
3223 Clear 10 1004 100 10000 1 280 20:39 11.05.2020
3224 Clouds 10 1004 100 10000 1 280 20:20 11.05.2020
3225 Clouds 11 1004 93 10000 1 190 19:55 11.05.2020
3226 Clouds 11 1004 93 10000 1.5 240 19:36 11.05.2020
3227 Clouds 11 1004 87 10000 2.1 120 19:18 11.05.2020
3228 Clouds 11 1004 87 10000 2.1 120 18:55 11.05.2020
3229 Clouds 11 1004 87 10000 2.1 120 18:36 11.05.2020
3230 Rain 12 1006 81 10000 0.5 180 18:18 11.05.2020
3231 Rain 12 1006 81 10000 0.5 180 18:18 11.05.2020
3232 Rain 13 1006 81 10000 0.5 180 17:41 11.05.2020
3233 Rain 13 1006 81 10000 0.5 180 17:22 11.05.2020
3234 Rain 14 1006 76 10000 2.6 300 16:58 11.05.2020
3235 Rain 14 1006 76 10000 2.6 300 16:38 11.05.2020
3236 Rain 14 1006 76 10000 2.6 300 16:20 11.05.2020
3237 Clouds 15 1006 54 10000 1.5 350 15:57 11.05.2020
3238 Clouds 16 1006 54 10000 1.5 350 15:38 11.05.2020
3239 Rain 16 1006 55 10000 3.6 300 15:18 11.05.2020
3240 Rain 17 1006 55 10000 3.6 300 14:42 11.05.2020
3241 Rain 17 1006 55 10000 3.6 300 14:42 11.05.2020
3242 Rain 17 1006 55 10000 3.6 300 14:22 11.05.2020
3243 Clouds 17 1006 48 10000 2.1 240 13:59 11.05.2020
3244 Clouds 17 1006 48 10000 2.1 240 13:40 11.05.2020
3245 Clouds 17 1006 48 10000 2.1 240 13:18 11.05.2020
3246 Clouds 18 1006 51 10000 2.6 260 13:18 11.05.2020
3247 Clouds 18 1006 51 10000 2.6 260 12:56 11.05.2020
3248 Clouds 18 1006 51 10000 2.6 260 12:56 11.05.2020
3249 Clouds 18 1006 51 10000 2.6 260 12:38 11.05.2020
3250 Clouds 19 1006 45 10000 4.6 230 12:19 11.05.2020
3251 Clouds 19 1006 45 10000 4.6 230 11:54 11.05.2020
3252 Clouds 19 1006 45 10000 4.6 230 11:36 11.05.2020
3253 Clouds 20 1006 42 10000 3.6 220 11:18 11.05.2020
3254 Clouds 20 1006 42 10000 3.6 220 10:54 11.05.2020
3255 Clouds 20 1006 42 10000 3.6 220 10:36 11.05.2020
3256 Clouds 21 1007 40 10000 4.6 240 10:18 11.05.2020
3257 Clouds 21 1007 40 10000 4.6 240 09:41 11.05.2020
3258 Clouds 21 1007 32 10000 5.7 250 09:20 11.05.2020
3259 Clouds 21 1007 32 10000 5.7 250 08:56 11.05.2020
3260 Clouds 22 1007 32 10000 5.7 250 08:37 11.05.2020
3261 Clouds 22 1007 32 10000 5.7 250 08:18 11.05.2020
3262 Clouds 22 1007 40 10000 5.1 230 07:46 11.05.2020
3263 Clouds 22 1007 40 10000 5.1 230 07:27 11.05.2020
3264 Clouds 22 1008 43 10000 5.1 240 06:43 11.05.2020
3265 Clouds 22 1009 40 10000 4.6 240 05:58 11.05.2020
3266 Clear 21 1009 40 10000 4.6 240 05:25 11.05.2020
3267 Clear 21 1009 56 8000 4.6 210 04:31 11.05.2020
3268 Mist 17 1009 72 4500 2.6 190 02:59 11.05.2020
3269 Mist 17 1009 72 4500 2.6 190 02:29 11.05.2020
3270 Mist 15 1009 82 3200 2.6 190 01:34 11.05.2020
3271 Mist 14 1009 87 2600 2.1 160 00:52 11.05.2020
3272 Mist 13 1009 93 2300 1.5 170 00:19 11.05.2020
3273 Mist 13 1009 93 2300 1.5 170 00:19 11.05.2020
3274 Mist 13 1009 93 2300 1.5 170 23:43 10.05.2020
3275 Mist 13 1009 93 2300 1.5 170 23:24 10.05.2020
3276 Mist 13 1009 100 2500 1 170 22:55 10.05.2020
3277 Mist 13 1009 100 2500 1 170 22:37 10.05.2020
3278 Mist 14 1009 93 2500 2.6 200 22:19 10.05.2020
3279 Mist 14 1009 93 2500 2.6 200 21:44 10.05.2020
3280 Mist 14 1009 93 2500 2.6 200 21:19 10.05.2020
3281 Mist 14 1009 93 2800 2.1 180 20:54 10.05.2020
3282 Mist 14 1009 93 2800 2.1 180 20:36 10.05.2020
3283 Mist 13 1009 93 3200 4.6 200 20:18 10.05.2020
3284 Mist 13 1009 93 3200 4.6 200 19:40 10.05.2020
3285 Mist 13 1009 93 3200 4.6 200 19:22 10.05.2020
3286 Mist 13 1009 93 3200 3.1 180 18:57 10.05.2020
3287 Mist 14 1009 93 3200 3.1 180 18:37 10.05.2020
3288 Mist 14 1010 93 3200 4.1 200 18:19 10.05.2020
3289 Mist 14 1010 93 3200 4.1 200 17:58 10.05.2020
3290 Mist 14 1010 93 3200 4.1 200 17:40 10.05.2020
3291 Mist 14 1010 93 3200 4.1 200 17:40 10.05.2020
3292 Mist 14 1010 93 3200 4.1 200 17:21 10.05.2020
3293 Mist 14 1009 100 2800 2.1 210 16:55 10.05.2020
3294 Mist 14 1009 100 2800 2.1 210 16:55 10.05.2020
3295 Mist 14 1009 100 2800 2.1 210 16:37 10.05.2020
3296 Mist 14 1009 87 2800 3.1 200 16:18 10.05.2020
3297 Mist 14 1009 87 2800 3.1 200 15:42 10.05.2020
3298 Mist 14 1009 87 2800 3.1 200 15:23 10.05.2020
3299 Mist 14 1008 93 2800 2.6 180 14:57 10.05.2020
3300 Mist 14 1008 93 2800 2.6 180 14:38 10.05.2020
3301 Mist 14 1008 93 2800 2.6 180 14:19 10.05.2020
3302 Mist 15 1008 87 3500 4.1 220 13:58 10.05.2020
3303 Mist 15 1008 87 3500 4.1 220 13:37 10.05.2020
3304 Mist 15 1008 87 3500 4.1 220 13:19 10.05.2020
3305 Mist 16 1007 82 3500 4.6 200 12:56 10.05.2020
3306 Mist 16 1007 82 3500 4.6 200 12:37 10.05.2020
3307 Mist 16 1007 87 3500 5.1 220 12:19 10.05.2020
3308 Mist 16 1007 87 3500 5.1 220 12:19 10.05.2020
3309 Mist 16 1007 87 3500 5.1 220 11:54 10.05.2020
3310 Mist 16 1007 87 3500 5.1 220 11:36 10.05.2020
3311 Mist 16 1007 87 3500 5.1 220 11:18 10.05.2020
3312 Mist 17 1007 77 4000 2.6 200 10:42 10.05.2020
3313 Mist 17 1007 77 4000 2.6 200 10:24 10.05.2020
3314 Mist 17 1007 82 4000 4.6 240 09:43 10.05.2020
3315 Mist 17 1007 82 4000 4.6 240 09:24 10.05.2020
3316 Mist 17 1007 82 4800 4.6 240 08:59 10.05.2020
3317 Mist 17 1007 82 4800 4.6 240 08:41 10.05.2020
3318 Mist 17 1007 82 4800 4.6 240 08:22 10.05.2020
3319 Clouds 17 1007 82 10000 4.6 230 07:43 10.05.2020
3320 Clouds 17 1006 82 10000 4.1 220 07:19 10.05.2020
3321 Clouds 17 1006 82 10000 4.1 220 06:51 10.05.2020
3322 Clouds 17 1006 82 10000 4.1 220 06:27 10.05.2020
3323 Clouds 16 1007 82 10000 3.1 230 05:48 10.05.2020
3324 Clouds 16 1007 87 10000 2.6 280 04:48 10.05.2020
3325 Clouds 16 1007 87 10000 2.6 280 04:29 10.05.2020
3326 Clouds 15 1007 93 7000 3.1 220 03:51 10.05.2020
3327 Clouds 15 1007 93 7000 3.1 220 03:30 10.05.2020
3328 Clouds 14 1007 93 7000 2.1 230 02:25 10.05.2020
3329 Clouds 14 1006 93 7000 2.6 280 01:59 10.05.2020
3330 Clouds 14 1006 93 7000 2.6 280 01:39 10.05.2020
3331 Clouds 14 1006 93 7000 2.6 280 01:18 10.05.2020
3332 Mist 13 1005 100 4000 1 260 00:52 10.05.2020
3333 Rain 13 1005 100 4000 1 260 00:22 10.05.2020
3334 Rain 13 1005 100 5000 2.6 280 23:40 09.05.2020
3335 Rain 13 1005 100 5000 2.6 280 23:40 09.05.2020
3336 Rain 13 1005 100 5000 2.6 280 23:22 09.05.2020
3337 Rain 13 1005 100 5000 1.5 250 22:59 09.05.2020
3338 Rain 13 1005 100 5000 1.5 250 22:40 09.05.2020
3339 Mist 13 1005 100 5000 1.5 250 22:22 09.05.2020
3340 Rain 13 1004 100 5000 1.5 170 21:56 09.05.2020
3341 Rain 13 1004 100 5000 1.5 170 21:38 09.05.2020
3342 Rain 13 1004 100 5000 1.5 170 21:19 09.05.2020
3343 Rain 13 1004 100 4000 1.5 200 20:56 09.05.2020
3344 Rain 13 1004 100 4000 1.5 200 20:37 09.05.2020
3345 Rain 13 1004 100 5000 1.5 190 20:19 09.05.2020
3346 Rain 13 1004 100 5000 1.5 190 19:40 09.05.2020
3347 Rain 13 1004 100 5000 1.5 190 19:20 09.05.2020
3348 Rain 13 1004 100 9000 2.6 200 18:58 09.05.2020
3349 Rain 13 1004 100 9000 2.6 200 18:40 09.05.2020
3350 Rain 13 1004 100 9000 2.6 200 18:19 09.05.2020
3351 Clouds 14 1004 100 10000 3.1 200 17:44 09.05.2020
3352 Rain 14 1005 100 3000 1.5 190 17:23 09.05.2020
3353 Rain 14 1005 100 3000 1.5 190 16:55 09.05.2020
3354 Rain 14 1005 100 3000 1.5 190 16:37 09.05.2020
3355 Clouds 14 1004 93 8000 2.1 190 16:18 09.05.2020
3356 Clouds 14 1004 93 8000 2.1 190 15:40 09.05.2020
3357 Drizzle 15 1004 93 4000 4.1 210 15:21 09.05.2020
3358 Drizzle 15 1004 93 4000 4.1 210 14:43 09.05.2020
3359 Drizzle 15 1004 93 4000 4.1 210 14:20 09.05.2020
3360 Drizzle 15 1003 93 4000 1.5 210 13:59 09.05.2020
3361 Drizzle 15 1003 93 4000 1.5 210 13:41 09.05.2020
3362 Mist 15 1003 93 4000 1.5 210 13:21 09.05.2020
3363 Drizzle 15 1003 93 4500 3.6 220 12:55 09.05.2020
3364 Drizzle 15 1003 93 4500 3.6 220 12:37 09.05.2020
3365 Mist 15 1003 100 5000 4.6 230 12:19 09.05.2020
3366 Mist 15 1003 100 5000 4.6 230 11:42 09.05.2020
3367 Drizzle 16 1002 100 3200 4.6 230 11:19 09.05.2020
3368 Drizzle 16 1002 100 3200 4.6 230 10:48 09.05.2020
3369 Drizzle 16 1002 100 3200 4.6 230 10:26 09.05.2020
3370 Rain 16 1002 100 2800 5.7 220 09:58 09.05.2020
3371 Rain 16 1002 100 2800 5.7 220 09:40 09.05.2020
3372 Rain 16 1001 100 3500 4.1 150 09:19 09.05.2020
3373 Rain 16 1001 100 3500 4.1 150 08:51 09.05.2020
3374 Rain 16 1001 100 3500 4.1 150 08:33 09.05.2020
3375 Rain 17 1001 93 5000 5.1 120 07:51 09.05.2020
3376 Rain 17 1001 93 5000 5.1 120 07:33 09.05.2020
3377 Rain 17 1002 88 4400 4.1 190 06:55 09.05.2020
3378 Rain 17 1002 93 6000 6.2 110 06:26 09.05.2020
3379 Rain 16 1003 100 5000 5.1 110 05:49 09.05.2020
3380 Rain 16 1004 93 4500 5.1 100 04:20 09.05.2020
3381 Mist 15 1004 100 4000 4.6 90 03:38 09.05.2020
3382 Fog 15 1005 93 1600 2.1 170 02:42 09.05.2020
3383 Rain 15 1004 93 7000 6.2 90 01:54 09.05.2020
3384 Rain 15 1004 93 7000 6.2 90 01:54 09.05.2020
3385 Rain 15 1004 93 7000 6.2 90 01:25 09.05.2020
3386 Mist 14 1005 100 4000 5.1 100 00:55 09.05.2020
3387 Rain 14 1005 100 4000 5.1 100 00:37 09.05.2020
3388 Rain 14 1006 93 3500 6.7 110 23:54 08.05.2020
3389 Rain 14 1006 93 3500 6.7 110 23:36 08.05.2020
3390 Rain 13 1007 100 3500 7.2 100 23:18 08.05.2020
3391 Rain 13 1007 100 3500 7.2 100 22:42 08.05.2020
3392 Rain 13 1008 93 5000 6.7 100 22:20 08.05.2020
3393 Rain 13 1008 93 5000 6.7 100 21:59 08.05.2020
3394 Rain 13 1008 93 5000 6.7 100 21:40 08.05.2020
3395 Rain 14 1010 87 5000 5.1 90 21:19 08.05.2020
3396 Rain 14 1010 87 2400 0.5 300 20:58 08.05.2020
3397 Rain 14 1010 87 5000 5.1 90 20:39 08.05.2020
3398 Mist 14 1010 87 5000 5.1 90 20:39 08.05.2020
3399 Rain 14 1011 77 10000 5.7 90 20:21 08.05.2020
3400 Rain 14 1011 77 10000 5.7 90 20:21 08.05.2020
3401 Rain 14 1011 77 10000 5.7 90 19:44 08.05.2020
3402 Rain 14 1011 77 10000 5.7 90 19:24 08.05.2020
3403 Rain 14 1013 87 9000 2.6 80 18:56 08.05.2020
3404 Rain 14 1013 87 9000 2.6 80 18:38 08.05.2020
3405 Rain 14 1014 87 10000 2.6 60 18:18 08.05.2020
3406 Rain 14 1014 87 10000 2.6 60 17:42 08.05.2020
3407 Rain 15 1014 87 7000 1 340 17:18 08.05.2020
3408 Rain 15 1014 87 7000 1 340 16:45 08.05.2020
3409 Rain 15 1014 87 7000 1 340 16:26 08.05.2020
3410 Rain 15 1013 87 10000 2.6 330 15:57 08.05.2020
3411 Rain 15 1013 87 10000 2.6 330 15:57 08.05.2020
3412 Rain 15 1013 87 10000 2.6 330 15:39 08.05.2020
3413 Rain 17 1013 63 10000 2.1 360 15:18 08.05.2020
3414 Rain 17 1013 63 10000 2.1 360 14:54 08.05.2020
3415 Rain 17 1013 63 10000 2.1 360 14:36 08.05.2020
3416 Rain 19 1013 67 10000 2.1 340 14:18 08.05.2020
3417 Rain 20 1013 67 10000 2.1 340 13:39 08.05.2020
3418 Rain 20 1013 42 10000 1.5 310 13:19 08.05.2020
3419 Rain 21 1013 42 10000 1.5 310 12:45 08.05.2020
3420 Rain 21 1013 42 10000 1.5 310 12:25 08.05.2020
3421 Clouds 21 1012 39 10000 3.1 300 11:57 08.05.2020
3422 Clouds 21 1012 39 10000 3.1 300 11:39 08.05.2020
3423 Clouds 22 1012 34 10000 4.6 300 11:20 08.05.2020
3424 Clouds 22 1012 34 10000 4.6 300 10:55 08.05.2020
3425 Clouds 23 1012 34 10000 4.6 300 10:37 08.05.2020
3426 Clouds 23 1012 37 10000 4.1 270 10:18 08.05.2020
3427 Clouds 24 1012 37 10000 4.1 270 09:41 08.05.2020
3428 Clouds 25 1012 25 10000 5.1 260 09:19 08.05.2020
3429 Clouds 25 1012 25 10000 5.1 260 08:55 08.05.2020
3430 Clouds 25 1012 25 10000 5.1 260 08:36 08.05.2020
3431 Clouds 27 1012 14 10000 2.1 160 08:18 08.05.2020
3432 Clouds 26 1012 14 10000 2.1 160 07:37 08.05.2020
3433 Clouds 26 1013 12 10000 1.5 290 07:19 08.05.2020
3434 Clouds 26 1013 12 10000 1.5 290 07:19 08.05.2020
3435 Clouds 26 1013 12 10000 1.5 290 06:39 08.05.2020
3436 Clouds 25 1014 15 10000 1.5 20 06:20 08.05.2020
3437 Clouds 25 1014 15 10000 1.5 20 05:29 08.05.2020
3438 Clouds 22 1016 17 10000 2.6 120 03:21 08.05.2020
3439 Clouds 20 1016 15 10000 4.1 130 02:29 08.05.2020
3440 Clouds 18 1016 18 10000 5.1 120 01:39 08.05.2020
3441 Clouds 17 1016 27 10000 1.5 170 01:20 08.05.2020
3442 Clouds 16 1016 27 10000 1.5 170 00:47 08.05.2020
3443 Clouds 16 1016 27 10000 1.5 170 00:25 08.05.2020
3444 Clouds 16 1016 31 10000 2.6 160 23:46 07.05.2020
3445 Clouds 16 1016 31 10000 2.6 160 23:24 07.05.2020
3446 Clouds 16 1016 32 10000 2.6 160 22:59 07.05.2020
3447 Clouds 17 1016 32 10000 2.6 160 22:41 07.05.2020
3448 Clouds 17 1016 34 10000 2.1 130 22:20 07.05.2020
3449 Clouds 17 1016 34 10000 2.1 130 21:57 07.05.2020
3450 Clouds 17 1016 34 10000 2.1 130 21:38 07.05.2020
3451 Clouds 18 1016 34 10000 3.1 170 21:19 07.05.2020
3452 Clouds 17 1016 34 10000 2.1 130 21:19 07.05.2020
3453 Clouds 18 1016 34 10000 3.1 170 20:56 07.05.2020
3454 Clouds 18 1016 34 10000 3.1 170 20:37 07.05.2020
3455 Clouds 18 1016 34 10000 1.5 180 20:18 07.05.2020
3456 Clouds 18 1016 34 10000 1.5 180 19:45 07.05.2020
3457 Clouds 18 1016 48 10000 2.6 150 19:21 07.05.2020
3458 Clouds 18 1016 48 10000 2.6 150 18:47 07.05.2020
3459 Clouds 18 1016 48 10000 2.6 150 18:28 07.05.2020
3460 Clouds 19 1016 63 10000 0.5 220 17:58 07.05.2020
3461 Clouds 19 1016 63 10000 0.5 220 17:37 07.05.2020
3462 Clouds 19 1016 59 10000 1 250 17:19 07.05.2020
3463 Clouds 19 1016 59 10000 1 250 16:42 07.05.2020
3464 Clouds 19 1016 45 10000 1 10 16:19 07.05.2020
3465 Clouds 19 1016 45 10000 1 10 15:57 07.05.2020
3466 Clouds 19 1016 45 10000 1 10 15:37 07.05.2020
3467 Clouds 20 1017 40 10000 1.5 20 15:18 07.05.2020
3468 Clouds 20 1017 40 10000 1.5 20 14:46 07.05.2020
3469 Clouds 20 1017 40 10000 1.5 20 14:23 07.05.2020
3470 Clouds 21 1016 42 10000 2.6 10 13:57 07.05.2020
3471 Clouds 21 1016 42 10000 2.6 10 13:39 07.05.2020
3472 Clouds 21 1016 35 10000 2.6 330 13:18 07.05.2020
3473 Clouds 22 1016 35 10000 2.6 330 12:39 07.05.2020
3474 Clouds 24 1016 28 10000 4.1 300 12:19 07.05.2020
3475 Clouds 24 1016 28 10000 4.1 300 11:39 07.05.2020
3476 Clouds 24 1016 28 10000 4.1 300 11:21 07.05.2020
3477 Clouds 25 1016 27 10000 4.6 290 10:54 07.05.2020
3478 Clouds 25 1016 27 10000 4.6 290 10:36 07.05.2020
3479 Clouds 26 1016 27 10000 4.6 290 10:18 07.05.2020
3480 Clouds 26 1016 27 10000 4.6 290 09:39 07.05.2020
3481 Clouds 26 1016 22 10000 2.6 310 09:18 07.05.2020
3482 Clouds 26 1016 22 10000 2.6 310 08:43 07.05.2020
3483 Clouds 26 1016 22 10000 2.6 310 08:23 07.05.2020
3484 Clouds 26 1017 19 10000 1.5 20 07:58 07.05.2020
3485 Clouds 26 1017 19 10000 1.5 20 07:39 07.05.2020
3486 Clouds 26 1017 19 10000 1.5 20 07:19 07.05.2020
3487 Clouds 25 1017 21 10000 2.6 70 06:37 07.05.2020
3488 Clouds 24 1017 22 10000 3.6 140 05:58 07.05.2020
3489 Clouds 23 1018 22 10000 4.1 90 04:27 07.05.2020
3490 Clouds 22 1018 24 10000 5.1 120 03:31 07.05.2020
3491 Clouds 20 1018 26 10000 5.7 110 02:59 07.05.2020
3492 Clouds 20 1018 26 10000 5.7 110 02:26 07.05.2020
3493 Clouds 18 1018 32 10000 6.2 130 01:27 07.05.2020
3494 Clouds 17 1018 39 10000 4.1 140 00:52 07.05.2020
3495 Clouds 16 1018 39 10000 4.1 140 00:31 07.05.2020
3496 Clouds 14 1017 41 10000 5.7 130 23:58 06.05.2020
3497 Clouds 13 1017 41 10000 5.7 130 23:39 06.05.2020
3498 Clouds 13 1017 44 10000 5.7 120 23:21 06.05.2020
3499 Clouds 13 1017 44 10000 5.7 120 22:55 06.05.2020
3500 Clouds 15 1017 44 10000 5.7 120 22:37 06.05.2020
3501 Clouds 15 1017 44 10000 5.7 120 22:37 06.05.2020
3502 Clouds 15 1017 48 10000 3.1 100 22:18 06.05.2020
3503 Clouds 15 1017 48 10000 3.1 100 22:18 06.05.2020
3504 Clouds 16 1017 48 10000 3.1 100 21:42 06.05.2020
3505 Clouds 16 1017 48 10000 3.1 100 21:22 06.05.2020
3506 Clouds 17 1016 51 10000 5.1 140 20:57 06.05.2020
3507 Clouds 17 1016 51 10000 5.1 140 20:38 06.05.2020
3508 Clouds 16 1016 59 10000 4.6 140 20:20 06.05.2020
3509 Clouds 16 1016 59 10000 4.6 140 19:56 06.05.2020
3510 Clouds 16 1016 59 10000 4.6 140 19:37 06.05.2020
3511 Clouds 16 1015 82 10000 1 240 19:18 06.05.2020
3512 Clouds 16 1015 82 10000 1 240 18:55 06.05.2020
3513 Clouds 16 1015 82 10000 1 240 18:37 06.05.2020
3514 Clear 17 1015 52 10000 1.69 128 18:18 06.05.2020
3515 Clear 17 1015 52 10000 1.69 128 17:54 06.05.2020
3516 Clear 17 1015 52 10000 1.69 128 17:36 06.05.2020
3517 Clear 16 1014 59 10000 2.32 146 17:18 06.05.2020
3518 Clear 16 1014 59 10000 2.32 146 16:56 06.05.2020
3519 Clear 16 1014 59 10000 2.32 146 16:38 06.05.2020
3520 Clear 17 1014 52 10000 2.48 112 16:19 06.05.2020
3521 Clear 18 1014 52 10000 2.48 112 15:45 06.05.2020
3522 Clear 19 1013 48 10000 1.63 27 15:22 06.05.2020
3523 Clear 19 1013 48 10000 1.63 27 14:56 06.05.2020
3524 Clear 19 1013 48 10000 1.63 27 14:38 06.05.2020
3525 Clear 20 1013 37 10000 2.1 290 14:18 06.05.2020
3526 Clear 21 1013 37 10000 2.1 290 13:57 06.05.2020
3527 Clear 21 1013 37 10000 2.1 290 13:37 06.05.2020
3528 Clear 23 1012 33 10000 2.46 304 13:18 06.05.2020
3529 Clear 23 1012 33 10000 2.46 304 12:42 06.05.2020
3530 Clear 26 1011 29 10000 2.1 320 12:24 06.05.2020
3531 Clear 26 1011 29 10000 2.1 320 11:41 06.05.2020
3532 Clear 26 1011 29 10000 2.1 320 11:21 06.05.2020
3533 Clear 27 1011 26 10000 1.5 320 10:58 06.05.2020
3534 Clear 27 1011 26 10000 1.5 320 10:39 06.05.2020
3535 Clear 27 1011 22 10000 2.1 320 10:19 06.05.2020
3536 Clear 27 1011 22 10000 2.1 320 09:45 06.05.2020
3537 Clear 27 1011 22 10000 2.1 320 09:26 06.05.2020
3538 Clear 27 1011 24 10000 3.35 324 08:55 06.05.2020
3539 Clear 27 1011 24 10000 3.35 324 08:36 06.05.2020
3540 Clear 26 1012 33 10000 1.5 250 08:18 06.05.2020
3541 Clear 26 1012 33 10000 1.5 250 07:40 06.05.2020
3542 Clear 26 1013 33 10000 2.6 360 07:21 06.05.2020
3543 Clear 25 1013 33 10000 2.6 360 06:58 06.05.2020
3544 Clear 25 1013 33 10000 2.6 360 06:40 06.05.2020
3545 Clear 24 1014 38 10000 3.1 170 06:19 06.05.2020
3546 Clear 24 1014 38 10000 3.1 170 05:37 06.05.2020
3547 Clear 22 1015 43 10000 2.1 160 04:40 06.05.2020
3548 Clear 20 1015 52 10000 1.5 110 03:44 06.05.2020
3549 Clear 18 1015 55 10000 1.4 10 03:22 06.05.2020
3550 Clear 18 1015 55 10000 1.14 41 02:30 06.05.2020
3551 Clear 15 1015 67 10000 1.14 43 01:56 06.05.2020
3552 Clear 15 1015 67 10000 1.14 43 01:33 06.05.2020
3553 Clear 12 1015 82 10000 1.3 43 00:54 06.05.2020
3554 Clear 12 1015 82 10000 1.25 27 00:27 06.05.2020
3555 Clear 10 1014 87 10000 1.25 27 23:57 05.05.2020
3556 Clear 10 1014 87 10000 1.25 27 23:38 05.05.2020
3557 Clear 10 1014 87 10000 0.82 12 23:18 05.05.2020
3558 Clear 10 1014 87 10000 0.82 12 22:42 05.05.2020
3559 Clear 10 1013 87 10000 0.75 5 22:20 05.05.2020
3560 Clear 10 1013 87 10000 0.75 5 21:57 05.05.2020
3561 Clear 10 1013 87 10000 0.75 5 21:39 05.05.2020
3562 Clear 10 1013 87 10000 0.79 320 21:20 05.05.2020
3563 Clear 10 1013 93 10000 0.79 320 20:57 05.05.2020
3564 Clear 10 1013 93 10000 0.79 320 20:39 05.05.2020
3565 Clear 10 1013 87 10000 1.26 328 20:18 05.05.2020
3566 Clear 10 1013 87 10000 1.26 328 19:54 05.05.2020
3567 Clear 10 1013 87 10000 1.26 328 19:36 05.05.2020
3568 Clear 11 1012 87 10000 1.25 328 19:18 05.05.2020
3569 Clear 11 1012 87 10000 1.25 328 19:18 05.05.2020
3570 Clear 11 1012 87 10000 1.25 328 18:42 05.05.2020
3571 Clear 12 1012 81 10000 0.33 350 18:20 05.05.2020
3572 Clear 12 1012 81 10000 0.33 350 17:58 05.05.2020
3573 Clear 12 1012 81 10000 0.33 350 17:39 05.05.2020
3574 Clear 12 1012 71 10000 1.06 350 17:21 05.05.2020
3575 Clear 13 1012 71 10000 1.06 350 16:56 05.05.2020
3576 Clear 13 1012 71 10000 1.06 350 16:36 05.05.2020
3577 Clear 14 1012 67 10000 1.34 317 16:18 05.05.2020
3578 Clear 14 1012 67 10000 1.34 317 15:41 05.05.2020
3579 Clear 14 1012 72 10000 1.56 292 15:21 05.05.2020
3580 Clear 14 1012 72 10000 1.56 292 15:21 05.05.2020
3581 Clear 14 1012 72 10000 1.56 292 14:56 05.05.2020
3582 Clear 14 1012 72 10000 1.56 292 14:38 05.05.2020
3583 Clear 14 1011 67 10000 1.49 246 14:19 05.05.2020
3584 Clear 16 1011 67 10000 1.49 246 13:57 05.05.2020
3585 Clear 16 1011 67 10000 1.49 246 13:38 05.05.2020
3586 Clear 17 1011 63 10000 1.84 220 13:19 05.05.2020
3587 Clear 17 1011 63 10000 1.84 220 13:19 05.05.2020
3588 Clear 17 1011 63 10000 1.84 220 12:57 05.05.2020
3589 Clear 17 1011 63 10000 1.84 220 12:37 05.05.2020
3590 Clear 18 1011 59 10000 1.47 186 12:19 05.05.2020
3591 Clear 18 1011 59 10000 1.47 186 11:41 05.05.2020
3592 Clear 18 1012 63 10000 0.83 165 11:20 05.05.2020
3593 Clear 18 1012 63 10000 0.83 165 10:56 05.05.2020
3594 Clear 18 1012 63 10000 0.83 165 10:37 05.05.2020
3595 Clear 18 1012 59 10000 3.1 190 10:18 05.05.2020
3596 Clear 17 1012 59 10000 3.1 190 09:44 05.05.2020
3597 Clear 17 1012 59 10000 3.1 190 09:26 05.05.2020
3598 Clouds 17 1012 59 10000 2.78 232 08:59 05.05.2020
3599 Clouds 17 1012 59 10000 2.78 232 08:59 05.05.2020
3600 Clouds 17 1012 59 10000 2.78 232 08:39 05.05.2020
3601 Clouds 17 1012 72 10000 1.5 230 08:18 05.05.2020
3602 Clouds 17 1012 72 10000 1.5 230 07:44 05.05.2020
3603 Clouds 17 1012 72 10000 1.5 230 07:22 05.05.2020
3604 Clouds 19 1012 64 10000 5.6 245 06:58 05.05.2020
3605 Clouds 19 1012 64 10000 5.6 245 06:39 05.05.2020
3606 Clouds 19 1011 68 10000 3.81 231 05:56 05.05.2020
3607 Clouds 19 1011 68 10000 2.41 205 05:25 05.05.2020
3608 Clouds 17 1011 63 10000 1.5 40 02:41 05.05.2020
3609 Clouds 16 1011 67 10000 1.23 117 00:57 05.05.2020
3610 Clouds 16 1011 67 10000 1.23 117 00:37 05.05.2020
3611 Clouds 14 1011 72 10000 1.12 95 23:55 04.05.2020
3612 Clouds 13 1010 82 10000 1.12 95 23:36 04.05.2020
3613 Clouds 12 1010 87 10000 0.7 83 23:18 04.05.2020
3614 Clouds 12 1010 87 10000 0.7 83 22:42 04.05.2020
3615 Clouds 12 1010 87 10000 0.7 83 22:42 04.05.2020
3616 Clouds 12 1010 87 10000 0.57 64 22:23 04.05.2020
3617 Clouds 13 1011 82 10000 0.57 64 21:59 04.05.2020
3618 Clouds 13 1011 82 10000 0.57 64 21:41 04.05.2020
3619 Clouds 13 1011 82 10000 0.57 64 21:41 04.05.2020
3620 Clouds 13 1011 82 10000 0.57 64 21:41 04.05.2020
3621 Clouds 13 1011 82 10000 0.57 64 21:41 04.05.2020
3622 Clouds 13 1010 76 10000 0.86 112 21:20 04.05.2020
3623 Clouds 13 1010 76 10000 0.86 112 21:20 04.05.2020
3624 Clouds 13 1010 76 10000 0.86 112 20:41 04.05.2020
3625 Clouds 13 1010 76 10000 1.09 135 20:21 04.05.2020
3626 Clear 14 1010 76 10000 1.09 135 19:58 04.05.2020
3627 Clear 14 1010 76 10000 1.09 135 19:40 04.05.2020
3628 Clear 14 1010 76 10000 1.09 135 19:40 04.05.2020
3629 Clear 14 1010 76 10000 1.19 169 19:18 04.05.2020
3630 Clear 14 1010 76 10000 1.19 169 18:39 04.05.2020
3631 Clear 15 1010 72 10000 1.56 178 18:20 04.05.2020
3632 Clear 15 1010 72 10000 1.56 178 17:57 04.05.2020
3633 Clear 15 1010 72 10000 1.56 178 17:39 04.05.2020
3634 Clear 15 1010 67 10000 1.79 185 17:20 04.05.2020
3635 Clear 15 1010 67 10000 1.79 185 16:56 04.05.2020
3636 Clear 15 1010 67 10000 1.79 185 16:37 04.05.2020
3637 Clouds 15 1010 67 10000 1.74 203 16:19 04.05.2020
3638 Clouds 15 1010 67 10000 1.74 203 16:19 04.05.2020
3639 Clouds 15 1010 67 10000 1.74 203 15:40 04.05.2020
3640 Clouds 16 1009 67 10000 2.35 205 15:22 04.05.2020
3641 Clouds 16 1009 67 10000 2.35 205 14:49 04.05.2020
3642 Clear 17 1008 63 10000 2.65 216 14:21 04.05.2020
3643 Clear 17 1008 63 10000 2.65 216 14:21 04.05.2020
3644 Clear 17 1008 63 10000 2.65 216 14:21 04.05.2020
3645 Clear 17 1008 63 10000 2.65 216 14:21 04.05.2020
3646 Clear 19 1008 55 10000 1.5 230 13:21 04.05.2020
3647 Clear 19 1008 55 10000 1.5 230 13:21 04.05.2020
3648 Clear 19 1008 55 10000 1.5 230 12:44 04.05.2020
3649 Clear 19 1008 55 10000 1.5 230 12:44 04.05.2020
3650 Clear 19 1008 55 10000 1.5 230 12:44 04.05.2020
3651 Clear 19 1008 55 10000 1.5 230 12:44 04.05.2020
3652 Clear 19 1008 55 10000 1.5 230 12:44 04.05.2020
3653 Clear 23 1007 44 10000 2.1 230 11:23 04.05.2020
3654 Clear 23 1007 44 10000 2.1 230 11:23 04.05.2020
3655 Clear 23 1007 44 10000 2.1 230 11:22 04.05.2020
3656 Clear 23 1007 44 10000 2.1 230 11:22 04.05.2020
3657 Clear 23 1007 44 10000 2.1 230 11:22 04.05.2020
3658 Clouds 24 1007 50 10000 3.1 230 09:28 04.05.2020
3659 Clouds 24 1007 50 10000 3.1 230 09:28 04.05.2020
3660 Clouds 25 1007 50 10000 2.1 200 07:54 04.05.2020
3661 Clouds 25 1007 50 10000 2.1 200 07:34 04.05.2020
3662 Clouds 25 1007 53 10000 3.1 190 05:49 04.05.2020
3663 Clear 24 1007 57 10000 4.18 260 04:51 04.05.2020
3664 Clear 24 1007 57 10000 4.18 260 04:51 04.05.2020
3665 Clear 22 1007 64 10000 2.71 264 02:42 04.05.2020
3666 Clear 19 1007 72 10000 1.03 246 01:22 04.05.2020
3667 Clouds 19 1006 77 10000 1.62 281 23:59 03.05.2020
3668 Clouds 19 1006 77 10000 1.62 281 23:41 03.05.2020
3669 Clouds 19 1006 77 10000 1.27 270 23:23 03.05.2020
3670 Clouds 19 1006 77 10000 1.27 270 22:43 03.05.2020
3671 Clouds 19 1006 77 10000 1.27 270 22:43 03.05.2020
3672 Clouds 19 1006 77 10000 1.27 270 22:43 03.05.2020
3673 Clouds 19 1006 77 10000 1.01 239 22:24 03.05.2020
3674 Clouds 20 1006 72 10000 1.01 239 21:42 03.05.2020
3675 Clouds 20 1006 72 10000 0.95 266 21:22 03.05.2020
3676 Clouds 19 1005 77 10000 0.95 266 20:57 03.05.2020
3677 Clouds 19 1005 77 10000 0.95 266 20:57 03.05.2020
3678 Clouds 19 1005 77 10000 0.95 266 20:57 03.05.2020
3679 Clouds 19 1005 77 10000 0.95 266 20:57 03.05.2020
3680 Clouds 19 1005 77 10000 0.95 266 20:57 03.05.2020
3681 Clouds 19 1005 77 10000 0.95 266 20:39 03.05.2020
3682 Clouds 20 1005 73 10000 1.04 278 20:20 03.05.2020
3683 Clouds 20 1005 73 10000 1.04 278 20:20 03.05.2020
3684 Clouds 20 1005 73 10000 1.04 278 20:20 03.05.2020
3685 Clouds 20 1005 73 10000 1.04 278 19:47 03.05.2020
3686 Clouds 20 1005 73 10000 1.04 278 19:47 03.05.2020
3687 Clouds 20 1005 73 10000 1.04 278 19:47 03.05.2020
3688 Clouds 20 1005 73 10000 1.04 278 19:47 03.05.2020
3689 Clouds 20 1005 73 10000 1.13 268 19:27 03.05.2020
3690 Clouds 20 1005 73 10000 1.13 268 19:27 03.05.2020
3691 Clouds 20 1005 73 10000 1.13 268 19:27 03.05.2020
3692 Clouds 20 1005 73 10000 1.13 268 19:27 03.05.2020
3693 Clouds 20 1005 73 10000 1.13 268 19:27 03.05.2020
3694 Clouds 20 1005 73 10000 1.13 268 18:40 03.05.2020
3695 Clouds 20 1005 73 10000 1.02 257 18:21 03.05.2020
3696 Clouds 20 1005 73 10000 1.02 257 17:59 03.05.2020
3697 Clouds 20 1005 73 10000 1.02 257 17:40 03.05.2020
3698 Clouds 20 1005 73 10000 1.25 277 17:20 03.05.2020
3699 Clouds 20 1005 73 10000 1.25 277 17:20 03.05.2020
3700 Clouds 20 1005 73 10000 1.25 277 16:45 03.05.2020
3701 Clouds 21 1006 73 10000 2.12 290 16:20 03.05.2020
3702 Clouds 21 1006 73 10000 2.12 290 16:20 03.05.2020
3703 Clouds 21 1006 73 10000 2.12 290 15:58 03.05.2020
3704 Clouds 21 1006 73 10000 2.12 290 15:39 03.05.2020
3705 Clear 21 1005 68 10000 1.4 273 15:20 03.05.2020
3706 Clear 21 1005 68 10000 1.4 273 14:57 03.05.2020
3707 Clear 21 1005 68 10000 1.4 273 14:38 03.05.2020
3708 Clouds 22 1004 64 10000 0.67 217 14:20 03.05.2020
3709 Clear 21 1005 68 10000 0.67 217 14:20 03.05.2020
3710 Clouds 22 1004 64 10000 0.67 217 13:41 03.05.2020
3711 Clouds 22 1004 64 10000 0.67 217 13:41 03.05.2020
3712 Clouds 24 1003 53 10000 0.67 204 12:59 03.05.2020
3713 Clouds 24 1003 53 10000 0.67 204 12:59 03.05.2020
3714 Clouds 24 1003 53 10000 0.67 204 12:39 03.05.2020
3715 Clouds 26 1003 51 10000 1.42 164 11:59 03.05.2020
3716 Clouds 26 1003 51 10000 1.42 164 11:40 03.05.2020
3717 Clear 26 1003 47 10000 1.5 200 11:21 03.05.2020
3718 Clear 26 1003 47 10000 1.5 200 10:59 03.05.2020
3719 Clear 26 1003 47 10000 1.5 200 10:39 03.05.2020
3720 Clear 26 1003 47 10000 1.5 200 10:39 03.05.2020
3721 Clear 26 1003 47 10000 1.5 200 10:39 03.05.2020
3722 Clear 26 1003 47 10000 1.5 200 10:39 03.05.2020
3723 Clear 26 1003 47 10000 1.5 200 10:39 03.05.2020
3724 Clear 27 1003 47 10000 1.5 130 09:48 03.05.2020
3725 Clear 27 1003 47 10000 1.5 130 09:48 03.05.2020
3726 Clear 27 1003 47 10000 1.5 130 09:48 03.05.2020
3727 Clear 27 1003 47 10000 1.5 130 09:48 03.05.2020
3728 Clear 27 1003 47 10000 1.5 130 09:48 03.05.2020
3729 Clear 27 1003 47 10000 1.5 130 09:27 03.05.2020
3730 Clear 27 1003 47 10000 1.5 130 09:27 03.05.2020
3731 Clouds 26 1003 47 10000 2.6 120 08:36 03.05.2020
3732 Clouds 26 1004 50 10000 2.1 120 08:00 03.05.2020
3733 Clouds 26 1004 50 10000 2.1 120 07:38 03.05.2020
3734 Clouds 26 1004 50 10000 2.1 120 07:38 03.05.2020
3735 Clouds 26 1004 50 10000 2.1 120 07:38 03.05.2020
3736 Clouds 25 1005 53 10000 1.5 110 06:18 03.05.2020
3737 Clouds 25 1005 53 10000 1.5 110 05:44 03.05.2020
3738 Clouds 23 1006 60 10000 2.1 50 04:29 03.05.2020
3739 Clouds 21 1006 77 10000 1.5 50 03:57 03.05.2020
3740 Clouds 20 1007 77 10000 1.8 95 02:38 03.05.2020
3741 Clouds 20 1007 82 10000 1.54 97 02:19 03.05.2020
3742 Clouds 20 1007 82 10000 1.54 97 02:19 03.05.2020
3743 Clouds 19 1007 82 10000 1.47 89 01:41 03.05.2020
3744 Clouds 19 1007 82 10000 1.31 43 01:22 03.05.2020
3745 Mist 18 1006 88 9000 1.31 43 00:40 03.05.2020
3746 Mist 17 1006 93 9000 0.75 75 00:21 03.05.2020
3747 Mist 17 1006 93 9000 0.75 75 23:49 02.05.2020
3748 Mist 17 1006 93 9000 0.78 121 23:30 02.05.2020
3749 Mist 16 1006 93 9000 0.78 121 22:58 02.05.2020
3750 Mist 16 1006 93 9000 0.78 121 22:39 02.05.2020
3751 Mist 16 1006 93 9000 0.94 104 22:21 02.05.2020
3752 Clear 17 1006 88 10000 0.94 104 21:43 02.05.2020
3753 Clouds 19 1007 82 10000 1.19 66 21:21 02.05.2020
3754 Clouds 19 1007 82 10000 1.19 66 20:59 02.05.2020
3755 Clouds 19 1007 82 10000 1.19 66 20:39 02.05.2020
3756 Clouds 19 1007 88 10000 1.41 45 20:20 02.05.2020
3757 Clouds 19 1007 88 10000 1.41 45 19:59 02.05.2020
3758 Clouds 19 1007 88 10000 1.41 45 19:39 02.05.2020
3759 Clouds 19 1007 88 10000 1.78 34 19:20 02.05.2020
3760 Clouds 19 1008 88 10000 1.78 34 18:56 02.05.2020
3761 Clouds 19 1008 88 10000 1.78 34 18:38 02.05.2020
3762 Clouds 19 1008 82 10000 0.82 16 18:19 02.05.2020
3763 Clouds 19 1008 82 10000 0.82 16 18:19 02.05.2020
3764 Clouds 19 1008 82 10000 0.82 16 17:56 02.05.2020
3765 Clouds 19 1008 82 10000 0.82 16 17:38 02.05.2020
3766 Clouds 19 1008 88 10000 0.69 286 17:19 02.05.2020
3767 Clouds 19 1008 88 10000 0.69 286 16:44 02.05.2020
3768 Clouds 19 1008 88 10000 0.78 282 16:26 02.05.2020
3769 Clouds 19 1009 82 10000 0.78 282 15:55 02.05.2020
3770 Clouds 19 1009 82 10000 0.78 282 15:36 02.05.2020
3771 Clouds 20 1009 82 10000 0.67 41 15:18 02.05.2020
3772 Clouds 20 1009 82 10000 0.67 41 14:41 02.05.2020
3773 Clouds 20 1009 82 10000 0.99 285 14:22 02.05.2020
3774 Clouds 20 1009 77 10000 1.5 310 13:55 02.05.2020
3775 Clouds 21 1009 77 10000 1.5 310 13:37 02.05.2020
3776 Clouds 21 1009 77 10000 2.05 275 13:18 02.05.2020
3777 Clouds 21 1009 77 10000 2.05 275 13:18 02.05.2020
3778 Clouds 22 1009 73 10000 2.05 275 12:40 02.05.2020
3779 Clouds 23 1009 73 10000 1.88 274 12:20 02.05.2020
3780 Clouds 23 1009 73 10000 1.88 274 11:55 02.05.2020
3781 Clouds 23 1009 73 10000 1.88 274 11:37 02.05.2020
3782 Clouds 23 1009 69 10000 2.88 272 11:18 02.05.2020
3783 Clouds 23 1009 69 10000 2.88 272 10:40 02.05.2020
3784 Clouds 23 1009 69 10000 4.78 264 10:22 02.05.2020
3785 Clouds 24 1010 64 10000 1.5 240 09:58 02.05.2020
3786 Clouds 24 1010 64 10000 1.5 240 09:39 02.05.2020
3787 Clouds 24 1010 57 10000 4.34 260 09:21 02.05.2020
3788 Clouds 24 1010 57 10000 4.34 260 08:51 02.05.2020
3789 Clouds 24 1010 57 10000 4.34 260 08:31 02.05.2020
3790 Clouds 24 1010 64 10000 3.83 257 07:50 02.05.2020
3791 Clouds 24 1010 64 10000 3.05 250 07:30 02.05.2020
3792 Clouds 24 1011 69 10000 3.05 250 06:54 02.05.2020
3793 Clouds 24 1011 69 10000 2.22 240 06:23 02.05.2020
3794 Clouds 22 1012 73 10000 2.63 232 05:27 02.05.2020
3795 Clouds 21 1013 83 10000 1.81 217 04:26 02.05.2020
3796 Clouds 21 1013 83 10000 1.81 217 03:36 02.05.2020
3797 Clouds 20 1013 82 10000 1.97 207 02:39 02.05.2020
3798 Clouds 19 1013 82 10000 2.1 196 01:52 02.05.2020
3799 Clouds 19 1013 88 10000 2.52 201 00:58 02.05.2020
3800 Clouds 19 1013 88 10000 2.52 201 00:40 02.05.2020
3801 Clouds 19 1013 88 10000 2.1 160 00:18 02.05.2020
3802 Clouds 19 1013 88 10000 2.1 160 23:40 01.05.2020
3803 Clouds 19 1012 82 10000 2.4 196 23:20 01.05.2020
3804 Clouds 19 1012 82 10000 2.4 196 22:58 01.05.2020
3805 Clouds 19 1012 82 10000 2.4 196 22:38 01.05.2020
3806 Clouds 19 1012 82 10000 2.49 200 22:19 01.05.2020
3807 Clouds 19 1012 82 10000 2.49 200 21:57 01.05.2020
3808 Clouds 19 1012 82 10000 2.49 200 21:38 01.05.2020
3809 Clouds 19 1013 82 10000 2.27 203 21:18 01.05.2020
3810 Clouds 19 1013 82 10000 2.27 203 21:18 01.05.2020
3811 Clouds 19 1013 82 10000 2.27 203 20:56 01.05.2020
3812 Clouds 19 1013 82 10000 2.27 203 20:37 01.05.2020
3813 Clouds 19 1013 82 10000 2.61 203 20:19 01.05.2020
3814 Clouds 19 1013 82 10000 2.61 203 19:42 01.05.2020
3815 Clouds 19 1013 82 10000 1.5 250 19:22 01.05.2020
3816 Clouds 19 1013 82 10000 1.5 250 18:58 01.05.2020
3817 Clouds 19 1013 82 10000 1.5 250 18:39 01.05.2020
3818 Clouds 19 1013 82 10000 2.71 204 18:20 01.05.2020
3819 Clouds 19 1013 82 10000 2.71 204 17:57 01.05.2020
3820 Clouds 19 1013 82 10000 2.71 204 17:38 01.05.2020
3821 Clouds 19 1013 82 10000 2.73 203 17:20 01.05.2020
3822 Clouds 19 1013 82 10000 2.73 203 16:55 01.05.2020
3823 Clouds 19 1013 82 10000 2.73 203 16:37 01.05.2020
3824 Clouds 19 1013 82 10000 2.74 215 16:18 01.05.2020
3825 Clouds 19 1012 82 10000 1.5 170 15:42 01.05.2020
3826 Clouds 19 1012 82 10000 1.5 170 15:24 01.05.2020
3827 Clouds 20 1012 82 10000 2.4 214 14:58 01.05.2020
3828 Clouds 20 1012 82 10000 2.4 214 14:39 01.05.2020
3829 Clouds 20 1012 77 10000 2.81 223 14:21 01.05.2020
3830 Clouds 21 1012 77 10000 2.81 223 13:41 01.05.2020
3831 Clouds 20 1012 77 10000 3.58 234 13:22 01.05.2020
3832 Clouds 21 1011 77 10000 3.58 234 12:57 01.05.2020
3833 Clouds 21 1011 77 10000 3.58 234 12:39 01.05.2020
3834 Clear 22 1011 64 10000 3.45 237 12:19 01.05.2020
3835 Clear 24 1011 64 10000 3.45 237 11:56 01.05.2020
3836 Clear 24 1011 64 10000 3.45 237 11:38 01.05.2020
3837 Clear 25 1010 61 10000 3.59 235 11:18 01.05.2020
3838 Clear 25 1010 61 10000 3.59 235 10:40 01.05.2020
3839 Clear 26 1011 64 10000 4.6 250 10:20 01.05.2020
3840 Clear 27 1011 64 10000 4.6 250 09:45 01.05.2020
3841 Clear 26 1011 57 10000 1.5 270 09:21 01.05.2020
3842 Clear 26 1011 57 10000 1.5 270 08:59 01.05.2020
3843 Clear 26 1011 57 10000 1.5 270 08:41 01.05.2020
3844 Clear 26 1011 57 10000 1.5 270 08:22 01.05.2020
3845 Clear 26 1011 57 10000 1.5 270 08:22 01.05.2020
3846 Clouds 26 1012 54 10000 4.14 234 07:46 01.05.2020
3847 Clear 26 1012 60 10000 4.14 229 07:23 01.05.2020
3848 Clear 24 1012 60 10000 4.14 229 06:51 01.05.2020
3849 Clouds 23 1013 60 10000 3.33 202 05:36 01.05.2020
3850 Clouds 21 1014 68 10000 1.5 180 04:47 01.05.2020
3851 Clouds 20 1014 68 10000 2.6 180 03:25 01.05.2020
3852 Clouds 19 1014 77 10000 3.1 170 02:45 01.05.2020
3853 Clouds 19 1014 77 10000 3.1 170 02:24 01.05.2020
3854 Clouds 18 1014 82 10000 2.37 200 01:28 01.05.2020
3855 Clouds 18 1014 82 10000 2.37 200 00:59 01.05.2020
3856 Clouds 18 1014 82 10000 2.37 200 00:37 01.05.2020
3857 Clouds 17 1014 88 10000 2.73 206 00:18 01.05.2020
3858 Clouds 17 1014 88 10000 2.73 206 23:55 30.04.2020
3859 Clouds 17 1014 88 10000 2.73 206 23:37 30.04.2020
3860 Clouds 17 1014 88 10000 2.73 206 23:37 30.04.2020
3861 Clouds 17 1013 82 10000 2.8 205 23:18 30.04.2020
3862 Clouds 17 1013 82 10000 2.8 205 22:41 30.04.2020
3863 Clouds 17 1013 82 10000 2.53 199 22:20 30.04.2020
3864 Clouds 17 1013 82 10000 2.53 199 21:56 30.04.2020
3865 Clouds 17 1013 82 10000 2.53 199 21:37 30.04.2020
3866 Clouds 17 1013 82 10000 2.42 199 21:19 30.04.2020
3867 Clouds 17 1013 82 10000 2.42 199 20:42 30.04.2020
3868 Clouds 17 1013 82 10000 3.16 204 20:19 30.04.2020
3869 Clouds 17 1013 82 10000 3.16 204 19:58 30.04.2020
3870 Clouds 17 1014 82 10000 3.16 204 19:39 30.04.2020
3871 Clouds 17 1014 82 10000 2.88 204 19:20 30.04.2020
3872 Clouds 17 1014 82 10000 2.88 204 18:55 30.04.2020
3873 Clouds 17 1014 82 10000 2.88 204 18:37 30.04.2020
3874 Clouds 17 1014 82 10000 2.41 200 18:18 30.04.2020
3875 Clouds 17 1014 82 10000 2.41 200 17:41 30.04.2020
3876 Clouds 17 1014 82 10000 2.52 202 17:22 30.04.2020
3877 Clouds 18 1013 77 10000 2.1 200 16:59 30.04.2020
3878 Clouds 18 1013 77 10000 2.1 200 16:40 30.04.2020
3879 Clouds 18 1014 77 10000 1.5 230 16:20 30.04.2020
3880 Clouds 18 1014 77 10000 1.5 230 15:57 30.04.2020
3881 Clouds 18 1014 77 10000 1.5 230 15:39 30.04.2020
3882 Clouds 18 1014 77 10000 1.5 230 15:21 30.04.2020
3883 Clouds 19 1014 77 10000 2.46 208 14:41 30.04.2020
3884 Clouds 19 1013 72 10000 2.84 217 14:20 30.04.2020
3885 Clouds 19 1013 72 10000 2.84 217 14:20 30.04.2020
3886 Clouds 19 1013 72 10000 2.84 217 13:57 30.04.2020
3887 Clouds 19 1013 72 10000 2.84 217 13:39 30.04.2020
3888 Clouds 20 1012 68 10000 2.99 235 13:20 30.04.2020
3889 Clouds 20 1012 68 10000 2.99 235 12:42 30.04.2020
3890 Clouds 20 1012 64 10000 3.78 229 12:21 30.04.2020
3891 Clouds 21 1012 64 10000 3.78 229 11:59 30.04.2020
3892 Clouds 21 1012 64 10000 3.78 229 11:38 30.04.2020
3893 Clear 22 1012 53 10000 3.1 280 11:18 30.04.2020
3894 Clear 22 1012 53 10000 3.1 280 11:18 30.04.2020
3895 Clear 22 1012 53 10000 3.1 280 10:55 30.04.2020
3896 Clear 22 1012 53 10000 3.1 280 10:55 30.04.2020
3897 Clear 22 1012 53 10000 3.1 280 10:37 30.04.2020
3898 Clouds 23 1013 49 10000 2.6 240 10:18 30.04.2020
3899 Clouds 23 1013 49 10000 2.6 240 09:41 30.04.2020
3900 Clouds 23 1013 49 10000 2.6 240 09:22 30.04.2020
3901 Clear 24 1014 47 10000 5.66 234 08:49 30.04.2020
3902 Clear 24 1014 47 10000 6.01 235 08:27 30.04.2020
3903 Clear 23 1014 46 10000 1.5 200 07:58 30.04.2020
3904 Clear 23 1014 46 10000 1.5 200 07:58 30.04.2020
3905 Clear 23 1014 46 10000 1.5 200 07:40 30.04.2020
3906 Clear 23 1015 43 10000 2.1 220 07:21 30.04.2020
3907 Clear 23 1015 43 10000 2.1 220 06:38 30.04.2020
3908 Clear 21 1016 46 10000 3.1 190 05:49 30.04.2020
3909 Clear 21 1016 46 10000 3.1 190 05:26 30.04.2020
3910 Clear 19 1016 52 10000 3.89 205 04:25 30.04.2020
3911 Clouds 17 1017 48 10000 1.5 60 02:56 30.04.2020
3912 Clouds 17 1017 48 10000 1.5 60 02:28 30.04.2020
3913 Clouds 15 1018 47 10000 2.59 180 01:38 30.04.2020
3914 Clouds 11 1018 54 10000 1.72 154 00:54 30.04.2020
3915 Clouds 11 1018 54 10000 1.49 129 00:25 30.04.2020
3916 Clouds 9 1018 65 10000 1.49 129 23:59 29.04.2020
3917 Clouds 9 1018 65 10000 1.49 129 23:59 29.04.2020
3918 Clouds 9 1018 65 10000 1.49 129 23:59 29.04.2020
3919 Clouds 9 1018 65 10000 1.49 129 23:59 29.04.2020
3920 Clouds 9 1018 65 10000 1.49 129 23:41 29.04.2020
3921 Clear 9 1018 61 10000 1.23 126 23:23 29.04.2020
3922 Clear 8 1018 61 10000 1.23 126 22:58 29.04.2020
3923 Clear 8 1018 61 10000 1.23 126 22:39 29.04.2020
3924 Clear 8 1018 41 10000 1.26 131 22:19 29.04.2020
3925 Clear 8 1018 41 10000 1.26 131 21:39 29.04.2020
3926 Clear 8 1018 61 10000 1.37 158 21:20 29.04.2020
3927 Clear 8 1018 61 10000 1.37 158 20:58 29.04.2020
3928 Clear 8 1018 61 10000 1.37 158 20:39 29.04.2020
3929 Clear 8 1018 39 10000 1.48 171 20:19 29.04.2020
3930 Clear 8 1018 39 10000 1.48 171 19:54 29.04.2020
3931 Clear 8 1018 39 10000 1.48 171 19:36 29.04.2020
3932 Clear 8 1018 39 10000 0.9 207 19:18 29.04.2020
3933 Clear 8 1018 39 10000 0.9 207 18:41 29.04.2020
3934 Clear 8 1018 37 10000 1.6 201 18:20 29.04.2020
3935 Clear 9 1018 37 10000 1.6 201 17:55 29.04.2020
3936 Clear 9 1018 37 10000 1.6 201 17:55 29.04.2020
3937 Clear 9 1018 37 10000 1.6 201 17:37 29.04.2020
3938 Clear 11 1018 36 10000 1.75 203 17:18 29.04.2020
3939 Clear 11 1018 36 10000 1.75 203 16:37 29.04.2020
3940 Clear 11 1018 35 10000 1.57 220 16:18 29.04.2020
3941 Clear 12 1018 35 10000 1.57 220 15:56 29.04.2020
3942 Clear 12 1018 35 10000 1.57 220 15:37 29.04.2020
3943 Clear 12 1018 35 10000 1.57 220 15:37 29.04.2020
3944 Clear 13 1018 33 10000 1.52 221 15:19 29.04.2020
3945 Clear 13 1018 33 10000 1.52 221 14:44 29.04.2020
3946 Clear 13 1018 33 10000 2.18 226 14:26 29.04.2020
3947 Clear 16 1018 26 10000 2.18 226 13:58 29.04.2020
3948 Clear 16 1018 26 10000 2.18 226 13:58 29.04.2020
3949 Clear 16 1018 26 10000 2.18 226 13:38 29.04.2020
3950 Clear 16 1017 22 10000 2.67 231 13:19 29.04.2020
3951 Clear 18 1017 22 10000 2.67 231 12:55 29.04.2020
3952 Clear 18 1017 22 10000 2.67 231 12:37 29.04.2020
3953 Clear 19 1018 25 10000 2.1 260 12:18 29.04.2020
3954 Clear 19 1018 25 10000 2.1 260 11:38 29.04.2020
3955 Clear 20 1018 27 10000 1.5 230 11:20 29.04.2020
3956 Clear 20 1018 27 10000 1.5 230 11:20 29.04.2020
3957 Clear 20 1018 27 10000 1.5 230 11:20 29.04.2020
3958 Clear 20 1018 27 10000 1.5 230 10:54 29.04.2020
3959 Clear 20 1018 27 10000 1.5 230 10:54 29.04.2020
3960 Clear 20 1018 27 10000 1.5 230 10:36 29.04.2020
3961 Clear 21 1018 25 10000 2.1 200 10:18 29.04.2020
3962 Clear 21 1018 25 10000 2.1 200 09:41 29.04.2020
3963 Clear 21 1018 26 10000 2.1 200 09:21 29.04.2020
3964 Clear 21 1018 28 10000 2.6 240 08:44 29.04.2020
3965 Clear 21 1018 28 10000 2.6 240 08:25 29.04.2020
3966 Clear 21 1019 32 10000 2.1 240 07:54 29.04.2020
3967 Clear 21 1019 32 10000 2.1 240 07:29 29.04.2020
3968 Clouds 20 1019 30 10000 2.1 200 06:53 29.04.2020
3969 Clouds 20 1019 30 10000 2.1 200 06:32 29.04.2020
3970 Clear 20 1020 32 10000 4.76 236 05:43 29.04.2020
3971 Clear 19 1020 39 10000 4.01 225 05:19 29.04.2020
3972 Clear 17 1021 48 10000 1.5 160 04:20 29.04.2020
3973 Clear 15 1020 58 10000 2.58 199 02:58 29.04.2020
3974 Clouds 13 1020 71 10000 2.21 180 01:54 29.04.2020
3975 Clouds 13 1020 71 10000 2.09 164 01:28 29.04.2020
3976 Clear 11 1020 81 10000 2.09 164 00:55 29.04.2020
3977 Clear 11 1020 81 10000 2.09 164 00:36 29.04.2020
3978 Mist 8 1019 93 8000 1.94 152 00:18 29.04.2020
3979 Mist 8 1019 93 8000 1.94 152 23:43 28.04.2020
3980 Mist 8 1019 93 8000 1.8 153 23:20 28.04.2020
3981 Clear 9 1019 87 10000 1.8 153 22:38 28.04.2020
3982 Clear 9 1019 87 10000 1.75 153 22:20 28.04.2020
3983 Clear 9 1019 87 10000 1.75 153 21:58 28.04.2020
3984 Clear 9 1019 87 10000 1.88 156 21:40 28.04.2020
3985 Haze 10 1018 81 8000 1.74 170 21:21 28.04.2020
3986 Haze 10 1018 81 8000 1.74 170 20:56 28.04.2020
3987 Haze 10 1018 81 8000 1.74 170 20:38 28.04.2020
3988 Haze 10 1018 81 9000 2 182 20:19 28.04.2020
3989 Haze 10 1018 81 9000 2 182 19:43 28.04.2020
3990 Haze 10 1018 81 9000 2.9 188 19:22 28.04.2020
3991 Haze 10 1018 81 9000 2.9 188 19:22 28.04.2020
3992 Haze 11 1019 81 9000 2.9 188 18:59 28.04.2020
3993 Haze 11 1019 81 9000 2.9 188 18:41 28.04.2020
3994 Haze 11 1019 81 9000 2.9 188 18:41 28.04.2020
3995 Haze 12 1018 71 9000 2.76 194 18:20 28.04.2020
3996 Haze 12 1018 71 9000 2.76 194 17:58 28.04.2020
3997 Haze 12 1018 71 9000 2.76 194 17:37 28.04.2020
3998 Clear 13 1018 66 10000 2.92 200 17:18 28.04.2020
3999 Clear 13 1018 66 10000 2.92 200 16:45 28.04.2020
4000 Clear 13 1018 66 10000 3.05 210 16:24 28.04.2020
4001 Clear 13 1018 71 10000 3.05 210 15:58 28.04.2020
4002 Clear 13 1018 71 10000 3.05 210 15:40 28.04.2020
4003 Clear 14 1018 67 10000 3.43 218 15:21 28.04.2020
4004 Clear 14 1018 67 10000 3.43 218 14:59 28.04.2020
4005 Clear 14 1018 67 10000 3.47 220 14:41 28.04.2020
4006 Clear 14 1018 67 10000 3.76 223 14:21 28.04.2020
4007 Clear 14 1018 67 10000 3.53 227 13:58 28.04.2020
4008 Clear 14 1018 67 10000 3.53 227 13:38 28.04.2020
4009 Clear 15 1017 44 10000 4.05 232 13:19 28.04.2020
4010 Clear 16 1017 44 10000 4.05 232 12:46 28.04.2020
4011 Clear 16 1017 44 10000 4.91 232 12:26 28.04.2020
4012 Clear 18 1017 36 10000 4.91 232 11:56 28.04.2020
4013 Clear 18 1017 36 10000 4.91 232 11:37 28.04.2020
4014 Clear 18 1017 36 10000 4.91 232 11:37 28.04.2020
4015 Clear 18 1017 34 10000 2.1 210 11:18 28.04.2020
4016 Clear 18 1017 34 10000 2.1 210 10:39 28.04.2020
4017 Clear 19 1017 32 10000 1.5 250 10:19 28.04.2020
4018 Clear 19 1017 32 10000 1.5 250 09:58 28.04.2020
4019 Clear 19 1017 32 10000 1.5 250 09:39 28.04.2020
4020 Clear 19 1017 32 10000 1.5 250 09:39 28.04.2020
4021 Clear 20 1018 32 10000 2.1 300 09:20 28.04.2020
4022 Clear 20 1018 32 10000 2.1 300 08:46 28.04.2020
4023 Clear 20 1018 32 10000 2.1 300 08:26 28.04.2020
4024 Haze 20 1018 28 9000 2.6 220 07:45 28.04.2020
4025 Haze 20 1018 27 9000 2.6 220 07:20 28.04.2020
4026 Clear 20 1019 27 10000 6.23 238 06:54 28.04.2020
4027 Haze 19 1020 31 9000 1.5 170 06:22 28.04.2020
4028 Haze 18 1020 31 9000 1.5 170 05:41 28.04.2020
4029 Haze 18 1020 31 9000 1.5 170 05:20 28.04.2020
4030 Clear 14 1021 47 10000 1.5 220 03:00 28.04.2020
4031 Clear 14 1021 47 10000 1.5 220 02:33 28.04.2020
4032 Clear 12 1021 50 10000 2.4 223 01:23 28.04.2020
4033 Clear 8 1021 70 10000 2.4 223 00:55 28.04.2020
4034 Clear 7 1020 80 10000 1.61 218 00:22 28.04.2020
4035 Clear 5 1020 80 10000 1.61 218 23:45 27.04.2020
4036 Clear 5 1020 80 10000 1.32 221 23:24 27.04.2020
4037 Clear 5 1021 75 10000 1.32 221 22:55 27.04.2020
4038 Clear 5 1021 75 10000 1.57 221 22:37 27.04.2020
4039 Clear 6 1021 65 10000 1.43 247 22:18 27.04.2020
4040 Clear 6 1021 65 10000 1.43 247 21:55 27.04.2020
4041 Clear 6 1021 65 10000 1.43 247 21:37 27.04.2020
4042 Clear 7 1021 61 10000 1.65 259 21:18 27.04.2020
4043 Clear 7 1021 61 10000 1.65 259 20:43 27.04.2020
4044 Clear 7 1021 61 10000 2.04 263 20:22 27.04.2020
4045 Clear 6 1021 75 10000 0.5 270 19:58 27.04.2020
4046 Clear 6 1021 75 10000 0.5 270 19:39 27.04.2020
4047 Clear 6 1021 75 10000 1 250 19:20 27.04.2020
4048 Clear 6 1021 75 10000 1 250 18:56 27.04.2020
4049 Clear 6 1021 75 10000 1 250 18:38 27.04.2020
4050 Clear 9 1020 53 10000 1.01 274 18:19 27.04.2020
4051 Clear 9 1020 53 10000 1.01 274 17:43 27.04.2020
4052 Clear 9 1020 53 10000 1.62 300 17:21 27.04.2020
4053 Clear 11 1020 46 10000 1.62 300 16:57 27.04.2020
4054 Clear 11 1020 46 10000 1.62 300 16:38 27.04.2020
4055 Clear 11 1020 50 10000 3.35 310 16:20 27.04.2020
4056 Clear 12 1020 50 10000 3.35 310 15:56 27.04.2020
4057 Clear 12 1020 50 10000 3.35 310 15:37 27.04.2020
4058 Clear 12 1019 47 10000 3.52 308 15:18 27.04.2020
4059 Clear 12 1019 47 10000 3.52 308 14:42 27.04.2020
4060 Clear 12 1019 47 10000 4.05 302 14:22 27.04.2020
4061 Clear 13 1019 44 10000 4.05 302 13:58 27.04.2020
4062 Clear 13 1019 44 10000 4.05 302 13:39 27.04.2020
4063 Clouds 14 1018 36 10000 4.05 302 13:19 27.04.2020
4064 Clouds 14 1018 36 10000 4.05 302 12:43 27.04.2020
4065 Clouds 16 1018 33 10000 1.5 190 12:23 27.04.2020
4066 Clouds 16 1018 33 10000 1.5 190 11:59 27.04.2020
4067 Clouds 16 1018 33 10000 1.5 190 11:40 27.04.2020
4068 Clouds 17 1018 33 10000 5.2 270 11:19 27.04.2020
4069 Clouds 17 1018 33 10000 5.2 270 10:54 27.04.2020
4070 Clouds 17 1018 33 10000 5.2 270 10:36 27.04.2020
4071 Clouds 17 1018 33 10000 1.5 340 10:18 27.04.2020
4072 Clouds 17 1018 33 10000 1.5 340 09:42 27.04.2020
4073 Clouds 17 1018 27 10000 2.1 330 09:18 27.04.2020
4074 Clouds 17 1018 27 10000 2.1 330 08:53 27.04.2020
4075 Clouds 17 1018 27 10000 2.1 330 08:33 27.04.2020
4076 Clear 18 1018 25 10000 3.1 220 07:55 27.04.2020
4077 Clear 18 1018 25 10000 3.1 220 07:36 27.04.2020
4078 Clear 18 1019 27 10000 6.13 292 07:18 27.04.2020
4079 Clear 18 1019 27 10000 6.13 292 06:37 27.04.2020
4080 Clear 16 1019 36 10000 2.1 250 06:18 27.04.2020
4081 Clouds 16 1020 44 10000 1.5 10 05:21 27.04.2020
4082 Clouds 16 1020 44 10000 1.5 10 04:40 27.04.2020
4083 Clouds 15 1020 50 10000 4.71 297 03:48 27.04.2020
4084 Clouds 13 1020 58 10000 2.19 296 02:35 27.04.2020
4085 Clear 12 1020 71 10000 1.5 180 01:20 27.04.2020
4086 Haze 9 1019 81 9000 2.19 296 00:40 27.04.2020
4087 Haze 7 1019 87 9000 1.01 268 00:19 27.04.2020
4088 Haze 7 1019 87 9000 1.01 268 23:55 26.04.2020
4089 Haze 7 1019 87 9000 1.01 268 23:37 26.04.2020
4090 Clear 8 1019 81 10000 1.01 268 23:18 26.04.2020
4091 Clear 8 1019 81 10000 1.01 268 22:40 26.04.2020
4092 Clouds 8 1019 71 10000 1.01 268 22:22 26.04.2020
4093 Clouds 8 1019 71 10000 1.01 268 21:59 26.04.2020
4094 Clouds 8 1019 71 10000 1.01 268 21:59 26.04.2020
4095 Clouds 8 1019 71 10000 1.01 268 21:41 26.04.2020
4096 Clouds 9 1019 62 10000 2.22 243 21:19 26.04.2020
4097 Clouds 9 1019 62 10000 2.22 243 20:59 26.04.2020
4098 Clouds 9 1019 62 10000 2.22 243 20:39 26.04.2020
4099 Clouds 10 1019 57 10000 2.22 243 20:20 26.04.2020
4100 Clouds 10 1019 57 10000 2.22 243 19:58 26.04.2020
4101 Clouds 10 1019 57 10000 2.22 243 19:37 26.04.2020
4102 Clouds 9 1019 57 10000 2.22 243 19:19 26.04.2020
4103 Clouds 9 1019 57 10000 2.22 243 18:44 26.04.2020
4104 Clouds 9 1019 57 10000 1.31 266 18:24 26.04.2020
4105 Clouds 9 1019 57 10000 1.31 266 17:44 26.04.2020
4106 Clouds 9 1019 57 10000 1.31 266 17:44 26.04.2020
4107 Clouds 9 1019 57 10000 1.31 266 17:24 26.04.2020
4108 Clear 10 1019 53 10000 1.31 266 16:59 26.04.2020
4109 Clear 10 1019 53 10000 1.31 266 16:40 26.04.2020
4110 Clear 10 1019 53 10000 1.31 266 16:20 26.04.2020
4111 Clear 11 1019 46 10000 1.31 266 15:58 26.04.2020
4112 Clear 11 1019 46 10000 1.31 266 15:38 26.04.2020
4113 Clear 11 1019 41 10000 4.25 283 15:19 26.04.2020
4114 Clear 12 1019 41 10000 4.46 287 14:41 26.04.2020
4115 Clear 12 1019 41 10000 4.46 287 14:20 26.04.2020
4116 Clear 13 1018 35 10000 4.46 287 13:59 26.04.2020
4117 Clear 13 1018 35 10000 4.46 287 13:40 26.04.2020
4118 Clear 14 1017 30 10000 1.5 320 13:22 26.04.2020
4119 Clear 14 1017 30 10000 1.5 320 12:57 26.04.2020
4120 Clear 14 1017 30 10000 1.5 320 12:39 26.04.2020
4121 Clear 14 1017 30 10000 1.5 320 12:39 26.04.2020
4122 Clear 15 1017 26 10000 5.92 270 12:20 26.04.2020
4123 Clear 16 1017 26 10000 5.92 270 11:55 26.04.2020
4124 Clear 16 1017 26 10000 5.92 270 11:36 26.04.2020
4125 Clear 17 1016 25 10000 1.5 320 11:18 26.04.2020
4126 Clear 17 1016 25 10000 1.5 320 10:42 26.04.2020
4127 Clear 17 1016 25 10000 1.5 320 10:24 26.04.2020
4128 Clouds 18 1016 25 10000 2.1 240 09:58 26.04.2020
4129 Clouds 18 1016 25 10000 2.1 240 09:38 26.04.2020
4130 Clouds 18 1016 25 10000 2.1 240 09:38 26.04.2020
4131 Clear 18 1016 22 10000 3.1 240 09:20 26.04.2020
4132 Clear 18 1016 22 10000 3.1 240 08:41 26.04.2020
4133 Clear 18 1016 22 10000 3.1 240 08:23 26.04.2020
4134 Clear 18 1016 23 10000 1.5 230 07:49 26.04.2020
4135 Clear 18 1016 23 10000 1.5 230 07:49 26.04.2020
4136 Clear 18 1016 23 10000 1.5 230 07:25 26.04.2020
4137 Clear 18 1017 25 10000 2.1 360 06:53 26.04.2020
4138 Clear 18 1017 25 10000 2.1 360 06:31 26.04.2020
4139 Clear 17 1017 27 10000 2.6 310 05:54 26.04.2020
4140 Clear 17 1017 27 10000 2.6 310 05:34 26.04.2020
4141 Clear 16 1018 31 10000 2.6 290 04:41 26.04.2020
4142 Clear 14 1018 35 10000 1.5 300 03:43 26.04.2020
4143 Clear 13 1017 46 10000 2.6 360 02:38 26.04.2020
4144 Clear 13 1017 46 10000 3.09 319 02:19 26.04.2020
4145 Clear 12 1017 46 10000 3.09 319 01:37 26.04.2020
4146 Clear 8 1016 61 10000 3.09 319 00:41 26.04.2020
4147 Clear 7 1015 75 10000 1.91 293 00:21 26.04.2020
4148 Clear 5 1015 75 10000 1.91 293 23:57 25.04.2020
4149 Clear 5 1015 75 10000 1.91 293 23:37 25.04.2020
4150 Clear 6 1015 70 10000 1.91 293 23:18 25.04.2020
4151 Clear 6 1015 70 10000 1.91 293 22:42 25.04.2020
4152 Clear 6 1014 70 10000 1.91 293 22:21 25.04.2020
4153 Clear 6 1014 70 10000 1.91 293 21:59 25.04.2020
4154 Clear 6 1014 70 10000 1.91 293 21:39 25.04.2020
4155 Clear 8 1014 70 10000 2.97 292 21:19 25.04.2020
4156 Clear 7 1014 70 10000 2.97 292 21:19 25.04.2020
4157 Clear 8 1014 70 10000 2.97 292 20:54 25.04.2020
4158 Clear 8 1014 70 10000 2.97 292 20:36 25.04.2020
4159 Clear 8 1014 66 10000 2.97 292 20:18 25.04.2020
4160 Clear 8 1014 66 10000 2.97 292 19:40 25.04.2020
4161 Clear 9 1013 61 10000 2.97 292 19:22 25.04.2020
4162 Clear 9 1013 61 10000 2.97 292 18:56 25.04.2020
4163 Clear 9 1013 61 10000 2.97 292 18:37 25.04.2020
4164 Clear 10 1013 57 10000 4.18 290 18:18 25.04.2020
4165 Clear 10 1013 57 10000 4.18 290 17:55 25.04.2020
4166 Clear 10 1013 57 10000 4.18 290 17:37 25.04.2020
4167 Clear 11 1013 54 10000 4.18 290 17:18 25.04.2020
4168 Clear 11 1013 54 10000 4.18 290 16:46 25.04.2020
4169 Clear 11 1013 54 10000 4.18 290 16:27 25.04.2020
4170 Clear 11 1012 54 10000 4.18 290 15:58 25.04.2020
4171 Clear 11 1012 54 10000 4.18 290 15:38 25.04.2020
4172 Clear 12 1011 47 10000 4.09 300 15:19 25.04.2020
4173 Clear 12 1011 47 10000 4.09 300 14:56 25.04.2020
4174 Clear 12 1011 47 10000 4.09 300 14:37 25.04.2020
4175 Clear 13 1010 47 10000 4.74 291 14:18 25.04.2020
4176 Clear 13 1010 47 10000 4.74 291 13:42 25.04.2020
4177 Haze 15 1008 62 9000 4.74 291 13:19 25.04.2020
4178 Haze 15 1008 62 9000 4.74 291 12:57 25.04.2020
4179 Haze 15 1008 62 9000 4.74 291 12:38 25.04.2020
4180 Haze 16 1008 55 8000 6.17 283 12:19 25.04.2020
4181 Haze 16 1008 55 8000 6.17 283 11:43 25.04.2020
4182 Haze 16 1008 55 8000 6.17 283 11:25 25.04.2020
4183 Haze 17 1007 51 9000 6.17 283 10:59 25.04.2020
4184 Haze 17 1007 51 9000 6.17 283 10:59 25.04.2020
4185 Haze 17 1007 51 9000 6.17 283 10:41 25.04.2020
4186 Haze 17 1007 51 8000 2.1 210 10:21 25.04.2020
4187 Haze 17 1007 51 8000 2.1 210 09:45 25.04.2020
4188 Haze 17 1007 51 8000 2.1 210 09:26 25.04.2020
4189 Haze 17 1007 55 8000 2.6 210 08:56 25.04.2020
4190 Haze 17 1007 55 8000 2.6 210 08:38 25.04.2020
4191 Haze 17 1007 55 8000 1.5 230 08:19 25.04.2020
4192 Haze 18 1007 55 8000 1.5 230 07:44 25.04.2020
4193 Haze 18 1007 55 8000 1.5 230 07:22 25.04.2020
4194 Haze 18 1007 55 9000 1.5 270 06:43 25.04.2020
4195 Haze 17 1008 55 9000 2.6 230 05:47 25.04.2020
4196 Haze 17 1008 55 9000 2.6 230 05:28 25.04.2020
4197 Haze 17 1008 51 9000 1.5 190 04:24 25.04.2020
4198 Clouds 16 1008 48 10000 7.49 226 02:44 25.04.2020
4199 Clear 15 1008 47 10000 7.49 226 02:19 25.04.2020
4200 Clear 15 1008 47 10000 7.49 226 02:19 25.04.2020
4201 Clear 14 1008 47 10000 7.49 226 01:49 25.04.2020
4202 Clear 14 1008 47 10000 1.5 190 01:19 25.04.2020
4203 Clear 13 1008 47 10000 1.5 190 00:46 25.04.2020
4204 Clear 13 1008 47 10000 1.5 190 00:28 25.04.2020
4205 Clear 11 1008 50 10000 2.1 220 23:42 24.04.2020
4206 Clear 10 1008 46 10000 2.6 180 23:21 24.04.2020
4207 Clear 11 1008 46 10000 2.6 180 22:41 24.04.2020
4208 Clear 10 1008 46 10000 2.6 200 22:21 24.04.2020
4209 Clear 11 1008 46 10000 2.6 200 21:59 24.04.2020
4210 Clear 11 1008 46 10000 2.6 200 21:40 24.04.2020
4211 Clear 11 1008 46 10000 2.6 200 21:22 24.04.2020
4212 Clear 11 1009 50 10000 1.5 170 20:58 24.04.2020
4213 Clear 11 1009 50 10000 1.5 170 20:40 24.04.2020
4214 Clear 10 1010 50 10000 7.1 211 20:19 24.04.2020
4215 Clear 10 1010 50 10000 7.1 211 19:47 24.04.2020
4216 Clear 10 1010 50 10000 7.1 211 19:28 24.04.2020
4217 Clear 10 1011 50 10000 1.5 160 18:58 24.04.2020
4218 Clear 10 1011 50 10000 1.5 160 18:38 24.04.2020
4219 Clear 10 1011 53 10000 1.5 140 18:20 24.04.2020
4220 Clear 10 1011 53 10000 1.5 140 18:20 24.04.2020
4221 Clear 10 1011 53 10000 1.5 140 17:42 24.04.2020
4222 Clear 10 1011 53 10000 1.5 140 17:24 24.04.2020
4223 Clear 10 1012 53 10000 6.28 211 16:59 24.04.2020
4224 Clear 10 1012 53 10000 6.28 211 16:41 24.04.2020
4225 Clear 10 1012 53 10000 6.28 211 16:41 24.04.2020
4226 Clear 10 1012 57 10000 1.5 180 16:22 24.04.2020
4227 Clear 11 1012 57 10000 1.5 180 15:59 24.04.2020
4228 Clear 11 1012 57 10000 1.5 180 15:37 24.04.2020
4229 Clouds 11 1012 57 10000 2.1 180 15:18 24.04.2020
4230 Clouds 11 1012 57 10000 2.1 180 14:40 24.04.2020
4231 Clouds 12 1012 50 10000 5.84 217 14:20 24.04.2020
4232 Clouds 12 1012 50 10000 5.84 217 13:55 24.04.2020
4233 Clouds 12 1012 50 10000 5.84 217 13:36 24.04.2020
4234 Clear 12 1012 58 10000 5.84 217 13:18 24.04.2020
4235 Clear 12 1012 58 10000 5.84 217 12:41 24.04.2020
4236 Clouds 13 1011 54 10000 2.6 190 12:21 24.04.2020
4237 Clouds 13 1011 54 10000 2.6 190 11:57 24.04.2020
4238 Clouds 13 1011 54 10000 2.6 190 11:37 24.04.2020
4239 Clear 14 1011 50 10000 2.1 180 11:19 24.04.2020
4240 Clear 14 1011 50 10000 2.1 180 10:54 24.04.2020
4241 Clear 14 1011 50 10000 2.1 180 10:36 24.04.2020
4242 Clouds 14 1011 50 10000 2.1 220 10:18 24.04.2020
4243 Clouds 14 1011 50 10000 2.1 220 09:44 24.04.2020
4244 Clouds 14 1011 50 10000 2.1 220 09:24 24.04.2020
4245 Clouds 15 1012 47 10000 3.1 210 08:55 24.04.2020
4246 Clouds 15 1012 47 10000 3.1 210 08:37 24.04.2020
4247 Clouds 14 1012 47 10000 2.1 240 08:18 24.04.2020
4248 Clouds 14 1012 47 10000 2.1 240 07:43 24.04.2020
4249 Clouds 14 1013 44 10000 2.6 250 07:23 24.04.2020
4250 Clouds 14 1013 44 10000 2.6 250 06:48 24.04.2020
4251 Clouds 14 1013 44 10000 2.6 250 06:30 24.04.2020
4252 Clear 14 1013 35 0 2.6 230 05:39 24.04.2020
4253 Clouds 13 1013 39 10000 2.1 210 03:41 24.04.2020
4254 Clouds 11 1013 42 10000 2.6 190 02:55 24.04.2020
4255 Clouds 11 1013 42 10000 2.6 190 02:37 24.04.2020
4256 Clear 9 1014 53 10000 1.5 170 01:47 24.04.2020
4257 Clear 5 1015 70 10000 5.13 234 00:55 24.04.2020
4258 Clear 3 1015 57 10000 1.47 268 00:20 24.04.2020
4259 Clear 3 1015 57 10000 1.47 268 23:48 23.04.2020
4260 Clear 3 1015 57 10000 1.47 268 23:28 23.04.2020
4261 Clear 3 1015 80 10000 1.47 268 22:58 23.04.2020
4262 Clear 3 1015 80 10000 1.47 268 22:39 23.04.2020
4263 Clear 4 1015 70 10000 1.47 268 22:20 23.04.2020
4264 Clear 4 1015 70 10000 1.47 268 21:57 23.04.2020
4265 Clear 4 1015 70 10000 1.47 268 21:39 23.04.2020
4266 Clear 4 1015 65 10000 4.31 288 21:20 23.04.2020
4267 Clear 4 1015 65 10000 4.31 288 20:57 23.04.2020
4268 Clear 4 1015 65 10000 4.31 288 20:39 23.04.2020
4269 Clear 4 1015 60 10000 4.31 288 20:19 23.04.2020
4270 Clear 5 1015 60 10000 4.31 288 19:56 23.04.2020
4271 Clear 5 1015 60 10000 4.31 288 19:38 23.04.2020
4272 Clear 6 1016 56 10000 4.31 288 19:19 23.04.2020
4273 Clear 6 1016 56 10000 4.31 288 19:19 23.04.2020
4274 Clear 6 1016 56 10000 4.31 288 18:41 23.04.2020
4275 Clouds 7 1016 52 10000 3.95 279 18:23 23.04.2020
4276 Clouds 7 1016 52 10000 3.95 279 17:58 23.04.2020
4277 Clouds 7 1016 52 10000 3.95 279 17:39 23.04.2020
4278 Clear 7 1016 45 10000 3.95 279 17:21 23.04.2020
4279 Clear 7 1016 45 10000 3.95 279 16:55 23.04.2020
4280 Clear 7 1016 45 10000 3.95 279 16:37 23.04.2020
4281 Clear 8 1016 45 10000 1.5 350 16:18 23.04.2020
4282 Clear 8 1016 45 10000 1.5 350 15:41 23.04.2020
4283 Clear 8 1016 45 10000 1.5 350 15:41 23.04.2020
4284 Clear 8 1016 45 10000 1.5 350 15:22 23.04.2020
4285 Clear 8 1016 49 10000 5.78 291 14:56 23.04.2020
4286 Clear 8 1016 49 10000 5.78 291 14:37 23.04.2020
4287 Clear 9 1015 39 10000 5.61 284 14:18 23.04.2020
4288 Clear 9 1015 39 10000 5.61 284 13:40 23.04.2020
4289 Clear 9 1015 39 10000 5.61 284 13:22 23.04.2020
4290 Clear 10 1014 34 10000 1.5 210 12:58 23.04.2020
4291 Clear 10 1014 34 10000 1.5 210 12:40 23.04.2020
4292 Clear 10 1014 32 10000 7.54 269 12:21 23.04.2020
4293 Clear 11 1014 32 10000 7.54 269 11:47 23.04.2020
4294 Clear 11 1014 32 10000 7.54 269 11:28 23.04.2020
4295 Clear 12 1013 30 10000 7.54 269 10:59 23.04.2020
4296 Clear 12 1013 30 10000 7.54 269 10:40 23.04.2020
4297 Clouds 12 1013 37 10000 2.6 230 10:20 23.04.2020
4298 Clouds 13 1013 37 10000 2.6 230 09:40 23.04.2020
4299 Clouds 13 1014 43 10000 8.91 272 09:19 23.04.2020
4300 Clouds 13 1014 43 10000 8.91 272 08:51 23.04.2020
4301 Clouds 13 1014 43 10000 8.91 272 08:32 23.04.2020
4302 Clouds 13 1014 35 10000 2.6 250 07:58 23.04.2020
4303 Clouds 13 1014 35 10000 2.6 250 07:39 23.04.2020
4304 Clouds 13 1014 35 10000 1.5 280 07:21 23.04.2020
4305 Clouds 13 1014 35 10000 1.5 280 06:45 23.04.2020
4306 Clear 13 1015 32 10000 1.5 180 05:50 23.04.2020
4307 Clear 12 1016 30 10000 2.1 320 05:21 23.04.2020
4308 Clear 11 1017 43 10000 1.5 310 03:32 23.04.2020
4309 Clear 10 1017 47 10000 2.6 330 02:23 23.04.2020
4310 Clear 8 1017 47 10000 1.5 310 01:38 23.04.2020
4311 Clear 6 1017 60 10000 6.19 296 00:54 23.04.2020
4312 Clear 6 1017 60 10000 3.3 291 00:26 23.04.2020
4313 Clear 5 1017 65 10000 3.3 291 23:57 22.04.2020
4314 Clear 5 1017 65 10000 3.3 291 23:57 22.04.2020
4315 Clear 5 1017 65 10000 3.3 291 23:38 22.04.2020
4316 Clear 5 1016 60 10000 3.3 291 23:19 22.04.2020
4317 Clear 5 1016 60 10000 3.3 291 22:39 22.04.2020
4318 Clear 5 1016 60 10000 3.3 291 22:20 22.04.2020
4319 Clear 5 1016 60 10000 3.3 291 21:58 22.04.2020
4320 Clear 5 1016 60 10000 3.3 291 21:40 22.04.2020
4321 Clear 5 1016 65 10000 3.89 293 21:21 22.04.2020
4322 Clear 5 1016 65 10000 3.89 293 20:55 22.04.2020
4323 Clear 5 1016 65 10000 3.89 293 20:37 22.04.2020
4324 Clear 5 1017 60 10000 3.89 293 20:18 22.04.2020
4325 Clear 5 1017 60 10000 3.89 293 19:55 22.04.2020
4326 Clear 5 1017 60 10000 3.89 293 19:36 22.04.2020
4327 Clear 5 1017 56 10000 3.89 293 19:18 22.04.2020
4328 Clear 5 1017 56 10000 3.89 293 18:55 22.04.2020
4329 Clear 5 1017 56 10000 3.89 293 18:37 22.04.2020
4330 Clouds 5 1017 56 10000 5.12 291 18:18 22.04.2020
4331 Clouds 5 1017 56 10000 5.12 291 17:42 22.04.2020
4332 Clear 6 1017 48 10000 5.12 291 17:23 22.04.2020
4333 Clear 6 1017 48 10000 5.12 291 16:47 22.04.2020
4334 Clear 6 1017 48 10000 5.12 291 16:28 22.04.2020
4335 Clear 7 1017 45 10000 2.1 320 15:58 22.04.2020
4336 Clear 7 1017 45 10000 2.1 320 15:38 22.04.2020
4337 Clouds 7 1017 45 10000 2.1 320 15:19 22.04.2020
4338 Clouds 7 1017 45 10000 2.1 320 14:55 22.04.2020
4339 Clouds 7 1017 45 10000 2.1 320 14:36 22.04.2020
4340 Clouds 7 1016 48 10000 6.07 288 14:18 22.04.2020
4341 Clouds 7 1016 48 10000 6.07 288 13:43 22.04.2020
4342 Clouds 8 1015 45 10000 2.6 330 13:20 22.04.2020
4343 Clouds 8 1015 45 10000 2.6 330 12:42 22.04.2020
4344 Clouds 8 1015 45 10000 2.6 330 12:23 22.04.2020
4345 Clouds 8 1015 45 10000 7.36 281 11:58 22.04.2020
4346 Clouds 8 1015 45 10000 7.36 281 11:38 22.04.2020
4347 Clouds 8 1015 49 10000 7.36 281 11:19 22.04.2020
4348 Clouds 8 1015 49 10000 7.36 281 10:42 22.04.2020
4349 Clouds 8 1015 49 10000 7.36 281 10:24 22.04.2020
4350 Clouds 9 1015 49 10000 7.65 275 09:43 22.04.2020
4351 Clouds 9 1015 49 10000 8.94 273 09:25 22.04.2020
4352 Clouds 9 1015 49 10000 1.5 230 08:59 22.04.2020
4353 Clouds 9 1015 49 10000 1.5 230 08:41 22.04.2020
4354 Clouds 9 1015 49 10000 1.5 230 08:23 22.04.2020
4355 Clouds 8 1015 49 10000 8.94 273 07:54 22.04.2020
4356 Clouds 8 1016 45 10000 9.3 270 07:33 22.04.2020
4357 Clouds 9 1016 42 10000 10.3 270 06:59 22.04.2020
4358 -273 0 0 0 0 0 06:39 22.04.2020
4359 Clouds 8 1016 39 10000 6.7 280 05:39 22.04.2020
4360 Clouds 8 1016 36 10000 8.2 300 04:42 22.04.2020
4361 Clear 7 1016 39 10000 7.4 286 02:59 22.04.2020
4362 Clouds 7 1016 42 10000 1.5 270 01:56 22.04.2020
4363 Clouds 7 1016 42 10000 1.5 270 01:38 22.04.2020
4364 Clear 6 1016 41 10000 7.59 288 01:19 22.04.2020
4365 Clear 6 1016 41 10000 7.59 288 00:41 22.04.2020
4366 Clear 5 1016 48 10000 6.76 293 00:20 22.04.2020
4367 Clear 5 1016 48 10000 6.76 293 23:44 21.04.2020
4368 Clear 5 1015 48 10000 6.76 293 23:21 21.04.2020
4369 Clear 5 1015 48 10000 6.76 293 22:55 21.04.2020
4370 Clear 5 1015 48 10000 6.76 293 22:37 21.04.2020
4371 Clear 6 1015 48 10000 1.5 200 22:19 21.04.2020
4372 Clear 6 1015 48 10000 1.5 200 21:42 21.04.2020
4373 Clear 6 1015 45 10000 8.03 291 21:23 21.04.2020
4374 Clear 6 1015 45 10000 7.98 288 20:58 21.04.2020
4375 Clear 6 1015 45 10000 8.03 291 20:40 21.04.2020
4376 Clouds 7 1015 39 10000 7.98 288 20:21 21.04.2020
4377 Clouds 7 1015 39 10000 7.98 288 19:41 21.04.2020
4378 Clear 6 1016 36 10000 7.98 288 19:20 21.04.2020
4379 Clear 6 1016 36 10000 7.98 288 18:59 21.04.2020
4380 Clear 6 1016 36 10000 7.98 288 18:39 21.04.2020
4381 Clear 6 1016 36 10000 7.98 288 18:39 21.04.2020
4382 Clear 6 1016 38 10000 7.36 276 18:19 21.04.2020
4383 Clear 6 1016 38 10000 7.36 276 17:59 21.04.2020
4384 Clear 6 1016 38 10000 7.36 276 17:39 21.04.2020
4385 Clear 6 1016 35 10000 7.25 279 17:19 21.04.2020
4386 Clear 6 1016 35 10000 7.36 276 16:39 21.04.2020
4387 Clear 6 1017 33 10000 7.36 276 16:20 21.04.2020
4388 Clear 6 1017 33 10000 7.36 276 15:59 21.04.2020
4389 Clear 6 1017 33 10000 7.36 276 15:41 21.04.2020
4390 Clear 6 1017 33 10000 7.58 279 15:23 21.04.2020
4391 Clear 6 1016 35 10000 2.1 340 14:58 21.04.2020
4392 Clear 6 1016 35 10000 2.1 340 14:40 21.04.2020
4393 Clouds 6 1015 38 10000 7.96 278 14:22 21.04.2020
4394 Clouds 6 1015 38 10000 7.96 278 13:42 21.04.2020
4395 Clouds 6 1015 38 10000 7.96 278 13:23 21.04.2020
4396 Clouds 7 1015 33 10000 2.6 350 12:58 21.04.2020
4397 Clouds 7 1015 33 10000 2.6 350 12:37 21.04.2020
4398 Clouds 8 1014 33 10000 2.6 210 12:19 21.04.2020
4399 Clouds 8 1014 33 10000 2.6 210 11:55 21.04.2020
4400 Clouds 8 1014 33 10000 2.6 210 11:55 21.04.2020
4401 Clouds 8 1014 33 10000 2.6 210 11:37 21.04.2020
4402 Clouds 9 1013 36 10000 2.1 250 11:18 21.04.2020
4403 Clouds 9 1013 36 10000 2.1 250 10:56 21.04.2020
4404 Clouds 9 1013 36 10000 2.1 250 10:38 21.04.2020
4405 Clouds 9 1013 34 10000 2.6 250 10:19 21.04.2020
4406 Clouds 9 1013 34 10000 2.6 250 09:37 21.04.2020
4407 Clouds 10 1013 31 10000 3.6 290 09:19 21.04.2020
4408 Clouds 10 1013 31 10000 3.6 290 08:57 21.04.2020
4409 Clouds 10 1013 31 10000 3.6 290 08:38 21.04.2020
4410 Clouds 10 1013 37 10000 4.1 260 08:19 21.04.2020
4411 Clouds 10 1013 37 10000 4.1 260 07:43 21.04.2020
4412 Clouds 10 1013 37 10000 4.1 260 07:22 21.04.2020
4413 Clouds 10 1013 37 10000 2.6 280 06:47 21.04.2020
4414 Clouds 10 1013 37 10000 3.1 240 06:20 21.04.2020
4415 Clouds 11 1013 37 10000 3.1 240 05:48 21.04.2020
4416 Clouds 11 1014 40 10000 2.1 280 03:48 21.04.2020
4417 Clouds 11 1014 40 10000 2.1 280 03:27 21.04.2020
4418 Clear 10 1013 53 10000 1.5 310 01:46 21.04.2020
4419 Clear 8 1013 66 10000 5.93 298 00:53 21.04.2020
4420 Clear 8 1013 66 10000 5.93 298 00:32 21.04.2020
4421 Clear 6 1012 75 10000 2.9 304 23:44 20.04.2020
4422 Clear 6 1012 75 10000 2.9 304 23:23 20.04.2020
4423 Clouds 7 1012 75 10000 1.5 320 22:57 20.04.2020
4424 Clouds 7 1012 75 10000 1.5 320 22:38 20.04.2020
4425 Clouds 7 1013 81 10000 2.9 304 22:19 20.04.2020
4426 Clouds 7 1013 81 10000 2.9 304 22:19 20.04.2020
4427 Clouds 7 1013 81 10000 2.9 304 22:19 20.04.2020
4428 Clouds 7 1013 81 10000 2.9 304 22:19 20.04.2020
4429 Clouds 7 1013 81 10000 2.9 304 21:56 20.04.2020
4430 Clouds 7 1013 81 10000 3.24 312 21:38 20.04.2020
4431 Clouds 7 1013 81 10000 4.93 275 21:19 20.04.2020
4432 Clouds 7 1013 81 10000 4.93 275 20:56 20.04.2020
4433 Clouds 7 1013 75 10000 4.93 275 20:37 20.04.2020
4434 Clear 7 1013 75 10000 4.93 275 20:18 20.04.2020
4435 Clear 7 1013 75 10000 4.93 275 19:41 20.04.2020
4436 Clear 8 1013 75 10000 4.93 275 19:23 20.04.2020
4437 Clear 9 1013 61 10000 4.93 275 18:59 20.04.2020
4438 Clear 9 1013 61 10000 4.93 275 18:41 20.04.2020
4439 Clear 9 1013 49 10000 5.43 271 18:21 20.04.2020
4440 Clear 8 1013 49 10000 5.43 271 17:55 20.04.2020
4441 Clear 8 1013 49 10000 5.43 271 17:37 20.04.2020
4442 Clear 9 1013 49 10000 5.43 271 17:19 20.04.2020
4443 Clear 9 1013 49 10000 5.43 271 16:43 20.04.2020
4444 Clear 9 1013 57 10000 5.43 271 16:21 20.04.2020
4445 Clear 9 1013 57 10000 5.43 271 15:57 20.04.2020
4446 Clear 9 1013 57 10000 5.43 271 15:39 20.04.2020
4447 Clear 9 1013 57 10000 5.18 299 15:21 20.04.2020
4448 Clear 9 1013 57 10000 5.18 299 14:42 20.04.2020
4449 Clouds 11 1012 53 10000 2.1 320 14:20 20.04.2020
4450 Clouds 11 1012 53 10000 2.1 320 13:59 20.04.2020
4451 Clouds 11 1012 53 10000 2.1 320 13:39 20.04.2020
4452 Clouds 11 1010 66 10000 1.5 200 13:20 20.04.2020
4453 Clouds 11 1010 66 10000 1.5 200 12:44 20.04.2020
4454 Clouds 11 1010 66 10000 1.5 200 12:24 20.04.2020
4455 Clouds 11 1010 66 10000 2.6 210 11:58 20.04.2020
4456 Clouds 12 1009 62 10000 7.74 274 11:38 20.04.2020
4457 Clouds 12 1009 62 10000 1.5 280 11:19 20.04.2020
4458 Clouds 12 1009 62 10000 1.5 280 10:55 20.04.2020
4459 Clouds 12 1009 71 10000 1.5 230 10:36 20.04.2020
4460 Clouds 12 1009 76 10000 7.74 274 10:18 20.04.2020
4461 Clouds 12 1009 76 10000 7.74 274 09:44 20.04.2020
4462 Clouds 12 1009 76 10000 8.64 248 09:25 20.04.2020
4463 Haze 12 1009 81 9000 3.1 260 08:58 20.04.2020
4464 Haze 12 1009 81 9000 3.1 260 08:58 20.04.2020
4465 Mist 12 1009 87 8000 1.5 260 08:39 20.04.2020
4466 Mist 11 1009 87 9000 2.1 200 08:18 20.04.2020
4467 Mist 11 1009 87 9000 2.1 200 07:51 20.04.2020
4468 Mist 11 1010 93 6000 2.1 260 07:28 20.04.2020
4469 Rain 12 1010 76 4000 2.1 220 06:38 20.04.2020
4470 Clouds 13 1009 66 10000 6.63 225 06:19 20.04.2020
4471 Clouds 14 1010 62 10000 1.5 220 05:20 20.04.2020
4472 Clouds 12 1011 71 10000 2.7 228 02:52 20.04.2020
4473 Clouds 12 1011 71 10000 2.48 237 02:33 20.04.2020
4474 Clouds 11 1010 76 10000 2.48 237 01:30 20.04.2020
4475 Clouds 10 1010 76 10000 2.48 237 00:47 20.04.2020
4476 Clouds 10 1010 76 10000 1.01 263 00:22 20.04.2020
4477 Clouds 10 1009 76 10000 1.01 263 23:40 19.04.2020
4478 Clouds 10 1009 76 10000 1.01 263 23:21 19.04.2020
4479 Clouds 10 1009 76 10000 1.01 263 22:57 19.04.2020
4480 Clouds 10 1009 76 10000 1.01 263 22:37 19.04.2020
4481 Clouds 10 1009 76 10000 1.01 263 22:19 19.04.2020
4482 Clouds 10 1009 76 10000 1.01 263 21:42 19.04.2020
4483 Clouds 10 1009 76 10000 2.02 342 21:24 19.04.2020
4484 Clouds 10 1009 81 10000 2.02 342 20:58 19.04.2020
4485 Clouds 10 1009 81 10000 2.02 342 20:40 19.04.2020
4486 Clouds 10 1009 81 10000 2.02 342 20:20 19.04.2020
4487 Clouds 10 1009 81 10000 2.1 70 19:57 19.04.2020
4488 Clouds 10 1009 81 10000 2.1 70 19:38 19.04.2020
4489 Clouds 10 1010 81 10000 2.6 40 19:20 19.04.2020
4490 Clouds 10 1010 81 10000 2.6 40 18:57 19.04.2020
4491 Clouds 10 1010 81 10000 2.6 40 18:38 19.04.2020
4492 Clouds 10 1010 87 10000 2.1 30 18:19 19.04.2020
4493 Clouds 10 1010 87 10000 2.1 30 18:19 19.04.2020
4494 Clouds 10 1010 87 10000 2.1 30 17:56 19.04.2020
4495 Clouds 10 1010 87 10000 2.1 30 17:37 19.04.2020
4496 Rain 10 1010 87 10000 2.1 50 17:19 19.04.2020
4497 Rain 10 1010 87 10000 2.1 50 16:40 19.04.2020
4498 Clouds 10 1010 87 10000 2.1 60 16:21 19.04.2020
4499 Clouds 10 1010 87 10000 2.1 60 15:58 19.04.2020
4500 Clouds 11 1010 87 10000 1.79 58 15:40 19.04.2020
4501 Clouds 11 1011 93 10000 3.99 106 15:19 19.04.2020
4502 Clouds 11 1011 93 10000 4.38 98 14:39 19.04.2020
4503 Rain 11 1011 93 10000 1.5 70 14:21 19.04.2020
4504 Rain 11 1011 93 10000 1.5 70 13:57 19.04.2020
4505 Rain 11 1011 93 10000 1.5 70 13:37 19.04.2020
4506 Rain 11 1011 93 8000 4.38 98 13:18 19.04.2020
4507 Rain 11 1012 93 6000 1.5 50 12:44 19.04.2020
4508 Rain 11 1012 93 3600 2.99 119 12:24 19.04.2020
4509 Rain 11 1012 93 3600 2.99 119 11:54 19.04.2020
4510 Rain 11 1012 93 4400 2.99 119 11:36 19.04.2020
4511 Rain 11 1012 93 4400 2.99 119 11:36 19.04.2020
4512 Rain 11 1012 93 3600 2.99 119 11:18 19.04.2020
4513 Rain 11 1013 93 3000 2.99 119 10:41 19.04.2020
4514 Rain 11 1013 93 3000 2.99 119 10:41 19.04.2020
4515 Rain 12 1012 81 4800 2.99 119 10:21 19.04.2020
4516 Rain 11 1012 81 4800 2.99 119 10:21 19.04.2020
4517 Rain 12 1012 81 4800 2.99 119 09:56 19.04.2020
4518 Rain 12 1012 76 4800 2.99 119 09:38 19.04.2020
4519 Rain 14 1012 71 4800 3.02 145 09:18 19.04.2020
4520 Rain 15 1012 54 10000 3.21 165 08:40 19.04.2020
4521 Rain 15 1012 54 10000 3.21 165 08:40 19.04.2020
4522 Rain 15 1013 51 10000 1.5 50 08:21 19.04.2020
4523 Clouds 16 1013 48 10000 1.5 60 07:48 19.04.2020
4524 Clouds 16 1013 48 10000 1.5 60 07:25 19.04.2020
4525 Clouds 16 1014 48 10000 2.1 50 06:56 19.04.2020
4526 Clouds 16 1015 54 10000 2.1 80 06:22 19.04.2020
4527 Clouds 16 1016 51 10000 3.6 120 04:57 19.04.2020
4528 Clouds 15 1017 58 10000 3.86 128 03:34 19.04.2020
4529 Clouds 15 1017 67 10000 1.5 70 02:22 19.04.2020
4530 Clouds 14 1017 67 10000 1.5 70 01:39 19.04.2020
4531 Clouds 14 1018 71 10000 3.13 98 01:21 19.04.2020
4532 Clouds 12 1018 71 10000 3.13 98 00:40 19.04.2020
4533 Clouds 12 1017 81 10000 2.03 85 00:19 19.04.2020
4534 Clouds 11 1017 81 10000 2.03 85 23:42 18.04.2020
4535 Clouds 10 1017 87 10000 2.03 85 23:19 18.04.2020
4536 Clouds 10 1017 87 10000 2.03 85 22:43 18.04.2020
4537 Clouds 10 1017 87 10000 2.03 85 22:43 18.04.2020
4538 Clouds 10 1017 87 10000 2.03 85 22:24 18.04.2020
4539 Clouds 11 1017 81 10000 2.03 85 21:58 18.04.2020
4540 Clouds 11 1017 81 10000 2.03 85 21:39 18.04.2020
4541 Clouds 10 1017 81 10000 0.42 77 21:21 18.04.2020
4542 Clouds 10 1017 81 10000 0.42 77 20:58 18.04.2020
4543 Clouds 10 1017 81 10000 0.42 77 20:40 18.04.2020
4544 Clear 10 1017 81 10000 0.42 77 20:18 18.04.2020
4545 Clear 10 1017 81 10000 0.42 77 19:40 18.04.2020
4546 Clouds 10 1018 81 10000 0.42 77 19:22 18.04.2020
4547 Clouds 10 1018 81 10000 0.42 77 18:39 18.04.2020
4548 Clear 10 1018 81 10000 0.52 216 18:20 18.04.2020
4549 Clear 11 1018 81 10000 0.52 216 17:57 18.04.2020
4550 Clear 11 1018 81 10000 0.52 216 17:39 18.04.2020
4551 Clear 11 1018 76 10000 0.52 216 17:18 18.04.2020
4552 Clear 11 1018 76 10000 0.52 216 16:43 18.04.2020
4553 Clear 12 1019 71 10000 0.52 216 16:22 18.04.2020
4554 Clear 12 1019 71 10000 0.52 216 15:55 18.04.2020
4555 Clear 12 1019 71 10000 0.52 216 15:37 18.04.2020
4556 Clear 13 1018 67 10000 1.29 234 15:19 18.04.2020
4557 Clear 13 1018 67 10000 1.57 243 14:42 18.04.2020
4558 Clear 14 1017 62 10000 1.5 320 14:20 18.04.2020
4559 Clear 14 1017 62 10000 1.5 320 13:43 18.04.2020
4560 Clear 14 1017 62 10000 1.5 320 13:43 18.04.2020
4561 Clear 14 1017 62 10000 1.5 320 13:21 18.04.2020
4562 Clear 16 1016 59 10000 1.57 243 12:43 18.04.2020
4563 Clear 16 1016 59 10000 3.76 258 12:25 18.04.2020
4564 Clouds 17 1016 59 10000 3.6 270 11:59 18.04.2020
4565 Clouds 17 1016 59 10000 3.6 270 11:40 18.04.2020
4566 Clouds 18 1016 55 10000 5.7 270 11:21 18.04.2020
4567 Clouds 18 1016 55 10000 5.7 270 10:54 18.04.2020
4568 Clouds 18 1016 55 10000 5.7 270 10:36 18.04.2020
4569 Clouds 18 1015 55 10000 6.7 280 10:18 18.04.2020
4570 Clouds 18 1015 55 10000 6.7 280 09:40 18.04.2020
4571 Clouds 19 1015 45 10000 3.1 250 09:20 18.04.2020
4572 Clouds 19 1015 45 10000 3.1 250 08:43 18.04.2020
4573 Clouds 18 1016 48 10000 3.1 220 08:22 18.04.2020
4574 Clouds 18 1016 48 10000 3.1 220 07:48 18.04.2020
4575 Clouds 18 1016 48 10000 3.1 220 07:28 18.04.2020
4576 Clouds 18 1016 51 10000 2.1 260 06:42 18.04.2020
4577 Clouds 17 1016 48 10000 2.6 320 05:49 18.04.2020
4578 Clear 16 1016 58 10000 2.79 313 04:55 18.04.2020
4579 Clear 16 1016 58 10000 2.79 313 04:31 18.04.2020
4580 Clear 15 1017 58 10000 3.1 210 03:33 18.04.2020
4581 Clear 13 1016 66 10000 2.6 320 02:40 18.04.2020
4582 Clear 13 1016 66 10000 2.6 320 02:21 18.04.2020
4583 Clear 13 1016 66 10000 2.6 320 02:21 18.04.2020
4584 Clear 11 1016 81 10000 2.6 340 01:43 18.04.2020
4585 Clear 11 1015 76 10000 1.87 337 01:22 18.04.2020
4586 Clear 10 1015 76 10000 2.07 345 00:24 18.04.2020
4587 Clear 9 1014 87 10000 1.5 310 23:58 17.04.2020
4588 Clear 9 1014 87 10000 1.5 310 23:40 17.04.2020
4589 Clouds 9 1013 87 10000 2.07 345 23:19 17.04.2020
4590 Clouds 9 1013 87 10000 2.07 345 22:58 17.04.2020
4591 Clouds 9 1013 87 10000 2.07 345 22:40 17.04.2020
4592 Clouds 10 1013 87 10000 2.07 345 22:20 17.04.2020
4593 Clouds 10 1013 87 10000 2.07 345 21:57 17.04.2020
4594 Clouds 10 1013 87 10000 2.07 345 21:38 17.04.2020
4595 Clouds 10 1012 87 10000 1.7 322 21:18 17.04.2020
4596 Clouds 11 1012 87 10000 1.7 322 20:55 17.04.2020
4597 Clouds 11 1012 87 10000 1.7 322 20:36 17.04.2020
4598 Clouds 11 1012 87 10000 1.7 322 20:36 17.04.2020
4599 Clouds 11 1012 93 10000 1.7 322 20:18 17.04.2020
4600 Clouds 11 1012 93 10000 1.7 322 19:42 17.04.2020
4601 Clouds 11 1012 93 10000 1.7 322 19:23 17.04.2020
4602 Mist 11 1012 93 8000 1.7 322 18:45 17.04.2020
4603 Mist 11 1012 93 8000 0.57 279 18:24 17.04.2020
4604 Mist 11 1011 87 9000 0.57 279 17:57 17.04.2020
4605 Mist 11 1011 87 9000 0.57 279 17:37 17.04.2020
4606 Mist 11 1011 87 8000 0.57 279 17:18 17.04.2020
4607 Mist 11 1011 87 6000 0.57 279 16:43 17.04.2020
4608 Mist 11 1011 87 6000 0.57 279 16:23 17.04.2020
4609 Mist 12 1011 87 8000 1.5 320 15:44 17.04.2020
4610 Mist 12 1011 87 8000 1.5 320 15:24 17.04.2020
4611 Clouds 12 1011 87 10000 0.63 297 14:57 17.04.2020
4612 Clouds 12 1011 93 10000 0.63 297 14:39 17.04.2020
4613 Clouds 11 1011 87 10000 1.01 238 14:20 17.04.2020
4614 Clouds 11 1011 87 10000 1.01 238 13:55 17.04.2020
4615 Clear 11 1010 87 10000 1.01 238 13:36 17.04.2020
4616 Clear 11 1010 82 10000 1.5 30 13:18 17.04.2020
4617 Clear 12 1010 82 10000 1.5 30 12:43 17.04.2020
4618 Clear 12 1010 82 10000 1.5 30 12:22 17.04.2020
4619 Clouds 13 1010 82 10000 2.82 249 11:41 17.04.2020
4620 Clouds 13 1011 82 10000 2.82 249 11:19 17.04.2020
4621 Clouds 13 1011 82 10000 2.82 249 10:56 17.04.2020
4622 Clouds 13 1011 82 10000 2.82 249 10:56 17.04.2020
4623 Clouds 13 1011 82 10000 2.82 249 10:37 17.04.2020
4624 Clouds 13 1011 82 10000 2.82 249 10:18 17.04.2020
4625 Rain 13 1011 87 10000 2.82 249 09:40 17.04.2020
4626 Clouds 11 1011 87 10000 1.5 290 09:20 17.04.2020
4627 Clouds 11 1011 87 10000 1.5 290 08:56 17.04.2020
4628 Rain 12 1011 87 6000 4.33 214 08:38 17.04.2020
4629 Rain 12 1011 87 6000 4.33 214 08:19 17.04.2020
4630 Rain 12 1011 87 6000 4.33 214 07:43 17.04.2020
4631 Rain 13 1011 87 3600 4.33 214 07:20 17.04.2020
4632 Rain 12 1011 87 8000 4.33 214 06:45 17.04.2020
4633 Rain 12 1011 81 6000 4.67 180 06:21 17.04.2020
4634 Rain 11 1014 87 10000 3.6 130 03:37 17.04.2020
4635 Clouds 11 1014 87 10000 2.6 130 03:18 17.04.2020
4636 Rain 11 1015 71 10000 2.1 140 01:55 17.04.2020
4637 Rain 11 1015 66 10000 2.6 150 01:23 17.04.2020
4638 Clouds 12 1015 66 10000 1.5 160 00:28 17.04.2020
4639 Clouds 12 1015 66 10000 1.5 160 23:56 16.04.2020
4640 Rain 12 1014 62 10000 1.5 160 23:38 16.04.2020
4641 Rain 12 1014 54 10000 2.73 131 23:19 16.04.2020
4642 Clouds 13 1013 51 10000 2.1 110 22:41 16.04.2020
4643 Clouds 13 1013 51 10000 2.1 110 22:23 16.04.2020
4644 Clouds 13 1013 47 10000 1.5 70 21:59 16.04.2020
4645 Clouds 13 1014 51 10000 2.73 131 21:41 16.04.2020
4646 Clouds 13 1014 51 10000 2.73 131 21:41 16.04.2020
4647 Clouds 13 1014 48 10000 2.89 101 21:19 16.04.2020
4648 Clouds 14 1014 48 10000 2.89 101 20:43 16.04.2020
4649 Clouds 14 1015 48 10000 2.1 70 20:23 16.04.2020
4650 Clouds 14 1015 48 10000 2.1 70 19:59 16.04.2020
4651 Rain 14 1016 48 10000 1.5 200 19:39 16.04.2020
4652 Clouds 13 1016 54 10000 1.5 30 19:20 16.04.2020
4653 Clouds 13 1016 54 10000 1.5 30 18:56 16.04.2020
4654 Clouds 13 1016 54 10000 1.5 30 18:37 16.04.2020
4655 Clouds 13 1016 50 10000 1.01 126 18:19 16.04.2020
4656 Clouds 14 1016 50 10000 1.01 126 17:43 16.04.2020
4657 Clouds 14 1016 50 10000 1.01 126 17:24 16.04.2020
4658 Clear 13 1016 50 10000 1.01 126 16:55 16.04.2020
4659 Clear 13 1016 50 10000 1.01 126 16:37 16.04.2020
4660 Clear 13 1016 50 10000 1.01 126 16:19 16.04.2020
4661 Clear 14 1016 50 10000 1.01 126 15:41 16.04.2020
4662 Clouds 14 1016 41 10000 1.05 268 15:19 16.04.2020
4663 Clouds 15 1016 41 10000 1.05 268 14:58 16.04.2020
4664 Clouds 15 1016 41 10000 1.05 268 14:38 16.04.2020
4665 Clear 15 1015 39 10000 0.34 277 14:19 16.04.2020
4666 Clear 16 1015 39 10000 0.34 277 13:55 16.04.2020
4667 Clear 16 1015 39 10000 0.34 277 13:36 16.04.2020
4668 Clouds 17 1014 36 10000 2.1 310 13:18 16.04.2020
4669 Clouds 17 1014 36 10000 2.1 310 12:55 16.04.2020
4670 Clouds 18 1014 36 10000 2.1 310 12:36 16.04.2020
4671 Haze 19 1014 30 9000 2.99 245 12:18 16.04.2020
4672 Haze 20 1014 30 9000 2.99 245 11:41 16.04.2020
4673 Haze 21 1014 30 9000 2.99 245 11:21 16.04.2020
4674 Haze 22 1013 23 9000 2.6 210 10:56 16.04.2020
4675 Haze 22 1013 23 9000 2.6 210 10:38 16.04.2020
4676 Haze 22 1014 23 9000 2.6 210 10:18 16.04.2020
4677 Haze 23 1014 23 9000 2.6 210 09:54 16.04.2020
4678 Haze 23 1014 23 9000 2.6 210 09:36 16.04.2020
4679 Haze 23 1015 25 9000 2.6 190 09:18 16.04.2020
4680 Haze 22 1015 25 9000 2.6 190 08:41 16.04.2020
4681 Haze 22 1015 25 9000 2.6 190 08:21 16.04.2020
4682 Haze 22 1015 26 9000 2.6 160 07:46 16.04.2020
4683 Clear 22 1016 28 10000 1.5 70 07:26 16.04.2020
4684 Clear 21 1016 28 10000 1.5 70 06:43 16.04.2020
4685 Clear 21 1017 32 10000 3.3 158 06:24 16.04.2020
4686 Clear 20 1017 32 10000 3.3 158 05:30 16.04.2020
4687 Clear 16 1018 41 10000 1.5 50 03:47 16.04.2020
4688 Clear 16 1018 41 10000 1.5 50 03:22 16.04.2020
4689 Clear 14 1018 41 10000 2.1 50 02:43 16.04.2020
4690 Clear 11 1017 47 10000 1.5 60 01:59 16.04.2020
4691 Clear 8 1017 50 10000 1.5 80 00:59 16.04.2020
4692 Clear 6 1016 61 10000 1.34 87 00:27 16.04.2020
4693 Clear 6 1016 61 10000 1.34 87 23:57 15.04.2020
4694 Clear 6 1016 61 10000 1.34 87 23:39 15.04.2020
4695 Clear 5 1016 65 10000 1.34 87 23:20 15.04.2020
4696 Clear 7 1016 65 10000 1.34 87 22:39 15.04.2020
4697 Clear 7 1016 65 10000 1.34 87 22:21 15.04.2020
4698 Clear 6 1016 65 10000 1.34 87 21:57 15.04.2020
4699 Clear 6 1016 65 10000 1.34 87 21:39 15.04.2020
4700 Clear 7 1016 61 10000 0.79 72 21:21 15.04.2020
4701 Clear 7 1016 61 10000 0.79 72 20:56 15.04.2020
4702 Clear 7 1016 61 10000 0.79 72 20:38 15.04.2020
4703 Clear 7 1016 57 10000 0.79 72 20:20 15.04.2020
4704 Clear 8 1016 57 10000 0.79 72 19:41 15.04.2020
4705 Clear 8 1016 57 10000 0.79 72 19:20 15.04.2020
4706 Clear 9 1016 53 10000 0.79 72 18:54 15.04.2020
4707 Clear 9 1016 53 10000 0.79 72 18:36 15.04.2020
4708 Clear 9 1016 39 10000 0.56 294 18:18 15.04.2020
4709 Clear 10 1016 39 10000 0.56 294 17:40 15.04.2020
4710 Clear 10 1016 39 10000 0.56 294 17:40 15.04.2020
4711 Clear 10 1015 34 10000 0.56 294 17:20 15.04.2020
4712 Clear 10 1015 34 10000 0.56 294 16:57 15.04.2020
4713 Clear 10 1015 34 10000 0.56 294 16:38 15.04.2020
4714 Clear 11 1015 28 10000 0.56 294 16:19 15.04.2020
4715 Clear 11 1015 28 10000 0.56 294 16:19 15.04.2020
4716 Clear 11 1015 28 10000 0.56 294 16:19 15.04.2020
4717 Clear 11 1015 28 10000 0.56 294 15:57 15.04.2020
4718 Clear 12 1015 28 10000 0.56 294 15:39 15.04.2020
4719 Clear 12 1015 30 10000 1.44 276 15:19 15.04.2020
4720 Clear 12 1015 30 10000 1.44 276 14:57 15.04.2020
4721 Clear 12 1015 30 10000 1.44 276 14:39 15.04.2020
4722 Clear 12 1014 26 10000 1.66 268 14:21 15.04.2020
4723 Clear 13 1014 26 10000 1.66 268 13:57 15.04.2020
4724 Clear 13 1014 26 10000 1.66 268 13:38 15.04.2020
4725 Clear 15 1013 26 10000 1.66 268 13:19 15.04.2020
4726 Clear 15 1013 26 10000 1.66 268 12:43 15.04.2020
4727 Clear 16 1013 25 10000 3.71 263 12:23 15.04.2020
4728 Clear 16 1013 25 10000 3.71 263 12:23 15.04.2020
4729 Clear 17 1013 25 10000 3.71 263 11:59 15.04.2020
4730 Clear 17 1013 25 10000 3.71 263 11:40 15.04.2020
4731 Clear 18 1013 33 10000 2.1 240 11:22 15.04.2020
4732 Clear 19 1013 33 10000 2.1 240 10:40 15.04.2020
4733 Clear 19 1013 33 10000 2.1 240 10:22 15.04.2020
4734 Haze 20 1012 30 9000 1.5 240 09:58 15.04.2020
4735 Haze 20 1012 30 9000 1.5 240 09:40 15.04.2020
4736 Haze 20 1012 30 9000 1.5 240 09:22 15.04.2020
4737 Haze 20 1013 24 9000 1.5 250 08:58 15.04.2020
4738 Haze 20 1013 24 9000 1.5 250 08:40 15.04.2020
4739 Haze 20 1013 29 8000 4.02 271 08:19 15.04.2020
4740 Haze 20 1013 29 8000 4.02 271 07:53 15.04.2020
4741 Haze 20 1013 29 8000 4.02 271 07:31 15.04.2020
4742 Haze 19 1014 31 9000 3.6 220 06:33 15.04.2020
4743 Clear 18 1014 30 10000 3.1 210 05:50 15.04.2020
4744 Haze 18 1015 30 9000 3.1 210 05:18 15.04.2020
4745 Haze 16 1015 30 9000 3.1 210 04:43 15.04.2020
4746 Clear 14 1015 33 10000 1.5 210 03:26 15.04.2020
4747 Clear 12 1016 43 10000 1.12 222 02:53 15.04.2020
4748 Clear 9 1015 53 10000 1.12 222 01:56 15.04.2020
4749 Clear 8 1015 53 10000 1.12 222 01:27 15.04.2020
4750 Clear 5 1015 70 10000 1.12 222 00:54 15.04.2020
4751 Clear 5 1015 70 10000 0.55 184 00:31 15.04.2020
4752 Clear 3 1015 53 10000 0.55 184 23:57 14.04.2020
4753 Clear 3 1015 53 10000 0.55 184 23:57 14.04.2020
4754 Clear 3 1015 53 10000 0.55 184 23:39 14.04.2020
4755 Clear 3 1015 65 10000 0.55 184 23:21 14.04.2020
4756 Clear 3 1015 65 10000 0.55 184 22:58 14.04.2020
4757 Clear 4 1015 65 10000 0.55 184 22:39 14.04.2020
4758 Clear 4 1015 65 10000 0.55 184 22:21 14.04.2020
4759 Clear 4 1015 65 10000 0.55 184 21:58 14.04.2020
4760 Clear 4 1015 65 10000 0.55 184 21:40 14.04.2020
4761 Clear 5 1016 53 10000 0.84 205 21:20 14.04.2020
4762 Clear 5 1016 52 10000 1.13 208 20:59 14.04.2020
4763 Clear 5 1016 52 10000 1.13 208 20:40 14.04.2020
4764 Clear 5 1016 53 10000 0.84 205 20:21 14.04.2020
4765 Clear 5 1016 53 10000 0.84 205 20:21 14.04.2020
4766 Clear 6 1016 52 10000 1.13 208 19:42 14.04.2020
4767 Clear 6 1016 53 10000 0.84 205 19:23 14.04.2020
4768 Clouds 6 1016 80 8000 0.5 310 19:23 14.04.2020
4769 Clear 6 1016 52 10000 1.13 208 18:59 14.04.2020
4770 Clear 6 1016 52 10000 1.13 208 18:59 14.04.2020
4771 Clear 7 1016 53 10000 0.84 205 18:41 14.04.2020
4772 Clouds 7 1016 81 9000 0.5 10 18:22 14.04.2020
4773 Clear 8 1017 48 10000 1.33 229 17:58 14.04.2020
4774 Clear 8 1017 48 10000 1.33 229 17:39 14.04.2020
4775 Clear 8 1017 46 10000 1.28 234 17:20 14.04.2020
4776 Clear 9 1016 46 10000 1.28 234 16:57 14.04.2020
4777 Clear 9 1016 46 10000 1.28 234 16:38 14.04.2020
4778 Clear 9 1016 46 10000 1.28 234 16:20 14.04.2020
4779 Clear 10 1016 37 10000 1.33 229 15:56 14.04.2020
4780 Clear 10 1016 37 10000 1.33 229 15:38 14.04.2020
4781 Clear 11 1016 34 10000 2.39 254 15:18 14.04.2020
4782 Clear 11 1016 34 10000 2.47 252 14:56 14.04.2020
4783 Clear 11 1016 34 10000 2.39 254 14:37 14.04.2020
4784 Clear 12 1016 30 10000 2.39 254 14:19 14.04.2020
4785 Clear 13 1016 30 10000 2.39 254 13:43 14.04.2020
4786 Clear 13 1015 28 10000 2.39 254 13:24 14.04.2020
4787 Clear 14 1015 28 10000 2.39 254 12:56 14.04.2020
4788 Clear 15 1015 28 10000 2.39 254 12:37 14.04.2020
4789 Clear 16 1015 21 10000 4.21 256 12:18 14.04.2020
4790 Clear 17 1015 21 10000 4.21 256 11:40 14.04.2020
4791 Clear 17 1015 21 10000 4.21 256 11:22 14.04.2020
4792 Clear 18 1015 17 10000 1.5 200 10:47 14.04.2020
4793 Clear 18 1015 17 10000 1.5 200 10:29 14.04.2020
4794 Clear 19 1015 18 10000 2.1 270 09:59 14.04.2020
4795 Clear 19 1015 18 10000 2.1 270 09:41 14.04.2020
4796 Clear 19 1015 18 10000 2.1 270 09:22 14.04.2020
4797 Clear 20 1015 24 10000 2.6 290 08:44 14.04.2020
4798 Clear 20 1015 24 10000 2.6 290 08:25 14.04.2020
4799 Clear 20 1016 20 10000 2.6 320 07:58 14.04.2020
4800 Clear 17 1014 27 0 5.04 256 07:40 14.04.2020
4801 Clear 19 1016 27 10000 1.5 300 07:21 14.04.2020
4802 Clear 19 1016 27 10000 1.5 300 06:35 14.04.2020
4803 Clear 17 1017 33 10000 2.1 330 05:22 14.04.2020
4804 Clear 13 1017 58 10000 1.5 230 03:25 14.04.2020
4805 Clear 11 1017 66 10000 2.63 215 02:19 14.04.2020
4806 Clear 9 1017 66 10000 2.63 215 01:26 14.04.2020
4807 Clear 5 1017 81 10000 2.63 215 00:49 14.04.2020
4808 Clear 4 1017 80 10000 1.48 169 00:23 14.04.2020
4809 Clear 3 1017 80 10000 1.48 169 23:55 13.04.2020
4810 Clear 3 1017 80 10000 1.48 169 23:36 13.04.2020
4811 Clear 3 1016 80 10000 1.48 169 23:18 13.04.2020
4812 Clear 3 1016 80 10000 1.48 169 22:41 13.04.2020
4813 Clear 4 1016 75 10000 1.48 169 22:22 13.04.2020
4814 Clear 4 1016 75 10000 1.48 169 21:57 13.04.2020
4815 Clear 4 1016 75 10000 1.48 169 21:38 13.04.2020
4816 Clear 4 1016 75 10000 1.59 202 21:20 13.04.2020
4817 Clear 4 1016 75 10000 1.59 202 20:56 13.04.2020
4818 Clear 5 1016 75 10000 1.59 202 20:38 13.04.2020
4819 Clear 5 1016 75 10000 1.59 202 20:38 13.04.2020
4820 Clear 5 1015 65 10000 1.59 202 20:18 13.04.2020
4821 Clear 5 1015 65 10000 1.59 202 19:39 13.04.2020
4822 Clear 6 1015 65 10000 1.59 202 19:20 13.04.2020
4823 -273 0 0 0 0 0 19:00 13.04.2020
4824 Clear 7 1015 65 10000 1.59 202 18:39 13.04.2020
4825 Clear 7 1015 57 10000 1.11 180 18:20 13.04.2020
4826 Clear 7 1015 57 10000 1.11 180 17:58 13.04.2020
4827 Clear 7 1015 57 10000 1.11 180 17:39 13.04.2020
4828 Clear 8 1015 40 10000 1.11 180 17:20 13.04.2020
4829 Clear 8 1015 40 10000 1.11 180 16:59 13.04.2020
4830 Clear 9 1015 40 10000 1.11 180 16:41 13.04.2020
4831 Clear 9 1015 40 10000 1.11 180 16:21 13.04.2020
4832 Clear 9 1015 40 10000 1.11 180 16:21 13.04.2020
4833 Clear 9 1015 40 10000 1.11 180 15:58 13.04.2020
4834 Clear 10 1015 40 10000 1.11 180 15:40 13.04.2020
4835 Clear 11 1014 35 10000 0.69 124 15:21 13.04.2020
4836 Clear 11 1014 35 10000 0.69 124 14:56 13.04.2020
4837 Clear 12 1014 35 10000 0.49 167 14:38 13.04.2020
4838 Clear 12 1014 35 10000 0.49 167 14:38 13.04.2020
4839 Clear 12 1013 33 10000 0.28 85 14:20 13.04.2020
4840 Clear 12 1013 33 10000 0.49 167 13:55 13.04.2020
4841 Clear 13 1013 33 10000 0.49 167 13:37 13.04.2020
4842 Clear 14 1013 15 10000 2.1 40 13:18 13.04.2020
4843 Clear 13 1013 41 10000 3.6 270 12:55 13.04.2020
4844 Clear 15 1013 15 10000 2.1 40 12:37 13.04.2020
4845 Clear 16 1012 14 10000 4.6 40 12:18 13.04.2020
4846 Clear 17 1012 14 10000 4.6 40 11:41 13.04.2020
4847 Clear 18 1012 14 10000 3.82 10 11:19 13.04.2020
4848 Clear 18 1012 14 10000 3.82 10 10:56 13.04.2020
4849 Clear 18 1012 14 10000 4.14 11 10:37 13.04.2020
4850 Clear 18 1012 14 10000 3.6 10 10:19 13.04.2020
4851 Clear 19 1012 14 10000 3.6 10 09:46 13.04.2020
4852 Clear 19 1012 14 10000 3.6 10 09:26 13.04.2020
4853 Clear 18 1012 17 10000 2.6 360 08:51 13.04.2020
4854 Clear 18 1012 17 10000 2.6 360 08:31 13.04.2020
4855 Clouds 17 1013 18 10000 5.1 40 07:59 13.04.2020
4856 Clouds 17 1013 18 10000 5.1 40 07:39 13.04.2020
4857 Clouds 17 1013 23 10000 5.1 40 07:20 13.04.2020
4858 Clouds 16 1013 23 10000 5.1 40 06:47 13.04.2020
4859 Clear 15 1014 26 10000 3.57 356 05:59 13.04.2020
4860 Clear 14 1014 26 10000 3.57 356 05:30 13.04.2020
4861 Clear 14 1014 30 10000 3.57 356 04:52 13.04.2020
4862 Clear 13 1014 30 10000 3.57 356 04:22 13.04.2020
4863 Clear 11 1015 37 10000 2.6 50 03:46 13.04.2020
4864 Clear 10 1015 40 10000 2.1 40 02:50 13.04.2020
4865 Clear 8 1015 45 10000 2.6 30 01:54 13.04.2020
4866 Clear 7 1015 45 10000 2.6 30 01:36 13.04.2020
4867 Clear 4 1014 52 10000 1.5 30 00:56 13.04.2020
4868 Clear 4 1014 52 10000 1.5 30 00:38 13.04.2020
4869 Clear 3 1014 56 10000 2.64 5 00:18 13.04.2020
4870 Clear 3 1014 56 10000 2.64 5 23:43 12.04.2020
4871 Clear 3 1013 56 10000 1.5 50 23:22 12.04.2020
4872 Clear 3 1013 56 10000 1.5 50 22:57 12.04.2020
4873 Clear 4 1013 56 10000 1.5 50 22:37 12.04.2020
4874 Clear 4 1014 60 10000 2.1 30 22:19 12.04.2020
4875 Clear 4 1014 60 10000 2.1 30 21:40 12.04.2020
4876 Clear 4 1014 60 10000 2.1 30 21:20 12.04.2020
4877 Clear 4 1014 52 10000 3.1 20 20:56 12.04.2020
4878 Clear 5 1014 52 10000 3.1 20 20:37 12.04.2020
4879 Clear 5 1015 52 10000 2.1 30 20:19 12.04.2020
4880 Clear 5 1015 52 10000 2.1 30 19:41 12.04.2020
4881 Clear 6 1015 52 10000 2.1 30 19:20 12.04.2020
4882 Clear 6 1015 52 10000 1.5 40 18:59 12.04.2020
4883 Clear 6 1015 52 10000 1.5 40 18:40 12.04.2020
4884 Clouds 7 1015 52 10000 2.6 50 18:19 12.04.2020
4885 Clouds 7 1015 52 10000 2.6 50 17:55 12.04.2020
4886 Clouds 7 1015 52 10000 2.6 50 17:37 12.04.2020
4887 Clouds 7 1015 52 10000 2.6 50 17:37 12.04.2020
4888 Clear 8 1015 52 10000 2.21 42 17:18 12.04.2020
4889 Clear 8 1015 52 10000 2.21 42 16:42 12.04.2020
4890 Clear 8 1015 52 10000 2.21 42 16:22 12.04.2020
4891 Clear 8 1015 57 10000 2.6 30 15:55 12.04.2020
4892 Clear 8 1015 57 10000 2.6 30 15:37 12.04.2020
4893 Clear 9 1015 53 10000 2.1 60 15:18 12.04.2020
4894 Clear 9 1015 53 10000 2.1 60 14:39 12.04.2020
4895 Clear 9 1015 53 10000 2.1 60 14:20 12.04.2020
4896 Clear 10 1015 48 10000 2.6 40 13:56 12.04.2020
4897 Clear 10 1015 48 10000 2.6 40 13:36 12.04.2020
4898 Clear 10 1014 48 10000 2.6 50 13:18 12.04.2020
4899 Clear 10 1014 48 10000 2.6 50 13:18 12.04.2020
4900 Clear 11 1014 48 10000 2.6 50 12:45 12.04.2020
4901 Clouds 12 1013 43 10000 2.6 40 12:21 12.04.2020
4902 Clouds 12 1013 43 10000 2.6 40 11:57 12.04.2020
4903 Clouds 13 1013 43 10000 2.6 40 11:37 12.04.2020
4904 Clouds 13 1013 41 10000 3.1 40 11:18 12.04.2020
4905 Clouds 13 1013 41 10000 3.1 40 10:55 12.04.2020
4906 Clouds 14 1013 41 10000 3.1 40 10:37 12.04.2020
4907 Clouds 14 1013 41 10000 5.7 40 10:18 12.04.2020
4908 Clouds 14 1013 41 10000 5.7 40 09:54 12.04.2020
4909 Clouds 14 1013 41 10000 5.7 40 09:36 12.04.2020
4910 Clouds 14 1013 44 10000 5.7 40 09:18 12.04.2020
4911 Clouds 14 1013 44 10000 5.7 40 09:18 12.04.2020
4912 Clouds 14 1013 44 10000 5.7 40 08:46 12.04.2020
4913 Clouds 14 1013 44 10000 5.7 40 08:27 12.04.2020
4914 Clouds 14 1014 41 10000 6.7 30 07:45 12.04.2020
4915 Clouds 14 1014 47 10000 5.1 30 07:19 12.04.2020
4916 Clouds 13 1014 47 10000 5.1 30 06:36 12.04.2020
4917 Clouds 14 1014 44 10000 4.6 100 05:58 12.04.2020
4918 Clouds 14 1014 44 10000 4.6 100 05:37 12.04.2020
4919 Thunderstorm 12 1014 50 10000 3.6 40 03:45 12.04.2020
4920 Thunderstorm 12 1014 50 10000 3.6 40 03:25 12.04.2020
4921 Clear 10 1015 57 10000 2.1 50 02:35 12.04.2020
4922 Haze 7 1015 75 8000 2.1 50 01:53 12.04.2020
4923 Mist 4 1015 93 8000 3.52 60 00:59 12.04.2020
4924 Mist 3 1015 93 8000 3.52 60 00:41 12.04.2020
4925 Mist 2 1014 93 9000 1.2 74 00:20 12.04.2020
4926 Mist 2 1014 93 9000 1.2 74 23:46 11.04.2020
4927 Mist 2 1014 93 9000 1.2 74 23:26 11.04.2020
4928 Clear 3 1014 93 10000 1.2 74 22:42 11.04.2020
4929 Mist 3 1014 93 5000 1 80 22:23 11.04.2020
4930 Mist 3 1014 93 5000 1 80 22:23 11.04.2020
4931 Clear 2 1014 93 6000 1.5 150 21:58 11.04.2020
4932 Clear 3 1015 86 10000 1.2 74 21:38 11.04.2020
4933 Clear 3 1015 86 10000 1.15 169 21:19 11.04.2020
4934 Clear 3 1015 86 10000 1.15 169 20:58 11.04.2020
4935 Clear 3 1015 86 10000 1.15 169 20:40 11.04.2020
4936 Clear 3 1015 93 6000 3.1 140 20:21 11.04.2020
4937 Clear 4 1015 81 10000 1.15 169 20:21 11.04.2020
4938 Clear 4 1015 81 10000 1.15 169 19:58 11.04.2020
4939 Clear 4 1015 81 10000 1.15 169 19:40 11.04.2020
4940 Clear 4 1016 75 10000 1.15 169 19:20 11.04.2020
4941 Clear 4 1016 75 10000 1.15 169 18:57 11.04.2020
4942 Clear 5 1016 75 10000 1.15 169 18:39 11.04.2020
4943 Clear 5 1016 75 10000 2.15 208 18:20 11.04.2020
4944 Clear 5 1016 75 10000 2.15 208 17:59 11.04.2020
4945 Clear 5 1016 75 10000 2.15 208 17:40 11.04.2020
4946 Clear 5 1016 75 10000 2.15 208 17:21 11.04.2020
4947 Clear 6 1017 70 10000 2.15 208 16:55 11.04.2020
4948 Clear 6 1017 70 10000 2.15 208 16:37 11.04.2020
4949 Clear 7 1017 75 10000 2.15 208 16:19 11.04.2020
4950 Clear 7 1017 75 10000 2.15 208 16:19 11.04.2020
4951 Clear 7 1017 75 10000 2.87 228 15:37 11.04.2020
4952 Clear 8 1017 66 10000 2.87 228 15:19 11.04.2020
4953 Clear 8 1017 66 10000 2.85 223 14:43 11.04.2020
4954 Clear 9 1017 61 10000 2.85 223 14:24 11.04.2020
4955 Clear 9 1017 66 10000 2.85 223 14:24 11.04.2020
4956 Clear 9 1017 61 10000 2.85 223 13:59 11.04.2020
4957 Clear 9 1017 61 10000 2.85 223 13:59 11.04.2020
4958 Clear 9 1017 61 10000 2.85 223 13:39 11.04.2020
4959 Clouds 10 1017 53 10000 2.85 223 13:19 11.04.2020
4960 Clouds 10 1017 53 10000 2.85 223 12:42 11.04.2020
4961 Clouds 10 1017 53 10000 2.85 223 12:42 11.04.2020
4962 Clouds 12 1016 50 10000 2.6 250 12:20 11.04.2020
4963 Clouds 12 1016 50 10000 2.6 250 11:58 11.04.2020
4964 Clouds 13 1016 50 10000 2.6 250 11:39 11.04.2020
4965 Clouds 13 1016 44 10000 4.69 258 11:19 11.04.2020
4966 Clouds 14 1016 44 10000 4.69 258 10:43 11.04.2020
4967 Clouds 14 1016 44 10000 4.69 258 10:23 11.04.2020
4968 Clouds 15 1017 38 10000 2.1 250 09:59 11.04.2020
4969 Clouds 15 1017 38 10000 2.1 250 09:59 11.04.2020
4970 Clouds 15 1017 38 10000 2.1 250 09:40 11.04.2020
4971 Clouds 15 1017 38 10000 2.1 250 09:21 11.04.2020
4972 Clear 15 1017 41 10000 1.5 300 09:21 11.04.2020
4973 Clear 15 1017 41 10000 1.5 300 08:50 11.04.2020
4974 Clear 15 1017 41 10000 1.5 300 08:28 11.04.2020
4975 Clear 15 1018 44 10000 2.1 310 07:54 11.04.2020
4976 Clear 15 1018 44 10000 2.1 310 07:34 11.04.2020
4977 Clouds 14 1019 44 10000 2.1 320 06:55 11.04.2020
4978 Clouds 14 1019 44 10000 2.1 320 06:34 11.04.2020
4979 Clear 14 1020 47 10000 1.5 340 05:55 11.04.2020
4980 Clear 11 1022 62 10000 2.81 233 03:42 11.04.2020
4981 Clear 9 1022 70 10000 1.52 199 02:37 11.04.2020
4982 Clouds 6 1022 81 10000 1.29 204 01:25 11.04.2020
4983 Clouds 4 1022 81 10000 1.29 204 00:44 11.04.2020
4984 Clear 4 1022 81 10000 1.49 215 00:20 11.04.2020
4985 Clear 4 1022 81 10000 1.49 215 23:58 10.04.2020
4986 Clear 4 1022 81 10000 1.49 215 23:40 10.04.2020
4987 Clouds 4 1022 86 10000 1.49 215 23:19 10.04.2020
4988 Clouds 4 1022 86 10000 1.49 215 22:44 10.04.2020
4989 Clear 4 1022 75 10000 1.49 215 22:23 10.04.2020
4990 Clear 4 1022 75 10000 1.49 215 21:59 10.04.2020
4991 Clear 4 1022 75 10000 1.49 215 21:41 10.04.2020
4992 Clear 5 1023 70 10000 1.49 207 21:20 10.04.2020
4993 Clear 5 1023 70 10000 1.49 207 20:55 10.04.2020
4994 Clear 5 1023 70 10000 1.49 207 20:37 10.04.2020
4995 Clouds 6 1023 70 10000 1.49 207 20:18 10.04.2020
4996 Clouds 6 1023 70 10000 1.49 207 19:41 10.04.2020
4997 Clouds 6 1023 87 10000 0.5 270 19:21 10.04.2020
4998 Clouds 6 1023 87 10000 0.5 270 18:58 10.04.2020
4999 Clouds 7 1024 66 10000 1.49 207 18:40 10.04.2020
5000 Clouds 7 1024 66 10000 1.49 207 18:40 10.04.2020
5001 Clouds 7 1024 66 10000 1.43 249 18:22 10.04.2020
5002 Clouds 7 1024 66 10000 1.43 249 17:59 10.04.2020
5003 Clouds 7 1024 66 10000 1.43 249 17:40 10.04.2020
5004 Clouds 7 1024 66 10000 1.43 249 17:21 10.04.2020
5005 Clouds 8 1023 66 10000 1.43 249 16:57 10.04.2020
5006 Clouds 8 1023 66 10000 1.43 249 16:38 10.04.2020
5007 Clear 9 1023 50 10000 1.5 240 16:20 10.04.2020
5008 Clouds 9 1024 75 10000 2.1 290 15:56 10.04.2020
5009 Clear 9 1023 50 10000 1.5 240 15:37 10.04.2020
5010 Clouds 9 1024 43 10000 1.88 261 15:19 10.04.2020
5011 Clouds 9 1024 43 10000 1.88 261 14:57 10.04.2020
5012 Clouds 10 1024 43 10000 2.58 262 14:38 10.04.2020
5013 Clouds 10 1023 47 10000 2.58 262 14:18 10.04.2020
5014 Clouds 10 1023 47 10000 2.58 262 13:43 10.04.2020
5015 Clear 11 1023 46 10000 2.58 262 13:22 10.04.2020
5016 Clear 12 1023 46 10000 2.58 262 12:44 10.04.2020
5017 Clear 12 1022 43 10000 2.1 290 12:24 10.04.2020
5018 Clear 13 1022 43 10000 2.1 290 11:58 10.04.2020
5019 Clear 13 1022 43 10000 2.1 290 11:39 10.04.2020
5020 Clear 13 1022 43 10000 2.1 290 11:21 10.04.2020
5021 Clouds 14 1022 41 10000 1.5 290 10:46 10.04.2020
5022 Clouds 14 1022 41 10000 1.5 290 10:23 10.04.2020
5023 Clouds 15 1022 38 10000 3.41 266 09:57 10.04.2020
5024 Clouds 15 1022 38 10000 3.41 266 09:39 10.04.2020
5025 Clouds 15 1022 36 10000 1.5 260 09:20 10.04.2020
5026 Clouds 15 1022 36 10000 1.5 260 08:43 10.04.2020
5027 Clouds 15 1022 36 10000 1.5 260 08:24 10.04.2020
5028 Clouds 14 1023 36 10000 2.27 261 07:46 10.04.2020
5029 Clouds 14 1023 41 10000 2.1 230 07:24 10.04.2020
5030 Clouds 14 1023 41 10000 2.1 230 06:49 10.04.2020
5031 Clouds 15 1023 41 10000 2.1 230 06:29 10.04.2020
5032 Clear 14 1024 41 10000 2.1 70 05:42 10.04.2020
5033 Clear 13 1025 43 10000 2.54 181 04:59 10.04.2020
5034 Clouds 12 1026 46 10000 2.54 181 03:51 10.04.2020
5035 Clouds 11 1026 46 10000 3.07 146 03:32 10.04.2020
5036 Clear 11 1026 50 10000 2.1 130 02:49 10.04.2020
5037 Clear 10 1026 50 10000 2.1 130 02:30 10.04.2020
5038 Clear 8 1025 61 10000 1.5 50 01:30 10.04.2020
5039 Clear 5 1026 86 9000 0.5 310 00:52 10.04.2020
5040 Clouds 4 1025 75 10000 1.49 106 00:25 10.04.2020
5041 Clouds 3 1025 75 10000 1.49 106 23:56 09.04.2020
5042 Clouds 3 1025 75 10000 1.49 106 23:38 09.04.2020
5043 Clear 3 1025 75 10000 1.49 106 23:20 09.04.2020
5044 Clear 4 1025 75 10000 1.49 106 22:41 09.04.2020
5045 Clear 4 1025 75 10000 1.49 106 22:23 09.04.2020
5046 Clouds 4 1025 70 10000 1.49 106 21:55 09.04.2020
5047 Clouds 4 1025 70 10000 1.49 106 21:37 09.04.2020
5048 Clouds 4 1024 65 10000 1.77 129 21:18 09.04.2020
5049 Clouds 5 1024 65 10000 1.77 129 20:41 09.04.2020
5050 Clouds 5 1024 70 10000 1.77 129 20:21 09.04.2020
5051 Clouds 5 1024 70 10000 1.77 129 19:57 09.04.2020
5052 Clouds 5 1024 70 10000 1.77 129 19:36 09.04.2020
5053 Clouds 6 1024 70 10000 1.77 129 19:18 09.04.2020
5054 Clouds 6 1024 70 10000 1.77 129 18:41 09.04.2020
5055 Clear 6 1024 65 10000 1.5 170 18:19 09.04.2020
5056 Clear 7 1024 65 10000 1.5 170 17:41 09.04.2020
5057 Clear 7 1024 65 10000 1.5 170 17:22 09.04.2020
5058 Clear 7 1024 65 10000 0.9 173 16:56 09.04.2020
5059 Clear 7 1024 65 10000 0.9 173 16:37 09.04.2020
5060 Clear 7 1024 65 10000 0.9 173 16:37 09.04.2020
5061 Clear 8 1023 61 10000 1.5 200 16:18 09.04.2020
5062 Clear 8 1023 61 10000 1.5 200 15:54 09.04.2020
5063 Clear 8 1023 61 10000 1.5 200 15:36 09.04.2020
5064 Clear 8 1023 61 10000 2.1 241 15:18 09.04.2020
5065 Clear 8 1023 61 10000 3.13 252 14:39 09.04.2020
5066 Clear 9 1022 47 10000 3.13 252 14:20 09.04.2020
5067 Clear 9 1022 47 10000 3.13 252 13:42 09.04.2020
5068 Clear 10 1021 40 10000 1.5 200 13:24 09.04.2020
5069 Clear 10 1021 40 10000 1.5 200 12:59 09.04.2020
5070 Clear 10 1021 40 10000 1.5 200 12:39 09.04.2020
5071 Clear 11 1021 40 10000 1.5 190 12:21 09.04.2020
5072 Clear 12 1021 40 10000 1.5 190 11:55 09.04.2020
5073 Clear 12 1021 40 10000 1.5 190 11:36 09.04.2020
5074 Clear 13 1020 40 10000 2.1 250 11:18 09.04.2020
5075 Clear 13 1020 40 10000 2.1 250 10:41 09.04.2020
5076 Clear 13 1020 40 10000 2.1 250 10:22 09.04.2020
5077 Clear 14 1020 40 10000 1.5 240 09:58 09.04.2020
5078 Clear 14 1020 40 10000 1.5 240 09:40 09.04.2020
5079 Clear 14 1020 35 10000 1.5 300 09:21 09.04.2020
5080 Clear 14 1020 35 10000 1.5 300 09:21 09.04.2020
5081 Clear 14 1020 35 10000 1.5 300 08:56 09.04.2020
5082 Clear 14 1020 35 10000 1.5 300 08:37 09.04.2020
5083 Clear 14 1021 30 10000 2.6 270 08:18 09.04.2020
5084 Clear 14 1021 30 10000 2.6 270 07:37 09.04.2020
5085 Clear 14 1021 30 10000 2.1 230 07:18 09.04.2020
5086 Clear 14 1021 30 10000 2.1 230 06:35 09.04.2020
5087 Clear 13 1021 32 10000 1.5 250 05:49 09.04.2020
5088 Clear 12 1022 34 10000 4.28 304 05:20 09.04.2020
5089 Clouds 8 1022 45 10000 3.92 300 02:35 09.04.2020
5090 Clear 7 1022 49 10000 3.92 300 01:45 09.04.2020
5091 Clear 6 1022 49 10000 3.92 300 01:27 09.04.2020
5092 Clear 3 1022 56 10000 3.92 300 00:44 09.04.2020
5093 Clear 2 1021 56 10000 1.28 269 00:20 09.04.2020
5094 Clear 2 1021 56 10000 1.28 269 23:59 08.04.2020
5095 Clear 1 1021 56 10000 1.28 269 23:41 08.04.2020
5096 Clear 2 1021 56 10000 1.28 269 23:22 08.04.2020
5097 Clouds 2 1021 48 10000 1.5 300 22:44 08.04.2020
5098 Clouds 2 1021 48 10000 1.5 300 22:24 08.04.2020
5099 Clouds 2 1021 48 10000 1.5 300 22:24 08.04.2020
5100 Clear 2 1020 48 10000 1.28 269 21:57 08.04.2020
5101 Clear 2 1020 48 10000 1.36 274 21:39 08.04.2020
5102 Clear 3 1020 42 10000 1.5 330 21:20 08.04.2020
5103 Clear 3 1020 42 10000 1.5 330 20:58 08.04.2020
5104 Clear 4 1020 42 10000 1.5 330 20:39 08.04.2020
5105 Clear 4 1020 42 10000 1.5 330 20:20 08.04.2020
5106 Clear 4 1021 39 10000 2.04 305 19:56 08.04.2020
5107 Clear 4 1021 39 10000 2.04 305 19:37 08.04.2020
5108 Clear 5 1021 39 10000 2.04 305 19:18 08.04.2020
5109 Clear 5 1021 36 10000 2.04 305 18:42 08.04.2020
5110 Clear 5 1021 36 10000 3 298 18:23 08.04.2020
5111 Clear 6 1021 36 10000 3 298 17:54 08.04.2020
5112 Clear 6 1021 36 10000 3 298 17:54 08.04.2020
5113 Clear 6 1021 36 10000 3 298 17:36 08.04.2020
5114 Clear 6 1021 36 10000 2.1 300 17:18 08.04.2020
5115 Clear 7 1021 36 10000 2.1 300 16:42 08.04.2020
5116 Clear 7 1021 36 10000 2.1 300 16:23 08.04.2020
5117 Clear 8 1020 36 10000 3 298 15:55 08.04.2020
5118 Clear 8 1020 36 10000 3 298 15:37 08.04.2020
5119 Clear 8 1020 36 10000 4.96 313 15:18 08.04.2020
5120 Clear 8 1020 31 10000 2.1 310 14:42 08.04.2020
5121 Clear 9 1019 27 10000 1.5 310 14:24 08.04.2020
5122 Clear 10 1019 27 10000 1.5 310 13:45 08.04.2020
5123 Clear 10 1018 23 10000 2.6 310 13:22 08.04.2020
5124 -273 0 0 0 0 0 13:00 08.04.2020
5125 Clear 11 1018 23 10000 2.6 310 12:41 08.04.2020
5126 Clear 11 1017 24 10000 5.24 303 12:18 08.04.2020
5127 Clear 12 1017 24 10000 5.24 303 11:54 08.04.2020
5128 Clear 12 1017 24 10000 5.24 303 11:36 08.04.2020
5129 Clear 12 1017 24 10000 5.24 303 11:18 08.04.2020
5130 Clear 13 1017 20 10000 2.6 220 10:41 08.04.2020
5131 Clear 14 1017 16 10000 3.1 330 10:22 08.04.2020
5132 Clear 14 1017 16 10000 3.1 330 09:59 08.04.2020
5133 Clear 14 1017 24 10000 5.7 270 09:41 08.04.2020
5134 Clear 14 1017 19 10000 2.1 310 09:19 08.04.2020
5135 Clear 14 1017 19 10000 2.1 310 08:58 08.04.2020
5136 Clear 14 1017 19 10000 2.1 310 08:40 08.04.2020
5137 Clear 14 1017 17 10000 1.5 200 08:21 08.04.2020
5138 Clear 14 1017 17 10000 1.5 200 07:43 08.04.2020
5139 Clear 13 1018 19 10000 3.6 250 07:22 08.04.2020
5140 Clear 13 1018 19 10000 3.6 250 06:33 08.04.2020
5141 Clear 12 1018 22 10000 6.37 315 05:22 08.04.2020
5142 Clear 10 1018 29 10000 2.1 330 02:51 08.04.2020
5143 Clear 10 1018 29 10000 2.1 330 02:22 08.04.2020
5144 Clear 9 1017 34 10000 3.6 300 01:56 08.04.2020
5145 Clear 7 1017 45 10000 6.37 323 01:28 08.04.2020
5146 Clear 4 1017 45 10000 6.37 323 00:47 08.04.2020
5147 Clear 5 1017 45 10000 6.37 323 00:47 08.04.2020
5148 Clear 4 1017 45 10000 2.66 306 00:26 08.04.2020
5149 Clear 3 1016 48 10000 2.66 306 23:57 07.04.2020
5150 Clear 3 1016 48 10000 2.66 306 23:37 07.04.2020
5151 Clear 2 1016 51 10000 2.66 306 23:19 07.04.2020
5152 Clear 2 1016 51 10000 2.66 306 22:55 07.04.2020
5153 Clear 3 1016 51 10000 2.66 306 22:37 07.04.2020
5154 Clear 3 1016 45 10000 2.66 306 22:18 07.04.2020
5155 Clear 4 1016 45 10000 2.66 306 21:42 07.04.2020
5156 Clear 4 1016 45 10000 3.85 310 21:21 07.04.2020
5157 Clear 5 1016 36 10000 3.85 310 20:59 07.04.2020
5158 Clear 5 1016 36 10000 3.85 310 20:40 07.04.2020
5159 Clear 5 1016 36 10000 3.85 310 20:21 07.04.2020
5160 Clear 5 1016 33 10000 1.5 320 19:57 07.04.2020
5161 Clear 6 1016 33 10000 1.5 320 19:38 07.04.2020
5162 Clear 6 1016 33 10000 1.5 320 19:19 07.04.2020
5163 Clear 6 1015 31 10000 3.85 310 18:58 07.04.2020
5164 Clear 6 1015 31 10000 3.85 310 18:58 07.04.2020
5165 Clear 7 1015 31 10000 3.85 310 18:39 07.04.2020
5166 Clear 7 1015 31 10000 1.5 250 18:20 07.04.2020
5167 Clear 7 1015 31 10000 1.5 250 17:45 07.04.2020
5168 Clear 7 1015 31 10000 1.5 250 17:24 07.04.2020
5169 Clear 8 1015 61 10000 4.76 315 16:48 07.04.2020
5170 Clear 8 1015 61 10000 4.76 315 16:29 07.04.2020
5171 Clear 8 1015 61 10000 4.76 315 15:59 07.04.2020
5172 Clear 9 1015 61 10000 3.1 220 15:41 07.04.2020
5173 Clear 10 1015 61 10000 3.1 220 15:23 07.04.2020
5174 Clear 10 1015 61 10000 3.1 220 15:23 07.04.2020
5175 Clear 10 1015 61 10000 3.1 220 14:42 07.04.2020
5176 Clear 10 1015 61 10000 3.1 220 14:23 07.04.2020
5177 Clear 10 1014 66 10000 5.21 314 13:57 07.04.2020
5178 Clear 11 1014 66 10000 5.21 314 13:39 07.04.2020
5179 Clear 11 1013 62 10000 5.21 314 13:18 07.04.2020
5180 Clear 11 1013 62 10000 5.21 314 13:18 07.04.2020
5181 Clear 12 1013 62 10000 5.21 314 12:55 07.04.2020
5182 Clear 12 1013 62 10000 5.21 314 12:36 07.04.2020
5183 Clear 13 1013 50 10000 4.55 263 12:18 07.04.2020
5184 Clear 14 1013 50 10000 4.55 263 11:44 07.04.2020
5185 Clear 15 1013 47 10000 3.1 250 11:25 07.04.2020
5186 Clear 16 1013 47 10000 3.1 250 10:58 07.04.2020
5187 Clear 16 1013 47 10000 3.1 250 10:38 07.04.2020
5188 Clear 16 1013 44 10000 2.6 230 10:19 07.04.2020
5189 Clear 17 1013 44 10000 2.6 230 09:45 07.04.2020
5190 Clear 17 1014 48 10000 2.1 180 09:19 07.04.2020
5191 Clear 17 1014 48 10000 2.1 180 08:55 07.04.2020
5192 Clear 17 1014 48 10000 2.1 180 08:36 07.04.2020
5193 Clear 17 1014 48 10000 2.1 260 08:18 07.04.2020
5194 Clear 17 1014 48 10000 2.1 260 07:40 07.04.2020
5195 Clear 17 1015 51 10000 5.31 252 07:21 07.04.2020
5196 Clear 16 1015 51 10000 5.31 252 06:51 07.04.2020
5197 Clear 16 1016 54 10000 2.6 270 06:21 07.04.2020
5198 Clear 14 1016 54 10000 2.6 270 05:38 07.04.2020
5199 Clear 13 1016 62 10000 3.83 242 04:46 07.04.2020
5200 Clouds 10 1017 76 10000 1.5 240 03:26 07.04.2020
5201 Clouds 9 1017 76 10000 2.33 209 02:54 07.04.2020
5202 Clouds 7 1017 81 10000 2.35 202 01:48 07.04.2020
5203 Clouds 6 1016 81 10000 2.35 202 01:25 07.04.2020
5204 Clouds 5 1017 81 10000 1.72 191 00:29 07.04.2020
5205 Clouds 4 1017 81 10000 1.72 191 23:55 06.04.2020
5206 Clouds 3 1017 93 6000 3.1 140 23:36 06.04.2020
5207 Clouds 3 1017 87 10000 1.72 191 23:18 06.04.2020
5208 Clouds 4 1017 87 10000 1.72 191 22:38 06.04.2020
5209 Clear 4 1017 81 10000 1.72 191 22:20 06.04.2020
5210 Clear 4 1017 81 10000 1.72 191 21:57 06.04.2020
5211 Clear 4 1017 81 10000 1.72 191 21:38 06.04.2020
5212 Clear 4 1017 81 10000 1.74 222 21:18 06.04.2020
5213 Clear 5 1017 81 10000 1.74 222 20:54 06.04.2020
5214 Clear 5 1017 81 10000 1.74 222 20:36 06.04.2020
5215 Clear 5 1017 75 10000 1.74 222 20:18 06.04.2020
5216 Clear 5 1017 75 10000 1.74 222 20:18 06.04.2020
5217 Clear 5 1017 75 10000 1.74 222 19:40 06.04.2020
5218 Clear 6 1018 65 10000 1.74 222 19:22 06.04.2020
5219 Clear 6 1018 65 10000 1.74 222 18:56 06.04.2020
5220 Clear 7 1019 61 10000 1.8 239 18:37 06.04.2020
5221 Clear 7 1019 61 10000 1.8 239 18:19 06.04.2020
5222 Clear 7 1019 61 10000 1.8 239 17:42 06.04.2020
5223 Clear 7 1019 56 10000 1.8 239 17:19 06.04.2020
5224 Clear 7 1019 56 10000 1.8 239 17:19 06.04.2020
5225 Clear 7 1019 56 10000 1.8 239 17:19 06.04.2020
5226 Clear 8 1019 56 10000 1.8 239 16:50 06.04.2020
5227 Clear 8 1019 56 10000 1.8 239 16:31 06.04.2020
5228 Clear 8 1019 42 10000 1.8 239 15:40 06.04.2020
5229 Clear 9 1019 42 10000 1.8 239 15:40 06.04.2020
5230 Clear 10 1018 32 10000 1.5 240 13:45 06.04.2020
5231 Clear 10 1018 32 10000 1.5 240 13:24 06.04.2020
5232 Clouds 11 1018 32 10000 3.24 255 12:54 06.04.2020
5233 Clouds 11 1018 32 10000 3.24 255 12:54 06.04.2020
5234 Clouds 11 1018 32 10000 3.24 255 12:54 06.04.2020
5235 Clouds 11 1018 32 10000 3.24 255 12:54 06.04.2020
5236 Clouds 11 1018 32 10000 3.24 255 12:54 06.04.2020
5237 Clouds 11 1018 32 10000 4.57 261 12:21 06.04.2020
5238 Clear 12 1017 28 10000 1.5 330 11:54 06.04.2020
5239 Clear 12 1017 28 10000 1.5 330 11:54 06.04.2020
5240 Clear 12 1017 28 10000 1.5 330 11:54 06.04.2020
5241 Clear 12 1017 28 10000 1.5 330 11:54 06.04.2020
5242 Clear 12 1017 28 10000 1.5 330 11:54 06.04.2020
5243 Clear 12 1017 28 10000 1.5 330 11:31 06.04.2020
5244 Clear 12 1017 28 10000 1.5 330 11:31 06.04.2020
5245 Clear 14 1018 28 10000 1.5 220 10:50 06.04.2020
5246 Clear 14 1018 28 10000 1.5 220 10:50 06.04.2020
5247 Clear 14 1018 28 10000 1.5 220 10:50 06.04.2020
5248 Clear 14 1018 28 10000 1.5 220 10:50 06.04.2020
5249 Clear 14 1018 28 10000 1.5 220 10:50 06.04.2020
5250 Clear 14 1018 28 10000 1.5 220 10:21 06.04.2020
5251 Clear 15 1018 28 10000 1.5 250 09:47 06.04.2020
5252 Clear 15 1018 28 10000 1.5 250 09:47 06.04.2020
5253 Clear 15 1018 28 10000 1.5 250 09:47 06.04.2020
5254 Clear 15 1018 28 10000 1.5 250 09:47 06.04.2020
5255 Clear 15 1018 28 10000 1.5 250 09:47 06.04.2020
5256 Clear 15 1018 28 10000 1.5 250 09:20 06.04.2020
5257 Clear 16 1018 26 10000 1.5 190 08:53 06.04.2020
5258 Clear 16 1018 26 10000 1.5 190 08:30 06.04.2020
5259 Clear 16 1019 25 10000 2.6 190 07:26 06.04.2020
5260 Clear 15 1020 30 10000 1.5 330 06:40 06.04.2020
5261 Clear 15 1020 30 10000 1.5 330 06:40 06.04.2020
5262 Clear 15 1020 30 10000 1.5 330 06:18 06.04.2020
5263 Clear 12 1021 32 10000 2.84 260 04:18 06.04.2020
5264 Clear 8 1022 43 10000 0.73 170 02:56 06.04.2020
5265 Clear 5 1022 65 10000 0.69 168 01:57 06.04.2020
5266 Clear 1 1022 80 10000 0.69 168 00:59 06.04.2020
5267 Clear 1 1022 80 10000 0.69 168 00:29 06.04.2020
5268 Clear 0 1022 80 10000 0.56 252 23:59 05.04.2020
5269 Clear -1 1022 80 10000 0.56 252 23:40 05.04.2020
5270 Clear 0 1022 80 10000 0.56 252 23:21 05.04.2020
5271 Clear 0 1022 80 10000 0.56 252 23:21 05.04.2020
5272 Clear 0 1022 80 10000 0.56 252 23:21 05.04.2020
5273 Clear 0 1022 80 10000 0.56 252 22:54 05.04.2020
5274 Clear 0 1022 80 10000 0.56 252 22:36 05.04.2020
5275 Clear 0 1022 80 10000 0.56 252 22:18 05.04.2020
5276 Clear 1 1022 74 10000 0.56 252 21:43 05.04.2020
5277 Clear 1 1022 74 10000 0.56 252 21:43 05.04.2020
5278 Clear 1 1022 74 10000 0.56 252 21:43 05.04.2020
5279 Clear 1 1022 74 10000 0.35 289 21:23 05.04.2020
5280 Clear 1 1022 74 10000 1.23 280 20:25 05.04.2020
5281 Clear 2 1022 50 10000 1.23 280 19:44 05.04.2020
5282 Clear 2 1022 50 10000 1.23 280 19:25 05.04.2020
5283 Clear 3 1022 50 10000 1.23 280 18:49 05.04.2020
5284 Clear 3 1022 50 10000 1.23 280 18:49 05.04.2020
5285 Clear 3 1022 45 10000 2.12 276 18:18 05.04.2020
5286 Clear 3 1023 45 10000 1 210 17:49 05.04.2020
5287 Clear 3 1023 45 10000 1 210 17:49 05.04.2020
5288 Clear 3 1023 45 10000 1 210 17:49 05.04.2020
5289 Clear 3 1023 45 10000 1 210 17:49 05.04.2020
5290 Clear 3 1023 45 10000 1 210 17:49 05.04.2020
5291 Clear 3 1023 45 10000 1 210 17:22 05.04.2020
5292 Clear 4 1022 70 10000 2.12 276 16:47 05.04.2020
5293 Clear 4 1022 70 10000 2.12 276 16:47 05.04.2020
5294 Clear 4 1022 70 10000 2.12 276 16:47 05.04.2020
5295 Clear 5 1022 70 10000 2.12 276 16:19 05.04.2020
5296 Clear 6 1022 65 10000 2.12 276 15:46 05.04.2020
5297 Clear 6 1022 65 10000 2.12 276 15:26 05.04.2020
5298 Clear 6 1022 65 10000 2.12 276 15:26 05.04.2020
5299 Clear 7 1022 61 10000 3.34 308 14:48 05.04.2020
5300 Clear 7 1022 61 10000 3.34 308 14:48 05.04.2020
5301 Clear 7 1022 61 10000 3.34 308 14:48 05.04.2020
5302 Clear 8 1021 39 10000 1.5 170 13:59 05.04.2020
5303 Clear 8 1021 39 10000 1.5 170 13:40 05.04.2020
5304 Clear 8 1021 39 10000 1.5 170 13:40 05.04.2020
5305 Clear 8 1021 39 10000 1.5 170 13:40 05.04.2020
5306 Clear 8 1021 39 10000 1.5 170 13:40 05.04.2020
5307 Clear 8 1021 39 10000 1.5 170 13:40 05.04.2020
5308 Clear 10 1020 43 10000 2.6 240 12:20 05.04.2020
5309 Clear 11 1020 43 10000 2.6 240 11:39 05.04.2020
5310 Clear 11 1020 43 10000 2.6 240 11:19 05.04.2020
5311 Clear 12 1020 30 10000 2.1 260 10:47 05.04.2020
5312 Clear 12 1020 30 10000 2.1 260 10:23 05.04.2020
5313 Clear 13 1020 20 10000 2.1 250 09:53 05.04.2020
5314 Clear 13 1020 20 10000 2.1 250 09:27 05.04.2020
5315 Clear 13 1020 20 10000 2.1 250 09:27 05.04.2020
5316 Clear 13 1021 20 10000 2.6 250 08:32 05.04.2020
5317 Clear 13 1021 20 10000 2.6 250 08:31 05.04.2020
5318 Clear 13 1021 20 10000 2.6 250 08:31 05.04.2020
5319 Clear 13 1021 20 10000 2.6 250 08:31 05.04.2020
5320 Clear 13 1021 20 10000 2.6 250 08:31 05.04.2020
5321 Clear 12 1022 18 10000 2.1 300 07:05 05.04.2020
5322 Clear 12 1022 18 10000 2.1 300 07:05 05.04.2020
5323 Clear 12 1022 18 10000 2.1 300 07:05 05.04.2020
5324 Clear 12 1022 18 10000 2.1 300 07:05 05.04.2020
5325 Clear 9 1023 18 10000 3.1 230 04:31 05.04.2020
5326 Clear 7 1023 19 10000 2.1 240 03:27 05.04.2020
5327 Clear 6 1023 19 10000 1.5 340 02:19 05.04.2020
5328 Clear 5 1023 21 10000 2.1 330 01:42 05.04.2020
5329 Clear 3 1023 34 10000 1.4 295 01:18 05.04.2020
5330 Clear 3 1023 34 10000 1.4 295 01:18 05.04.2020
5331 Clear 1 1023 34 10000 1.4 295 00:37 05.04.2020
5332 Clear 0 1023 27 10000 1.67 297 00:18 05.04.2020
5333 Clear 0 1023 27 10000 1.67 297 23:41 04.04.2020
5334 Clear 0 1023 27 10000 1.67 297 23:21 04.04.2020
5335 Clear 1 1023 23 10000 1.67 297 22:57 04.04.2020
5336 Clear 1 1023 23 10000 1.67 297 22:39 04.04.2020
5337 Clear 1 1023 23 10000 1.67 297 22:20 04.04.2020
5338 Clear 1 1022 21 10000 1.67 297 21:57 04.04.2020
5339 Clear 2 1022 21 10000 1.67 297 21:38 04.04.2020
5340 Clear 2 1022 21 10000 3.65 328 21:19 04.04.2020
5341 Clear 2 1022 23 10000 3.65 328 20:54 04.04.2020
5342 Clear 2 1022 23 10000 3.65 328 20:36 04.04.2020
5343 Clear 2 1022 23 10000 3.65 328 20:18 04.04.2020
5344 Clear 3 1022 27 10000 3.65 328 19:40 04.04.2020
5345 Clear 3 1022 27 10000 3.65 328 19:20 04.04.2020
5346 Clear 4 1022 24 10000 3.65 328 18:59 04.04.2020
5347 Clear 4 1022 24 10000 3.65 328 18:59 04.04.2020
5348 Clear 4 1022 24 10000 4.03 329 18:39 04.04.2020
5349 Clear 4 1022 24 10000 4.03 329 18:39 04.04.2020
5350 Clear 4 1022 24 10000 6.21 330 18:20 04.04.2020
5351 Clear 5 1022 24 10000 6.74 330 17:58 04.04.2020
5352 Clear 5 1022 24 10000 6.21 330 17:38 04.04.2020
5353 Clear 6 1022 24 10000 6.21 330 17:19 04.04.2020
5354 Clear 6 1022 22 10000 6.21 330 16:44 04.04.2020
5355 Clear 6 1022 22 10000 6.21 330 16:24 04.04.2020
5356 Clear 7 1021 19 10000 3.1 320 15:58 04.04.2020
5357 Clear 7 1021 19 10000 3.1 320 15:38 04.04.2020
5358 Clear 7 1021 19 10000 3.1 320 15:19 04.04.2020
5359 Clear 7 1021 19 10000 3.1 320 15:19 04.04.2020
5360 Clear 8 1021 15 10000 2.1 320 14:46 04.04.2020
5361 Clear 8 1021 15 10000 2.1 320 14:25 04.04.2020
5362 Clear 8 1020 15 10000 2.6 320 14:00 04.04.2020
5363 Clear 8 1020 15 10000 2.6 320 13:41 04.04.2020
5364 Clear 8 1020 15 10000 2.6 320 13:41 04.04.2020
5365 Clear 9 1020 15 10000 2.6 320 13:20 04.04.2020
5366 Clear 9 1019 15 10000 3.1 320 12:57 04.04.2020
5367 Clear 9 1019 15 10000 3.1 320 12:39 04.04.2020
5368 Clear 9 1018 14 10000 4.1 310 12:19 04.04.2020
5369 Clear 10 1018 14 10000 4.1 310 11:41 04.04.2020
5370 Clear 11 1018 14 10000 4.1 310 11:23 04.04.2020
5371 Clear 12 1018 17 10000 2.6 310 10:58 04.04.2020
5372 Clear 12 1018 17 10000 2.6 310 10:40 04.04.2020
5373 Clear 12 1018 17 10000 2.6 310 10:21 04.04.2020
5374 Clear 12 1018 16 10000 7.66 328 09:55 04.04.2020
5375 Clear 13 1018 16 10000 7.66 328 09:37 04.04.2020
5376 Clear 13 1018 16 10000 7.83 321 09:19 04.04.2020
5377 Clear 13 1018 17 10000 1.5 260 08:42 04.04.2020
5378 Clear 13 1018 17 10000 1.5 260 08:23 04.04.2020
5379 Clear 13 1018 19 10000 4.1 250 07:47 04.04.2020
5380 Clear 13 1018 19 10000 4.1 250 07:29 04.04.2020
5381 Clear 13 1018 20 10000 8.24 324 06:58 04.04.2020
5382 Clear 13 1018 20 10000 6.5 321 06:21 04.04.2020
5383 Clear 12 1018 20 10000 1.5 270 05:51 04.04.2020
5384 Clear 12 1018 20 10000 1.5 270 05:32 04.04.2020
5385 Clear 11 1018 25 10000 6.5 321 04:33 04.04.2020
5386 Clear 11 1019 32 10000 2.1 330 03:55 04.04.2020
5387 Clear 11 1019 32 10000 2.1 330 03:27 04.04.2020
5388 Clouds 10 1018 61 10000 2.1 290 02:40 04.04.2020
5389 Clouds 10 1018 61 10000 2.1 290 02:22 04.04.2020
5390 Clear 8 1018 81 10000 5.97 312 01:27 04.04.2020
5391 Clouds 7 1017 81 10000 5.97 312 00:55 04.04.2020
5392 Mist 6 1017 87 9000 5.97 312 00:30 04.04.2020
5393 Clear 6 1017 87 10000 3.36 263 23:55 03.04.2020
5394 Clear 6 1017 87 10000 3.36 263 23:36 03.04.2020
5395 Clear 6 1017 87 10000 3.36 263 23:18 03.04.2020
5396 Clear 6 1017 81 10000 3.36 263 22:40 03.04.2020
5397 Clear 6 1017 81 10000 3.36 263 22:19 03.04.2020
5398 Clear 6 1017 81 10000 3.36 263 21:45 03.04.2020
5399 Clear 7 1017 81 10000 3.36 263 21:27 03.04.2020
5400 Clear 7 1018 87 10000 4.02 234 20:59 03.04.2020
5401 Clear 7 1018 87 10000 4.02 234 20:40 03.04.2020
5402 Clear 6 1018 87 10000 4.02 234 20:22 03.04.2020
5403 Haze 6 1018 81 9000 4.02 234 19:58 03.04.2020
5404 Haze 6 1018 81 9000 4.02 234 19:40 03.04.2020
5405 Haze 7 1019 81 9000 4.02 234 19:21 03.04.2020
5406 Haze 7 1019 81 9000 4.02 234 19:00 03.04.2020
5407 Haze 7 1019 81 9000 4.02 234 18:41 03.04.2020
5408 Haze 7 1019 81 9000 4.02 234 18:41 03.04.2020
5409 Haze 7 1019 81 9000 3.46 217 18:23 03.04.2020
5410 Clear 8 1019 70 10000 3.46 217 17:58 03.04.2020
5411 Clear 8 1019 70 10000 3.46 217 17:39 03.04.2020
5412 Clear 7 1019 70 10000 3.46 217 17:19 03.04.2020
5413 Clear 7 1019 61 10000 3.46 217 16:46 03.04.2020
5414 Clear 7 1019 81 8000 1.5 170 16:22 03.04.2020
5415 Clear 8 1019 61 10000 3.46 217 15:59 03.04.2020
5416 Clear 8 1019 61 10000 3.46 217 15:40 03.04.2020
5417 Clear 9 1019 61 10000 3.34 237 15:21 03.04.2020
5418 Clear 9 1019 75 10000 2.6 180 14:56 03.04.2020
5419 Haze 10 1020 66 6000 2.1 220 14:38 03.04.2020
5420 Clear 10 1019 50 10000 1.5 240 14:20 03.04.2020
5421 Clear 10 1019 50 10000 1.5 240 13:45 03.04.2020
5422 Clear 10 1019 50 10000 1.5 240 13:26 03.04.2020
5423 Clear 11 1019 46 10000 3.92 235 12:56 03.04.2020
5424 Clear 11 1019 46 10000 3.92 235 12:37 03.04.2020
5425 Clear 12 1019 37 10000 1.5 240 12:18 03.04.2020
5426 Clear 12 1019 37 10000 1.5 240 12:18 03.04.2020
5427 Clear 13 1019 37 10000 1.5 240 11:54 03.04.2020
5428 Clear 13 1019 37 10000 1.5 240 11:36 03.04.2020
5429 Clear 14 1019 37 10000 1.5 240 11:18 03.04.2020
5430 Clear 15 1018 28 10000 5.28 254 10:54 03.04.2020
5431 Clear 15 1018 28 10000 5.28 254 10:36 03.04.2020
5432 Clear 15 1018 28 10000 5.28 254 10:18 03.04.2020
5433 Clear 16 1018 38 10000 2.1 230 09:40 03.04.2020
5434 Clear 16 1018 38 10000 2.1 230 09:40 03.04.2020
5435 Clear 16 1018 33 10000 2.1 230 09:22 03.04.2020
5436 Clear 16 1019 36 10000 5.28 259 08:57 03.04.2020
5437 Clear 16 1019 36 10000 5.28 259 08:39 03.04.2020
5438 Clear 16 1019 33 10000 5.28 259 08:20 03.04.2020
5439 Clear 16 1019 33 10000 5.28 259 07:50 03.04.2020
5440 Clear 16 1019 33 10000 5.28 259 07:31 03.04.2020
5441 Haze 16 1020 38 9000 2.1 250 06:49 03.04.2020
5442 Haze 16 1020 38 9000 2.1 250 06:24 03.04.2020
5443 Haze 14 1021 47 9000 3.59 254 05:40 03.04.2020
5444 Clear 11 1023 62 10000 3.59 254 03:45 03.04.2020
5445 Haze 9 1023 70 9000 1.02 262 02:56 03.04.2020
5446 Haze 8 1023 70 9000 1.02 262 02:27 03.04.2020
5447 Haze 5 1023 75 6000 1.08 262 01:23 03.04.2020
5448 Haze 2 1023 81 6000 1.5 160 00:37 03.04.2020
5449 Haze 2 1023 81 6000 1.5 160 00:19 03.04.2020
5450 Mist 2 1023 93 9000 1.68 224 23:42 02.04.2020
5451 Mist 1 1023 93 9000 1.68 224 23:23 02.04.2020
5452 Clouds 1 1023 86 10000 1.68 224 22:58 02.04.2020
5453 Clouds 1 1022 86 10000 1.68 224 22:38 02.04.2020
5454 Clouds 2 1022 86 10000 1.68 224 22:20 02.04.2020
5455 Clear 2 1022 81 10000 1.68 224 21:39 02.04.2020
5456 Clear 2 1022 81 10000 2.08 221 21:20 02.04.2020
5457 Clouds 2 1022 93 10000 1.5 180 20:58 02.04.2020
5458 Clouds 2 1022 93 10000 1.5 180 20:40 02.04.2020
5459 Clouds 2 1022 93 10000 1.5 180 20:40 02.04.2020
5460 Clear 3 1022 80 10000 2.08 221 20:21 02.04.2020
5461 Clear 3 1022 80 10000 2.08 221 19:44 02.04.2020
5462 Clear 4 1022 70 10000 2.08 221 19:21 02.04.2020
5463 Clear 4 1022 70 10000 2.08 221 18:58 02.04.2020
5464 Clear 4 1022 70 10000 2.08 221 18:39 02.04.2020
5465 Clear 5 1022 47 10000 1.35 236 18:20 02.04.2020
5466 Clear 5 1022 47 10000 1.35 236 17:56 02.04.2020
5467 Clear 5 1022 47 10000 1.35 236 17:38 02.04.2020
5468 Clear 5 1022 47 10000 1.35 236 17:19 02.04.2020
5469 Clear 6 1022 47 10000 1.35 236 16:55 02.04.2020
5470 Clear 7 1022 47 10000 1.35 236 16:37 02.04.2020
5471 Clouds 7 1022 49 10000 1.35 236 16:18 02.04.2020
5472 Clouds 8 1022 49 10000 1.35 236 15:44 02.04.2020
5473 Clear 8 1022 37 10000 2.1 230 15:21 02.04.2020
5474 Clear 8 1022 37 10000 2.1 230 14:58 02.04.2020
5475 Clear 8 1022 37 10000 2.1 230 14:39 02.04.2020
5476 Clouds 8 1022 44 10000 2.6 240 14:19 02.04.2020
5477 Clouds 9 1022 49 10000 2.6 240 13:56 02.04.2020
5478 Clouds 9 1022 49 10000 2.6 240 13:38 02.04.2020
5479 Clear 10 1021 32 10000 2.25 270 13:19 02.04.2020
5480 Clear 11 1021 20 10000 1.5 240 12:48 02.04.2020
5481 Clear 11 1021 20 10000 1.5 240 12:21 02.04.2020
5482 Clouds 12 1021 20 10000 1.5 250 11:58 02.04.2020
5483 Clouds 13 1021 20 10000 1.5 250 11:40 02.04.2020
5484 Clouds 13 1021 20 10000 1.5 250 11:21 02.04.2020
5485 Clear 14 1021 24 10000 1.5 280 10:58 02.04.2020
5486 Clear 14 1021 24 10000 1.5 280 10:39 02.04.2020
5487 Clear 14 1021 24 10000 1.5 280 10:21 02.04.2020
5488 Clear 15 1021 30 10000 2.1 230 09:59 02.04.2020
5489 Clear 15 1021 30 10000 2.1 230 09:59 02.04.2020
5490 Clear 15 1021 30 10000 2.1 230 09:41 02.04.2020
5491 Clear 15 1021 30 10000 2.1 230 09:23 02.04.2020
5492 Clouds 15 1021 33 10000 2.1 280 08:57 02.04.2020
5493 Clouds 16 1021 33 10000 2.1 280 08:38 02.04.2020
5494 Clouds 16 1021 33 10000 2.1 280 08:19 02.04.2020
5495 Clear 16 1021 30 10000 1.5 260 07:42 02.04.2020
5496 Haze 15 1022 33 9000 4.5 256 07:19 02.04.2020
5497 Haze 15 1022 33 9000 4.5 256 06:26 02.04.2020
5498 Clear 14 1022 33 10000 4.31 262 05:59 02.04.2020
5499 Clear 13 1022 33 10000 4.31 262 05:41 02.04.2020
5500 Clear 8 1023 57 10000 1.26 222 02:46 02.04.2020
5501 Clear 5 1022 61 10000 1.1 220 01:28 02.04.2020
5502 Clear 2 1022 46 10000 1.1 220 00:42 02.04.2020
5503 Clear 2 1022 58 10000 0.73 275 00:22 02.04.2020
5504 Clear 1 1022 58 10000 0.73 275 23:41 01.04.2020
5505 Clear 1 1022 58 10000 0.73 275 23:20 01.04.2020
5506 Clear 2 1021 58 10000 0.73 275 22:57 01.04.2020
5507 Clear 2 1021 58 10000 0.73 275 22:38 01.04.2020
5508 Clear 2 1021 58 10000 0.73 275 22:19 01.04.2020
5509 Clear 2 1021 58 10000 0.73 275 21:41 01.04.2020
5510 Clear 2 1021 86 10000 1 60 21:19 01.04.2020
5511 Clear 3 1021 54 10000 1.32 348 20:57 01.04.2020
5512 Clear 3 1021 54 10000 1.32 348 20:38 01.04.2020
5513 Clear 3 1021 54 10000 1.32 348 20:20 01.04.2020
5514 Clear 3 1021 54 10000 1.32 348 19:58 01.04.2020
5515 Clear 3 1021 54 10000 1.32 348 19:39 01.04.2020
5516 Clear 3 1021 54 10000 1.32 348 19:19 01.04.2020
5517 Clear 4 1020 54 10000 1.32 348 18:42 01.04.2020
5518 Clear 4 1020 54 10000 1.32 348 18:42 01.04.2020
5519 Clear 4 1020 54 10000 1.32 348 18:23 01.04.2020
5520 Clear 5 1020 51 10000 1.96 1 17:57 01.04.2020
5521 Clear 5 1020 51 10000 1.96 1 17:38 01.04.2020
5522 Clear 6 1019 51 10000 1.96 1 17:19 01.04.2020
5523 Clear 6 1019 51 10000 1.96 1 16:57 01.04.2020
5524 Clear 6 1019 51 10000 1.96 1 16:39 01.04.2020
5525 Clear 6 1019 51 10000 2.6 80 16:20 01.04.2020
5526 Clear 6 1019 51 10000 2.6 80 15:56 01.04.2020
5527 Clear 7 1019 51 10000 2.6 80 15:37 01.04.2020
5528 Clear 7 1019 53 10000 2.6 80 15:18 01.04.2020
5529 Clear 7 1017 57 10000 2.1 60 14:40 01.04.2020
5530 Clear 8 1017 57 10000 2.1 60 14:22 01.04.2020
5531 Clouds 8 1016 53 10000 5.7 20 13:59 01.04.2020
5532 Clouds 8 1016 53 10000 5.7 20 13:39 01.04.2020
5533 Clouds 8 1016 53 10000 5.7 20 13:20 01.04.2020
5534 Clouds 8 1016 53 10000 5.7 20 13:20 01.04.2020
5535 Clear 10 1014 24 10000 6.56 50 12:57 01.04.2020
5536 Clear 10 1014 24 10000 6.56 50 12:37 01.04.2020
5537 Clear 10 1013 24 10000 2.6 310 12:19 01.04.2020
5538 Clear 11 1013 24 10000 2.6 310 11:56 01.04.2020
5539 Clear 12 1013 24 10000 2.6 310 11:37 01.04.2020
5540 Clear 12 1013 24 10000 2.6 310 11:18 01.04.2020
5541 Clear 14 1012 24 10000 3.1 290 10:38 01.04.2020
5542 Clear 14 1012 24 10000 3.1 290 10:20 01.04.2020
5543 Clear 14 1012 30 10000 3.1 250 09:58 01.04.2020
5544 Clear 15 1012 30 10000 3.1 250 09:39 01.04.2020
5545 Clear 14 1012 30 10000 3.1 250 09:19 01.04.2020
5546 Clear 16 1012 29 10000 1.5 240 08:44 01.04.2020
5547 Clear 17 1011 31 10000 1.5 260 08:18 01.04.2020
5548 Clear 17 1011 31 10000 1.5 260 07:48 01.04.2020
5549 Clear 17 1011 31 10000 1.5 260 07:23 01.04.2020
5550 Clear 17 1012 26 10000 6.79 287 06:59 01.04.2020
5551 Clear 17 1012 26 10000 6.79 287 06:38 01.04.2020
5552 Clear 17 1013 32 10000 3.12 304 06:20 01.04.2020
5553 Clear 14 1014 35 10000 2.1 250 04:38 01.04.2020
5554 Clouds 12 1015 32 10000 1.5 300 03:35 01.04.2020
5555 Clouds 12 1014 34 10000 1.5 280 02:57 01.04.2020
5556 Clouds 11 1014 34 10000 1.5 280 02:21 01.04.2020
5557 Clouds 10 1014 34 10000 1.89 316 01:43 01.04.2020
5558 Clouds 10 1014 34 10000 1.89 316 01:22 01.04.2020
5559 Clear 9 1014 39 10000 2.1 300 00:46 01.04.2020
5560 Clear 9 1014 39 10000 2.1 300 00:46 01.04.2020
5561 Clear 9 1014 39 10000 2.1 300 00:21 01.04.2020
5562 Clear 9 1014 43 10000 1.67 289 23:48 31.03.2020
5563 Clear 9 1014 43 10000 1.67 289 23:28 31.03.2020
5564 Clear 9 1014 43 10000 1.67 289 22:59 31.03.2020
5565 Clear 9 1014 43 10000 1.67 289 22:37 31.03.2020
5566 Clouds 9 1014 50 10000 1.5 270 22:19 31.03.2020
5567 Clouds 9 1014 50 10000 1.5 270 21:57 31.03.2020
5568 Clouds 9 1014 50 10000 1.5 270 21:39 31.03.2020
5569 Clouds 9 1014 50 10000 1.5 270 21:20 31.03.2020
5570 Clear 9 1014 53 10000 2.6 280 21:20 31.03.2020
5571 Clear 10 1014 53 10000 2.6 280 20:56 31.03.2020
5572 Clear 10 1014 53 10000 2.6 280 20:37 31.03.2020
5573 Clear 10 1014 53 10000 2.6 280 20:37 31.03.2020
5574 Clear 10 1014 50 10000 1.4 297 20:18 31.03.2020
5575 Clear 10 1014 50 10000 1.4 297 19:42 31.03.2020
5576 Clear 10 1014 50 10000 1.4 297 19:24 31.03.2020
5577 Clear 10 1014 50 10000 1.4 297 18:59 31.03.2020
5578 Clear 10 1014 50 10000 1.4 297 18:59 31.03.2020
5579 Clouds 10 1015 46 10000 1.4 297 18:40 31.03.2020
5580 Clouds 10 1015 46 10000 0.95 266 18:19 31.03.2020
5581 Clouds 10 1015 46 10000 0.95 266 17:55 31.03.2020
5582 Clouds 10 1015 70 10000 2.1 310 17:37 31.03.2020
5583 Clouds 10 1015 46 10000 0.95 266 17:19 31.03.2020
5584 Clouds 10 1015 46 10000 0.95 266 16:41 31.03.2020
5585 Clouds 11 1015 46 10000 0.95 266 16:20 31.03.2020
5586 Clouds 11 1015 43 10000 1.5 260 15:57 31.03.2020
5587 Clouds 11 1015 43 10000 1.5 260 15:39 31.03.2020
5588 Clouds 11 1015 43 10000 1.5 260 15:39 31.03.2020
5589 Clouds 11 1015 43 10000 1.5 260 15:21 31.03.2020
5590 Clear 12 1015 35 10000 1.81 271 14:57 31.03.2020
5591 Clear 11 1015 36 10000 1.96 265 14:38 31.03.2020
5592 Clear 12 1014 30 10000 1.5 310 14:20 31.03.2020
5593 Clear 12 1014 30 10000 1.5 310 13:43 31.03.2020
5594 Clear 12 1014 30 10000 1.5 310 13:20 31.03.2020
5595 Clear 12 1014 30 10000 1.5 310 13:19 31.03.2020
5596 Clear 12 1014 30 10000 1.5 310 13:19 31.03.2020
5597 Clouds 14 1014 30 10000 1.96 265 12:56 31.03.2020
5598 Clouds 14 1014 30 10000 1.96 265 12:38 31.03.2020
5599 Clear 14 1014 31 10000 2.56 266 12:19 31.03.2020
5600 Clear 16 1014 31 10000 2.56 266 11:39 31.03.2020
5601 Clear 16 1014 25 10000 2.56 266 11:20 31.03.2020
5602 Clear 17 1014 25 10000 2.56 266 10:58 31.03.2020
5603 Clear 17 1014 25 10000 2.56 266 10:39 31.03.2020
5604 Clear 17 1014 25 10000 2.56 266 10:21 31.03.2020
5605 Clouds 18 1015 27 10000 1.5 230 09:56 31.03.2020
5606 Clouds 18 1015 27 10000 1.5 230 09:37 31.03.2020
5607 Clouds 18 1015 27 10000 1.5 230 09:37 31.03.2020
5608 Clouds 18 1015 27 10000 1.5 230 09:37 31.03.2020
5609 Clouds 18 1015 27 10000 1.5 230 09:19 31.03.2020
5610 Clear 18 1015 27 10000 3.15 269 08:56 31.03.2020
5611 Clear 18 1015 27 10000 3.15 269 08:37 31.03.2020
5612 Clear 18 1015 27 10000 3.15 269 08:18 31.03.2020
5613 Clear 18 1016 25 10000 3.1 250 07:44 31.03.2020
5614 Clear 18 1017 26 10000 2.1 250 07:26 31.03.2020
5615 Clear 17 1017 26 10000 2.1 250 06:59 31.03.2020
5616 Clear 17 1017 26 10000 2.1 250 06:41 31.03.2020
5617 Clear 16 1018 29 10000 1.64 242 05:44 31.03.2020
5618 Clear 16 1018 29 10000 1.64 242 05:24 31.03.2020
5619 Clear 9 1020 42 10000 0.52 173 02:56 31.03.2020
5620 Clear 6 1020 65 10000 0.34 195 01:47 31.03.2020
5621 Clear 5 1020 65 10000 0.34 195 01:22 31.03.2020
5622 Clouds 2 1020 100 10000 1 300 00:43 31.03.2020
5623 Clouds 2 1020 100 10000 1 300 00:23 31.03.2020
5624 Clouds 2 1019 51 10000 1 350 23:40 30.03.2020
5625 Clouds 2 1019 51 10000 1 350 23:20 30.03.2020
5626 Clouds 1 1019 86 10000 2.6 130 22:57 30.03.2020
5627 Clouds 1 1019 86 10000 2.6 130 22:38 30.03.2020
5628 Clear 2 1020 51 10000 0.54 169 22:19 30.03.2020
5629 Clear 2 1020 51 10000 0.54 169 21:57 30.03.2020
5630 Clear 2 1020 51 10000 0.54 169 21:38 30.03.2020
5631 Clear 3 1020 48 10000 0.5 213 21:20 30.03.2020
5632 Clear 3 1020 48 10000 0.5 213 20:57 30.03.2020
5633 Clear 3 1020 48 10000 0.5 213 20:38 30.03.2020
5634 Clear 4 1020 48 10000 0.5 213 20:19 30.03.2020
5635 Clear 4 1020 48 10000 0.5 213 20:19 30.03.2020
5636 Clear 3 1020 65 10000 0.5 213 19:41 30.03.2020
5637 Clear 3 1020 65 10000 0.5 213 19:41 30.03.2020
5638 Clear 3 1020 65 10000 0.5 213 19:22 30.03.2020
5639 Clear 4 1020 60 10000 0.5 213 18:57 30.03.2020
5640 Clear 4 1020 60 10000 0.5 213 18:39 30.03.2020
5641 Clear 5 1020 45 10000 0.91 271 18:21 30.03.2020
5642 Clear 5 1020 45 10000 0.91 271 17:57 30.03.2020
5643 Clear 6 1020 45 10000 0.91 271 17:38 30.03.2020
5644 Clear 6 1021 39 10000 0.91 271 17:19 30.03.2020
5645 Clear 6 1021 39 10000 0.91 271 16:56 30.03.2020
5646 Clear 6 1021 39 10000 0.91 271 16:37 30.03.2020
5647 Clear 6 1021 39 10000 0.91 271 16:19 30.03.2020
5648 Clear 7 1020 36 10000 0.91 271 15:54 30.03.2020
5649 Clear 7 1020 36 10000 0.91 271 15:36 30.03.2020
5650 Clear 7 1020 36 10000 1.43 260 15:18 30.03.2020
5651 Clear 8 1020 34 10000 1.43 260 14:39 30.03.2020
5652 Clear 8 1020 34 10000 1.56 260 14:19 30.03.2020
5653 Clear 10 1019 40 10000 2.1 300 13:59 30.03.2020
5654 Clear 10 1019 40 10000 2.1 300 13:40 30.03.2020
5655 Clear 10 1019 40 10000 2.1 300 13:20 30.03.2020
5656 Clear 11 1019 32 10000 1.56 260 12:55 30.03.2020
5657 Clear 12 1019 32 10000 1.56 260 12:36 30.03.2020
5658 Clear 13 1018 33 10000 3.36 270 12:18 30.03.2020
5659 Clear 13 1018 33 10000 3.36 270 12:18 30.03.2020
5660 Clear 14 1018 33 10000 3.36 270 11:43 30.03.2020
5661 Clear 15 1018 33 10000 3.36 270 11:24 30.03.2020
5662 Clear 16 1018 26 10000 3.36 270 10:59 30.03.2020
5663 Clear 16 1018 26 10000 3.36 270 10:39 30.03.2020
5664 Clear 16 1018 26 10000 3.36 270 10:21 30.03.2020
5665 Clear 17 1018 25 10000 2.1 240 09:54 30.03.2020
5666 Clear 17 1018 25 10000 2.1 240 09:54 30.03.2020
5667 Clear 17 1018 25 10000 2.1 240 09:36 30.03.2020
5668 Clear 17 1018 25 10000 2.1 240 09:18 30.03.2020
5669 Clear 16 1018 21 10000 2.1 250 08:39 30.03.2020
5670 Clear 16 1018 21 10000 2.1 250 08:20 30.03.2020
5671 Clear 16 1019 22 10000 2.1 330 07:45 30.03.2020
5672 Clear 16 1019 22 10000 2.1 330 07:23 30.03.2020
5673 Clear 15 1020 26 10000 2.62 254 06:47 30.03.2020
5674 Clear 15 1020 26 10000 2.62 254 06:27 30.03.2020
5675 Clear 14 1021 28 10000 2.01 203 05:44 30.03.2020
5676 Clear 12 1021 32 10000 2.6 180 04:37 30.03.2020
5677 Clear 12 1022 40 10000 2.01 203 04:18 30.03.2020
5678 Clear 9 1022 46 10000 1.54 188 02:45 30.03.2020
5679 Clear 6 1022 61 10000 1.2 206 01:58 30.03.2020
5680 Clear 5 1022 61 10000 1.2 206 01:18 30.03.2020
5681 Clear 1 1021 48 10000 1.2 206 00:29 30.03.2020
5682 Clear 1 1021 57 10000 1.05 230 23:56 29.03.2020
5683 Clear 1 1021 57 10000 1.05 230 23:37 29.03.2020
5684 Clear 1 1021 57 10000 1.05 230 23:19 29.03.2020
5685 Clear 1 1020 57 10000 1.05 230 22:41 29.03.2020
5686 Clear 2 1020 57 10000 1.05 230 22:20 29.03.2020
5687 Clear 3 1020 75 10000 1.05 230 21:59 29.03.2020
5688 Clear 3 1020 75 10000 1.05 230 21:38 29.03.2020
5689 Clear 2 1020 75 10000 1.43 238 21:20 29.03.2020
5690 Clear 3 1020 70 10000 1.43 238 20:55 29.03.2020
5691 Clear 3 1020 70 10000 1.43 238 20:37 29.03.2020
5692 Clear 3 1020 70 10000 1.43 238 20:37 29.03.2020
5693 Clear 3 1020 56 10000 1.43 238 20:19 29.03.2020
5694 Clear 3 1020 56 10000 1.43 238 19:57 29.03.2020
5695 Clear 3 1020 56 10000 1.43 238 19:57 29.03.2020
5696 Clear 3 1020 56 10000 1.43 238 19:39 29.03.2020
5697 Clear 4 1020 56 10000 1.43 238 19:21 29.03.2020
5698 Clear 4 1020 48 10000 1.43 238 18:57 29.03.2020
5699 Clear 4 1020 48 10000 1.43 238 18:38 29.03.2020
5700 Clear 4 1020 52 10000 1.48 228 18:18 29.03.2020
5701 Clear 4 1020 52 10000 1.48 228 17:55 29.03.2020
5702 Clear 5 1020 52 10000 1.48 228 17:37 29.03.2020
5703 Clear 5 1020 52 10000 1.48 228 17:18 29.03.2020
5704 Clear 6 1020 42 10000 1.48 228 16:55 29.03.2020
5705 Clear 6 1020 42 10000 1.48 228 16:36 29.03.2020
5706 Clear 6 1020 39 10000 1.48 228 16:18 29.03.2020
5707 Clear 7 1020 39 10000 1.48 228 15:41 29.03.2020
5708 Clear 7 1020 39 10000 1.48 228 15:23 29.03.2020
5709 Clear 7 1020 39 10000 1.48 228 15:23 29.03.2020
5710 Clear 8 1020 39 10000 1.63 319 14:57 29.03.2020
5711 Clear 8 1020 39 10000 1.63 319 14:39 29.03.2020
5712 Clear 8 1020 34 10000 1.46 331 14:19 29.03.2020
5713 Clear 9 1020 34 10000 1.46 331 13:56 29.03.2020
5714 Clear 9 1020 34 10000 1.46 331 13:38 29.03.2020
5715 Clear 10 1020 34 10000 1.46 331 13:19 29.03.2020
5716 Clear 10 1019 40 10000 1.46 331 12:55 29.03.2020
5717 Clear 11 1019 40 10000 1.46 331 12:37 29.03.2020
5718 Haze 11 1019 37 9000 1.5 310 12:18 29.03.2020
5719 Haze 11 1019 37 9000 1.5 310 12:18 29.03.2020
5720 Haze 13 1019 37 9000 1.5 310 11:39 29.03.2020
5721 Haze 13 1019 35 9000 1.5 270 11:21 29.03.2020
5722 Haze 14 1019 35 9000 1.5 270 10:55 29.03.2020
5723 Haze 15 1019 35 9000 1.5 270 10:37 29.03.2020
5724 Haze 15 1019 35 9000 1.5 270 10:18 29.03.2020
5725 Clear 15 1019 25 10000 3.02 298 09:39 29.03.2020
5726 Clear 15 1019 25 10000 1.74 214 09:19 29.03.2020
5727 Clear 15 1019 28 10000 1.74 214 08:52 29.03.2020
5728 Clear 15 1019 28 10000 1.74 214 08:28 29.03.2020
5729 Clear 15 1020 26 10000 1.74 214 07:56 29.03.2020
5730 Clear 14 1020 26 10000 1.74 214 07:38 29.03.2020
5731 Clear 14 1020 26 10000 1.74 214 07:19 29.03.2020
5732 Clear 11 1023 34 10000 2.03 152 04:59 29.03.2020
5733 Clear 9 1023 36 10000 2.03 152 03:42 29.03.2020
5734 Clear 9 1023 36 10000 2.04 94 03:24 29.03.2020
5735 Clear 7 1023 36 10000 2.04 94 01:50 29.03.2020
5736 Clear 6 1024 38 10000 1.5 80 01:23 29.03.2020
5737 Clear 4 1024 38 10000 1.5 80 00:53 29.03.2020
5738 Clear 3 1024 38 10000 1.5 80 00:29 29.03.2020
5739 Clear 0 1023 55 10000 2.02 90 23:41 28.03.2020
5740 Clear 0 1023 56 10000 0.84 53 23:23 28.03.2020
5741 Clear -1 1023 56 10000 0.84 53 22:57 28.03.2020
5742 Clear -1 1023 56 10000 0.84 53 22:37 28.03.2020
5743 Clear -1 1023 56 10000 0.84 53 22:18 28.03.2020
5744 Clear -1 1022 56 10000 0.84 53 21:41 28.03.2020
5745 Clear -1 1022 56 10000 0.84 53 21:23 28.03.2020
5746 Clear 0 1022 55 10000 0.84 53 20:58 28.03.2020
5747 Clear 0 1022 55 10000 0.84 53 20:39 28.03.2020
5748 Clear 0 1022 55 10000 0.87 340 20:20 28.03.2020
5749 Clear 0 1022 55 10000 0.87 340 19:56 28.03.2020
5750 Clear 0 1022 55 10000 0.87 340 19:36 28.03.2020
5751 Clear 1 1022 51 10000 0.87 340 19:18 28.03.2020
5752 Clear 1 1022 51 10000 0.87 340 18:47 28.03.2020
5753 Clear 1 1022 51 10000 0.87 340 18:22 28.03.2020
5754 Clear 1 1022 51 10000 0.87 340 17:58 28.03.2020
5755 Clear 2 1022 44 10000 0.87 340 17:38 28.03.2020
5756 Clear 3 1022 35 10000 2.16 324 17:18 28.03.2020
5757 Clear 3 1022 35 10000 2.16 324 16:42 28.03.2020
5758 Clear 3 1022 35 10000 2.16 324 16:20 28.03.2020
5759 Clear 4 1021 33 10000 2.16 324 15:55 28.03.2020
5760 Clear 4 1021 33 10000 2.16 324 15:37 28.03.2020
5761 Clear 4 1021 33 10000 2.16 324 15:18 28.03.2020
5762 Clear 5 1021 28 10000 1.5 300 14:42 28.03.2020
5763 Clear 5 1021 28 10000 1.5 300 14:22 28.03.2020
5764 Clear 6 1021 28 10000 1.5 300 13:46 28.03.2020
5765 Clear 6 1021 28 10000 1.5 300 13:26 28.03.2020
5766 Clear 7 1020 21 10000 2.1 340 12:57 28.03.2020
5767 Clear 7 1020 21 10000 2.1 340 12:37 28.03.2020
5768 Clear 8 1019 18 10000 2.1 320 12:18 28.03.2020
5769 Clear 9 1019 18 10000 2.1 320 11:42 28.03.2020
5770 Clear 10 1019 17 10000 4.2 320 11:21 28.03.2020
5771 Clear 10 1019 17 10000 4.2 320 11:21 28.03.2020
5772 Clear 10 1019 17 10000 4.2 320 10:40 28.03.2020
5773 Clear 11 1019 17 10000 4.2 320 10:22 28.03.2020
5774 Clear 12 1018 16 10000 1.5 340 09:56 28.03.2020
5775 Clear 12 1018 16 10000 1.5 340 09:37 28.03.2020
5776 Clear 12 1018 17 10000 2.6 220 09:19 28.03.2020
5777 Clear 12 1018 17 10000 2.6 220 08:42 28.03.2020
5778 Clear 12 1018 17 10000 2.6 220 08:22 28.03.2020
5779 Clear 12 1019 17 10000 3.1 210 07:46 28.03.2020
5780 Clear 12 1019 17 10000 3.1 210 07:28 28.03.2020
5781 Clear 12 1019 17 10000 2.6 260 06:37 28.03.2020
5782 Clear 12 1019 17 10000 2.6 260 06:18 28.03.2020
5783 Clear 10 1021 19 10000 2.1 40 05:21 28.03.2020
5784 Clear 10 1021 19 10000 2.1 40 04:42 28.03.2020
5785 Clear 9 1023 19 10000 1.5 240 03:55 28.03.2020
5786 Clouds 7 1023 22 10000 1.5 350 02:26 28.03.2020
5787 Clear 6 1023 22 10000 1.5 310 01:43 28.03.2020
5788 Clear 6 1023 22 10000 1.5 310 01:18 28.03.2020
5789 Clear 5 1023 20 10000 5.24 340 00:45 28.03.2020
5790 Clear 5 1023 18 10000 1.5 350 23:59 27.03.2020
5791 Clear 4 1023 18 10000 1.5 350 23:41 27.03.2020
5792 Clear 4 1023 18 10000 1.5 350 23:41 27.03.2020
5793 Clear 4 1022 17 10000 6.18 341 23:21 27.03.2020
5794 Clear 4 1022 17 10000 6.18 341 22:56 27.03.2020
5795 Clear 4 1022 17 10000 6.18 341 22:37 27.03.2020
5796 Clear 4 1022 17 10000 6.18 341 22:19 27.03.2020
5797 Clouds 5 1022 17 10000 1.5 330 21:44 27.03.2020
5798 Clouds 5 1022 17 10000 1.5 330 21:25 27.03.2020
5799 Clouds 5 1022 17 10000 1.5 330 21:25 27.03.2020
5800 Clouds 6 1021 20 10000 2.1 330 20:59 27.03.2020
5801 Clouds 6 1021 20 10000 2.1 330 20:41 27.03.2020
5802 -273 0 0 0 0 0 20:20 27.03.2020
5803 Clouds 6 1021 24 10000 2.6 310 19:58 27.03.2020
5804 Clouds 6 1021 24 10000 2.6 310 19:39 27.03.2020
5805 Clouds 6 1021 24 10000 2.6 310 19:20 27.03.2020
5806 Clouds 7 1021 33 10000 2.6 320 18:44 27.03.2020
5807 Clouds 7 1021 33 10000 2.6 320 18:25 27.03.2020
5808 Clouds 7 1021 33 10000 2.6 320 17:58 27.03.2020
5809 Clear 7 1020 28 10000 3.1 330 17:39 27.03.2020
5810 Clouds 7 1020 31 10000 2.6 320 17:19 27.03.2020
5811 Clouds 7 1020 31 10000 2.6 320 16:44 27.03.2020
5812 Clouds 7 1020 31 10000 2.6 320 16:25 27.03.2020
5813 Clear 7 1019 31 10000 2.6 320 15:55 27.03.2020
5814 Clear 7 1019 31 10000 2.6 320 15:37 27.03.2020
5815 Clear 8 1018 31 10000 6.99 325 15:19 27.03.2020
5816 Clear 8 1018 31 10000 6.99 325 14:43 27.03.2020
5817 Clear 9 1017 34 10000 6.61 320 14:24 27.03.2020
5818 Clear 9 1017 34 10000 6.61 320 13:55 27.03.2020
5819 Clear 9 1017 34 10000 6.61 320 13:36 27.03.2020
5820 Clear 10 1015 34 10000 1.5 280 13:18 27.03.2020
5821 Clear 10 1015 34 10000 1.5 280 12:42 27.03.2020
5822 Clear 10 1015 34 10000 1.5 280 12:19 27.03.2020
5823 Clear 12 1014 34 10000 6.27 316 11:55 27.03.2020
5824 Clear 12 1014 34 10000 6.27 316 11:55 27.03.2020
5825 Clear 12 1014 34 10000 6.27 316 11:36 27.03.2020
5826 Clear 13 1013 35 10000 6.16 302 11:18 27.03.2020
5827 Clear 13 1013 35 10000 6.16 302 10:41 27.03.2020
5828 Clear 14 1013 33 10000 2.1 310 10:22 27.03.2020
5829 Clear 15 1013 33 10000 2.1 310 09:58 27.03.2020
5830 Clear 15 1013 33 10000 2.1 310 09:40 27.03.2020
5831 Clear 15 1013 33 10000 2.1 310 09:21 27.03.2020
5832 Clear 16 1013 38 10000 2.6 290 08:58 27.03.2020
5833 Clear 16 1013 38 10000 2.6 290 08:39 27.03.2020
5834 Clear 16 1012 44 10000 2.6 320 08:21 27.03.2020
5835 Clear 17 1012 44 10000 2.6 320 07:53 27.03.2020
5836 Clear 17 1012 44 10000 2.6 320 07:28 27.03.2020
5837 Clear 16 1012 44 10000 2.6 320 06:59 27.03.2020
5838 Clear 16 1011 48 10000 1.5 310 06:37 27.03.2020
5839 Clouds 16 1012 58 10000 2.6 310 05:38 27.03.2020
5840 Clouds 14 1012 82 10000 2.1 270 02:51 27.03.2020
5841 Mist 11 1012 87 6000 1.5 270 01:50 27.03.2020
5842 Mist 12 1011 87 6000 3.2 298 00:55 27.03.2020
5843 Mist 12 1010 87 6000 3.2 298 00:32 27.03.2020
5844 Mist 12 1010 93 6000 3.2 298 23:44 26.03.2020
5845 Rain 12 1010 93 6000 3.2 298 23:24 26.03.2020
5846 Rain 13 1010 93 6000 2.37 307 22:59 26.03.2020
5847 Rain 13 1010 93 6000 2.37 307 22:59 26.03.2020
5848 Rain 13 1010 93 6000 2.37 307 22:39 26.03.2020
5849 Rain 13 1010 93 6000 2.37 307 22:20 26.03.2020
5850 Rain 13 1010 93 4800 2.37 307 21:57 26.03.2020
5851 Rain 13 1010 93 4800 2.37 307 21:39 26.03.2020
5852 Rain 13 1010 93 4800 2.37 307 21:20 26.03.2020
5853 Rain 13 1010 93 4800 1.5 280 20:58 26.03.2020
5854 Rain 13 1010 93 4800 2.37 307 20:38 26.03.2020
5855 Rain 13 1010 93 4800 2.37 307 20:38 26.03.2020
5856 Rain 13 1010 93 4800 1.61 308 20:20 26.03.2020
5857 Rain 13 1010 93 4800 1.4 309 20:20 26.03.2020
5858 Mist 13 1010 100 3600 1.61 308 19:56 26.03.2020
5859 Rain 13 1010 100 4000 1.61 308 19:37 26.03.2020
5860 Mist 14 1011 93 3600 1.61 308 19:19 26.03.2020
5861 Mist 14 1011 93 3600 1.61 308 18:55 26.03.2020
5862 Rain 14 1011 100 2800 1.61 308 18:36 26.03.2020
5863 Rain 14 1011 100 4800 1.61 308 18:18 26.03.2020
5864 Rain 14 1011 100 3200 1.61 308 17:42 26.03.2020
5865 Rain 14 1011 100 3200 1.26 356 17:18 26.03.2020
5866 Rain 14 1011 100 3600 1.26 356 16:45 26.03.2020
5867 Rain 14 1011 100 3600 1.26 356 16:45 26.03.2020
5868 Rain 14 1011 100 3600 1.26 356 16:26 26.03.2020
5869 Rain 14 1012 100 2600 1.26 356 15:58 26.03.2020
5870 Mist 14 1012 93 4400 1.26 356 15:39 26.03.2020
5871 Mist 14 1012 93 4400 1.26 356 15:21 26.03.2020
5872 Rain 15 1012 93 4400 1.26 356 14:57 26.03.2020
5873 Mist 15 1012 87 8000 1.26 356 14:38 26.03.2020
5874 Mist 15 1012 87 8000 0.8 46 14:18 26.03.2020
5875 Mist 15 1012 87 9000 0.8 46 13:41 26.03.2020
5876 Mist 15 1012 87 9000 0.8 46 13:23 26.03.2020
5877 Mist 15 1012 87 9000 1.5 60 12:56 26.03.2020
5878 Clouds 15 1012 87 10000 1.41 85 12:37 26.03.2020
5879 Clouds 16 1012 87 10000 1.41 85 12:18 26.03.2020
5880 Mist 16 1012 87 8000 1.41 85 11:44 26.03.2020
5881 Haze 16 1012 77 9000 0.87 46 11:20 26.03.2020
5882 Haze 17 1012 77 9000 0.87 46 10:55 26.03.2020
5883 Haze 17 1012 67 9000 3.6 150 10:36 26.03.2020
5884 Haze 17 1012 67 9000 3.6 150 10:18 26.03.2020
5885 Clouds 19 1012 52 10000 2.1 150 09:42 26.03.2020
5886 Clouds 19 1012 52 10000 2.1 150 09:19 26.03.2020
5887 Clouds 19 1012 52 10000 2.1 180 09:19 26.03.2020
5888 Clouds 20 1013 45 10000 2.6 170 08:44 26.03.2020
5889 Clouds 20 1013 40 10000 2.1 180 08:26 26.03.2020
5890 Clouds 20 1013 40 10000 2.1 180 07:57 26.03.2020
5891 Clouds 20 1013 40 10000 2.1 180 07:57 26.03.2020
5892 Clouds 20 1013 40 10000 2.1 180 07:38 26.03.2020
5893 Clouds 20 1014 32 10000 1.55 101 07:19 26.03.2020
5894 Clouds 21 1014 32 10000 1.55 101 06:33 26.03.2020
5895 Clouds 21 1015 34 10000 1.5 20 05:48 26.03.2020
5896 Clouds 19 1016 34 10000 3.6 100 03:46 26.03.2020
5897 Haze 17 1017 41 9000 2.6 50 02:58 26.03.2020
5898 Haze 17 1017 41 9000 2.6 50 02:58 26.03.2020
5899 Clear 14 1018 47 10000 1.62 97 01:51 26.03.2020
5900 Clear 13 1018 58 10000 1.62 97 01:18 26.03.2020
5901 Clear 11 1018 58 10000 1.6 87 00:32 26.03.2020
5902 Clear 6 1018 70 10000 1.6 87 23:44 25.03.2020
5903 Clear 6 1018 70 10000 1.6 87 23:24 25.03.2020
5904 Clear 6 1018 70 10000 1.08 91 22:43 25.03.2020
5905 Clear 6 1018 70 10000 1.08 91 22:23 25.03.2020
5906 Clear 7 1018 70 10000 1.08 91 21:59 25.03.2020
5907 Clear 7 1018 70 10000 1.08 91 21:41 25.03.2020
5908 Clear 7 1018 70 10000 1.08 91 21:23 25.03.2020
5909 Clear 7 1018 93 6000 1.5 320 20:57 25.03.2020
5910 Clear 7 1018 93 6000 1.5 320 20:38 25.03.2020
5911 Clear 7 1018 93 6000 1.5 320 20:38 25.03.2020
5912 Clear 7 1018 70 10000 0.61 98 20:18 25.03.2020
5913 Clear 8 1018 70 10000 0.55 70 19:43 25.03.2020
5914 Clear 8 1018 70 10000 0.55 70 19:24 25.03.2020
5915 Clear 8 1018 70 10000 0.61 82 18:59 25.03.2020
5916 Clear 8 1018 70 10000 0.55 70 18:41 25.03.2020
5917 Clear 8 1018 70 10000 0.55 70 18:23 25.03.2020
5918 Clear 8 1018 70 10000 0.55 70 17:58 25.03.2020
5919 Clear 8 1018 70 10000 0.55 70 17:58 25.03.2020
5920 Clear 8 1018 66 10000 0.55 70 17:39 25.03.2020
5921 Clear 9 1019 61 10000 0.2 20 17:21 25.03.2020
5922 Clear 10 1019 61 10000 0.2 20 16:55 25.03.2020
5923 Clear 10 1019 61 10000 0.2 20 16:36 25.03.2020
5924 Clear 10 1019 61 10000 0.2 20 16:18 25.03.2020
5925 Clear 10 1019 61 10000 0.2 20 15:41 25.03.2020
5926 Clear 10 1019 61 10000 0.59 52 15:20 25.03.2020
5927 Clear 11 1019 62 10000 0.2 20 14:56 25.03.2020
5928 Clear 11 1019 62 10000 0.2 20 14:37 25.03.2020
5929 Clear 11 1019 62 10000 0.8 322 14:18 25.03.2020
5930 Clear 12 1019 58 10000 0.8 322 13:42 25.03.2020
5931 Clear 12 1019 58 10000 0.8 322 13:22 25.03.2020
5932 Clear 14 1018 50 10000 0.81 337 12:38 25.03.2020
5933 Clouds 14 1018 38 10000 0.81 337 12:20 25.03.2020
5934 Clouds 14 1018 38 10000 0.81 337 11:56 25.03.2020
5935 Clouds 14 1018 38 10000 0.81 337 11:38 25.03.2020
5936 Clouds 15 1019 38 10000 3.37 285 11:20 25.03.2020
5937 Clouds 16 1019 38 10000 3.37 285 10:57 25.03.2020
5938 Clouds 16 1019 38 10000 3.37 285 10:39 25.03.2020
5939 Clouds 16 1019 38 10000 3.37 285 10:18 25.03.2020
5940 Clouds 17 1018 36 10000 3.37 285 09:43 25.03.2020
5941 Clouds 17 1018 36 10000 3.37 285 09:24 25.03.2020
5942 Clouds 18 1018 36 10000 3.1 270 08:57 25.03.2020
5943 Clouds 18 1018 36 10000 3.1 270 08:39 25.03.2020
5944 Clouds 18 1018 27 10000 3.1 270 08:19 25.03.2020
5945 Clouds 19 1018 24 10000 2.73 243 07:41 25.03.2020
5946 Clouds 19 1018 24 10000 2.73 243 07:22 25.03.2020
5947 Clear 19 1019 24 10000 1.5 270 06:48 25.03.2020
5948 Clear 19 1019 24 10000 1.5 270 06:28 25.03.2020
5949 Clear 18 1019 24 10000 1.5 270 05:56 25.03.2020
5950 Haze 18 1021 25 8000 2.73 243 05:30 25.03.2020
5951 Haze 18 1021 25 8000 2.28 197 04:39 25.03.2020
5952 Haze 15 1021 30 8000 1.5 10 03:36 25.03.2020
5953 Clear 14 1022 35 10000 2.28 197 02:31 25.03.2020
5954 Clear 11 1021 40 10000 1.5 130 01:21 25.03.2020
5955 Clear 8 1021 39 10000 0.91 147 00:48 25.03.2020
5956 Clear 8 1021 39 10000 0.91 147 00:23 25.03.2020
5957 Clear 4 1021 69 10000 0.91 147 23:45 24.03.2020
5958 Clear 4 1021 69 10000 0.91 147 23:26 24.03.2020
5959 Clear 4 1021 65 10000 0.79 136 22:56 24.03.2020
5960 Clear 4 1021 65 10000 0.79 136 22:37 24.03.2020
5961 Clear 4 1021 65 10000 0.79 136 22:19 24.03.2020
5962 Clear 4 1021 65 10000 0.79 136 22:19 24.03.2020
5963 Clear 4 1020 69 10000 0.79 136 21:56 24.03.2020
5964 Clear 4 1020 69 10000 0.79 136 21:37 24.03.2020
5965 Clear 4 1020 65 10000 0.79 136 21:18 24.03.2020
5966 Clear 5 1020 65 10000 0.79 136 20:43 24.03.2020
5967 Clear 5 1020 65 10000 0.79 136 20:24 24.03.2020
5968 Clear 5 1020 65 10000 0.9 172 19:59 24.03.2020
5969 Clear 5 1020 65 10000 0.9 172 19:41 24.03.2020
5970 Clear 5 1020 65 10000 0.9 172 19:19 24.03.2020
5971 Clear 5 1020 65 10000 0.9 172 18:55 24.03.2020
5972 Clear 6 1020 60 10000 0.9 172 18:36 24.03.2020
5973 Clear 6 1020 60 10000 0.9 172 18:18 24.03.2020
5974 Clear 6 1020 60 10000 0.9 172 17:42 24.03.2020
5975 Clear 6 1020 56 10000 0.9 172 17:22 24.03.2020
5976 Clear 6 1022 60 10000 0.84 250 16:58 24.03.2020
5977 Clear 6 1021 60 10000 0.5 180 16:39 24.03.2020
5978 Clear 6 1022 60 10000 1 160 16:21 24.03.2020
5979 Clear 7 1022 48 10000 0.5 120 15:57 24.03.2020
5980 Clear 7 1021 56 10000 0.5 280 15:37 24.03.2020
5981 Clear 7 1022 48 10000 0.5 120 15:19 24.03.2020
5982 Clear 8 1021 49 10000 0.5 170 14:42 24.03.2020
5983 Clear 10 1021 40 10000 1.55 268 14:19 24.03.2020
5984 Clear 10 1020 34 10000 1.55 268 13:42 24.03.2020
5985 Clear 10 1020 34 10000 1.68 260 13:24 24.03.2020
5986 Clear 12 1020 32 10000 1.68 260 12:54 24.03.2020
5987 Clear 12 1020 32 10000 1.68 260 12:36 24.03.2020
5988 Clear 12 1019 30 10000 1.68 260 12:18 24.03.2020
5989 Clear 12 1019 30 10000 1.68 260 12:18 24.03.2020
5990 Clear 13 1019 30 10000 1.68 260 11:39 24.03.2020
5991 Clear 13 1018 28 10000 1 220 11:19 24.03.2020
5992 Clear 15 1018 26 10000 0.5 240 10:43 24.03.2020
5993 Clear 15 1018 26 10000 0.5 240 10:43 24.03.2020
5994 Clear 16 1018 29 10000 3.19 270 10:20 24.03.2020
5995 Clear 17 1020 29 10000 2.1 280 09:58 24.03.2020
5996 Clear 17 1018 17 10000 1.5 220 09:39 24.03.2020
5997 Clear 17 1020 20 10000 2.6 240 09:21 24.03.2020
5998 Clear 17 1018 18 10000 2.1 210 08:38 24.03.2020
5999 Clear 17 1018 25 10000 2.6 270 08:20 24.03.2020
6000 Clear 17 1020 20 10000 2.1 160 07:47 24.03.2020
6001 Clear 17 1020 21 10000 2.1 40 07:24 24.03.2020
6002 Clear 17 1021 21 10000 1.5 130 06:52 24.03.2020
6003 Clear 17 1020 17 10000 2.6 230 06:25 24.03.2020
6004 Clear 15 1022 19 10000 2.6 200 04:57 24.03.2020
6005 Clear 14 1023 22 10000 1.5 190 03:48 24.03.2020
6006 Clear 12 1023 32 10000 2.1 160 02:49 24.03.2020
6007 Clear 9 1022 45 10000 1.5 10 01:42 24.03.2020
6008 Clear 6 1021 60 10000 0.5 30 00:44 24.03.2020
6009 Haze 6 1023 41 6000 0.5 210 00:23 24.03.2020
6010 Mist 2 1022 86 4000 0.5 90 23:44 23.03.2020
6011 Mist 2 1022 86 4000 0.5 90 23:26 23.03.2020
6012 Mist 2 1022 86 4000 0.5 90 23:26 23.03.2020
6013 Mist 2 1022 43 3200 0.5 80 22:55 23.03.2020
6014 Haze 2 1021 69 8000 0.7 45 22:36 23.03.2020
6015 Haze 2 1021 69 8000 0.7 45 22:18 23.03.2020
6016 Clear 2 1020 86 10000 0.5 180 21:42 23.03.2020
6017 Clear 3 1020 86 10000 0.5 180 21:20 23.03.2020
6018 Clear 3 1021 43 6000 1 90 20:57 23.03.2020
6019 Clear 3 1021 43 6000 1 90 20:57 23.03.2020
6020 Clear 3 1020 80 10000 0.5 180 20:38 23.03.2020
6021 Clear 4 1019 35 10000 1.5 350 20:19 23.03.2020
6022 Clear 4 1019 74 10000 0.5 150 19:45 23.03.2020
6023 Clear 4 1019 75 10000 0.69 322 19:27 23.03.2020
6024 Clear 4 1019 75 10000 0.69 322 18:57 23.03.2020
6025 Haze 5 1021 69 8000 1 150 18:39 23.03.2020
6026 Clear 5 1019 70 10000 0.69 322 18:20 23.03.2020
6027 Clear 5 1020 69 10000 1 330 17:42 23.03.2020
6028 Clear 5 1019 69 10000 0.5 160 17:21 23.03.2020
6029 Clear 6 1018 65 10000 1.44 309 16:57 23.03.2020
6030 Clear 6 1020 60 10000 1 60 16:39 23.03.2020
6031 Clear 6 1018 86 8000 1.5 300 16:20 23.03.2020
6032 Clear 7 1018 56 10000 0.5 180 15:42 23.03.2020
6033 Clear 7 1020 34 10000 0.5 130 15:20 23.03.2020
6034 Clear 8 1019 34 10000 0.5 130 14:38 23.03.2020
6035 Clear 8 1017 52 10000 0.5 120 14:20 23.03.2020
6036 Clear 8 1017 52 10000 0.5 120 14:20 23.03.2020
6037 Clear 9 1019 43 10000 1.5 150 13:59 23.03.2020
6038 Clear 9 1017 49 10000 0.5 140 13:40 23.03.2020
6039 Clear 9 1017 46 10000 1 170 13:20 23.03.2020
6040 Clear 10 1017 37 10000 0.5 250 12:45 23.03.2020
6041 Clear 10 1016 32 10000 1.5 270 12:25 23.03.2020
6042 Clear 11 1016 37 10000 2.6 320 11:59 23.03.2020
6043 Clear 12 1017 32 10000 0.5 350 11:40 23.03.2020
6044 Clear 13 1017 38 10000 2.1 270 11:19 23.03.2020
6045 Clear 13 1015 38 10000 0.5 290 10:57 23.03.2020
6046 Clear 14 1017 38 10000 2.6 270 10:38 23.03.2020
6047 Clear 14 1017 38 10000 2.6 270 10:20 23.03.2020
6048 Clear 16 1014 20 10000 1 280 09:44 23.03.2020
6049 Clear 16 1015 31 10000 4.6 250 09:21 23.03.2020
6050 Clear 16 1016 23 10000 1.5 220 08:56 23.03.2020
6051 Thunderstorm 17 1016 26 10000 3.6 280 08:36 23.03.2020
6052 Thunderstorm 17 1016 26 10000 3.6 280 08:18 23.03.2020
6053 Clear 17 1014 27 10000 1.5 220 07:42 23.03.2020
6054 Haze 17 1015 29 9000 5.62 291 07:21 23.03.2020
6055 Clear 16 1014 27 10000 2.6 210 06:49 23.03.2020
6056 Clear 16 1015 25 10000 1 210 05:51 23.03.2020
6057 Haze 15 1016 31 9000 2.6 200 04:58 23.03.2020
6058 Clear 13 1018 28 10000 0.5 150 03:26 23.03.2020
6059 Clear 10 1018 39 10000 1.5 210 01:50 23.03.2020
6060 Clear 6 1019 45 10000 1 260 00:52 23.03.2020
6061 Haze 6 1020 64 9000 0.5 330 00:33 23.03.2020
6062 Clear 3 1020 69 10000 0.5 160 23:46 22.03.2020
6063 Clear 2 1018 48 10000 1.93 215 23:25 22.03.2020
6064 Clear 2 1019 35 10000 0.5 70 22:45 22.03.2020
6065 Clear 2 1019 35 10000 0.5 70 22:23 22.03.2020
6066 Clear 2 1019 35 10000 0.5 340 21:55 22.03.2020
6067 Clear 2 1018 35 10000 0.5 150 21:37 22.03.2020
6068 Clear 2 1017 64 10000 1 170 21:19 22.03.2020
6069 Clear 2 1017 55 10000 0.5 180 20:46 22.03.2020
6070 Clear 2 1017 51 10000 1.25 233 20:25 22.03.2020
6071 Clear 2 1017 51 10000 0.81 254 20:25 22.03.2020
6072 Clear 4 1018 51 10000 1 120 19:58 22.03.2020
6073 Clear 4 1017 51 10000 0.5 150 19:40 22.03.2020
6074 Clear 4 1018 55 10000 0.5 140 19:20 22.03.2020
6075 Clear 5 1019 51 10000 1 140 18:58 22.03.2020
6076 Clear 5 1019 51 10000 0.5 140 18:40 22.03.2020
6077 Clear 5 1019 51 10000 0.5 140 18:21 22.03.2020
6078 Clear 5 1019 47 10000 2.1 130 17:57 22.03.2020
6079 Clear 5 1020 51 10000 1 130 17:38 22.03.2020
6080 Clear 5 1017 41 10000 0.5 130 17:20 22.03.2020
6081 Clear 6 1020 44 10000 0.5 280 16:57 22.03.2020
6082 Clear 7 1017 31 10000 1.49 269 16:39 22.03.2020
6083 Clear 7 1018 48 10000 1.5 290 16:21 22.03.2020
6084 Clear 7 1017 31 10000 1.49 269 16:20 22.03.2020
6085 Clear 8 1017 29 10000 1.5 340 15:40 22.03.2020
6086 Clear 8 1018 45 10000 3.6 330 15:21 22.03.2020
6087 Clear 9 1019 31 10000 1.5 360 14:46 22.03.2020
6088 Clear 9 1017 45 10000 4.1 340 14:19 22.03.2020
6089 Clear 9 1017 45 10000 4.1 340 14:19 22.03.2020
6090 Clear 10 1016 20 10000 1 270 13:44 22.03.2020
6091 Clear 10 1018 29 10000 3.1 330 13:20 22.03.2020
6092 Clear 10 1015 18 10000 1 290 13:20 22.03.2020
6093 Clear 11 1018 29 10000 2.1 310 12:58 22.03.2020
6094 Clear 11 1015 17 10000 1.5 360 12:39 22.03.2020
6095 Clear 12 1017 25 10000 2.1 300 12:19 22.03.2020
6096 Clear 12 1016 23 10000 2.1 320 11:43 22.03.2020
6097 Clear 12 1016 23 10000 2.1 320 11:25 22.03.2020
6098 Clear 14 1013 16 10000 2.1 320 10:58 22.03.2020
6099 Haze 14 1013 20 9000 5.95 320 10:40 22.03.2020
6100 Haze 14 1013 20 9000 5.95 320 10:21 22.03.2020
6101 Clear 15 1012 14 10000 1.5 330 09:45 22.03.2020
6102 Clear 15 1014 17 10000 6.2 330 09:27 22.03.2020
6103 Clear 16 1014 18 10000 3.6 330 08:48 22.03.2020
6104 Haze 16 1012 20 8000 5.95 320 08:30 22.03.2020
6105 Haze 17 1012 18 8000 2.1 240 07:54 22.03.2020
6106 Haze 17 1012 18 8000 2.1 240 07:36 22.03.2020
6107 Clear 16 1014 15 10000 2.6 320 06:41 22.03.2020
6108 Clear 16 1012 14 10000 1.5 290 05:41 22.03.2020
6109 Clear 15 1013 22 10000 2.1 290 04:39 22.03.2020
6110 Clear 10 1015 46 10000 1.5 340 01:45 22.03.2020
6111 Clear 8 1014 71 10000 0.5 320 00:49 22.03.2020
6112 Clear 8 1017 60 10000 2.1 10 00:30 22.03.2020
6113 Clear 6 1014 93 10000 0.5 300 23:45 21.03.2020
6114 Clear 6 1014 93 10000 1.15 288 23:22 21.03.2020
6115 Clear 6 1016 64 10000 1 60 22:58 21.03.2020
6116 Clear 6 1013 81 10000 1.5 270 22:37 21.03.2020
6117 Clear 6 1014 56 10000 4.6 330 22:19 21.03.2020
6118 Clear 6 1015 56 10000 1.5 70 21:57 21.03.2020
6119 Clear 6 1012 87 10000 0.5 180 21:38 21.03.2020
6120 Clear 6 1012 87 10000 1.15 288 21:18 21.03.2020
6121 Clear 7 1012 81 10000 1.5 210 20:42 21.03.2020
6122 Clouds 8 1012 93 10000 0.86 288 20:21 21.03.2020
6123 Mist 8 1014 100 2400 1 140 19:54 21.03.2020
6124 Mist 9 1012 93 9000 1.5 230 19:36 21.03.2020
6125 Mist 9 1014 100 3200 0.5 120 19:18 21.03.2020
6126 Mist 10 1012 93 8000 0.86 288 18:40 21.03.2020
6127 Mist 10 1012 87 8000 1.5 310 18:20 21.03.2020
6128 -273 0 0 0 0 0 17:58 21.03.2020
6129 Mist 10 1014 100 3200 1 200 17:39 21.03.2020
6130 Mist 11 1012 87 9000 1.88 273 17:21 21.03.2020
6131 Clouds 11 1011 81 10000 1.88 273 16:42 21.03.2020
6132 Clouds 11 1011 81 10000 1.88 273 16:22 21.03.2020
6133 Clouds 11 1011 81 10000 1.5 210 15:58 21.03.2020
6134 Clouds 11 1011 71 10000 0.5 180 15:39 21.03.2020
6135 Clear 11 1013 93 6000 1 190 15:21 21.03.2020
6136 Clouds 12 1012 93 6000 0.5 180 14:55 21.03.2020
6137 Clouds 12 1010 76 10000 1.88 273 14:37 21.03.2020
6138 Clouds 12 1010 76 10000 2.16 242 14:18 21.03.2020
6139 Clouds 12 1012 87 8000 1 190 13:57 21.03.2020
6140 Clouds 12 1009 67 10000 0.5 220 13:38 21.03.2020
6141 Clouds 12 1009 67 10000 1.5 180 13:19 21.03.2020
6142 Haze 13 1011 81 8000 2.05 235 12:41 21.03.2020
6143 Clear 13 1009 76 10000 2.05 235 12:20 21.03.2020
6144 Clouds 14 1008 59 10000 2.1 210 11:59 21.03.2020
6145 Haze 15 1011 71 9000 1.5 290 11:39 21.03.2020
6146 Clouds 15 1008 55 10000 2.1 230 11:20 21.03.2020
6147 Haze 16 1011 67 4800 1.5 290 10:58 21.03.2020
6148 Clouds 16 1008 48 10000 1.5 360 10:39 21.03.2020
6149 Clouds 17 1008 59 10000 2.6 240 10:21 21.03.2020
6150 Clouds 18 1010 55 10000 1 260 09:59 21.03.2020
6151 Clear 18 1008 42 10000 1.5 290 09:39 21.03.2020
6152 Clear 18 1007 42 10000 1 320 09:20 21.03.2020
6153 Clouds 19 1010 51 10000 2.6 230 08:55 21.03.2020
6154 Haze 19 1010 51 9000 2.6 220 08:37 21.03.2020
6155 Haze 19 1010 51 9000 2.6 220 08:18 21.03.2020
6156 Clear 19 1008 34 10000 1 260 07:33 21.03.2020
6157 Haze 17 1011 58 9000 3.1 290 06:56 21.03.2020
6158 Haze 18 1012 58 8000 1.5 230 06:36 21.03.2020
6159 Clouds 16 1010 48 10000 1.5 110 06:18 21.03.2020
6160 Clear 16 1012 45 10000 1.5 140 05:23 21.03.2020
6161 Clouds 14 1013 54 10000 1 200 03:38 21.03.2020
6162 Clouds 11 1015 66 10000 2.1 170 02:36 21.03.2020
6163 Clouds 10 1014 42 10000 1 220 01:42 21.03.2020
6164 Clouds 10 1014 57 10000 1.4 159 01:21 21.03.2020
6165 Clouds 9 1015 66 10000 0.5 190 00:38 21.03.2020
6166 Clouds 8 1015 66 10000 0.5 270 23:59 20.03.2020
6167 Clouds 8 1014 66 10000 1.5 170 23:41 20.03.2020
6168 Clouds 8 1014 56 10000 1 160 23:20 20.03.2020
6169 Clouds 8 1014 56 10000 0.5 170 22:43 20.03.2020
6170 Clouds 7 1013 57 10000 1.65 175 22:24 20.03.2020
6171 Clouds 7 1014 61 10000 2.1 180 21:58 20.03.2020
6172 Clouds 7 1013 56 10000 0.5 180 21:39 20.03.2020
6173 Clouds 7 1013 61 10000 2.6 160 21:19 20.03.2020
6174 Clouds 7 1014 57 10000 2.6 170 20:57 20.03.2020
6175 Clouds 6 1013 60 10000 1.65 175 20:39 20.03.2020
6176 Clouds 6 1013 60 10000 0.5 200 20:18 20.03.2020
6177 Clouds 6 1014 70 10000 1 160 19:46 20.03.2020
6178 Clouds 6 1013 55 10000 0.5 340 19:19 20.03.2020
6179 Clouds 6 1014 70 10000 1.5 150 18:56 20.03.2020
6180 Clouds 6 1014 70 10000 1.5 150 18:56 20.03.2020
6181 Clouds 5 1014 60 10000 0.5 10 18:37 20.03.2020
6182 Clouds 6 1013 56 10000 3.55 216 18:19 20.03.2020
6183 Clear 6 1014 60 10000 1 10 17:40 20.03.2020
6184 Clear 6 1013 51 10000 1 170 17:21 20.03.2020
6185 Clear 6 1014 56 10000 2.6 180 16:59 20.03.2020
6186 Clear 6 1013 51 10000 2.79 194 16:41 20.03.2020
6187 Clouds 6 1013 42 10000 2.79 194 16:19 20.03.2020
6188 Clouds 5 1014 48 10000 0.5 190 15:43 20.03.2020
6189 Clear 6 1015 52 10000 1 210 15:22 20.03.2020
6190 Clouds 7 1015 39 10000 1 140 14:56 20.03.2020
6191 Clouds 7 1014 48 10000 2.1 190 14:38 20.03.2020
6192 Clouds 7 1014 48 10000 2.1 190 14:19 20.03.2020
6193 Clear 8 1013 45 10000 5.22 205 13:45 20.03.2020
6194 Clear 9 1013 42 10000 0.5 190 13:19 20.03.2020
6195 Clear 9 1013 36 10000 0.5 350 12:41 20.03.2020
6196 Clear 10 1012 29 10000 5.71 211 12:23 20.03.2020
6197 Clear 10 1012 31 10000 1.5 170 11:59 20.03.2020
6198 Clouds 10 1014 39 10000 2.1 210 11:38 20.03.2020
6199 Clouds 11 1012 29 10000 1.5 180 11:19 20.03.2020
6200 Clouds 11 1012 23 10000 2.1 180 10:42 20.03.2020
6201 Clouds 12 1012 34 10000 4.6 220 10:21 20.03.2020
6202 Clouds 12 1013 32 10000 5.7 220 09:59 20.03.2020
6203 Clouds 12 1013 32 10000 5.7 220 09:59 20.03.2020
6204 Clear 13 1012 22 10000 1.5 200 09:41 20.03.2020
6205 Clear 13 1012 28 10000 6.71 223 09:19 20.03.2020
6206 Clouds 13 1012 17 10000 2.1 280 08:43 20.03.2020
6207 Clouds 13 1013 20 10000 3.1 230 08:22 20.03.2020
6208 Clouds 13 1013 20 10000 3.1 230 08:22 20.03.2020
6209 Clouds 13 1014 23 10000 5.7 220 07:55 20.03.2020
6210 Clear 13 1012 15 10000 2.6 260 07:37 20.03.2020
6211 Clouds 13 1013 17 10000 1.5 220 07:18 20.03.2020
6212 Clear 14 1014 23 10000 7.2 240 06:41 20.03.2020
6213 Clear 13 1015 26 10000 5.1 220 04:52 20.03.2020
6214 Clear 12 1014 25 10000 1.5 210 03:40 20.03.2020
6215 Clear 10 1016 51 10000 1.5 240 02:20 20.03.2020
6216 Clear 8 1016 51 10000 1.5 180 01:33 20.03.2020
6217 Clear 5 1016 60 10000 1 180 00:33 20.03.2020
6218 Clear 2 1015 69 10000 1 140 23:49 19.03.2020
6219 Clear 1 1015 60 10000 1.5 180 23:30 19.03.2020
6220 Clear 1 1014 60 10000 0.5 160 22:57 19.03.2020
6221 Clear 1 1016 60 10000 1.99 254 22:38 19.03.2020
6222 Clear 2 1014 60 10000 1 190 22:20 19.03.2020
6223 Clear 3 1014 69 10000 1 180 21:42 19.03.2020
6224 Clear 3 1014 69 10000 0.5 200 21:20 19.03.2020
6225 Clear 4 1015 74 10000 1 200 21:00 19.03.2020
6226 Clear 4 1014 64 10000 0.5 130 20:41 19.03.2020
6227 Clear 4 1014 64 10000 0.5 160 20:23 19.03.2020
6228 Clear 4 1015 74 10000 1 190 19:55 19.03.2020
6229 Clear 4 1014 64 10000 1 170 19:37 19.03.2020
6230 Clear 5 1013 55 10000 0.5 150 19:19 19.03.2020
6231 Clear 5 1013 52 10000 0.5 210 18:55 19.03.2020
6232 Clear 5 1015 64 10000 3.1 230 18:37 19.03.2020
6233 Clear 5 1015 64 10000 3.1 230 18:37 19.03.2020
6234 Clear 5 1013 56 10000 4.21 276 18:19 19.03.2020
6235 Clear 6 1015 56 10000 2.1 240 17:41 19.03.2020
6236 Clear 6 1013 56 10000 5.07 290 17:19 19.03.2020
6237 Clouds 6 1012 45 10000 1 140 16:44 19.03.2020
6238 Clear 6 1014 48 10000 3.1 290 16:24 19.03.2020
6239 Clear 6 1011 39 10000 3.6 210 15:46 19.03.2020
6240 Clear 6 1013 48 10000 2.6 320 15:28 19.03.2020
6241 Clear 6 1013 48 10000 2.6 290 14:58 19.03.2020
6242 Clear 7 1011 39 10000 2.6 280 14:40 19.03.2020
6243 Clear 7 1010 33 10000 3.1 230 14:19 19.03.2020
6244 Clear 7 1012 42 10000 4.1 320 13:40 19.03.2020
6245 Clear 7 1012 42 10000 4.1 320 13:40 19.03.2020
6246 Clear 7 1009 42 10000 8.83 284 13:19 19.03.2020
6247 Clear 7 1009 42 10000 8.83 284 12:56 19.03.2020
6248 Clear 7 1011 39 10000 4.1 310 12:38 19.03.2020
6249 Clouds 8 1008 45 10000 8.83 284 12:19 19.03.2020
6250 Clouds 7 1009 33 10000 3.6 300 11:42 19.03.2020
6251 Clouds 8 1008 36 10000 5.1 290 11:23 19.03.2020
6252 Clouds 8 1008 36 10000 5.1 290 10:56 19.03.2020
6253 Clouds 8 1008 36 10000 4.1 290 10:36 19.03.2020
6254 Clouds 8 1008 36 10000 4.1 290 10:18 19.03.2020
6255 Clouds 9 1005 39 10000 2.6 250 09:44 19.03.2020
6256 Clouds 9 1004 39 10000 1 290 09:26 19.03.2020
6257 Clouds 9 1006 25 10000 5.7 280 08:57 19.03.2020
6258 Clouds 9 1004 42 10000 3.6 230 08:37 19.03.2020
6259 Clouds 9 1006 46 10000 12.3 270 08:18 19.03.2020
6260 Clouds 9 1005 23 10000 6.2 300 07:42 19.03.2020
6261 Clouds 9 1005 39 10000 1.5 160 07:22 19.03.2020
6262 Clouds 9 1004 49 10000 11.04 273 06:27 19.03.2020
6263 Clouds 9 1004 42 10000 4.6 300 05:25 19.03.2020
6264 Clouds 10 1003 43 10000 3.1 220 04:51 19.03.2020
6265 Clouds 10 1006 45 10000 3.1 310 04:21 19.03.2020
6266 Haze 10 1003 76 2800 3.6 230 01:58 19.03.2020
6267 Haze 11 1002 87 2800 5.7 220 00:53 19.03.2020
6268 Clouds 11 1000 71 10000 2.1 250 00:19 19.03.2020
6269 Haze 11 1001 76 6000 5.7 210 23:43 18.03.2020
6270 Haze 11 1001 76 6000 5.7 210 23:23 18.03.2020
6271 Clouds 10 1002 74 10000 1.5 200 22:43 18.03.2020
6272 Clear 9 1002 81 8000 7.2 210 22:23 18.03.2020
6273 Haze 8 1003 76 4800 4.1 220 21:57 18.03.2020
6274 Haze 8 1003 81 4000 3.6 200 21:39 18.03.2020
6275 Haze 8 1003 81 4000 3.6 200 21:20 18.03.2020
6276 Haze 8 1004 76 4000 2.6 190 20:55 18.03.2020
6277 Clear 8 1004 74 10000 2.98 179 20:37 18.03.2020
6278 Haze 8 1004 76 4800 3.1 190 20:19 18.03.2020
6279 Haze 7 1005 71 6000 1 250 19:41 18.03.2020
6280 Clear 7 1004 66 10000 2.63 144 19:21 18.03.2020
6281 Clear 7 1004 66 10000 2.63 144 19:21 18.03.2020
6282 Clear 7 1004 66 10000 2.63 144 18:57 18.03.2020
6283 Clear 7 1008 64 10000 0.5 30 18:38 18.03.2020
6284 Clear 7 1006 53 10000 2.63 144 18:19 18.03.2020
6285 Clear 7 1007 64 10000 1.5 180 17:55 18.03.2020
6286 Clear 7 1008 74 10000 2.6 190 17:37 18.03.2020
6287 Clear 7 1008 45 10000 1 150 17:18 18.03.2020
6288 Clear 7 1008 64 10000 1.5 200 16:42 18.03.2020
6289 Clear 7 1008 30 10000 1.5 170 16:20 18.03.2020
6290 Clear 7 1008 30 10000 1.5 170 16:20 18.03.2020
6291 Clear 7 1009 56 10000 1.5 160 15:57 18.03.2020
6292 Clear 8 1010 45 10000 0.5 240 15:38 18.03.2020
6293 Clear 8 1010 45 10000 0.5 240 15:19 18.03.2020
6294 Clear 8 1010 39 10000 0.5 350 14:42 18.03.2020
6295 Clear 8 1010 39 10000 0.5 350 14:21 18.03.2020
6296 Clear 8 1010 39 10000 0.5 350 14:21 18.03.2020
6297 Clear 10 1011 39 10000 0.5 150 13:41 18.03.2020
6298 Clear 10 1009 39 10000 2.46 187 13:19 18.03.2020
6299 Clear 10 1010 42 10000 1.5 180 12:54 18.03.2020
6300 Clear 10 1011 39 10000 1 210 12:36 18.03.2020
6301 Clear 11 1009 37 10000 2.46 187 12:18 18.03.2020
6302 Clear 11 1010 42 10000 0.5 170 12:18 18.03.2020
6303 Clear 13 1011 32 10000 2.1 230 11:38 18.03.2020
6304 Clear 14 1010 28 10000 1 160 11:19 18.03.2020
6305 Clear 14 1012 28 10000 3.6 210 10:56 18.03.2020
6306 Clear 15 1012 30 10000 2.6 230 10:37 18.03.2020
6307 Clear 16 1010 30 10000 4.6 220 10:18 18.03.2020
6308 Clear 16 1010 30 10000 4.6 220 10:18 18.03.2020
6309 Clear 16 1010 30 10000 4.6 220 10:18 18.03.2020
6310 Clear 16 1010 21 10000 2.6 170 09:42 18.03.2020
6311 Clear 16 1012 28 10000 3.1 210 09:23 18.03.2020
6312 Clear 16 1012 28 10000 3.6 220 08:55 18.03.2020
6313 Clear 16 1012 28 10000 3.6 220 08:55 18.03.2020
6314 Clear 16 1011 18 10000 3.1 180 08:36 18.03.2020
6315 Clear 16 1013 28 10000 5.1 240 08:18 18.03.2020
6316 Clear 16 1013 26 10000 4.6 230 07:40 18.03.2020
6317 Clear 16 1012 23 10000 3.1 290 07:22 18.03.2020
6318 Clear 16 1012 20 10000 2.6 190 06:42 18.03.2020
6319 Clear 15 1015 26 10000 3.6 220 05:47 18.03.2020
6320 Clear 13 1014 28 10000 2.98 195 05:18 18.03.2020
6321 Haze 9 1017 57 3200 3.1 250 03:21 18.03.2020
6322 Clouds 6 1017 80 10000 1.5 350 02:37 18.03.2020
6323 Clouds 6 1017 80 10000 1.5 350 02:37 18.03.2020
6324 Clouds 6 1017 80 10000 1.5 350 02:37 18.03.2020
6325 Clouds 6 1017 80 10000 1.5 350 02:37 18.03.2020
6326 Mist 4 1018 87 1600 0.5 290 01:45 18.03.2020
6327 Clouds 3 1018 93 10000 1 330 01:20 18.03.2020
6328 Mist 1 1016 93 4000 1.4 144 00:22 18.03.2020
6329 Mist 0 1016 93 3200 1.4 144 23:43 17.03.2020
6330 Clear 0 1017 64 10000 0.5 10 23:22 17.03.2020
6331 Mist 0 1017 100 1600 1 60 22:47 17.03.2020
6332 Mist 0 1017 100 1600 1 60 22:28 17.03.2020
6333 Fog 0 1017 100 0 1.77 188 21:57 17.03.2020
6334 Clouds 0 1016 66 10000 0.5 180 21:36 17.03.2020
6335 Mist 0 1017 92 2000 0.5 110 21:18 17.03.2020
6336 Clear 0 1016 64 10000 0.5 180 20:38 17.03.2020
6337 Fog 0 1015 56 1800 2.6 140 20:19 17.03.2020
6338 Clear 1 1015 58 10000 1 20 19:42 17.03.2020
6339 Clear 1 1016 58 10000 0.5 50 19:22 17.03.2020
6340 Clear 1 1016 58 10000 1 20 18:59 17.03.2020
6341 Mist 1 1017 100 1200 1.42 199 18:40 17.03.2020
6342 Mist 2 1016 93 6000 1.42 199 18:22 17.03.2020
6343 Clear 2 1016 100 10000 0.5 30 17:56 17.03.2020
6344 Mist 2 1017 100 2000 0.5 120 17:38 17.03.2020
6345 Mist 3 1017 100 1600 1 170 17:19 17.03.2020
6346 Clear 3 1016 93 10000 0.5 30 16:42 17.03.2020
6347 Mist 3 1017 93 2400 0.5 140 16:19 17.03.2020
6348 Clouds 4 1016 46 10000 1.6 229 15:47 17.03.2020
6349 Clouds 4 1016 93 10000 0.5 20 15:23 17.03.2020
6350 Clear 5 1016 86 10000 1.6 229 14:47 17.03.2020
6351 Haze 5 1015 75 9000 1.6 229 14:27 17.03.2020
6352 Haze 5 1017 81 4000 2.1 150 13:58 17.03.2020
6353 Clear 5 1015 93 10000 0.5 230 13:40 17.03.2020
6354 Haze 6 1016 81 4800 1.5 150 13:21 17.03.2020
6355 Clear 7 1015 93 10000 1.5 10 12:44 17.03.2020
6356 Haze 7 1014 61 9000 2.78 281 12:24 17.03.2020
6357 Clear 8 1014 81 10000 0.5 10 11:56 17.03.2020
6358 Haze 8 1015 70 6000 1 130 11:37 17.03.2020
6359 Haze 10 1015 66 6000 1.5 200 11:19 17.03.2020
6360 Clouds 10 1013 57 10000 1 330 10:54 17.03.2020
6361 Haze 10 1014 61 8000 2.1 230 10:36 17.03.2020
6362 Clear 10 1012 57 10000 0.5 190 10:18 17.03.2020
6363 Clear 11 1012 61 10000 0.5 20 09:44 17.03.2020
6364 Clear 11 1013 46 10000 3.6 230 09:20 17.03.2020
6365 Haze 11 1013 62 9000 4.1 220 08:51 17.03.2020
6366 Haze 12 1013 58 8000 2.6 220 08:24 17.03.2020
6367 Haze 11 1013 58 8000 4.1 190 07:58 17.03.2020
6368 Haze 11 1013 62 8000 2.6 190 07:39 17.03.2020
6369 Haze 11 1012 62 8000 4.92 255 07:19 17.03.2020
6370 Haze 9 1013 62 8000 4.92 255 06:40 17.03.2020
6371 Clouds 7 1015 70 10000 1 120 05:58 17.03.2020
6372 Haze 6 1015 75 8000 2.1 210 04:40 17.03.2020
6373 Haze 4 1017 81 9000 1.5 180 02:56 17.03.2020
6374 Clouds 4 1017 74 10000 0.5 330 01:49 17.03.2020
6375 Clouds 4 1017 86 6000 3.6 170 01:25 17.03.2020
6376 Clouds 4 1017 74 10000 0.5 120 00:47 17.03.2020
6377 Clouds 4 1017 74 10000 0.5 130 23:50 16.03.2020
6378 Clouds 3 1017 80 10000 3.6 180 23:32 16.03.2020
6379 Clouds 3 1017 74 10000 1.5 170 22:42 16.03.2020
6380 Clouds 3 1017 74 10000 1 170 22:24 16.03.2020
6381 Clouds 3 1018 80 10000 4.6 180 21:58 16.03.2020
6382 Clouds 3 1018 80 10000 3.6 180 21:40 16.03.2020
6383 Clouds 3 1018 80 10000 3.6 180 21:22 16.03.2020
6384 Clouds 3 1018 76 10000 4.1 180 20:56 16.03.2020
6385 Clouds 3 1018 69 10000 2.26 166 20:37 16.03.2020
6386 Clouds 3 1018 72 10000 3.6 170 20:19 16.03.2020
6387 Clouds 3 1019 69 10000 0.5 170 19:41 16.03.2020
6388 Clouds 3 1019 69 10000 0.5 160 19:20 16.03.2020
6389 Clouds 2 1020 74 10000 2.1 180 18:43 16.03.2020
6390 Clouds 2 1019 69 10000 0.5 160 18:22 16.03.2020
6391 Clouds 1 1019 69 10000 0.5 170 17:56 16.03.2020
6392 Clouds 1 1019 69 10000 0.5 170 17:56 16.03.2020
6393 Clouds 2 1021 74 10000 2.1 180 17:37 16.03.2020
6394 Clouds 2 1019 69 10000 0.5 180 17:18 16.03.2020
6395 Clouds 2 1020 64 10000 0.5 170 16:44 16.03.2020
6396 Clouds 2 1021 74 10000 2.1 170 16:24 16.03.2020
6397 Clouds 2 1022 80 10000 2.1 170 15:44 16.03.2020
6398 Clouds 2 1022 80 10000 1 190 15:26 16.03.2020
6399 Clouds 2 1022 62 10000 1 170 14:49 16.03.2020
6400 Clouds 2 1022 80 10000 0.5 180 14:27 16.03.2020
6401 Clear 3 1022 74 10000 1.5 200 13:57 16.03.2020
6402 Clear 3 1021 48 10000 1 200 13:39 16.03.2020
6403 Clear 3 1023 74 10000 2.1 230 13:20 16.03.2020
6404 Clear 4 1022 74 10000 2.1 200 12:44 16.03.2020
6405 Clear 4 1020 38 10000 0.5 180 12:23 16.03.2020
6406 Clear 4 1021 35 10000 0.5 270 11:46 16.03.2020
6407 Clear 5 1021 26 10000 2.1 200 11:27 16.03.2020
6408 Clear 5 1023 59 10000 2.1 220 10:55 16.03.2020
6409 Clear 6 1023 48 10000 3.1 220 10:37 16.03.2020
6410 Clear 6 1023 48 10000 3.1 220 10:18 16.03.2020
6411 Clear 7 1022 33 10000 4.1 220 09:40 16.03.2020
6412 Clear 7 1022 33 10000 4.1 220 09:20 16.03.2020
6413 Clear 8 1020 18 10000 2.1 190 08:47 16.03.2020
6414 Clear 8 1022 30 10000 3.1 240 08:24 16.03.2020
6415 Clear 9 1020 18 10000 2.6 240 07:45 16.03.2020
6416 Clear 9 1020 19 10000 3.1 270 07:21 16.03.2020
6417 Clear 9 1020 19 10000 1 270 06:46 16.03.2020
6418 Clear 8 1021 23 10000 3.6 220 06:23 16.03.2020
6419 Clear 7 1024 26 10000 3.6 210 04:53 16.03.2020
6420 Clear 2 1026 47 10000 1.5 60 01:49 16.03.2020
6421 Clear 0 1025 34 10000 1 50 00:48 16.03.2020
6422 Clear -1 1025 58 10000 1 10 00:28 16.03.2020
6423 Clear -3 1025 79 10000 1 60 23:41 15.03.2020
6424 Clear -3 1023 79 10000 0.93 312 23:19 15.03.2020
6425 Clear -4 1023 85 10000 0.5 180 22:42 15.03.2020
6426 Clear -3 1025 79 10000 0.5 200 22:22 15.03.2020
6427 Clear -2 1022 79 10000 0.5 170 21:39 15.03.2020
6428 Clear -2 1024 68 10000 2.1 60 21:21 15.03.2020
6429 Clear -2 1024 79 10000 1 110 20:58 15.03.2020
6430 Clear -2 1022 79 10000 0.5 200 20:40 15.03.2020
6431 Clear -2 1022 63 10000 2.6 300 20:19 15.03.2020
6432 Clear -2 1023 68 10000 1 20 19:55 15.03.2020
6433 Clear -2 1021 74 10000 0.5 150 19:37 15.03.2020
6434 Clear -1 1023 63 10000 1.5 40 19:18 15.03.2020
6435 Clear -1 1020 74 10000 1 180 18:42 15.03.2020
6436 Clear -1 1022 73 10000 1 130 18:24 15.03.2020
6437 Clear -1 1021 73 10000 0.5 100 17:59 15.03.2020
6438 Clear -1 1019 74 10000 0.5 170 17:39 15.03.2020
6439 Clear 0 1019 74 10000 0.5 160 17:20 15.03.2020
6440 Clear 0 1018 37 10000 0.5 200 16:55 15.03.2020
6441 Clear 0 1018 37 10000 0.5 200 16:36 15.03.2020
6442 Clear 1 1020 63 10000 0.5 140 16:18 15.03.2020
6443 Clear 1 1019 63 10000 1.5 170 15:41 15.03.2020
6444 Clear 1 1019 37 10000 1.5 10 15:20 15.03.2020
6445 Clear 1 1018 37 10000 1.5 10 14:47 15.03.2020
6446 Clear 2 1015 55 10000 1.5 360 14:26 15.03.2020
6447 Clear 2 1017 33 10000 1.5 30 13:59 15.03.2020
6448 Clear 2 1017 33 10000 1.5 30 13:59 15.03.2020
6449 Clouds 2 1014 51 10000 3.6 350 13:39 15.03.2020
6450 Clear 2 1017 50 10000 3.6 360 13:20 15.03.2020
6451 Clouds 2 1013 44 10000 1.5 330 12:44 15.03.2020
6452 Clouds 3 1013 40 10000 1.5 20 12:26 15.03.2020
6453 Clear 3 1015 47 10000 2.1 340 11:57 15.03.2020
6454 Clear 3 1014 43 10000 2.6 330 11:39 15.03.2020
6455 Clouds 4 1011 35 10000 3.1 360 11:20 15.03.2020
6456 Clouds 4 1014 40 10000 2.6 330 10:55 15.03.2020
6457 Clouds 4 1010 30 10000 2.1 310 10:36 15.03.2020
6458 Clouds 4 1011 35 10000 10.3 310 10:18 15.03.2020
6459 Clouds 5 1009 26 10000 2.1 320 09:39 15.03.2020
6460 -273 0 0 0 0 0 09:21 15.03.2020
6461 Clouds 7 1011 26 10000 6.7 290 08:42 15.03.2020
6462 Clouds 7 1011 26 10000 6.7 290 08:20 15.03.2020
6463 Clouds 7 1011 32 10000 5.7 300 07:51 15.03.2020
6464 Clouds 8 1011 28 10000 5.1 310 07:29 15.03.2020
6465 Clear 8 1010 26 10000 5.1 320 06:49 15.03.2020
6466 Clouds 9 1007 19 10000 2.6 260 05:50 15.03.2020
6467 Clouds 9 1008 21 10000 3.6 230 05:18 15.03.2020
6468 Clouds 8 1008 23 10000 3.1 210 04:41 15.03.2020
6469 Clouds 8 1008 23 10000 3.1 210 04:41 15.03.2020
6470 Clouds 8 1011 24 10000 5.7 320 04:23 15.03.2020
6471 Clouds 8 1010 29 10000 7.2 330 03:30 15.03.2020
6472 Clear 7 1010 33 10000 1 20 02:37 15.03.2020
6473 Clouds 5 1011 56 10000 5.1 330 01:20 15.03.2020
6474 Clouds 3 1011 51 10000 1 300 00:42 15.03.2020
6475 Clouds 2 1011 80 10000 0.5 250 00:21 15.03.2020
6476 Mist 2 1012 51 1200 0.5 330 23:41 14.03.2020
6477 Clear 2 1010 75 10000 4.6 270 23:21 14.03.2020
6478 Mist 1 1011 86 4000 0.5 140 22:57 14.03.2020
6479 Mist 1 1012 56 1200 0.5 110 22:38 14.03.2020
6480 Mist 1 1012 56 1200 0.5 110 22:20 14.03.2020
6481 Mist 0 1011 56 4800 1 220 21:56 14.03.2020
6482 Clouds 0 1011 92 10000 0.5 160 21:36 14.03.2020
6483 Mist 0 1012 86 4000 0.5 170 21:18 14.03.2020
6484 Mist 0 1012 86 4000 0.5 170 21:18 14.03.2020
6485 Mist 1 1012 56 1600 1.5 130 20:58 14.03.2020
6486 Mist 1 1012 100 1200 1 160 20:39 14.03.2020
6487 Mist 1 1012 100 1200 1 160 20:18 14.03.2020
6488 Clear 1 1011 56 10000 0.5 130 19:42 14.03.2020
6489 Mist 1 1013 56 2800 1 150 19:24 14.03.2020
6490 Mist 1 1013 56 4000 1 150 18:41 14.03.2020
6491 Clear 2 1011 86 10000 0.5 150 18:21 14.03.2020
6492 Clear 2 1013 86 4800 0.5 180 17:44 14.03.2020
6493 Clear 3 1012 80 10000 1 170 17:24 14.03.2020
6494 Haze 3 1013 80 6000 1 140 17:00 14.03.2020
6495 Clear 4 1012 51 10000 3.44 272 16:40 14.03.2020
6496 Haze 4 1013 74 6000 0.5 220 16:21 14.03.2020
6497 -273 0 0 0 0 0 16:21 14.03.2020
6498 Haze 4 1013 80 4800 0.5 210 15:51 14.03.2020
6499 Haze 5 1014 51 4800 0.5 250 15:25 14.03.2020
6500 Haze 5 1013 51 6000 1 240 14:45 14.03.2020
6501 Haze 5 1013 54 4800 1.5 220 14:23 14.03.2020
6502 Mist 5 1014 86 4000 0.5 130 13:57 14.03.2020
6503 Haze 6 1012 80 5000 4.1 250 13:39 14.03.2020
6504 Haze 6 1012 80 5000 4.1 250 13:20 14.03.2020
6505 Clouds 6 1012 70 9000 5.7 250 12:44 14.03.2020
6506 Clouds 6 1012 70 9000 5.7 250 12:26 14.03.2020
6507 Clouds 7 1012 58 10000 5.7 260 11:47 14.03.2020
6508 Clouds 7 1012 58 10000 5.7 260 11:27 14.03.2020
6509 Clear 7 1012 65 10000 6.7 250 10:59 14.03.2020
6510 Clouds 7 1012 44 10000 6.2 260 10:40 14.03.2020
6511 Clouds 8 1012 44 10000 6.2 260 10:22 14.03.2020
6512 Clouds 8 1012 61 10000 7.2 250 09:43 14.03.2020
6513 Clouds 8 1012 44 10000 5.7 250 09:24 14.03.2020
6514 Clear 10 1013 57 10000 8.7 250 08:47 14.03.2020
6515 Clouds 9 1013 44 10000 6.7 230 08:28 14.03.2020
6516 Clouds 8 1013 37 10000 9.8 240 07:51 14.03.2020
6517 Clouds 8 1013 49 10000 7.2 220 07:23 14.03.2020
6518 Clear 8 1013 31 10000 3.1 200 06:59 14.03.2020
6519 Clouds 9 1015 45 10000 4.1 220 06:39 14.03.2020
6520 Clear 8 1015 28 10000 2.6 240 05:19 14.03.2020
6521 Clear 6 1017 26 10000 1 160 03:42 14.03.2020
6522 Clear 6 1019 38 10000 3.1 240 03:23 14.03.2020
6523 Clear 4 1020 41 10000 1.5 240 02:20 14.03.2020
6524 Clear -1 1020 58 10000 0.5 150 00:42 14.03.2020
6525 Clear -4 1019 68 10000 0.5 180 23:45 13.03.2020
6526 Clear -4 1020 79 10000 0.5 140 23:26 13.03.2020
6527 Haze -4 1020 68 8000 2.89 302 22:47 13.03.2020
6528 Clear -4 1020 73 10000 1 90 22:25 13.03.2020
6529 Clear -3 1019 58 10000 1 180 21:43 13.03.2020
6530 Clear -3 1020 79 10000 0.5 140 21:21 13.03.2020
6531 Clear -3 1020 79 10000 0.5 230 20:57 13.03.2020
6532 Clear -3 1019 63 10000 1 180 20:38 13.03.2020
6533 Clear -3 1021 79 10000 0.5 40 20:19 13.03.2020
6534 Clear -3 1019 63 10000 2.1 170 19:45 13.03.2020
6535 Clear -3 1021 68 10000 1.5 130 19:27 13.03.2020
6536 Clear -2 1020 50 10000 0.5 190 18:47 13.03.2020
6537 Clear -2 1022 62 10000 0.5 320 18:28 13.03.2020
6538 Clear -1 1020 40 10000 1 310 17:57 13.03.2020
6539 Clear -1 1022 73 10000 0.5 150 17:37 13.03.2020
6540 Clear -1 1020 37 10000 1.5 200 17:18 13.03.2020
6541 Clear 0 1020 34 10000 2.1 270 16:41 13.03.2020
6542 Clear 0 1023 63 10000 0.5 210 16:23 13.03.2020
6543 Clear 0 1023 54 10000 0.5 70 15:55 13.03.2020
6544 Clear 1 1020 31 10000 2.1 340 15:37 13.03.2020
6545 Clear 1 1020 31 10000 1.5 320 15:18 13.03.2020
6546 Clear 2 1022 50 10000 6.2 340 14:41 13.03.2020
6547 Clouds 2 1022 47 10000 4.6 320 14:22 13.03.2020
6548 Clouds 2 1022 43 10000 7.2 340 13:55 13.03.2020
6549 Clouds 2 1022 43 10000 7.2 340 13:55 13.03.2020
6550 Clouds 2 1021 47 10000 5.1 310 13:37 13.03.2020
6551 Clouds 2 1021 47 10000 5.1 310 13:18 13.03.2020
6552 Clear 3 1020 21 10000 1 60 12:39 13.03.2020
6553 Clear 4 1022 40 10000 1 310 12:21 13.03.2020
6554 Clear 4 1020 21 10000 1 320 11:57 13.03.2020
6555 Clouds 5 1021 35 10000 4.6 310 11:37 13.03.2020
6556 Clear 5 1019 19 10000 1.5 250 11:19 13.03.2020
6557 Clear 6 1020 13 10000 1.5 270 10:47 13.03.2020
6558 Clouds 6 1021 27 10000 5.1 310 10:26 13.03.2020
6559 Clear 6 1019 13 10000 1.5 250 09:56 13.03.2020
6560 Clear 6 1019 13 10000 1.5 250 09:38 13.03.2020
6561 Clear 6 1019 16 10000 1 290 09:19 13.03.2020
6562 Clear 6 1019 16 10000 1 290 09:19 13.03.2020
6563 Clouds 7 1019 16 10000 2.1 310 08:41 13.03.2020
6564 Clouds 8 1022 22 10000 2.6 300 08:22 13.03.2020
6565 Clouds 8 1022 27 10000 6.7 320 07:45 13.03.2020
6566 Clouds 8 1021 22 10000 5.7 330 07:27 13.03.2020
6567 Clouds 8 1022 28 10000 7.2 330 06:46 13.03.2020
6568 Clouds 8 1021 22 10000 5.7 330 06:23 13.03.2020
6569 Clear 8 1020 15 10000 2.6 250 05:46 13.03.2020
6570 Clouds 8 1024 24 10000 3.6 330 04:57 13.03.2020
6571 Clouds 8 1025 24 10000 2.6 270 04:26 13.03.2020
6572 Clouds 6 1025 27 10000 3.1 270 02:58 13.03.2020
6573 Clear 5 1023 38 10000 2.1 270 01:39 13.03.2020
6574 Clear 5 1023 38 10000 1 350 01:18 13.03.2020
6575 Clouds 4 1023 48 10000 2.1 280 00:42 13.03.2020
6576 Clouds 4 1023 52 10000 1.5 330 00:19 13.03.2020
6577 Clouds 4 1025 51 10000 1 330 23:40 12.03.2020
6578 Clouds 5 1022 60 10000 2.1 340 23:22 12.03.2020
6579 Clouds 5 1022 61 10000 1 340 22:47 12.03.2020
6580 Clouds 5 1024 60 10000 2.1 310 22:28 12.03.2020
6581 Clouds 5 1024 60 10000 0.5 270 21:57 12.03.2020
6582 Clouds 5 1021 75 10000 0.5 30 21:39 12.03.2020
6583 Clouds 5 1024 52 10000 0.5 350 21:20 12.03.2020
6584 Clouds 6 1021 75 10000 0.5 350 20:42 12.03.2020
6585 Clouds 5 1023 60 10000 1.5 10 20:20 12.03.2020
6586 Clouds 5 1023 56 10000 2.6 10 19:56 12.03.2020
6587 Clouds 6 1023 65 10000 2.1 10 19:37 12.03.2020
6588 Clouds 6 1021 87 10000 1 160 19:18 12.03.2020
6589 Clouds 7 1021 70 10000 0.5 140 18:42 12.03.2020
6590 Rain 6 1021 100 4000 4.1 280 18:22 12.03.2020
6591 Rain 7 1021 100 4000 4.1 280 17:56 12.03.2020
6592 Clouds 6 1023 93 10000 1.5 300 17:37 12.03.2020
6593 Clouds 6 1021 56 10000 1 180 17:18 12.03.2020
6594 Clouds 6 1021 52 10000 1 170 16:41 12.03.2020
6595 Rain 6 1022 93 2000 1.5 230 16:22 12.03.2020
6596 Clouds 7 1021 56 10000 1 180 15:49 12.03.2020
6597 Clouds 7 1022 81 10000 2.6 200 15:28 12.03.2020
6598 Haze 7 1022 75 9000 3.1 210 14:56 12.03.2020
6599 Haze 7 1022 75 9000 3.1 210 14:56 12.03.2020
6600 Clouds 7 1022 75 10000 2.6 200 14:37 12.03.2020
6601 Clouds 7 1022 75 10000 2.6 200 14:18 12.03.2020
6602 Clouds 8 1022 70 10000 2.6 200 13:40 12.03.2020
6603 Clear 7 1021 41 10000 1 170 13:21 12.03.2020
6604 Clouds 8 1022 70 10000 2.6 210 12:55 12.03.2020
6605 Clouds 8 1022 70 10000 2.6 190 12:37 12.03.2020
6606 Clouds 8 1022 70 10000 2.6 190 12:37 12.03.2020
6607 Clear 9 1021 33 10000 1 150 12:18 12.03.2020
6608 Clear 9 1021 27 10000 1 210 11:55 12.03.2020
6609 Clouds 9 1022 65 10000 3.1 200 11:36 12.03.2020
6610 Clear 10 1020 25 10000 1 240 11:18 12.03.2020
6611 Clear 10 1020 25 10000 2.6 280 10:41 12.03.2020
6612 Clouds 10 1021 61 10000 3.1 210 10:23 12.03.2020
6613 Clouds 11 1021 33 10000 2.6 240 09:49 12.03.2020
6614 Clouds 11 1021 49 10000 3.6 220 09:29 12.03.2020
6615 Clouds 12 1021 39 10000 5.1 220 08:55 12.03.2020
6616 Clouds 12 1018 24 10000 1.5 180 08:37 12.03.2020
6617 Clouds 12 1021 27 10000 5.7 240 08:18 12.03.2020
6618 Clouds 13 1020 27 10000 4.6 240 07:47 12.03.2020
6619 Clouds 13 1018 24 10000 3.6 180 07:21 12.03.2020
6620 Clouds 11 1019 24 10000 2.1 200 06:18 12.03.2020
6621 Clouds 11 1021 31 10000 4.1 230 05:33 12.03.2020
6622 Clouds 6 1024 56 10000 2.1 230 02:54 12.03.2020
6623 Clear 3 1023 69 10000 1 10 01:43 12.03.2020
6624 Clear 2 1023 74 10000 0.5 30 01:21 12.03.2020
6625 Clear 1 1023 48 10000 0.5 30 00:41 12.03.2020
6626 Clear -2 1023 92 10000 1.53 136 23:56 11.03.2020
6627 Clear -2 1023 92 10000 0.5 180 23:27 11.03.2020
6628 Clear -2 1023 100 6000 1 30 22:55 11.03.2020
6629 Clear -2 1024 100 6000 0.5 100 22:37 11.03.2020
6630 Clear -2 1024 100 6000 0.5 100 22:18 11.03.2020
6631 Clear -2 1023 100 6000 0.5 40 21:56 11.03.2020
6632 Clear -2 1023 86 10000 1.49 115 21:36 11.03.2020
6633 Clear -2 1023 92 10000 0.5 110 21:18 11.03.2020
6634 Clear -2 1023 92 10000 0.5 90 20:55 11.03.2020
6635 Clear -2 1023 92 10000 1.49 115 20:36 11.03.2020
6636 Clear -2 1023 92 10000 1.84 160 20:18 11.03.2020
6637 Clear -1 1023 86 10000 0.5 200 19:41 11.03.2020
6638 Clear -1 1023 86 10000 0.5 110 19:22 11.03.2020
6639 Clear -1 1023 86 10000 1 170 18:56 11.03.2020
6640 Clear -1 1024 61 10000 1.84 160 18:36 11.03.2020
6641 Clear -1 1023 86 10000 1 190 18:18 11.03.2020
6642 Clear -1 1024 61 10000 1.5 150 17:40 11.03.2020
6643 Clear -1 1023 80 10000 1 160 17:21 11.03.2020
6644 Clear 0 1023 74 10000 1.5 140 16:55 11.03.2020
6645 Clear 1 1022 69 10000 1 190 16:37 11.03.2020
6646 Clear 1 1022 69 10000 1 190 16:19 11.03.2020
6647 Clear 2 1022 69 10000 0.5 220 15:42 11.03.2020
6648 Clear 2 1022 69 10000 0.5 220 15:22 11.03.2020
6649 Clear 3 1021 60 10000 4.6 250 14:44 11.03.2020
6650 Clear 4 1021 64 10000 0.5 160 14:23 11.03.2020
6651 Clear 4 1021 64 10000 0.5 160 14:23 11.03.2020
6652 Clear 4 1021 60 10000 3.6 250 13:58 11.03.2020
6653 Clear 4 1020 60 10000 2.1 220 13:39 11.03.2020
6654 Clear 4 1020 60 10000 2.1 220 13:21 11.03.2020
6655 Clear 4 1020 60 10000 2.6 240 12:41 11.03.2020
6656 Clear 4 1020 60 10000 2.6 240 12:21 11.03.2020
6657 Clear 5 1020 52 10000 5.1 270 11:57 11.03.2020
6658 Clear 5 1020 52 10000 5.1 270 11:57 11.03.2020
6659 Clear 5 1020 52 10000 3.6 250 11:38 11.03.2020
6660 Clear 5 1020 52 10000 3.6 250 11:19 11.03.2020
6661 Clear 6 1019 38 10000 2.1 250 10:43 11.03.2020
6662 Clear 6 1020 45 10000 3.1 220 10:19 11.03.2020
6663 Clear 7 1018 33 10000 3.1 200 09:43 11.03.2020
6664 Clear 7 1020 39 10000 3.1 230 09:25 11.03.2020
6665 Clear 8 1019 33 10000 3.6 240 08:58 11.03.2020
6666 Clear 8 1018 24 10000 2.6 330 08:40 11.03.2020
6667 Clear 8 1019 24 10000 3.1 280 08:19 11.03.2020
6668 Clear 8 1019 33 10000 3.1 220 07:43 11.03.2020
6669 Clear 7 1019 28 10000 2.6 290 07:19 11.03.2020
6670 Clear 7 1017 26 10000 2.6 250 06:44 11.03.2020
6671 Clear 6 1019 28 10000 2.6 290 05:36 11.03.2020
6672 Clear 6 1020 35 10000 2.6 270 04:31 11.03.2020
6673 Clear 4 1020 37 10000 2.6 320 02:24 11.03.2020
6674 Clear 3 1020 40 10000 2.1 270 01:27 11.03.2020
6675 Clear 2 1017 40 10000 0.5 270 00:46 11.03.2020
6676 Clear 1 1019 50 10000 0.5 250 23:58 10.03.2020
6677 Clear 0 1018 58 10000 1 260 23:40 10.03.2020
6678 Clear 0 1016 47 10000 1 340 23:21 10.03.2020
6679 Clear 0 1015 50 10000 2.1 280 22:39 10.03.2020
6680 Clear 1 1017 39 10000 1.5 230 22:20 10.03.2020
6681 Clear 1